﻿_id	data_ora	id_station	denominazione	temperatura	cod_validazione_temperatura	umidita	cod_validazione_umidita_rel	precipitazione	cod_validazione_precipitazione	velocita_vento	cod_validazione_velocita_vento	direzione_vento	cod_validazione_direzione_vento	rad_solare_globale	cod_validazione_rad_solare_globale	pressione_atmosferica	cod_validazione_pressione_atmosferica	Latitude	Longitude
1	2024-01-01 00:00:00	8	casamassima	9.26	1	90.87	1	0.0	1	null	6	null	6	0.0	1	989.9	1	40.951419	16.919863
2	2024-01-01 01:00:00	8	casamassima	8.98	1	91.41	1	0.0	1	null	6	null	6	0.0	1	989.48	1	40.951419	16.919863
3	2024-01-01 02:00:00	8	casamassima	8.79	1	91.26	1	0.0	1	null	6	null	6	0.0	1	989.04	1	40.951419	16.919863
4	2024-01-01 03:00:00	8	casamassima	8.89	1	91.42	1	0.2	1	null	6	null	6	0.0	1	988.79	1	40.951419	16.919863
5	2024-01-01 04:00:00	8	casamassima	8.9	1	91.04	1	0.0	1	null	6	null	6	0.0	1	988.54	1	40.951419	16.919863
6	2024-01-01 05:00:00	8	casamassima	9.14	1	91.05	1	0.0	1	null	6	null	6	0.0	1	988.19	1	40.951419	16.919863
7	2024-01-01 06:00:00	8	casamassima	9.38	1	90.14	1	0.0	1	null	6	null	6	0.0	1	987.87	1	40.951419	16.919863
8	2024-01-01 07:00:00	8	casamassima	8.76	1	90.97	1	0.0	1	null	6	null	6	0.0	1	987.96	1	40.951419	16.919863
9	2024-01-01 08:00:00	8	casamassima	8.79	1	90.41	1	0.0	1	null	6	null	6	12.08	1	987.7	1	40.951419	16.919863
10	2024-01-01 09:00:00	8	casamassima	9.6	1	87.36	1	0.0	1	null	6	null	6	68.05	1	987.88	1	40.951419	16.919863
11	2024-01-01 10:00:00	8	casamassima	10.88	1	83.07	1	0.0	1	null	6	null	6	135.46	1	988.12	1	40.951419	16.919863
12	2024-01-01 11:00:00	8	casamassima	13.04	1	74.57	1	0.0	1	null	6	null	6	216.04	1	988.11	1	40.951419	16.919863
13	2024-01-01 12:00:00	8	casamassima	14.49	1	67.37	1	0.0	1	null	6	null	6	181.2	1	987.65	1	40.951419	16.919863
14	2024-01-01 13:00:00	8	casamassima	15.54	1	61.57	1	0.0	1	null	6	null	6	123.77	1	987.07	1	40.951419	16.919863
15	2024-01-01 14:00:00	8	casamassima	16.72	1	52.15	1	0.0	1	null	6	null	6	243.44	1	986.35	1	40.951419	16.919863
16	2024-01-01 15:00:00	8	casamassima	17.26	1	45.01	1	0.0	1	null	6	null	6	194.57	1	986.49	1	40.951419	16.919863
17	2024-01-01 16:00:00	8	casamassima	15.02	1	54.09	1	0.0	1	null	6	null	6	40.01	1	986.62	1	40.951419	16.919863
18	2024-01-01 17:00:00	8	casamassima	12.99	1	70.99	1	0.0	1	null	6	null	6	0.0	5	986.94	1	40.951419	16.919863
19	2024-01-01 18:00:00	8	casamassima	11.86	1	77.83	1	0.0	1	null	6	null	6	0.0	1	987.17	1	40.951419	16.919863
20	2024-01-01 19:00:00	8	casamassima	11.11	1	80.72	1	0.0	1	null	6	null	6	0.0	1	987.45	1	40.951419	16.919863
21	2024-01-01 20:00:00	8	casamassima	11.13	1	78.17	1	0.0	1	null	6	null	6	0.0	1	987.79	1	40.951419	16.919863
22	2024-01-01 21:00:00	8	casamassima	11.18	1	76.39	1	0.0	1	null	6	null	6	0.0	1	987.79	1	40.951419	16.919863
23	2024-01-01 22:00:00	8	casamassima	10.58	1	80.69	1	0.0	1	null	6	null	6	0.0	1	987.6	1	40.951419	16.919863
24	2024-01-01 23:00:00	8	casamassima	10.27	1	82.82	1	0.0	1	null	6	null	6	0.0	1	987.61	1	40.951419	16.919863
25	2024-01-02 00:00:00	8	casamassima	10.73	1	79.91	1	0.0	1	null	6	null	6	0.0	1	987.63	1	40.951419	16.919863
26	2024-01-02 01:00:00	8	casamassima	11.2	1	77.95	1	0.0	1	null	6	null	6	0.0	1	987.41	1	40.951419	16.919863
27	2024-01-02 02:00:00	8	casamassima	10.73	1	79.9	1	0.0	1	null	6	null	6	0.0	1	987.35	1	40.951419	16.919863
28	2024-01-02 03:00:00	8	casamassima	10.4	1	79.69	1	0.0	1	null	6	null	6	0.0	1	987.7	1	40.951419	16.919863
29	2024-01-02 04:00:00	8	casamassima	10.01	1	80.77	1	0.0	1	null	6	null	6	0.0	1	987.63	1	40.951419	16.919863
30	2024-01-02 05:00:00	8	casamassima	8.46	1	82.73	1	0.0	1	null	6	null	6	0.0	1	987.88	1	40.951419	16.919863
31	2024-01-02 06:00:00	8	casamassima	8.43	1	74.72	1	0.0	1	null	6	null	6	0.0	1	988.1	1	40.951419	16.919863
32	2024-01-02 07:00:00	8	casamassima	7.91	1	77.3	1	0.0	1	null	6	null	6	0.0	1	988.81	1	40.951419	16.919863
33	2024-01-02 08:00:00	8	casamassima	7.69	1	77.65	1	0.0	1	null	6	null	6	17.19	1	989.28	1	40.951419	16.919863
34	2024-01-02 09:00:00	8	casamassima	10.94	1	66.28	1	0.0	1	null	6	null	6	122.39	1	989.72	1	40.951419	16.919863
35	2024-01-02 10:00:00	8	casamassima	12.9	1	59.58	1	0.0	1	null	6	null	6	217.46	1	990.28	1	40.951419	16.919863
36	2024-01-02 11:00:00	8	casamassima	13.66	1	55.84	1	0.0	1	null	6	null	6	349.13	1	990.26	1	40.951419	16.919863
37	2024-01-02 12:00:00	8	casamassima	14.19	1	53.43	1	0.2	1	null	6	null	6	106.82	1	989.88	1	40.951419	16.919863
38	2024-01-02 13:00:00	8	casamassima	13.98	1	51.79	1	0.0	1	null	6	null	6	80.75	1	989.42	1	40.951419	16.919863
39	2024-01-02 14:00:00	8	casamassima	14.06	1	52.23	1	0.0	1	null	6	null	6	172.05	1	989.03	1	40.951419	16.919863
40	2024-01-02 15:00:00	8	casamassima	14.18	1	55.27	1	0.0	1	null	6	null	6	234.03	1	989.1	1	40.951419	16.919863
41	2024-01-02 16:00:00	8	casamassima	13.59	1	57.73	1	0.0	1	null	6	null	6	95.78	1	989.2	1	40.951419	16.919863
42	2024-01-02 17:00:00	8	casamassima	11.63	1	66.67	1	0.0	1	null	6	null	6	0.0	5	989.44	1	40.951419	16.919863
43	2024-01-02 18:00:00	8	casamassima	9.99	1	72.93	1	0.0	1	null	6	null	6	0.0	1	989.52	1	40.951419	16.919863
44	2024-01-02 19:00:00	8	casamassima	9.21	1	69.58	1	0.0	1	null	6	null	6	0.0	1	989.76	1	40.951419	16.919863
45	2024-01-02 20:00:00	8	casamassima	7.76	1	73.66	1	0.0	1	null	6	null	6	0.0	1	990.16	1	40.951419	16.919863
46	2024-01-02 21:00:00	8	casamassima	7.56	1	75.29	1	0.0	1	null	6	null	6	0.0	1	990.17	1	40.951419	16.919863
47	2024-01-02 22:00:00	8	casamassima	7.4	1	80.8	1	0.0	1	null	6	null	6	0.0	1	989.82	1	40.951419	16.919863
48	2024-01-02 23:00:00	8	casamassima	6.97	1	84.01	1	0.0	1	null	6	null	6	0.0	1	989.59	1	40.951419	16.919863
49	2024-01-03 00:00:00	8	casamassima	6.99	1	83.28	1	0.0	1	null	6	null	6	0.0	1	988.99	1	40.951419	16.919863
50	2024-01-03 01:00:00	8	casamassima	6.94	1	80.65	1	0.0	1	null	6	null	6	0.0	1	988.44	1	40.951419	16.919863
51	2024-01-03 02:00:00	8	casamassima	6.92	1	78.52	1	0.0	1	null	6	null	6	0.0	1	988.35	1	40.951419	16.919863
52	2024-01-03 03:00:00	8	casamassima	6.31	1	81.0	1	0.0	1	null	6	null	6	0.0	1	988.68	1	40.951419	16.919863
53	2024-01-03 04:00:00	8	casamassima	6.51	1	79.1	1	0.0	1	null	6	null	6	0.0	1	987.99	1	40.951419	16.919863
54	2024-01-03 05:00:00	8	casamassima	7.54	1	75.36	1	0.0	1	null	6	null	6	0.0	1	987.06	1	40.951419	16.919863
55	2024-01-03 06:00:00	8	casamassima	8.33	1	74.59	1	0.0	1	null	6	null	6	0.0	1	986.88	1	40.951419	16.919863
56	2024-01-03 07:00:00	8	casamassima	8.82	1	72.05	1	0.0	1	null	6	null	6	0.0	1	986.71	1	40.951419	16.919863
57	2024-01-03 08:00:00	8	casamassima	9.3	1	68.61	1	0.0	1	null	6	null	6	6.52	1	986.46	1	40.951419	16.919863
58	2024-01-03 09:00:00	8	casamassima	9.91	1	66.35	1	0.0	1	null	6	null	6	37.23	1	986.46	1	40.951419	16.919863
59	2024-01-03 10:00:00	8	casamassima	10.96	1	63.46	1	0.0	1	null	6	null	6	91.53	1	986.32	1	40.951419	16.919863
60	2024-01-03 11:00:00	8	casamassima	12.04	1	61.61	1	0.0	1	null	6	null	6	156.07	1	986.44	1	40.951419	16.919863
61	2024-01-03 12:00:00	8	casamassima	14.02	1	54.32	1	0.0	1	null	6	null	6	162.45	1	985.61	1	40.951419	16.919863
62	2024-01-03 13:00:00	8	casamassima	15.9	1	46.2	1	0.0	1	null	6	null	6	165.35	1	984.97	1	40.951419	16.919863
63	2024-01-03 14:00:00	8	casamassima	16.83	1	44.34	1	0.0	1	null	6	null	6	219.6	1	984.54	1	40.951419	16.919863
64	2024-01-03 15:00:00	8	casamassima	16.54	1	45.53	1	0.0	1	null	6	null	6	133.46	1	984.48	1	40.951419	16.919863
65	2024-01-03 16:00:00	8	casamassima	16.03	1	46.7	1	0.0	1	null	6	null	6	84.5	1	984.51	1	40.951419	16.919863
66	2024-01-03 17:00:00	8	casamassima	13.46	1	54.84	1	0.0	1	null	6	null	6	0.0	5	984.56	1	40.951419	16.919863
67	2024-01-03 18:00:00	8	casamassima	11.67	1	61.32	1	0.0	1	null	6	null	6	0.0	1	984.69	1	40.951419	16.919863
68	2024-01-03 19:00:00	8	casamassima	10.46	1	64.64	1	0.0	1	null	6	null	6	0.0	1	985.05	1	40.951419	16.919863
69	2024-01-03 20:00:00	8	casamassima	9.79	1	67.25	1	0.0	1	null	6	null	6	0.0	1	985.17	1	40.951419	16.919863
70	2024-01-03 21:00:00	8	casamassima	9.08	1	72.14	1	0.0	1	null	6	null	6	0.0	1	984.99	1	40.951419	16.919863
71	2024-01-03 22:00:00	8	casamassima	8.65	1	76.23	1	0.0	1	null	6	null	6	0.0	1	984.7	1	40.951419	16.919863
72	2024-01-03 23:00:00	8	casamassima	9.19	1	75.53	1	0.0	1	null	6	null	6	0.0	1	984.5	1	40.951419	16.919863
73	2024-01-04 00:00:00	8	casamassima	9.77	1	73.68	1	0.0	1	null	6	null	6	0.0	1	983.9	1	40.951419	16.919863
74	2024-01-04 01:00:00	8	casamassima	10.12	1	72.23	1	0.0	1	null	6	null	6	0.0	1	983.54	1	40.951419	16.919863
75	2024-01-04 02:00:00	8	casamassima	10.17	1	72.08	1	0.0	1	null	6	null	6	0.0	1	983.52	1	40.951419	16.919863
76	2024-01-04 03:00:00	8	casamassima	9.91	1	74.69	1	0.0	1	null	6	null	6	0.0	1	983.69	1	40.951419	16.919863
77	2024-01-04 04:00:00	8	casamassima	9.38	1	77.95	1	0.0	1	null	6	null	6	0.0	1	983.25	1	40.951419	16.919863
78	2024-01-04 05:00:00	8	casamassima	9.54	1	75.79	1	0.0	1	null	6	null	6	0.0	1	982.75	1	40.951419	16.919863
79	2024-01-04 06:00:00	8	casamassima	10.43	1	68.66	1	0.0	1	null	6	null	6	0.0	1	982.47	1	40.951419	16.919863
80	2024-01-04 07:00:00	8	casamassima	9.5	1	72.01	1	0.0	1	null	6	null	6	0.0	1	982.78	1	40.951419	16.919863
81	2024-01-04 08:00:00	8	casamassima	10.21	1	68.59	1	0.0	1	null	6	null	6	19.75	1	983.25	1	40.951419	16.919863
82	2024-01-04 09:00:00	8	casamassima	12.49	1	62.99	1	0.0	1	null	6	null	6	109.11	1	983.32	1	40.951419	16.919863
83	2024-01-04 10:00:00	8	casamassima	15.92	1	52.95	1	0.0	1	null	6	null	6	262.21	1	983.65	1	40.951419	16.919863
84	2024-01-04 11:00:00	8	casamassima	17.63	1	48.69	1	0.0	1	null	6	null	6	353.8	1	983.63	1	40.951419	16.919863
85	2024-01-04 12:00:00	8	casamassima	18.2	1	45.13	1	0.0	1	null	6	null	6	107.54	1	983.59	1	40.951419	16.919863
86	2024-01-04 13:00:00	8	casamassima	17.74	1	40.2	1	0.0	1	null	6	null	6	53.28	1	983.23	1	40.951419	16.919863
87	2024-01-04 14:00:00	8	casamassima	18.16	1	39.72	1	0.0	1	null	6	null	6	225.03	1	983.2	1	40.951419	16.919863
88	2024-01-04 15:00:00	8	casamassima	18.29	1	39.91	1	0.0	1	null	6	null	6	264.29	1	983.53	1	40.951419	16.919863
89	2024-01-04 16:00:00	8	casamassima	17.37	1	42.28	1	0.0	1	null	6	null	6	92.9	1	983.93	1	40.951419	16.919863
90	2024-01-04 17:00:00	8	casamassima	14.52	1	50.47	1	0.0	1	null	6	null	6	0.0	5	984.55	1	40.951419	16.919863
91	2024-01-04 18:00:00	8	casamassima	11.6	1	59.5	1	0.0	1	null	6	null	6	0.0	1	985.38	1	40.951419	16.919863
92	2024-01-04 19:00:00	8	casamassima	11.26	1	62.15	1	0.0	1	null	6	null	6	0.0	1	986.09	1	40.951419	16.919863
93	2024-01-04 20:00:00	8	casamassima	9.52	1	69.87	1	0.0	1	null	6	null	6	0.0	1	986.7	1	40.951419	16.919863
94	2024-01-04 21:00:00	8	casamassima	8.44	1	74.3	1	0.0	1	null	6	null	6	0.0	1	987.24	1	40.951419	16.919863
95	2024-01-04 22:00:00	8	casamassima	7.78	1	77.11	1	0.0	1	null	6	null	6	0.0	1	987.41	1	40.951419	16.919863
96	2024-01-04 23:00:00	8	casamassima	8.29	1	75.61	1	0.0	1	null	6	null	6	0.0	1	987.69	1	40.951419	16.919863
97	2024-01-05 00:00:00	8	casamassima	7.82	1	75.37	1	0.0	1	null	6	null	6	0.0	1	987.81	1	40.951419	16.919863
98	2024-01-05 01:00:00	8	casamassima	7.26	1	76.52	1	0.0	1	null	6	null	6	0.0	1	987.55	1	40.951419	16.919863
99	2024-01-05 02:00:00	8	casamassima	7.34	1	76.4	1	0.0	1	null	6	null	6	0.0	1	987.47	1	40.951419	16.919863
100	2024-01-05 03:00:00	8	casamassima	6.89	1	79.61	1	0.0	1	null	6	null	6	0.0	1	987.37	1	40.951419	16.919863
101	2024-01-05 04:00:00	8	casamassima	7.49	1	79.5	1	0.0	1	null	6	null	6	0.0	1	986.8	1	40.951419	16.919863
102	2024-01-05 05:00:00	8	casamassima	7.86	1	78.61	1	0.0	1	null	6	null	6	0.0	1	986.25	1	40.951419	16.919863
103	2024-01-05 06:00:00	8	casamassima	7.53	1	80.22	1	0.0	1	null	6	null	6	0.0	1	985.84	1	40.951419	16.919863
104	2024-01-05 07:00:00	8	casamassima	8.35	1	78.63	1	0.0	1	null	6	null	6	0.0	1	985.69	1	40.951419	16.919863
105	2024-01-05 08:00:00	8	casamassima	9.7	1	78.87	1	0.0	1	null	6	null	6	20.06	1	985.67	1	40.951419	16.919863
106	2024-01-05 09:00:00	8	casamassima	11.37	1	82.09	1	0.0	1	null	6	null	6	98.66	1	985.35	1	40.951419	16.919863
107	2024-01-05 10:00:00	8	casamassima	13.06	1	74.86	1	0.0	1	null	6	null	6	161.63	1	985.17	1	40.951419	16.919863
108	2024-01-05 11:00:00	8	casamassima	13.54	1	71.49	1	0.0	1	null	6	null	6	166.93	1	984.78	1	40.951419	16.919863
109	2024-01-05 12:00:00	8	casamassima	13.89	1	73.03	1	0.0	1	null	6	null	6	175.64	1	984.34	1	40.951419	16.919863
110	2024-01-05 13:00:00	8	casamassima	14.14	1	69.29	1	0.0	1	null	6	null	6	173.44	1	983.87	1	40.951419	16.919863
111	2024-01-05 14:00:00	8	casamassima	13.55	1	72.68	1	0.0	1	null	6	null	6	120.94	1	982.99	1	40.951419	16.919863
112	2024-01-05 15:00:00	8	casamassima	13.31	1	77.28	1	0.0	1	null	6	null	6	77.79	1	983.12	1	40.951419	16.919863
113	2024-01-05 16:00:00	8	casamassima	13.45	1	78.73	1	0.0	1	null	6	null	6	26.18	1	983.02	1	40.951419	16.919863
114	2024-01-05 17:00:00	8	casamassima	13.31	1	80.05	1	0.0	1	null	6	null	6	0.0	5	982.56	1	40.951419	16.919863
115	2024-01-05 18:00:00	8	casamassima	13.22	1	80.7	1	0.0	1	null	6	null	6	0.0	1	982.06	1	40.951419	16.919863
116	2024-01-05 19:00:00	8	casamassima	13.18	1	80.01	1	0.0	1	null	6	null	6	0.0	1	982.1	1	40.951419	16.919863
117	2024-01-05 20:00:00	8	casamassima	13.27	1	80.65	1	0.0	1	null	6	null	6	0.0	1	981.8	1	40.951419	16.919863
118	2024-01-05 21:00:00	8	casamassima	13.51	1	78.78	1	0.0	1	null	6	null	6	0.0	1	981.49	1	40.951419	16.919863
119	2024-01-05 22:00:00	8	casamassima	13.36	1	79.26	1	0.0	1	null	6	null	6	0.0	1	980.91	1	40.951419	16.919863
120	2024-01-05 23:00:00	8	casamassima	13.19	1	78.6	1	0.0	1	null	6	null	6	0.0	1	980.64	1	40.951419	16.919863
121	2024-01-06 00:00:00	8	casamassima	13.16	1	77.88	1	0.0	1	null	6	null	6	0.0	1	980.02	1	40.951419	16.919863
122	2024-01-06 01:00:00	8	casamassima	13.06	1	78.7	1	0.0	1	null	6	null	6	0.0	1	979.94	1	40.951419	16.919863
123	2024-01-06 02:00:00	8	casamassima	12.93	1	80.11	1	0.0	1	null	6	null	6	0.0	1	979.55	1	40.951419	16.919863
124	2024-01-06 03:00:00	8	casamassima	12.52	1	79.22	1	0.0	1	null	6	null	6	0.0	1	979.1	1	40.951419	16.919863
125	2024-01-06 04:00:00	8	casamassima	12.59	1	82.36	1	0.0	1	null	6	null	6	0.0	1	978.2	1	40.951419	16.919863
126	2024-01-06 05:00:00	8	casamassima	12.98	1	81.22	1	0.0	1	null	6	null	6	0.0	1	978.08	1	40.951419	16.919863
127	2024-01-06 06:00:00	8	casamassima	13.06	1	80.28	1	0.0	1	null	6	null	6	0.0	1	977.72	1	40.951419	16.919863
128	2024-01-06 07:00:00	8	casamassima	13.27	1	79.42	1	0.0	1	null	6	null	6	0.0	1	977.62	1	40.951419	16.919863
129	2024-01-06 08:00:00	8	casamassima	13.57	1	79.16	1	0.0	1	null	6	null	6	8.1	1	977.57	1	40.951419	16.919863
130	2024-01-06 09:00:00	8	casamassima	13.4	1	82.79	1	0.4	1	null	6	null	6	23.25	1	977.53	1	40.951419	16.919863
131	2024-01-06 10:00:00	8	casamassima	13.86	1	80.32	1	0.0	1	null	6	null	6	96.81	1	977.08	1	40.951419	16.919863
132	2024-01-06 11:00:00	8	casamassima	14.64	1	75.74	1	0.0	1	null	6	null	6	121.3	1	976.29	1	40.951419	16.919863
133	2024-01-06 12:00:00	8	casamassima	15.13	1	72.97	1	0.0	1	null	6	null	6	165.03	1	974.55	1	40.951419	16.919863
134	2024-01-06 13:00:00	8	casamassima	15.21	1	73.46	1	0.0	1	null	6	null	6	151.49	1	972.22	1	40.951419	16.919863
135	2024-01-06 14:00:00	8	casamassima	13.73	1	81.15	1	3.2	1	null	6	null	6	57.97	1	970.09	1	40.951419	16.919863
136	2024-01-06 15:00:00	8	casamassima	14.29	1	77.91	1	0.0	1	null	6	null	6	74.4	1	969.1	1	40.951419	16.919863
137	2024-01-06 16:00:00	8	casamassima	13.78	1	80.38	1	2.2	1	null	6	null	6	59.65	1	968.34	1	40.951419	16.919863
138	2024-01-06 17:00:00	8	casamassima	12.59	1	71.72	1	0.0	1	null	6	null	6	6.37	1	967.56	1	40.951419	16.919863
139	2024-01-06 18:00:00	8	casamassima	10.21	1	81.76	1	3.6	1	null	6	null	6	0.0	1	967.44	1	40.951419	16.919863
140	2024-01-06 19:00:00	8	casamassima	9.58	1	85.45	1	0.2	1	null	6	null	6	0.0	1	966.97	1	40.951419	16.919863
141	2024-01-06 20:00:00	8	casamassima	9.54	1	84.89	1	0.0	1	null	6	null	6	0.0	1	966.94	1	40.951419	16.919863
142	2024-01-06 21:00:00	8	casamassima	8.92	1	86.95	1	0.0	1	null	6	null	6	0.0	1	966.59	1	40.951419	16.919863
143	2024-01-06 22:00:00	8	casamassima	8.28	1	89.92	1	0.0	1	null	6	null	6	0.0	1	966.65	1	40.951419	16.919863
144	2024-01-06 23:00:00	8	casamassima	8.56	1	89.55	1	0.0	1	null	6	null	6	0.0	1	966.57	1	40.951419	16.919863
145	2024-01-07 00:00:00	8	casamassima	8.43	1	90.88	1	0.0	1	null	6	null	6	0.0	1	965.98	1	40.951419	16.919863
146	2024-01-07 01:00:00	8	casamassima	8.57	1	89.16	1	0.0	1	null	6	null	6	0.0	1	965.93	1	40.951419	16.919863
147	2024-01-07 02:00:00	8	casamassima	8.49	1	88.42	1	0.0	1	null	6	null	6	0.0	1	965.76	1	40.951419	16.919863
148	2024-01-07 03:00:00	8	casamassima	7.93	1	90.46	1	0.0	1	null	6	null	6	0.0	1	965.68	1	40.951419	16.919863
149	2024-01-07 04:00:00	8	casamassima	8.13	1	91.35	1	0.0	1	null	6	null	6	0.0	1	965.39	1	40.951419	16.919863
150	2024-01-07 05:00:00	8	casamassima	7.84	1	91.88	1	0.0	1	null	6	null	6	0.0	1	965.21	1	40.951419	16.919863
151	2024-01-07 06:00:00	8	casamassima	6.9	1	92.47	1	0.0	1	null	6	null	6	0.0	1	965.67	1	40.951419	16.919863
152	2024-01-07 07:00:00	8	casamassima	7.08	1	92.52	1	0.0	1	null	6	null	6	0.0	1	966.52	1	40.951419	16.919863
153	2024-01-07 08:00:00	8	casamassima	7.6	1	91.66	1	0.0	1	null	6	null	6	5.66	1	967.01	1	40.951419	16.919863
154	2024-01-07 09:00:00	8	casamassima	8.4	1	90.41	1	0.0	1	null	6	null	6	41.73	1	967.49	1	40.951419	16.919863
155	2024-01-07 10:00:00	8	casamassima	9.7	1	86.75	1	0.0	1	null	6	null	6	86.55	1	967.82	1	40.951419	16.919863
156	2024-01-07 11:00:00	8	casamassima	10.73	1	82.72	1	0.0	1	null	6	null	6	98.71	1	968.11	1	40.951419	16.919863
157	2024-01-07 12:00:00	8	casamassima	11.54	1	78.79	1	0.0	1	null	6	null	6	95.59	1	968.05	1	40.951419	16.919863
158	2024-01-07 13:00:00	8	casamassima	11.31	1	79.7	1	0.0	1	null	6	null	6	50.71	1	967.89	1	40.951419	16.919863
159	2024-01-07 14:00:00	8	casamassima	10.97	1	80.25	1	0.0	1	null	6	null	6	69.66	1	968.02	1	40.951419	16.919863
160	2024-01-07 15:00:00	8	casamassima	11.12	1	67.54	1	0.0	1	null	6	null	6	95.21	1	968.37	1	40.951419	16.919863
161	2024-01-07 16:00:00	8	casamassima	10.31	1	67.64	1	0.0	1	null	6	null	6	32.02	1	968.91	1	40.951419	16.919863
162	2024-01-07 17:00:00	8	casamassima	9.58	1	67.11	1	0.0	1	null	6	null	6	0.0	5	969.77	1	40.951419	16.919863
163	2024-01-07 18:00:00	8	casamassima	9.21	1	66.55	1	0.0	1	null	6	null	6	0.0	1	970.64	1	40.951419	16.919863
164	2024-01-07 19:00:00	8	casamassima	8.6	1	72.22	1	0.0	1	null	6	null	6	0.0	1	971.32	1	40.951419	16.919863
165	2024-01-07 20:00:00	8	casamassima	8.62	1	70.28	1	0.2	1	null	6	null	6	0.0	1	971.85	1	40.951419	16.919863
166	2024-01-07 21:00:00	8	casamassima	8.06	1	78.82	1	0.0	1	null	6	null	6	0.0	1	972.39	1	40.951419	16.919863
167	2024-01-07 22:00:00	8	casamassima	7.54	1	84.18	1	0.2	1	null	6	null	6	0.0	1	972.82	1	40.951419	16.919863
168	2024-01-07 23:00:00	8	casamassima	7.25	1	87.15	1	0.4	1	null	6	null	6	0.0	1	973.36	1	40.951419	16.919863
169	2024-01-08 00:00:00	8	casamassima	6.97	1	88.66	1	0.0	1	null	6	null	6	0.0	1	973.5	1	40.951419	16.919863
170	2024-01-08 01:00:00	8	casamassima	6.94	1	88.75	1	0.0	1	null	6	null	6	0.0	1	973.57	1	40.951419	16.919863
171	2024-01-08 02:00:00	8	casamassima	7.03	1	85.49	1	0.0	1	null	6	null	6	0.0	1	973.8	1	40.951419	16.919863
172	2024-01-08 03:00:00	8	casamassima	6.95	1	82.61	1	0.0	1	null	6	null	6	0.0	1	973.94	1	40.951419	16.919863
173	2024-01-08 04:00:00	8	casamassima	6.85	1	81.72	1	0.2	1	null	6	null	6	0.0	1	973.87	1	40.951419	16.919863
174	2024-01-08 05:00:00	8	casamassima	6.69	1	80.36	1	0.0	1	null	6	null	6	0.0	1	974.05	1	40.951419	16.919863
175	2024-01-08 06:00:00	8	casamassima	6.73	1	79.69	1	0.0	1	null	6	null	6	0.0	1	974.3	1	40.951419	16.919863
176	2024-01-08 07:00:00	8	casamassima	6.67	1	80.9	1	0.0	1	null	6	null	6	0.0	1	974.75	1	40.951419	16.919863
177	2024-01-08 08:00:00	8	casamassima	6.23	1	81.12	1	0.0	1	null	6	null	6	22.12	1	975.18	1	40.951419	16.919863
178	2024-01-08 09:00:00	8	casamassima	8.52	1	73.27	1	0.0	1	null	6	null	6	98.84	1	975.58	1	40.951419	16.919863
179	2024-01-08 10:00:00	8	casamassima	10.44	1	67.57	1	0.0	1	null	6	null	6	213.82	1	976.02	1	40.951419	16.919863
180	2024-01-08 11:00:00	8	casamassima	10.83	1	64.56	1	0.0	1	null	6	null	6	169.77	1	976.38	1	40.951419	16.919863
181	2024-01-08 12:00:00	8	casamassima	11.44	1	61.72	1	0.0	1	null	6	null	6	200.73	1	976.21	1	40.951419	16.919863
182	2024-01-08 13:00:00	8	casamassima	12.33	1	56.89	1	0.0	1	null	6	null	6	160.59	1	975.88	1	40.951419	16.919863
183	2024-01-08 14:00:00	8	casamassima	12.43	1	55.06	1	0.0	1	null	6	null	6	210.13	1	975.8	1	40.951419	16.919863
184	2024-01-08 15:00:00	8	casamassima	13.03	1	55.01	1	0.0	1	null	6	null	6	199.29	1	976.01	1	40.951419	16.919863
185	2024-01-08 16:00:00	8	casamassima	10.7	1	66.99	1	0.0	1	null	6	null	6	63.57	1	976.63	1	40.951419	16.919863
186	2024-01-08 17:00:00	8	casamassima	9.79	1	71.45	1	0.0	1	null	6	null	6	6.05	1	977.09	1	40.951419	16.919863
187	2024-01-08 18:00:00	8	casamassima	8.93	1	73.14	1	0.0	1	null	6	null	6	0.0	1	977.64	1	40.951419	16.919863
188	2024-01-08 19:00:00	8	casamassima	7.37	1	76.62	1	0.0	1	null	6	null	6	0.0	1	978.15	1	40.951419	16.919863
189	2024-01-08 20:00:00	8	casamassima	7.02	1	79.27	1	0.0	1	null	6	null	6	0.0	1	978.85	1	40.951419	16.919863
190	2024-01-08 21:00:00	8	casamassima	6.89	1	84.79	1	0.0	1	null	6	null	6	0.0	1	979.6	1	40.951419	16.919863
191	2024-01-08 22:00:00	8	casamassima	6.71	1	87.42	1	0.0	1	null	6	null	6	0.0	1	980.38	1	40.951419	16.919863
192	2024-01-08 23:00:00	8	casamassima	6.42	1	89.52	1	0.0	1	null	6	null	6	0.0	1	981.04	1	40.951419	16.919863
193	2024-01-09 00:00:00	8	casamassima	6.16	1	90.56	1	0.0	1	null	6	null	6	0.0	1	981.34	1	40.951419	16.919863
194	2024-01-09 01:00:00	8	casamassima	6.37	1	91.45	1	0.0	1	null	6	null	6	0.0	1	981.76	1	40.951419	16.919863
195	2024-01-09 02:00:00	8	casamassima	6.66	1	92.36	1	0.8	1	null	6	null	6	0.0	1	982.13	1	40.951419	16.919863
196	2024-01-09 03:00:00	8	casamassima	7.11	1	92.87	1	1.2	1	null	6	null	6	0.0	1	982.71	1	40.951419	16.919863
197	2024-01-09 04:00:00	8	casamassima	7.18	1	93.11	1	2.4	1	null	6	null	6	0.0	5	983.09	1	40.951419	16.919863
198	2024-01-09 05:00:00	8	casamassima	7.18	1	93.75	1	0.0	1	null	6	null	6	0.0	5	983.5	1	40.951419	16.919863
199	2024-01-09 06:00:00	8	casamassima	6.98	1	94.35	1	0.0	1	null	6	null	6	0.0	1	984.13	1	40.951419	16.919863
200	2024-01-09 07:00:00	8	casamassima	6.79	1	94.71	1	0.0	1	null	6	null	6	0.0	1	984.92	1	40.951419	16.919863
201	2024-01-09 08:00:00	8	casamassima	7.02	1	94.75	1	0.8	1	null	6	null	6	6.68	1	985.84	1	40.951419	16.919863
202	2024-01-09 09:00:00	8	casamassima	7.33	1	94.61	1	1.8	1	null	6	null	6	22.44	1	986.87	1	40.951419	16.919863
203	2024-01-09 10:00:00	8	casamassima	7.15	1	94.43	1	1.0	1	null	6	null	6	24.77	1	987.84	1	40.951419	16.919863
204	2024-01-09 11:00:00	8	casamassima	7.53	1	91.53	1	0.2	1	null	6	null	6	96.82	1	988.54	1	40.951419	16.919863
205	2024-01-09 12:00:00	8	casamassima	7.41	1	90.19	1	0.0	1	null	6	null	6	101.77	1	988.96	1	40.951419	16.919863
206	2024-01-09 13:00:00	8	casamassima	6.91	1	90.73	1	0.0	1	null	6	null	6	108.36	1	989.17	1	40.951419	16.919863
207	2024-01-09 14:00:00	8	casamassima	6.61	1	89.92	1	0.0	1	null	6	null	6	40.41	1	989.43	1	40.951419	16.919863
208	2024-01-09 15:00:00	8	casamassima	6.34	1	89.73	1	0.2	1	null	6	null	6	21.15	1	990.07	1	40.951419	16.919863
209	2024-01-09 16:00:00	8	casamassima	6.86	1	85.9	1	0.0	1	null	6	null	6	20.07	1	990.6	1	40.951419	16.919863
210	2024-01-09 17:00:00	8	casamassima	6.72	1	84.93	1	0.0	1	null	6	null	6	0.0	5	991.07	1	40.951419	16.919863
211	2024-01-09 18:00:00	8	casamassima	6.55	1	83.23	1	0.0	1	null	6	null	6	0.0	1	991.65	1	40.951419	16.919863
212	2024-01-09 19:00:00	8	casamassima	6.35	1	82.61	1	0.0	1	null	6	null	6	0.0	1	992.14	1	40.951419	16.919863
213	2024-01-09 20:00:00	8	casamassima	5.89	1	82.28	1	0.0	1	null	6	null	6	0.0	1	992.72	1	40.951419	16.919863
214	2024-01-09 21:00:00	8	casamassima	6.07	1	78.36	1	0.0	1	null	6	null	6	0.0	1	993.17	1	40.951419	16.919863
215	2024-01-09 22:00:00	8	casamassima	5.94	1	79.28	1	0.0	1	null	6	null	6	0.0	1	993.6	1	40.951419	16.919863
216	2024-01-09 23:00:00	8	casamassima	5.29	1	81.93	1	0.0	1	null	6	null	6	0.0	1	993.98	1	40.951419	16.919863
217	2024-01-10 00:00:00	8	casamassima	5.26	1	83.65	1	0.0	1	null	6	null	6	0.0	1	994.08	1	40.951419	16.919863
218	2024-01-10 01:00:00	8	casamassima	5.55	1	81.74	1	0.0	1	null	6	null	6	0.0	1	994.06	1	40.951419	16.919863
219	2024-01-10 02:00:00	8	casamassima	5.64	1	81.56	1	0.0	1	null	6	null	6	0.0	1	994.35	1	40.951419	16.919863
220	2024-01-10 03:00:00	8	casamassima	5.78	1	80.08	1	0.0	1	null	6	null	6	0.0	1	994.96	1	40.951419	16.919863
221	2024-01-10 04:00:00	8	casamassima	5.79	1	80.65	1	0.0	1	null	6	null	6	0.0	1	994.95	1	40.951419	16.919863
222	2024-01-10 05:00:00	8	casamassima	5.77	1	81.85	1	0.0	1	null	6	null	6	0.0	1	994.95	1	40.951419	16.919863
223	2024-01-10 06:00:00	8	casamassima	5.81	1	81.8	1	0.0	1	null	6	null	6	0.0	1	995.31	1	40.951419	16.919863
224	2024-01-10 07:00:00	8	casamassima	5.84	1	81.63	1	0.0	1	null	6	null	6	0.0	1	995.88	1	40.951419	16.919863
225	2024-01-10 08:00:00	8	casamassima	5.92	1	81.47	1	0.0	1	null	6	null	6	0.0	5	996.2	1	40.951419	16.919863
226	2024-01-10 09:00:00	8	casamassima	6.14	1	81.53	1	0.0	1	null	6	null	6	12.87	1	996.89	1	40.951419	16.919863
227	2024-01-10 10:00:00	8	casamassima	6.41	1	80.16	1	0.0	1	null	6	null	6	30.98	1	997.3	1	40.951419	16.919863
228	2024-01-10 11:00:00	8	casamassima	7.06	1	78.01	1	0.0	1	null	6	null	6	133.62	1	997.11	1	40.951419	16.919863
229	2024-01-10 12:00:00	8	casamassima	8.36	1	70.52	1	0.0	1	null	6	null	6	202.01	1	996.8	1	40.951419	16.919863
230	2024-01-10 13:00:00	8	casamassima	8.99	1	67.71	1	0.0	1	null	6	null	6	233.02	1	996.45	1	40.951419	16.919863
231	2024-01-10 14:00:00	8	casamassima	9.13	1	66.62	1	0.0	1	null	6	null	6	191.67	1	996.27	1	40.951419	16.919863
232	2024-01-10 15:00:00	8	casamassima	8.54	1	72.32	1	0.0	1	null	6	null	6	110.27	1	996.32	1	40.951419	16.919863
233	2024-01-10 16:00:00	8	casamassima	8.03	1	78.33	1	0.0	1	null	6	null	6	35.95	1	996.42	1	40.951419	16.919863
234	2024-01-10 17:00:00	8	casamassima	7.64	1	81.49	1	0.0	1	null	6	null	6	5.32	1	996.59	1	40.951419	16.919863
235	2024-01-10 18:00:00	8	casamassima	7.29	1	82.54	1	0.0	1	null	6	null	6	0.0	1	996.71	1	40.951419	16.919863
236	2024-01-10 19:00:00	8	casamassima	7.18	1	87.09	1	0.0	1	null	6	null	6	0.0	5	996.64	1	40.951419	16.919863
237	2024-01-10 20:00:00	8	casamassima	7.1	1	88.2	1	0.0	1	null	6	null	6	0.0	1	996.69	1	40.951419	16.919863
238	2024-01-10 21:00:00	8	casamassima	6.9	1	87.2	1	0.0	1	null	6	null	6	0.0	1	996.84	1	40.951419	16.919863
239	2024-01-10 22:00:00	8	casamassima	6.67	1	87.2	1	0.0	1	null	6	null	6	0.0	1	996.82	1	40.951419	16.919863
240	2024-01-10 23:00:00	8	casamassima	6.43	1	88.38	1	0.0	1	null	6	null	6	0.0	1	996.66	1	40.951419	16.919863
241	2024-01-11 00:00:00	8	casamassima	6.2	1	89.5	1	0.0	1	null	6	null	6	0.0	1	996.27	1	40.951419	16.919863
242	2024-01-11 01:00:00	8	casamassima	6.11	1	90.01	1	0.0	1	null	6	null	6	0.0	1	995.91	1	40.951419	16.919863
243	2024-01-11 02:00:00	8	casamassima	6.11	1	89.44	1	0.0	1	null	6	null	6	0.0	1	995.53	1	40.951419	16.919863
244	2024-01-11 03:00:00	8	casamassima	5.88	1	89.6	1	0.0	1	null	6	null	6	0.0	1	995.42	1	40.951419	16.919863
245	2024-01-11 04:00:00	8	casamassima	5.89	1	89.84	1	0.0	1	null	6	null	6	0.0	1	995.09	1	40.951419	16.919863
246	2024-01-11 05:00:00	8	casamassima	5.85	1	89.43	1	0.0	1	null	6	null	6	0.0	1	994.6	1	40.951419	16.919863
247	2024-01-11 06:00:00	8	casamassima	5.29	1	89.72	1	0.0	1	null	6	null	6	0.0	1	994.4	1	40.951419	16.919863
248	2024-01-11 07:00:00	8	casamassima	4.64	1	90.63	1	0.0	1	null	6	null	6	0.0	1	994.54	1	40.951419	16.919863
249	2024-01-11 08:00:00	8	casamassima	5.06	1	91.21	1	0.0	1	null	6	null	6	13.76	1	994.63	1	40.951419	16.919863
250	2024-01-11 09:00:00	8	casamassima	6.25	1	88.38	1	0.0	1	null	6	null	6	88.49	1	994.45	1	40.951419	16.919863
251	2024-01-11 10:00:00	8	casamassima	7.44	1	83.07	1	0.0	1	null	6	null	6	125.39	1	994.3	1	40.951419	16.919863
252	2024-01-11 11:00:00	8	casamassima	8.45	1	78.86	1	0.0	1	null	6	null	6	167.03	1	993.88	1	40.951419	16.919863
253	2024-01-11 12:00:00	8	casamassima	8.6	1	77.09	1	0.0	1	null	6	null	6	133.53	1	993.27	1	40.951419	16.919863
254	2024-01-11 13:00:00	8	casamassima	8.73	1	74.38	1	0.0	1	null	6	null	6	141.41	1	992.63	1	40.951419	16.919863
255	2024-01-11 14:00:00	8	casamassima	9.05	1	73.01	1	0.0	1	null	6	null	6	165.71	1	991.85	1	40.951419	16.919863
256	2024-01-11 15:00:00	8	casamassima	8.91	1	72.29	1	0.0	1	null	6	null	6	141.01	1	991.28	1	40.951419	16.919863
257	2024-01-11 16:00:00	8	casamassima	8.41	1	77.77	1	0.0	1	null	6	null	6	42.19	1	991.2	1	40.951419	16.919863
258	2024-01-11 17:00:00	8	casamassima	7.94	1	81.61	1	0.0	1	null	6	null	6	6.49	1	991.24	1	40.951419	16.919863
259	2024-01-11 18:00:00	8	casamassima	7.27	1	88.2	1	0.0	1	null	6	null	6	0.0	1	991.23	1	40.951419	16.919863
260	2024-01-11 19:00:00	8	casamassima	7.01	1	89.37	1	0.0	1	null	6	null	6	0.0	1	991.06	1	40.951419	16.919863
261	2024-01-11 20:00:00	8	casamassima	6.81	1	90.36	1	0.0	1	null	6	null	6	0.0	1	990.83	1	40.951419	16.919863
262	2024-01-11 21:00:00	8	casamassima	6.45	1	90.73	1	0.0	1	null	6	null	6	0.0	1	990.64	1	40.951419	16.919863
263	2024-01-11 22:00:00	8	casamassima	5.98	1	91.16	1	0.0	1	null	6	null	6	0.0	1	990.52	1	40.951419	16.919863
264	2024-01-11 23:00:00	8	casamassima	5.98	1	90.98	1	0.2	1	null	6	null	6	0.0	1	990.52	1	40.951419	16.919863
265	2024-01-12 00:00:00	8	casamassima	6.07	1	92.3	1	0.8	1	null	6	null	6	0.0	1	990.22	1	40.951419	16.919863
266	2024-01-12 01:00:00	8	casamassima	6.03	1	92.88	1	0.2	1	null	6	null	6	0.0	1	989.59	1	40.951419	16.919863
267	2024-01-12 02:00:00	8	casamassima	5.92	1	92.19	1	0.0	1	null	6	null	6	0.0	1	989.31	1	40.951419	16.919863
268	2024-01-12 03:00:00	8	casamassima	5.88	1	90.24	1	0.4	1	null	6	null	6	0.0	1	989.16	1	40.951419	16.919863
269	2024-01-12 04:00:00	8	casamassima	5.67	1	89.35	1	0.0	1	null	6	null	6	0.0	1	988.76	1	40.951419	16.919863
270	2024-01-12 05:00:00	8	casamassima	5.67	1	88.02	1	0.0	1	null	6	null	6	0.0	1	988.52	1	40.951419	16.919863
271	2024-01-12 06:00:00	8	casamassima	5.49	1	87.61	1	0.0	1	null	6	null	6	0.0	5	988.4	1	40.951419	16.919863
272	2024-01-12 07:00:00	8	casamassima	5.52	1	87.78	1	0.0	1	null	6	null	6	0.0	1	988.59	1	40.951419	16.919863
273	2024-01-12 08:00:00	8	casamassima	4.97	1	88.14	1	0.0	1	null	6	null	6	21.4	1	988.71	1	40.951419	16.919863
274	2024-01-12 09:00:00	8	casamassima	5.87	1	80.15	1	0.0	1	null	6	null	6	79.29	1	989.01	1	40.951419	16.919863
275	2024-01-12 10:00:00	8	casamassima	7.21	1	73.54	1	0.0	1	null	6	null	6	233.39	1	989.39	1	40.951419	16.919863
276	2024-01-12 11:00:00	8	casamassima	8.14	1	69.09	1	0.0	1	null	6	null	6	282.07	1	989.63	1	40.951419	16.919863
277	2024-01-12 12:00:00	8	casamassima	9.29	1	44.42	1	0.0	1	null	6	null	6	184.75	1	989.46	1	40.951419	16.919863
278	2024-01-12 13:00:00	8	casamassima	9.19	1	46.16	1	0.0	1	null	6	null	6	62.28	1	989.05	1	40.951419	16.919863
279	2024-01-12 14:00:00	8	casamassima	9.18	1	47.55	1	0.2	1	null	6	null	6	213.76	1	988.93	1	40.951419	16.919863
280	2024-01-12 15:00:00	8	casamassima	9.36	1	49.13	1	0.0	1	null	6	null	6	295.49	1	988.97	1	40.951419	16.919863
281	2024-01-12 16:00:00	8	casamassima	8.97	1	49.37	1	0.0	1	null	6	null	6	127.97	1	989.31	1	40.951419	16.919863
282	2024-01-12 17:00:00	8	casamassima	7.89	1	55.91	1	0.0	1	null	6	null	6	7.33	1	989.65	1	40.951419	16.919863
283	2024-01-12 18:00:00	8	casamassima	7.24	1	60.12	1	0.0	1	null	6	null	6	0.0	1	989.82	1	40.951419	16.919863
284	2024-01-12 19:00:00	8	casamassima	6.21	1	73.23	1	0.0	1	null	6	null	6	0.0	1	990.16	1	40.951419	16.919863
285	2024-01-12 20:00:00	8	casamassima	5.61	1	81.27	1	0.6	1	null	6	null	6	0.0	1	990.39	1	40.951419	16.919863
286	2024-01-12 21:00:00	8	casamassima	4.46	1	82.29	1	0.4	1	null	6	null	6	0.0	1	990.73	1	40.951419	16.919863
287	2024-01-12 22:00:00	8	casamassima	4.16	1	85.36	1	1.4	1	null	6	null	6	0.0	1	991.31	1	40.951419	16.919863
288	2024-01-12 23:00:00	8	casamassima	3.66	1	86.02	1	0.2	1	null	6	null	6	0.0	1	991.56	1	40.951419	16.919863
289	2024-01-13 00:00:00	8	casamassima	4.11	1	75.3	1	0.0	1	null	6	null	6	0.0	5	991.59	1	40.951419	16.919863
290	2024-01-13 01:00:00	8	casamassima	4.11	1	72.9	1	0.0	1	null	6	null	6	0.0	5	991.56	1	40.951419	16.919863
291	2024-01-13 02:00:00	8	casamassima	4.2	1	68.24	1	0.0	1	null	6	null	6	0.0	1	991.77	1	40.951419	16.919863
292	2024-01-13 03:00:00	8	casamassima	4.19	1	65.91	1	0.0	1	null	6	null	6	0.0	1	991.8	1	40.951419	16.919863
293	2024-01-13 04:00:00	8	casamassima	4.06	1	66.03	1	0.0	1	null	6	null	6	0.0	1	991.6	1	40.951419	16.919863
294	2024-01-13 05:00:00	8	casamassima	4.01	1	65.71	1	0.0	1	null	6	null	6	0.0	1	991.64	1	40.951419	16.919863
295	2024-01-13 06:00:00	8	casamassima	4.11	1	65.85	1	0.0	1	null	6	null	6	0.0	1	991.83	1	40.951419	16.919863
296	2024-01-13 07:00:00	8	casamassima	4.06	1	65.27	1	0.0	1	null	6	null	6	0.0	1	992.02	1	40.951419	16.919863
297	2024-01-13 08:00:00	8	casamassima	4.17	1	65.01	1	0.0	1	null	6	null	6	0.0	5	992.44	1	40.951419	16.919863
298	2024-01-13 09:00:00	8	casamassima	4.07	1	63.36	1	0.0	1	null	6	null	6	52.22	1	993.05	1	40.951419	16.919863
299	2024-01-13 10:00:00	8	casamassima	5.06	1	62.14	1	0.0	1	null	6	null	6	176.26	1	993.53	1	40.951419	16.919863
300	2024-01-13 11:00:00	8	casamassima	6.27	1	60.24	1	0.0	1	null	6	null	6	292.43	1	993.67	1	40.951419	16.919863
301	2024-01-13 12:00:00	8	casamassima	7.06	1	56.74	1	0.0	1	null	6	null	6	182.89	1	993.33	1	40.951419	16.919863
302	2024-01-13 13:00:00	8	casamassima	7.1	1	56.2	1	0.0	1	null	6	null	6	136.09	1	992.98	1	40.951419	16.919863
303	2024-01-13 14:00:00	8	casamassima	7.67	1	55.25	1	0.2	1	null	6	null	6	287.49	1	992.48	1	40.951419	16.919863
304	2024-01-13 15:00:00	8	casamassima	8.22	1	55.23	1	0.0	1	null	6	null	6	305.15	1	992.29	1	40.951419	16.919863
305	2024-01-13 16:00:00	8	casamassima	7.91	1	57.37	1	0.0	1	null	6	null	6	123.55	1	992.23	1	40.951419	16.919863
306	2024-01-13 17:00:00	8	casamassima	6.76	1	62.23	1	0.0	1	null	6	null	6	6.79	1	992.3	1	40.951419	16.919863
307	2024-01-13 18:00:00	8	casamassima	4.85	1	71.37	1	0.0	1	null	6	null	6	0.0	1	992.49	1	40.951419	16.919863
308	2024-01-13 19:00:00	8	casamassima	3.16	1	81.13	1	0.0	1	null	6	null	6	0.0	1	992.5	1	40.951419	16.919863
309	2024-01-13 20:00:00	8	casamassima	2.76	1	86.86	1	0.0	1	null	6	null	6	0.0	1	992.46	1	40.951419	16.919863
310	2024-01-13 21:00:00	8	casamassima	2.75	1	86.17	1	0.0	1	null	6	null	6	0.0	1	992.42	1	40.951419	16.919863
311	2024-01-13 22:00:00	8	casamassima	2.24	1	86.21	1	0.0	1	null	6	null	6	0.0	1	992.43	1	40.951419	16.919863
312	2024-01-13 23:00:00	8	casamassima	1.79	1	87.37	1	0.0	1	null	6	null	6	0.0	1	992.22	1	40.951419	16.919863
313	2024-01-14 00:00:00	8	casamassima	1.52	1	88.18	1	0.0	1	null	6	null	6	0.0	1	991.85	1	40.951419	16.919863
314	2024-01-14 01:00:00	8	casamassima	1.53	1	84.54	1	0.0	1	null	6	null	6	0.0	1	991.37	1	40.951419	16.919863
315	2024-01-14 02:00:00	8	casamassima	0.64	1	84.51	1	0.0	1	null	6	null	6	0.0	1	990.99	1	40.951419	16.919863
316	2024-01-14 03:00:00	8	casamassima	0.08	1	85.44	1	0.0	1	null	6	null	6	0.0	1	990.81	1	40.951419	16.919863
317	2024-01-14 04:00:00	8	casamassima	-0.21	1	84.57	1	0.0	1	null	6	null	6	0.0	1	990.1	1	40.951419	16.919863
318	2024-01-14 05:00:00	8	casamassima	-0.45	1	81.21	1	0.0	1	null	6	null	6	0.0	1	989.72	1	40.951419	16.919863
319	2024-01-14 06:00:00	8	casamassima	-0.23	1	76.52	1	0.0	1	null	6	null	6	0.0	1	989.71	1	40.951419	16.919863
320	2024-01-14 07:00:00	8	casamassima	-0.37	1	77.99	1	0.0	1	null	6	null	6	0.0	1	989.67	1	40.951419	16.919863
321	2024-01-14 08:00:00	8	casamassima	-0.25	1	78.02	1	0.0	1	null	6	null	6	23.0	1	989.72	1	40.951419	16.919863
322	2024-01-14 09:00:00	8	casamassima	4.93	1	63.4	1	0.0	1	null	6	null	6	149.04	1	989.72	1	40.951419	16.919863
323	2024-01-14 10:00:00	8	casamassima	10.71	1	47.39	1	0.0	1	null	6	null	6	253.67	1	989.68	1	40.951419	16.919863
324	2024-01-14 11:00:00	8	casamassima	10.22	1	47.69	1	0.0	1	null	6	null	6	192.85	1	989.62	1	40.951419	16.919863
325	2024-01-14 12:00:00	8	casamassima	10.32	1	48.25	1	0.0	1	null	6	null	6	229.49	1	988.81	1	40.951419	16.919863
326	2024-01-14 13:00:00	8	casamassima	10.12	1	55.28	1	0.0	1	null	6	null	6	153.66	1	987.83	1	40.951419	16.919863
327	2024-01-14 14:00:00	8	casamassima	9.21	1	60.35	1	0.0	1	null	6	null	6	93.86	1	987.01	1	40.951419	16.919863
328	2024-01-14 15:00:00	8	casamassima	9.49	1	56.7	1	0.0	1	null	6	null	6	92.62	1	986.6	1	40.951419	16.919863
329	2024-01-14 16:00:00	8	casamassima	8.69	1	60.34	1	0.0	1	null	6	null	6	58.14	1	986.46	1	40.951419	16.919863
330	2024-01-14 17:00:00	8	casamassima	7.83	1	68.5	1	0.0	1	null	6	null	6	15.13	1	986.32	1	40.951419	16.919863
331	2024-01-14 18:00:00	8	casamassima	7.13	1	75.37	1	0.0	1	null	6	null	6	0.0	1	985.94	1	40.951419	16.919863
332	2024-01-14 19:00:00	8	casamassima	6.48	1	82.43	1	0.0	1	null	6	null	6	0.0	1	985.6	1	40.951419	16.919863
333	2024-01-14 20:00:00	8	casamassima	6.15	1	85.02	1	0.0	1	null	6	null	6	0.0	1	985.41	1	40.951419	16.919863
334	2024-01-14 21:00:00	8	casamassima	5.94	1	86.26	1	0.0	1	null	6	null	6	0.0	1	985.19	1	40.951419	16.919863
335	2024-01-14 22:00:00	8	casamassima	5.83	1	85.33	1	0.0	1	null	6	null	6	0.0	1	984.75	1	40.951419	16.919863
336	2024-01-14 23:00:00	8	casamassima	5.83	1	84.21	1	0.0	1	null	6	null	6	0.0	1	984.2	1	40.951419	16.919863
337	2024-01-15 00:00:00	8	casamassima	5.88	1	82.15	1	0.0	1	null	6	null	6	0.0	1	983.87	1	40.951419	16.919863
338	2024-01-15 01:00:00	8	casamassima	6.68	1	78.07	1	0.0	1	null	6	null	6	0.0	1	983.04	1	40.951419	16.919863
339	2024-01-15 02:00:00	8	casamassima	7.11	1	76.85	1	0.0	1	null	6	null	6	0.0	1	982.24	1	40.951419	16.919863
340	2024-01-15 03:00:00	8	casamassima	7.76	1	77.16	1	0.0	1	null	6	null	6	0.0	1	981.71	1	40.951419	16.919863
341	2024-01-15 04:00:00	8	casamassima	8.23	1	78.69	1	0.0	1	null	6	null	6	0.0	1	980.79	1	40.951419	16.919863
342	2024-01-15 05:00:00	8	casamassima	8.1	1	85.87	1	0.4	1	null	6	null	6	0.0	1	979.95	1	40.951419	16.919863
343	2024-01-15 06:00:00	8	casamassima	8.04	1	88.31	1	0.8	1	null	6	null	6	0.0	1	979.25	1	40.951419	16.919863
344	2024-01-15 07:00:00	8	casamassima	8.34	1	89.79	1	0.2	1	null	6	null	6	0.0	1	978.32	1	40.951419	16.919863
345	2024-01-15 08:00:00	8	casamassima	8.9	1	85.95	1	0.0	1	null	6	null	6	5.01	1	977.76	1	40.951419	16.919863
346	2024-01-15 09:00:00	8	casamassima	9.33	1	86.02	1	0.2	1	null	6	null	6	19.34	1	977.66	1	40.951419	16.919863
347	2024-01-15 10:00:00	8	casamassima	9.61	1	82.3	1	0.0	1	null	6	null	6	40.74	1	977.23	1	40.951419	16.919863
348	2024-01-15 11:00:00	8	casamassima	10.05	1	78.16	1	0.0	1	null	6	null	6	79.07	1	976.75	1	40.951419	16.919863
349	2024-01-15 12:00:00	8	casamassima	11.41	1	74.13	1	0.0	1	null	6	null	6	201.75	1	976.09	1	40.951419	16.919863
350	2024-01-15 13:00:00	8	casamassima	12.36	1	74.42	1	0.0	1	null	6	null	6	231.78	1	975.19	1	40.951419	16.919863
351	2024-01-15 14:00:00	8	casamassima	12.45	1	74.67	1	0.0	1	null	6	null	6	163.87	1	974.44	1	40.951419	16.919863
352	2024-01-15 15:00:00	8	casamassima	12.26	1	75.84	1	0.0	1	null	6	null	6	102.31	1	974.38	1	40.951419	16.919863
353	2024-01-15 16:00:00	8	casamassima	12.35	1	72.24	1	0.0	1	null	6	null	6	65.46	1	974.3	1	40.951419	16.919863
354	2024-01-15 17:00:00	8	casamassima	12.53	1	67.71	1	0.0	1	null	6	null	6	17.05	1	974.36	1	40.951419	16.919863
355	2024-01-15 18:00:00	8	casamassima	11.57	1	68.93	1	0.0	1	null	6	null	6	0.0	1	974.62	1	40.951419	16.919863
356	2024-01-15 19:00:00	8	casamassima	11.98	1	61.98	1	0.0	1	null	6	null	6	0.0	1	974.96	1	40.951419	16.919863
357	2024-01-15 20:00:00	8	casamassima	11.47	1	63.67	1	0.0	1	null	6	null	6	0.0	1	975.05	1	40.951419	16.919863
358	2024-01-15 21:00:00	8	casamassima	10.12	1	70.65	1	0.0	1	null	6	null	6	0.0	1	975.38	1	40.951419	16.919863
359	2024-01-15 22:00:00	8	casamassima	10.12	1	68.64	1	0.0	1	null	6	null	6	0.0	1	975.38	1	40.951419	16.919863
360	2024-01-15 23:00:00	8	casamassima	10.45	1	66.39	1	0.0	1	null	6	null	6	0.0	1	975.45	1	40.951419	16.919863
361	2024-01-16 00:00:00	8	casamassima	9.83	1	68.91	1	0.0	1	null	6	null	6	0.0	1	975.85	1	40.951419	16.919863
362	2024-01-16 01:00:00	8	casamassima	9.47	1	70.13	1	0.0	1	null	6	null	6	0.0	1	976.22	1	40.951419	16.919863
363	2024-01-16 02:00:00	8	casamassima	8.5	1	74.41	1	0.0	1	null	6	null	6	0.0	1	976.59	1	40.951419	16.919863
364	2024-01-16 03:00:00	8	casamassima	7.38	1	78.38	1	0.0	1	null	6	null	6	0.0	1	977.11	1	40.951419	16.919863
365	2024-01-16 04:00:00	8	casamassima	6.73	1	79.8	1	0.0	1	null	6	null	6	0.0	1	977.21	1	40.951419	16.919863
366	2024-01-16 05:00:00	8	casamassima	6.89	1	82.31	1	0.0	1	null	6	null	6	0.0	1	977.59	1	40.951419	16.919863
367	2024-01-16 06:00:00	8	casamassima	7.07	1	81.93	1	0.0	1	null	6	null	6	0.0	1	978.33	1	40.951419	16.919863
368	2024-01-16 07:00:00	8	casamassima	6.87	1	81.06	1	0.0	1	null	6	null	6	0.0	1	979.25	1	40.951419	16.919863
369	2024-01-16 08:00:00	8	casamassima	7.49	1	77.57	1	0.0	1	null	6	null	6	21.33	1	980.06	1	40.951419	16.919863
370	2024-01-16 09:00:00	8	casamassima	11.67	1	64.91	1	0.0	1	null	6	null	6	135.78	1	981.02	1	40.951419	16.919863
371	2024-01-16 10:00:00	8	casamassima	14.56	1	56.44	1	0.0	1	null	6	null	6	265.13	1	981.88	1	40.951419	16.919863
372	2024-01-16 11:00:00	8	casamassima	15.19	1	49.31	1	0.0	1	null	6	null	6	374.71	1	982.37	1	40.951419	16.919863
373	2024-01-16 12:00:00	8	casamassima	16.03	1	44.69	1	0.2	1	null	6	null	6	201.74	1	982.3	1	40.951419	16.919863
374	2024-01-16 13:00:00	8	casamassima	15.16	1	45.98	1	0.0	1	null	6	null	6	144.9	1	982.24	1	40.951419	16.919863
375	2024-01-16 14:00:00	8	casamassima	15.49	1	46.61	1	0.0	1	null	6	null	6	238.01	1	981.99	1	40.951419	16.919863
376	2024-01-16 15:00:00	8	casamassima	14.61	1	51.67	1	0.0	1	null	6	null	6	137.94	1	982.07	1	40.951419	16.919863
377	2024-01-16 16:00:00	8	casamassima	13.46	1	58.26	1	0.0	1	null	6	null	6	63.15	1	982.76	1	40.951419	16.919863
378	2024-01-16 17:00:00	8	casamassima	11.84	1	67.93	1	0.0	1	null	6	null	6	8.98	1	983.28	1	40.951419	16.919863
379	2024-01-16 18:00:00	8	casamassima	11.19	1	71.17	1	0.0	1	null	6	null	6	0.0	1	983.78	1	40.951419	16.919863
380	2024-01-16 19:00:00	8	casamassima	11.02	1	75.91	1	0.0	1	null	6	null	6	0.0	1	984.24	1	40.951419	16.919863
381	2024-01-16 20:00:00	8	casamassima	10.03	1	81.42	1	0.0	1	null	6	null	6	0.0	1	984.27	1	40.951419	16.919863
382	2024-01-16 21:00:00	8	casamassima	8.55	1	83.43	1	0.0	1	null	6	null	6	0.0	1	984.37	1	40.951419	16.919863
383	2024-01-16 22:00:00	8	casamassima	8.0	1	83.76	1	0.0	1	null	6	null	6	0.0	1	984.78	1	40.951419	16.919863
384	2024-01-16 23:00:00	8	casamassima	7.72	1	86.35	1	0.0	1	null	6	null	6	0.0	1	985.12	1	40.951419	16.919863
385	2024-01-17 00:00:00	8	casamassima	7.31	1	88.59	1	0.0	1	null	6	null	6	0.0	1	985.16	1	40.951419	16.919863
386	2024-01-17 01:00:00	8	casamassima	7.06	1	88.84	1	0.0	1	null	6	null	6	0.0	1	984.69	1	40.951419	16.919863
387	2024-01-17 02:00:00	8	casamassima	6.84	1	88.4	1	0.0	1	null	6	null	6	0.0	1	984.85	1	40.951419	16.919863
388	2024-01-17 03:00:00	8	casamassima	7.08	1	89.01	1	0.0	1	null	6	null	6	0.0	1	985.07	1	40.951419	16.919863
389	2024-01-17 04:00:00	8	casamassima	7.4	1	86.58	1	0.0	1	null	6	null	6	0.0	1	984.73	1	40.951419	16.919863
390	2024-01-17 05:00:00	8	casamassima	8.3	1	81.88	1	0.0	1	null	6	null	6	0.0	1	984.62	1	40.951419	16.919863
391	2024-01-17 06:00:00	8	casamassima	8.64	1	80.65	1	0.0	1	null	6	null	6	0.0	1	984.43	1	40.951419	16.919863
392	2024-01-17 07:00:00	8	casamassima	8.44	1	79.22	1	0.0	1	null	6	null	6	0.0	5	984.7	1	40.951419	16.919863
393	2024-01-17 08:00:00	8	casamassima	8.89	1	78.89	1	0.0	1	null	6	null	6	20.16	1	985.15	1	40.951419	16.919863
394	2024-01-17 09:00:00	8	casamassima	10.66	1	75.85	1	0.0	1	null	6	null	6	106.15	1	985.15	1	40.951419	16.919863
395	2024-01-17 10:00:00	8	casamassima	12.73	1	70.41	1	0.0	1	null	6	null	6	185.31	1	985.09	1	40.951419	16.919863
396	2024-01-17 11:00:00	8	casamassima	15.08	1	62.67	1	0.0	1	null	6	null	6	296.76	1	984.71	1	40.951419	16.919863
397	2024-01-17 12:00:00	8	casamassima	15.7	1	62.76	1	0.0	1	null	6	null	6	190.5	1	983.92	1	40.951419	16.919863
398	2024-01-17 13:00:00	8	casamassima	14.55	1	65.6	1	0.0	1	null	6	null	6	104.66	1	983.29	1	40.951419	16.919863
399	2024-01-17 14:00:00	8	casamassima	13.83	1	72.23	1	0.0	1	null	6	null	6	80.41	1	982.52	1	40.951419	16.919863
400	2024-01-17 15:00:00	8	casamassima	13.87	1	71.81	1	0.0	1	null	6	null	6	63.31	1	982.12	1	40.951419	16.919863
401	2024-01-17 16:00:00	8	casamassima	13.86	1	73.41	1	0.0	1	null	6	null	6	28.84	1	982.27	1	40.951419	16.919863
402	2024-01-17 17:00:00	8	casamassima	13.3	1	78.13	1	0.0	1	null	6	null	6	0.0	5	982.19	1	40.951419	16.919863
403	2024-01-17 18:00:00	8	casamassima	12.58	1	83.61	1	0.2	1	null	6	null	6	0.0	1	982.15	1	40.951419	16.919863
404	2024-01-17 19:00:00	8	casamassima	12.41	1	82.79	1	0.0	1	null	6	null	6	0.0	1	982.78	1	40.951419	16.919863
405	2024-01-17 20:00:00	8	casamassima	12.21	1	83.3	1	0.2	1	null	6	null	6	0.0	1	982.46	1	40.951419	16.919863
406	2024-01-17 21:00:00	8	casamassima	12.61	1	81.1	1	0.0	1	null	6	null	6	0.0	1	982.33	1	40.951419	16.919863
407	2024-01-17 22:00:00	8	casamassima	12.72	1	80.35	1	0.0	1	null	6	null	6	0.0	1	981.69	1	40.951419	16.919863
408	2024-01-17 23:00:00	8	casamassima	12.49	1	82.51	1	0.0	1	null	6	null	6	0.0	1	981.28	1	40.951419	16.919863
409	2024-01-18 00:00:00	8	casamassima	12.52	1	81.56	1	0.0	1	null	6	null	6	0.0	1	980.78	1	40.951419	16.919863
410	2024-01-18 01:00:00	8	casamassima	12.35	1	84.46	1	0.0	1	null	6	null	6	0.0	1	980.59	1	40.951419	16.919863
411	2024-01-18 02:00:00	8	casamassima	12.09	1	85.9	1	0.0	1	null	6	null	6	0.0	1	980.44	1	40.951419	16.919863
412	2024-01-18 03:00:00	8	casamassima	12.51	1	80.79	1	0.0	1	null	6	null	6	0.0	1	979.45	1	40.951419	16.919863
413	2024-01-18 04:00:00	8	casamassima	12.19	1	81.21	1	0.0	1	null	6	null	6	0.0	1	978.44	1	40.951419	16.919863
414	2024-01-18 05:00:00	8	casamassima	11.59	1	84.22	1	0.0	1	null	6	null	6	0.0	1	977.93	1	40.951419	16.919863
415	2024-01-18 06:00:00	8	casamassima	11.31	1	85.8	1	0.0	1	null	6	null	6	0.0	1	976.92	1	40.951419	16.919863
416	2024-01-18 07:00:00	8	casamassima	11.83	1	79.6	1	0.0	1	null	6	null	6	0.0	1	977.23	1	40.951419	16.919863
417	2024-01-18 08:00:00	8	casamassima	12.3	1	75.05	1	0.0	1	null	6	null	6	20.66	1	977.37	1	40.951419	16.919863
418	2024-01-18 09:00:00	8	casamassima	14.46	1	67.65	1	0.0	1	null	6	null	6	135.66	1	977.07	1	40.951419	16.919863
419	2024-01-18 10:00:00	8	casamassima	17.22	1	56.96	1	0.0	1	null	6	null	6	264.74	1	977.07	1	40.951419	16.919863
420	2024-01-18 11:00:00	8	casamassima	19.27	1	50.27	1	0.0	1	null	6	null	6	375.82	1	976.98	1	40.951419	16.919863
421	2024-01-18 12:00:00	8	casamassima	19.15	1	51.65	1	0.0	1	null	6	null	6	212.94	1	976.77	1	40.951419	16.919863
422	2024-01-18 13:00:00	8	casamassima	19.72	1	44.68	1	0.0	1	null	6	null	6	72.32	1	976.13	1	40.951419	16.919863
423	2024-01-18 14:00:00	8	casamassima	19.92	1	41.94	1	0.0	1	null	6	null	6	209.25	1	975.97	1	40.951419	16.919863
424	2024-01-18 15:00:00	8	casamassima	19.8	1	42.49	1	0.0	1	null	6	null	6	296.06	1	976.19	1	40.951419	16.919863
425	2024-01-18 16:00:00	8	casamassima	18.75	1	41.7	1	0.0	1	null	6	null	6	141.25	1	976.47	1	40.951419	16.919863
426	2024-01-18 17:00:00	8	casamassima	16.64	1	46.69	1	0.0	1	null	6	null	6	10.85	1	977.24	1	40.951419	16.919863
427	2024-01-18 18:00:00	8	casamassima	15.51	1	48.79	1	0.0	1	null	6	null	6	0.0	1	977.54	1	40.951419	16.919863
428	2024-01-18 19:00:00	8	casamassima	14.43	1	51.8	1	0.0	1	null	6	null	6	0.0	1	977.67	1	40.951419	16.919863
429	2024-01-18 20:00:00	8	casamassima	12.62	1	57.72	1	0.0	1	null	6	null	6	0.0	1	978.01	1	40.951419	16.919863
430	2024-01-18 21:00:00	8	casamassima	12.17	1	59.83	1	0.0	1	null	6	null	6	0.0	1	978.56	1	40.951419	16.919863
431	2024-01-18 22:00:00	8	casamassima	13.85	1	54.74	1	0.0	1	null	6	null	6	0.0	1	978.31	1	40.951419	16.919863
432	2024-01-18 23:00:00	8	casamassima	13.88	1	57.16	1	0.0	1	null	6	null	6	0.0	1	978.3	1	40.951419	16.919863
433	2024-01-19 00:00:00	8	casamassima	13.88	1	57.82	1	0.0	1	null	6	null	6	0.0	1	978.41	1	40.951419	16.919863
434	2024-01-19 01:00:00	8	casamassima	13.98	1	56.47	1	0.0	1	null	6	null	6	0.0	1	978.68	1	40.951419	16.919863
435	2024-01-19 02:00:00	8	casamassima	13.19	1	59.06	1	0.0	1	null	6	null	6	0.0	1	978.98	1	40.951419	16.919863
436	2024-01-19 03:00:00	8	casamassima	12.86	1	59.31	1	0.0	1	null	6	null	6	0.0	1	979.47	1	40.951419	16.919863
437	2024-01-19 04:00:00	8	casamassima	12.34	1	59.99	1	0.0	1	null	6	null	6	0.0	1	979.86	1	40.951419	16.919863
438	2024-01-19 05:00:00	8	casamassima	13.04	1	59.45	1	0.0	1	null	6	null	6	0.0	1	979.51	1	40.951419	16.919863
439	2024-01-19 06:00:00	8	casamassima	12.77	1	60.63	1	0.0	1	null	6	null	6	0.0	1	979.75	1	40.951419	16.919863
440	2024-01-19 07:00:00	8	casamassima	13.36	1	57.53	1	0.0	1	null	6	null	6	0.0	5	980.32	1	40.951419	16.919863
441	2024-01-19 08:00:00	8	casamassima	13.86	1	54.71	1	0.0	1	null	6	null	6	20.82	1	980.02	1	40.951419	16.919863
442	2024-01-19 09:00:00	8	casamassima	15.16	1	51.8	1	0.0	1	null	6	null	6	127.23	1	980.33	1	40.951419	16.919863
443	2024-01-19 10:00:00	8	casamassima	16.14	1	50.55	1	0.0	1	null	6	null	6	245.91	1	980.51	1	40.951419	16.919863
444	2024-01-19 11:00:00	8	casamassima	17.52	1	45.47	1	0.0	1	null	6	null	6	355.11	1	980.99	1	40.951419	16.919863
445	2024-01-19 12:00:00	8	casamassima	18.16	1	46.35	1	0.0	1	null	6	null	6	268.11	1	981.33	1	40.951419	16.919863
446	2024-01-19 13:00:00	8	casamassima	17.39	1	50.74	1	0.0	1	null	6	null	6	177.04	1	981.22	1	40.951419	16.919863
447	2024-01-19 14:00:00	8	casamassima	17.41	1	51.27	1	0.0	1	null	6	null	6	148.64	1	980.75	1	40.951419	16.919863
448	2024-01-19 15:00:00	8	casamassima	16.6	1	58.13	1	0.0	1	null	6	null	6	131.16	1	980.84	1	40.951419	16.919863
449	2024-01-19 16:00:00	8	casamassima	15.97	1	61.38	1	0.0	1	null	6	null	6	81.44	1	981.02	1	40.951419	16.919863
450	2024-01-19 17:00:00	8	casamassima	14.84	1	65.87	1	0.0	1	null	6	null	6	17.21	1	981.24	1	40.951419	16.919863
451	2024-01-19 18:00:00	8	casamassima	13.57	1	70.01	1	0.0	1	null	6	null	6	0.0	1	981.33	1	40.951419	16.919863
452	2024-01-19 19:00:00	8	casamassima	12.98	1	67.15	1	0.0	1	null	6	null	6	0.0	1	981.53	1	40.951419	16.919863
453	2024-01-19 20:00:00	8	casamassima	13.58	1	60.16	1	0.0	1	null	6	null	6	0.0	1	981.51	1	40.951419	16.919863
454	2024-01-19 21:00:00	8	casamassima	14.59	1	54.99	1	0.0	1	null	6	null	6	0.0	1	981.69	1	40.951419	16.919863
455	2024-01-19 22:00:00	8	casamassima	14.39	1	56.45	1	0.0	1	null	6	null	6	0.0	1	982.2	1	40.951419	16.919863
456	2024-01-19 23:00:00	8	casamassima	14.0	1	58.41	1	0.0	1	null	6	null	6	0.0	1	982.81	1	40.951419	16.919863
457	2024-01-20 00:00:00	8	casamassima	13.53	1	62.86	1	0.0	1	null	6	null	6	0.0	1	983.45	1	40.951419	16.919863
458	2024-01-20 01:00:00	8	casamassima	11.47	1	80.16	1	0.0	1	null	6	null	6	0.0	5	983.94	1	40.951419	16.919863
459	2024-01-20 02:00:00	8	casamassima	9.51	1	90.93	1	0.8	1	null	6	null	6	0.0	5	984.74	1	40.951419	16.919863
460	2024-01-20 03:00:00	8	casamassima	8.63	1	92.15	1	1.0	1	null	6	null	6	0.0	5	985.18	1	40.951419	16.919863
461	2024-01-20 04:00:00	8	casamassima	8.37	1	92.61	1	0.8	1	null	6	null	6	0.0	5	985.61	1	40.951419	16.919863
462	2024-01-20 05:00:00	8	casamassima	7.74	1	87.18	1	0.2	1	null	6	null	6	0.0	1	986.29	1	40.951419	16.919863
463	2024-01-20 06:00:00	8	casamassima	7.12	1	84.37	1	0.0	1	null	6	null	6	0.0	5	986.94	1	40.951419	16.919863
464	2024-01-20 07:00:00	8	casamassima	6.54	1	89.85	1	1.8	1	null	6	null	6	0.0	5	987.63	1	40.951419	16.919863
465	2024-01-20 08:00:00	8	casamassima	5.56	1	93.03	1	3.4	1	null	6	null	6	0.0	5	988.47	1	40.951419	16.919863
466	2024-01-20 09:00:00	8	casamassima	5.2	1	93.22	1	2.6	1	null	6	null	6	12.8	1	989.05	1	40.951419	16.919863
467	2024-01-20 10:00:00	8	casamassima	4.84	1	92.79	1	3.0	1	null	6	null	6	25.4	1	989.64	1	40.951419	16.919863
468	2024-01-20 11:00:00	8	casamassima	4.35	1	90.81	1	2.4	1	null	6	null	6	31.09	1	990.35	1	40.951419	16.919863
469	2024-01-20 12:00:00	8	casamassima	3.94	1	90.37	1	2.8	1	null	6	null	6	50.14	1	990.47	1	40.951419	16.919863
470	2024-01-20 13:00:00	8	casamassima	4.14	1	89.21	1	0.8	1	null	6	null	6	84.98	1	990.5	1	40.951419	16.919863
471	2024-01-20 14:00:00	8	casamassima	4.27	1	90.81	1	1.2	1	null	6	null	6	44.04	1	990.38	1	40.951419	16.919863
472	2024-01-20 15:00:00	8	casamassima	4.21	1	92.84	1	0.8	1	null	6	null	6	62.13	1	990.55	1	40.951419	16.919863
473	2024-01-20 16:00:00	8	casamassima	4.52	1	87.5	1	0.4	1	null	6	null	6	41.22	1	990.89	1	40.951419	16.919863
474	2024-01-20 17:00:00	8	casamassima	4.47	1	87.81	1	0.0	1	null	6	null	6	7.91	1	991.21	1	40.951419	16.919863
475	2024-01-20 18:00:00	8	casamassima	5.07	1	70.58	1	0.0	1	null	6	null	6	0.0	5	991.6	1	40.951419	16.919863
476	2024-01-20 19:00:00	8	casamassima	5.52	1	56.59	1	0.0	1	null	6	null	6	0.0	1	992.07	1	40.951419	16.919863
477	2024-01-20 20:00:00	8	casamassima	5.21	1	54.49	1	0.0	1	null	6	null	6	0.0	1	992.6	1	40.951419	16.919863
478	2024-01-20 21:00:00	8	casamassima	5.11	1	56.1	1	0.0	1	null	6	null	6	0.0	1	992.96	1	40.951419	16.919863
479	2024-01-20 22:00:00	8	casamassima	5.27	1	56.62	1	0.0	1	null	6	null	6	0.0	1	993.19	1	40.951419	16.919863
480	2024-01-20 23:00:00	8	casamassima	5.35	1	54.35	1	0.0	1	null	6	null	6	0.0	1	993.47	1	40.951419	16.919863
481	2024-01-21 00:00:00	8	casamassima	4.94	1	54.94	1	0.0	1	null	6	null	6	0.0	1	993.84	1	40.951419	16.919863
482	2024-01-21 01:00:00	8	casamassima	4.45	1	51.28	1	0.0	1	null	6	null	6	0.0	1	994.06	1	40.951419	16.919863
483	2024-01-21 02:00:00	8	casamassima	3.23	1	59.97	1	0.0	1	null	6	null	6	0.0	1	994.19	1	40.951419	16.919863
484	2024-01-21 03:00:00	8	casamassima	3.29	1	56.92	1	0.0	1	null	6	null	6	0.0	1	994.4	1	40.951419	16.919863
485	2024-01-21 04:00:00	8	casamassima	3.83	1	52.93	1	0.0	1	null	6	null	6	0.0	1	994.58	1	40.951419	16.919863
486	2024-01-21 05:00:00	8	casamassima	2.02	1	64.45	1	0.0	1	null	6	null	6	0.0	1	995.04	1	40.951419	16.919863
487	2024-01-21 06:00:00	8	casamassima	1.03	1	69.75	1	0.0	1	null	6	null	6	0.0	1	995.47	1	40.951419	16.919863
488	2024-01-21 07:00:00	8	casamassima	2.06	1	64.79	1	0.0	1	null	6	null	6	0.0	1	995.79	1	40.951419	16.919863
489	2024-01-21 08:00:00	8	casamassima	1.73	1	68.26	1	0.0	1	null	6	null	6	19.16	1	996.48	1	40.951419	16.919863
490	2024-01-21 09:00:00	8	casamassima	3.15	1	62.85	1	0.0	1	null	6	null	6	78.84	1	997.24	1	40.951419	16.919863
491	2024-01-21 10:00:00	8	casamassima	5.6	1	55.28	1	0.0	1	null	6	null	6	210.25	1	997.96	1	40.951419	16.919863
492	2024-01-21 11:00:00	8	casamassima	7.88	1	45.08	1	0.0	1	null	6	null	6	351.93	1	998.26	1	40.951419	16.919863
493	2024-01-21 12:00:00	8	casamassima	8.58	1	43.77	1	0.0	1	null	6	null	6	295.65	1	998.4	1	40.951419	16.919863
494	2024-01-21 13:00:00	8	casamassima	8.38	1	47.31	1	0.0	1	null	6	null	6	65.6	1	998.35	1	40.951419	16.919863
495	2024-01-21 14:00:00	8	casamassima	8.47	1	43.93	1	0.0	1	null	6	null	6	259.39	1	998.26	1	40.951419	16.919863
496	2024-01-21 15:00:00	8	casamassima	8.9	1	40.92	1	0.0	1	null	6	null	6	343.05	1	998.36	1	40.951419	16.919863
497	2024-01-21 16:00:00	8	casamassima	8.81	1	41.82	1	0.0	1	null	6	null	6	175.19	1	998.73	1	40.951419	16.919863
498	2024-01-21 17:00:00	8	casamassima	7.84	1	47.22	1	0.0	1	null	6	null	6	10.46	1	999.34	1	40.951419	16.919863
499	2024-01-21 18:00:00	8	casamassima	7.01	1	52.63	1	0.0	1	null	6	null	6	0.0	1	1000.05	1	40.951419	16.919863
500	2024-01-21 19:00:00	8	casamassima	5.98	1	51.32	1	0.0	1	null	6	null	6	0.0	1	1000.83	1	40.951419	16.919863
501	2024-01-21 20:00:00	8	casamassima	3.88	1	59.95	1	0.0	1	null	6	null	6	0.0	1	1001.24	1	40.951419	16.919863
502	2024-01-21 21:00:00	8	casamassima	3.23	1	64.38	1	0.0	1	null	6	null	6	0.0	1	1001.55	1	40.951419	16.919863
503	2024-01-21 22:00:00	8	casamassima	2.91	1	65.82	1	0.0	1	null	6	null	6	0.0	1	1001.87	1	40.951419	16.919863
504	2024-01-21 23:00:00	8	casamassima	3.11	1	69.17	1	0.0	1	null	6	null	6	0.0	1	1002.27	1	40.951419	16.919863
505	2024-01-22 00:00:00	8	casamassima	2.86	1	71.59	1	0.0	1	null	6	null	6	0.0	1	1002.37	1	40.951419	16.919863
506	2024-01-22 01:00:00	8	casamassima	2.98	1	73.57	1	0.0	1	null	6	null	6	0.0	1	1002.46	1	40.951419	16.919863
507	2024-01-22 02:00:00	8	casamassima	3.18	1	74.6	1	0.0	1	null	6	null	6	0.0	1	1002.86	1	40.951419	16.919863
508	2024-01-22 03:00:00	8	casamassima	2.25	1	78.01	1	0.0	1	null	6	null	6	0.0	1	1002.98	1	40.951419	16.919863
509	2024-01-22 04:00:00	8	casamassima	1.2	1	81.7	1	0.0	1	null	6	null	6	0.0	1	1002.93	1	40.951419	16.919863
510	2024-01-22 05:00:00	8	casamassima	0.98	1	82.05	1	0.0	1	null	6	null	6	0.0	1	1003.09	1	40.951419	16.919863
511	2024-01-22 06:00:00	8	casamassima	0.62	1	85.02	1	0.0	1	null	6	null	6	0.0	1	1003.04	1	40.951419	16.919863
512	2024-01-22 07:00:00	8	casamassima	0.5	1	87.22	1	0.0	1	null	6	null	6	0.0	1	1003.24	1	40.951419	16.919863
513	2024-01-22 08:00:00	8	casamassima	1.01	1	87.43	1	0.0	1	null	6	null	6	29.22	1	1003.47	1	40.951419	16.919863
514	2024-01-22 09:00:00	8	casamassima	7.03	1	67.75	1	0.0	1	null	6	null	6	151.4	1	1003.74	1	40.951419	16.919863
515	2024-01-22 10:00:00	8	casamassima	9.35	1	60.52	1	0.0	1	null	6	null	6	287.9	1	1003.95	1	40.951419	16.919863
516	2024-01-22 11:00:00	8	casamassima	9.81	1	61.03	1	0.0	1	null	6	null	6	405.44	1	1004.05	1	40.951419	16.919863
517	2024-01-22 12:00:00	8	casamassima	10.62	1	53.82	1	0.0	1	null	6	null	6	305.41	1	1003.58	1	40.951419	16.919863
518	2024-01-22 13:00:00	8	casamassima	10.16	1	51.19	1	0.0	1	null	6	null	6	61.15	1	1003.17	1	40.951419	16.919863
519	2024-01-22 14:00:00	8	casamassima	10.18	1	52.78	1	0.0	1	null	6	null	6	250.57	1	1002.55	1	40.951419	16.919863
520	2024-01-22 15:00:00	8	casamassima	10.64	1	54.07	1	0.0	1	null	6	null	6	336.44	1	1002.14	1	40.951419	16.919863
521	2024-01-22 16:00:00	8	casamassima	10.13	1	56.0	1	0.0	1	null	6	null	6	169.45	1	1001.82	1	40.951419	16.919863
522	2024-01-22 17:00:00	8	casamassima	8.57	1	60.96	1	0.0	1	null	6	null	6	10.4	1	1001.45	1	40.951419	16.919863
523	2024-01-22 18:00:00	8	casamassima	6.96	1	69.6	1	0.0	1	null	6	null	6	0.0	1	1001.33	1	40.951419	16.919863
524	2024-01-22 19:00:00	8	casamassima	4.57	1	80.16	1	0.0	1	null	6	null	6	0.0	1	1001.4	1	40.951419	16.919863
525	2024-01-22 20:00:00	8	casamassima	3.09	1	85.34	1	0.0	1	null	6	null	6	0.0	1	1001.27	1	40.951419	16.919863
526	2024-01-22 21:00:00	8	casamassima	2.56	1	87.06	1	0.0	1	null	6	null	6	0.0	1	1000.93	1	40.951419	16.919863
527	2024-01-22 22:00:00	8	casamassima	1.83	1	88.23	1	0.0	1	null	6	null	6	0.0	1	1000.56	1	40.951419	16.919863
528	2024-01-22 23:00:00	8	casamassima	1.62	1	86.6	1	0.0	1	null	6	null	6	0.0	1	1000.14	1	40.951419	16.919863
529	2024-01-23 00:00:00	8	casamassima	1.65	1	84.61	1	0.0	1	null	6	null	6	0.0	1	999.59	1	40.951419	16.919863
530	2024-01-23 01:00:00	8	casamassima	1.37	1	80.86	1	0.0	1	null	6	null	6	0.0	1	998.94	1	40.951419	16.919863
531	2024-01-23 02:00:00	8	casamassima	1.72	1	78.1	1	0.0	1	null	6	null	6	0.0	1	998.28	1	40.951419	16.919863
532	2024-01-23 03:00:00	8	casamassima	2.01	1	76.02	1	0.0	1	null	6	null	6	0.0	1	997.96	1	40.951419	16.919863
533	2024-01-23 04:00:00	8	casamassima	2.23	1	78.23	1	0.0	1	null	6	null	6	0.0	1	997.69	1	40.951419	16.919863
534	2024-01-23 05:00:00	8	casamassima	2.58	1	80.3	1	0.0	1	null	6	null	6	0.0	1	997.78	1	40.951419	16.919863
535	2024-01-23 06:00:00	8	casamassima	2.87	1	74.12	1	0.0	1	null	6	null	6	0.0	1	997.85	1	40.951419	16.919863
536	2024-01-23 07:00:00	8	casamassima	3.62	1	68.92	1	0.0	1	null	6	null	6	0.0	1	997.72	1	40.951419	16.919863
537	2024-01-23 08:00:00	8	casamassima	5.1	1	66.04	1	0.0	1	null	6	null	6	31.55	1	997.8	1	40.951419	16.919863
538	2024-01-23 09:00:00	8	casamassima	6.9	1	61.87	1	0.0	1	null	6	null	6	101.44	1	998.18	1	40.951419	16.919863
539	2024-01-23 10:00:00	8	casamassima	8.37	1	57.84	1	0.0	1	null	6	null	6	164.73	1	998.27	1	40.951419	16.919863
540	2024-01-23 11:00:00	8	casamassima	8.54	1	57.33	1	0.0	1	null	6	null	6	142.33	1	998.52	1	40.951419	16.919863
541	2024-01-23 12:00:00	8	casamassima	9.17	1	58.48	1	0.0	1	null	6	null	6	181.63	1	998.32	1	40.951419	16.919863
542	2024-01-23 13:00:00	8	casamassima	8.75	1	63.82	1	0.0	1	null	6	null	6	44.12	1	998.01	1	40.951419	16.919863
543	2024-01-23 14:00:00	8	casamassima	8.36	1	73.81	1	0.0	1	null	6	null	6	79.63	1	997.86	1	40.951419	16.919863
544	2024-01-23 15:00:00	8	casamassima	7.8	1	84.62	1	0.0	1	null	6	null	6	62.5	1	997.93	1	40.951419	16.919863
545	2024-01-23 16:00:00	8	casamassima	7.1	1	90.08	1	0.8	1	null	6	null	6	20.1	1	998.06	1	40.951419	16.919863
546	2024-01-23 17:00:00	8	casamassima	6.87	1	88.88	1	0.0	1	null	6	null	6	0.0	5	998.55	1	40.951419	16.919863
547	2024-01-23 18:00:00	8	casamassima	7.43	1	84.66	1	0.0	1	null	6	null	6	0.0	1	999.0	1	40.951419	16.919863
548	2024-01-23 19:00:00	8	casamassima	8.48	1	77.46	1	0.0	1	null	6	null	6	0.0	1	999.65	1	40.951419	16.919863
549	2024-01-23 20:00:00	8	casamassima	8.39	1	79.22	1	0.0	1	null	6	null	6	0.0	1	1000.19	1	40.951419	16.919863
550	2024-01-23 21:00:00	8	casamassima	8.13	1	82.84	1	0.0	1	null	6	null	6	0.0	1	1000.56	1	40.951419	16.919863
551	2024-01-23 22:00:00	8	casamassima	7.02	1	88.19	1	0.0	1	null	6	null	6	0.0	1	1000.57	1	40.951419	16.919863
552	2024-01-23 23:00:00	8	casamassima	6.89	1	88.22	1	0.0	1	null	6	null	6	0.0	1	1000.66	1	40.951419	16.919863
553	2024-01-24 00:00:00	8	casamassima	6.84	1	88.43	1	0.0	1	null	6	null	6	0.0	1	1000.85	1	40.951419	16.919863
554	2024-01-24 01:00:00	8	casamassima	7.46	1	73.92	1	0.0	1	null	6	null	6	0.0	1	1000.7	1	40.951419	16.919863
555	2024-01-24 02:00:00	8	casamassima	8.51	1	56.7	1	0.0	1	null	6	null	6	0.0	1	1000.93	1	40.951419	16.919863
556	2024-01-24 03:00:00	8	casamassima	8.45	1	53.1	1	0.0	1	null	6	null	6	0.0	1	1000.83	1	40.951419	16.919863
557	2024-01-24 04:00:00	8	casamassima	8.31	1	52.25	1	0.0	1	null	6	null	6	0.0	1	1000.96	1	40.951419	16.919863
558	2024-01-24 05:00:00	8	casamassima	8.07	1	55.55	1	0.0	1	null	6	null	6	0.0	1	1001.04	1	40.951419	16.919863
559	2024-01-24 06:00:00	8	casamassima	7.8	1	55.7	1	0.0	1	null	6	null	6	0.0	1	1001.34	1	40.951419	16.919863
560	2024-01-24 07:00:00	8	casamassima	6.94	1	58.35	1	0.0	1	null	6	null	6	0.0	1	1001.46	1	40.951419	16.919863
561	2024-01-24 08:00:00	8	casamassima	6.8	1	59.5	1	0.0	1	null	6	null	6	26.27	1	1001.74	1	40.951419	16.919863
562	2024-01-24 09:00:00	8	casamassima	9.31	1	53.69	1	0.0	1	null	6	null	6	154.42	1	1002.09	1	40.951419	16.919863
563	2024-01-24 10:00:00	8	casamassima	10.41	1	54.38	1	0.0	1	null	6	null	6	285.96	1	1002.57	1	40.951419	16.919863
564	2024-01-24 11:00:00	8	casamassima	10.9	1	51.17	1	0.0	1	null	6	null	6	402.3	1	1002.55	1	40.951419	16.919863
565	2024-01-24 12:00:00	8	casamassima	11.26	1	51.04	1	0.0	1	null	6	null	6	345.73	1	1002.32	1	40.951419	16.919863
566	2024-01-24 13:00:00	8	casamassima	10.86	1	51.55	1	0.0	1	null	6	null	6	53.77	1	1001.48	1	40.951419	16.919863
567	2024-01-24 14:00:00	8	casamassima	11.56	1	46.92	1	0.0	1	null	6	null	6	242.71	1	1000.69	1	40.951419	16.919863
568	2024-01-24 15:00:00	8	casamassima	12.56	1	40.22	1	0.0	1	null	6	null	6	339.95	1	1000.33	1	40.951419	16.919863
569	2024-01-24 16:00:00	8	casamassima	12.67	1	37.64	1	0.0	1	null	6	null	6	178.24	1	999.9	1	40.951419	16.919863
570	2024-01-24 17:00:00	8	casamassima	11.19	1	43.56	1	0.0	1	null	6	null	6	22.44	1	999.12	1	40.951419	16.919863
571	2024-01-24 18:00:00	8	casamassima	9.04	1	55.65	1	0.0	1	null	6	null	6	0.0	1	999.09	1	40.951419	16.919863
572	2024-01-24 19:00:00	8	casamassima	7.41	1	62.29	1	0.0	1	null	6	null	6	0.0	1	998.98	1	40.951419	16.919863
573	2024-01-24 20:00:00	8	casamassima	6.58	1	65.86	1	0.0	1	null	6	null	6	0.0	1	998.57	1	40.951419	16.919863
574	2024-01-24 21:00:00	8	casamassima	6.22	1	67.05	1	0.0	1	null	6	null	6	0.0	1	998.51	1	40.951419	16.919863
575	2024-01-24 22:00:00	8	casamassima	5.65	1	66.23	1	0.0	1	null	6	null	6	0.0	1	998.21	1	40.951419	16.919863
576	2024-01-24 23:00:00	8	casamassima	5.69	1	61.38	1	0.0	1	null	6	null	6	0.0	1	997.76	1	40.951419	16.919863
577	2024-01-25 00:00:00	8	casamassima	6.1	1	62.61	1	0.0	1	null	6	null	6	0.0	1	997.31	1	40.951419	16.919863
578	2024-01-25 01:00:00	8	casamassima	6.14	1	62.18	1	0.0	1	null	6	null	6	0.0	1	996.52	1	40.951419	16.919863
579	2024-01-25 02:00:00	8	casamassima	5.82	1	62.74	1	0.0	1	null	6	null	6	0.0	1	996.14	1	40.951419	16.919863
580	2024-01-25 03:00:00	8	casamassima	5.37	1	64.64	1	0.0	1	null	6	null	6	0.0	1	996.06	1	40.951419	16.919863
581	2024-01-25 04:00:00	8	casamassima	4.29	1	69.29	1	0.0	1	null	6	null	6	0.0	1	995.51	1	40.951419	16.919863
582	2024-01-25 05:00:00	8	casamassima	3.78	1	70.8	1	0.0	1	null	6	null	6	0.0	1	995.36	1	40.951419	16.919863
583	2024-01-25 06:00:00	8	casamassima	3.57	1	72.23	1	0.0	1	null	6	null	6	0.0	1	995.52	1	40.951419	16.919863
584	2024-01-25 07:00:00	8	casamassima	3.32	1	73.3	1	0.0	1	null	6	null	6	0.0	1	995.72	1	40.951419	16.919863
585	2024-01-25 08:00:00	8	casamassima	3.34	1	74.56	1	0.0	1	null	6	null	6	32.12	1	995.77	1	40.951419	16.919863
586	2024-01-25 09:00:00	8	casamassima	9.57	1	55.62	1	0.0	1	null	6	null	6	154.39	1	995.44	1	40.951419	16.919863
587	2024-01-25 10:00:00	8	casamassima	12.92	1	46.22	1	0.0	1	null	6	null	6	294.1	1	995.24	1	40.951419	16.919863
588	2024-01-25 11:00:00	8	casamassima	13.9	1	42.47	1	0.0	1	null	6	null	6	403.63	1	995.37	1	40.951419	16.919863
589	2024-01-25 12:00:00	8	casamassima	14.49	1	41.52	1	0.0	1	null	6	null	6	358.46	1	995.4	1	40.951419	16.919863
590	2024-01-25 13:00:00	8	casamassima	13.21	1	46.8	1	0.0	1	null	6	null	6	56.52	1	995.21	1	40.951419	16.919863
591	2024-01-25 14:00:00	8	casamassima	12.88	1	50.97	1	0.0	1	null	6	null	6	250.63	1	995.3	1	40.951419	16.919863
592	2024-01-25 15:00:00	8	casamassima	12.83	1	66.35	1	0.0	1	null	6	null	6	307.74	1	995.79	1	40.951419	16.919863
593	2024-01-25 16:00:00	8	casamassima	11.87	1	71.68	1	0.0	1	null	6	null	6	136.23	1	995.91	1	40.951419	16.919863
594	2024-01-25 17:00:00	8	casamassima	11.0	1	73.57	1	0.0	1	null	6	null	6	19.57	1	996.15	1	40.951419	16.919863
595	2024-01-25 18:00:00	8	casamassima	9.46	1	77.18	1	0.0	1	null	6	null	6	0.0	5	996.49	1	40.951419	16.919863
596	2024-01-25 19:00:00	8	casamassima	7.09	1	85.78	1	0.0	1	null	6	null	6	0.0	1	996.56	1	40.951419	16.919863
597	2024-01-25 20:00:00	8	casamassima	6.82	1	89.06	1	0.0	1	null	6	null	6	0.0	1	996.93	1	40.951419	16.919863
598	2024-01-25 21:00:00	8	casamassima	5.6	1	90.05	1	0.0	1	null	6	null	6	0.0	1	997.0	1	40.951419	16.919863
599	2024-01-25 22:00:00	8	casamassima	5.22	1	84.06	1	0.0	1	null	6	null	6	0.0	1	996.98	1	40.951419	16.919863
600	2024-01-25 23:00:00	8	casamassima	5.25	1	83.33	1	0.0	1	null	6	null	6	0.0	1	996.99	1	40.951419	16.919863
601	2024-01-26 00:00:00	8	casamassima	5.29	1	88.2	1	0.0	1	null	6	null	6	0.0	1	997.01	1	40.951419	16.919863
602	2024-01-26 01:00:00	8	casamassima	5.14	1	89.12	1	0.0	1	null	6	null	6	0.0	1	996.87	1	40.951419	16.919863
603	2024-01-26 02:00:00	8	casamassima	4.41	1	89.9	1	0.0	1	null	6	null	6	0.0	1	996.96	1	40.951419	16.919863
604	2024-01-26 03:00:00	8	casamassima	4.16	1	87.85	1	0.0	1	null	6	null	6	0.0	1	997.32	1	40.951419	16.919863
605	2024-01-26 04:00:00	8	casamassima	4.34	1	86.22	1	0.0	1	null	6	null	6	0.0	1	997.37	1	40.951419	16.919863
606	2024-01-26 05:00:00	8	casamassima	3.31	1	86.93	1	0.0	1	null	6	null	6	0.0	1	997.23	1	40.951419	16.919863
607	2024-01-26 06:00:00	8	casamassima	2.53	1	88.05	1	0.0	1	null	6	null	6	0.0	1	997.31	1	40.951419	16.919863
608	2024-01-26 07:00:00	8	casamassima	2.17	1	88.06	1	0.0	1	null	6	null	6	0.0	1	997.47	1	40.951419	16.919863
609	2024-01-26 08:00:00	8	casamassima	2.54	1	86.81	1	0.0	1	null	6	null	6	25.69	1	997.95	1	40.951419	16.919863
610	2024-01-26 09:00:00	8	casamassima	8.79	1	66.55	1	0.0	1	null	6	null	6	155.8	1	998.28	1	40.951419	16.919863
611	2024-01-26 10:00:00	8	casamassima	11.76	1	60.58	1	0.0	1	null	6	null	6	295.98	1	998.22	1	40.951419	16.919863
612	2024-01-26 11:00:00	8	casamassima	13.11	1	57.5	1	0.0	1	null	6	null	6	417.87	1	998.31	1	40.951419	16.919863
613	2024-01-26 12:00:00	8	casamassima	15.13	1	46.47	1	0.0	1	null	6	null	6	382.63	1	997.76	1	40.951419	16.919863
614	2024-01-26 13:00:00	8	casamassima	14.94	1	37.19	1	0.0	1	null	6	null	6	48.77	1	997.12	1	40.951419	16.919863
615	2024-01-26 14:00:00	8	casamassima	15.44	1	29.11	1	0.0	1	null	6	null	6	256.16	1	996.68	1	40.951419	16.919863
616	2024-01-26 15:00:00	8	casamassima	17.44	1	21.82	1	0.0	1	null	6	null	6	354.57	1	996.38	1	40.951419	16.919863
617	2024-01-26 16:00:00	8	casamassima	17.13	1	22.72	1	0.0	1	null	6	null	6	183.62	1	996.35	1	40.951419	16.919863
618	2024-01-26 17:00:00	8	casamassima	14.16	1	40.48	1	0.0	1	null	6	null	6	10.69	1	996.45	1	40.951419	16.919863
619	2024-01-26 18:00:00	8	casamassima	11.98	1	50.1	1	0.0	1	null	6	null	6	0.0	1	996.89	1	40.951419	16.919863
620	2024-01-26 19:00:00	8	casamassima	9.92	1	57.56	1	0.0	1	null	6	null	6	0.0	1	997.01	1	40.951419	16.919863
621	2024-01-26 20:00:00	8	casamassima	7.36	1	61.89	1	0.0	1	null	6	null	6	0.0	1	997.12	1	40.951419	16.919863
622	2024-01-26 21:00:00	8	casamassima	6.02	1	59.09	1	0.0	1	null	6	null	6	0.0	1	997.05	1	40.951419	16.919863
623	2024-01-26 22:00:00	8	casamassima	5.53	1	57.64	1	0.0	1	null	6	null	6	0.0	1	997.06	1	40.951419	16.919863
624	2024-01-26 23:00:00	8	casamassima	4.94	1	60.38	1	0.0	1	null	6	null	6	0.0	1	997.25	1	40.951419	16.919863
625	2024-01-27 00:00:00	8	casamassima	4.66	1	63.31	1	0.0	1	null	6	null	6	0.0	1	997.34	1	40.951419	16.919863
626	2024-01-27 01:00:00	8	casamassima	5.1	1	71.19	1	0.0	1	null	6	null	6	0.0	1	997.04	1	40.951419	16.919863
627	2024-01-27 02:00:00	8	casamassima	4.32	1	77.08	1	0.0	1	null	6	null	6	0.0	1	996.94	1	40.951419	16.919863
628	2024-01-27 03:00:00	8	casamassima	3.73	1	82.04	1	0.0	1	null	6	null	6	0.0	1	997.07	1	40.951419	16.919863
629	2024-01-27 04:00:00	8	casamassima	3.03	1	86.52	1	0.0	1	null	6	null	6	0.0	1	997.34	1	40.951419	16.919863
630	2024-01-27 05:00:00	8	casamassima	2.64	1	88.18	1	0.0	1	null	6	null	6	0.0	1	997.13	1	40.951419	16.919863
631	2024-01-27 06:00:00	8	casamassima	3.49	1	88.89	1	0.0	1	null	6	null	6	0.0	1	997.66	1	40.951419	16.919863
632	2024-01-27 07:00:00	8	casamassima	4.6	1	90.5	1	0.0	1	null	6	null	6	0.0	5	998.3	1	40.951419	16.919863
633	2024-01-27 08:00:00	8	casamassima	5.55	1	90.16	1	0.0	1	null	6	null	6	16.89	1	998.89	1	40.951419	16.919863
634	2024-01-27 09:00:00	8	casamassima	7.64	1	87.05	1	0.0	1	null	6	null	6	81.23	1	998.07	1	40.951419	16.919863
635	2024-01-27 10:00:00	8	casamassima	9.56	1	81.48	1	0.0	1	null	6	null	6	141.83	1	998.67	1	40.951419	16.919863
636	2024-01-27 11:00:00	8	casamassima	10.07	1	79.97	1	0.0	1	null	6	null	6	176.77	1	999.72	1	40.951419	16.919863
637	2024-01-27 12:00:00	8	casamassima	10.65	1	76.74	1	0.0	1	null	6	null	6	209.52	1	999.81	1	40.951419	16.919863
638	2024-01-27 13:00:00	8	casamassima	11.57	1	73.4	1	0.0	1	null	6	null	6	237.42	1	999.72	1	40.951419	16.919863
639	2024-01-27 14:00:00	8	casamassima	11.15	1	77.84	1	0.0	1	null	6	null	6	135.13	1	999.42	1	40.951419	16.919863
640	2024-01-27 15:00:00	8	casamassima	10.97	1	79.72	1	0.0	1	null	6	null	6	122.79	1	999.32	1	40.951419	16.919863
641	2024-01-27 16:00:00	8	casamassima	10.78	1	78.93	1	0.0	1	null	6	null	6	106.09	1	999.53	1	40.951419	16.919863
642	2024-01-27 17:00:00	8	casamassima	10.58	1	78.45	1	0.0	1	null	6	null	6	16.85	1	999.97	1	40.951419	16.919863
643	2024-01-27 18:00:00	8	casamassima	9.86	1	81.98	1	0.0	1	null	6	null	6	0.0	5	1000.35	1	40.951419	16.919863
644	2024-01-27 19:00:00	8	casamassima	8.13	1	87.15	1	0.0	1	null	6	null	6	0.0	1	1000.65	1	40.951419	16.919863
645	2024-01-27 20:00:00	8	casamassima	6.66	1	89.5	1	0.0	1	null	6	null	6	0.0	1	1001.11	1	40.951419	16.919863
646	2024-01-27 21:00:00	8	casamassima	6.11	1	90.54	1	0.0	1	null	6	null	6	0.0	1	1001.53	1	40.951419	16.919863
647	2024-01-27 22:00:00	8	casamassima	6.12	1	90.6	1	0.0	1	null	6	null	6	0.0	1	1001.91	1	40.951419	16.919863
648	2024-01-27 23:00:00	8	casamassima	5.82	1	90.89	1	0.0	1	null	6	null	6	0.0	1	1001.97	1	40.951419	16.919863
649	2024-01-28 00:00:00	8	casamassima	6.24	1	88.46	1	0.0	1	null	6	null	6	0.0	1	1002.07	1	40.951419	16.919863
650	2024-01-28 01:00:00	8	casamassima	6.82	1	84.44	1	0.0	1	null	6	null	6	0.0	1	1002.4	1	40.951419	16.919863
651	2024-01-28 02:00:00	8	casamassima	5.84	1	87.43	1	0.0	1	null	6	null	6	0.0	1	1002.72	1	40.951419	16.919863
652	2024-01-28 03:00:00	8	casamassima	4.81	1	90.12	1	0.0	1	null	6	null	6	0.0	1	1002.7	1	40.951419	16.919863
653	2024-01-28 04:00:00	8	casamassima	4.43	1	91.31	1	0.0	1	null	6	null	6	0.0	1	1002.75	1	40.951419	16.919863
654	2024-01-28 05:00:00	8	casamassima	4.19	1	89.19	1	0.0	1	null	6	null	6	0.0	1	1002.87	1	40.951419	16.919863
655	2024-01-28 06:00:00	8	casamassima	3.37	1	86.5	1	0.0	1	null	6	null	6	0.0	1	1003.2	1	40.951419	16.919863
656	2024-01-28 07:00:00	8	casamassima	3.31	1	75.77	1	0.0	1	null	6	null	6	0.0	1	1003.6	1	40.951419	16.919863
657	2024-01-28 08:00:00	8	casamassima	6.54	1	53.37	1	0.0	1	null	6	null	6	32.11	1	1004.02	1	40.951419	16.919863
658	2024-01-28 09:00:00	8	casamassima	8.6	1	50.54	1	0.0	1	null	6	null	6	179.52	1	1004.28	1	40.951419	16.919863
659	2024-01-28 10:00:00	8	casamassima	9.5	1	47.31	1	0.0	1	null	6	null	6	235.83	1	1004.67	1	40.951419	16.919863
660	2024-01-28 11:00:00	8	casamassima	9.1	1	47.16	1	0.0	1	null	6	null	6	313.47	1	1005.28	1	40.951419	16.919863
661	2024-01-28 12:00:00	8	casamassima	9.69	1	43.33	1	0.0	1	null	6	null	6	406.04	1	1005.39	1	40.951419	16.919863
662	2024-01-28 13:00:00	8	casamassima	9.15	1	44.8	1	0.0	1	null	6	null	6	137.38	1	1005.01	1	40.951419	16.919863
663	2024-01-28 14:00:00	8	casamassima	9.16	1	45.04	1	0.0	1	null	6	null	6	243.5	1	1004.67	1	40.951419	16.919863
664	2024-01-28 15:00:00	8	casamassima	9.02	1	47.91	1	0.0	1	null	6	null	6	283.86	1	1004.49	1	40.951419	16.919863
665	2024-01-28 16:00:00	8	casamassima	9.06	1	50.11	1	0.0	1	null	6	null	6	147.57	1	1004.48	1	40.951419	16.919863
666	2024-01-28 17:00:00	8	casamassima	8.19	1	51.89	1	0.0	1	null	6	null	6	18.15	1	1004.6	1	40.951419	16.919863
667	2024-01-28 18:00:00	8	casamassima	7.35	1	54.89	1	0.0	1	null	6	null	6	0.0	5	1004.98	1	40.951419	16.919863
668	2024-01-28 19:00:00	8	casamassima	6.08	1	60.81	1	0.0	1	null	6	null	6	0.0	1	1005.1	1	40.951419	16.919863
669	2024-01-28 20:00:00	8	casamassima	4.43	1	67.79	1	0.0	1	null	6	null	6	0.0	1	1005.31	1	40.951419	16.919863
670	2024-01-28 21:00:00	8	casamassima	3.7	1	70.15	1	0.0	1	null	6	null	6	0.0	1	1005.26	1	40.951419	16.919863
671	2024-01-28 22:00:00	8	casamassima	4.07	1	71.42	1	0.0	1	null	6	null	6	0.0	1	1005.29	1	40.951419	16.919863
672	2024-01-28 23:00:00	8	casamassima	4.7	1	74.32	1	0.0	1	null	6	null	6	0.0	1	1005.35	1	40.951419	16.919863
673	2024-01-29 00:00:00	8	casamassima	5.02	1	72.89	1	0.0	1	null	6	null	6	0.0	1	1005.39	1	40.951419	16.919863
674	2024-01-29 01:00:00	8	casamassima	4.8	1	71.64	1	0.0	1	null	6	null	6	0.0	1	1005.4	1	40.951419	16.919863
675	2024-01-29 02:00:00	8	casamassima	4.06	1	75.6	1	0.0	1	null	6	null	6	0.0	1	1005.46	1	40.951419	16.919863
676	2024-01-29 03:00:00	8	casamassima	3.39	1	81.8	1	0.0	1	null	6	null	6	0.0	1	1005.42	1	40.951419	16.919863
677	2024-01-29 04:00:00	8	casamassima	2.63	1	86.55	1	0.0	1	null	6	null	6	0.0	1	1005.36	1	40.951419	16.919863
678	2024-01-29 05:00:00	8	casamassima	2.38	1	88.71	1	0.0	1	null	6	null	6	0.0	1	1005.41	1	40.951419	16.919863
679	2024-01-29 06:00:00	8	casamassima	2.33	1	89.21	1	0.0	1	null	6	null	6	0.0	1	1005.42	1	40.951419	16.919863
680	2024-01-29 07:00:00	8	casamassima	1.92	1	90.31	1	0.0	1	null	6	null	6	0.0	5	1005.78	1	40.951419	16.919863
681	2024-01-29 08:00:00	8	casamassima	2.52	1	89.28	1	0.0	1	null	6	null	6	44.04	1	1006.01	1	40.951419	16.919863
682	2024-01-29 09:00:00	8	casamassima	5.79	1	75.38	1	0.0	1	null	6	null	6	93.99	1	1006.1	1	40.951419	16.919863
683	2024-01-29 10:00:00	8	casamassima	7.88	1	65.7	1	0.0	1	null	6	null	6	308.04	1	1006.33	1	40.951419	16.919863
684	2024-01-29 11:00:00	8	casamassima	9.75	1	54.1	1	0.0	1	null	6	null	6	431.53	1	1006.46	1	40.951419	16.919863
685	2024-01-29 12:00:00	8	casamassima	10.08	1	47.9	1	0.0	1	null	6	null	6	375.49	1	1006.12	1	40.951419	16.919863
686	2024-01-29 13:00:00	8	casamassima	9.69	1	48.34	1	0.0	1	null	6	null	6	145.86	1	1005.75	1	40.951419	16.919863
687	2024-01-29 14:00:00	8	casamassima	9.83	1	48.16	1	0.0	1	null	6	null	6	327.22	1	1005.32	1	40.951419	16.919863
688	2024-01-29 15:00:00	8	casamassima	10.01	1	41.38	1	0.0	1	null	6	null	6	337.83	1	1005.2	1	40.951419	16.919863
689	2024-01-29 16:00:00	8	casamassima	9.68	1	43.4	1	0.0	1	null	6	null	6	197.02	1	1005.09	1	40.951419	16.919863
690	2024-01-29 17:00:00	8	casamassima	8.36	1	50.31	1	0.0	1	null	6	null	6	14.81	1	1005.05	1	40.951419	16.919863
691	2024-01-29 18:00:00	8	casamassima	6.91	1	56.44	1	0.0	1	null	6	null	6	0.0	5	1005.17	1	40.951419	16.919863
692	2024-01-29 19:00:00	8	casamassima	5.55	1	62.64	1	0.0	1	null	6	null	6	0.0	1	1005.53	1	40.951419	16.919863
693	2024-01-29 20:00:00	8	casamassima	3.98	1	70.02	1	0.0	1	null	6	null	6	0.0	1	1005.76	1	40.951419	16.919863
694	2024-01-29 21:00:00	8	casamassima	3.05	1	73.52	1	0.0	1	null	6	null	6	0.0	1	1006.09	1	40.951419	16.919863
695	2024-01-29 22:00:00	8	casamassima	2.4	1	78.11	1	0.0	1	null	6	null	6	0.0	1	1006.19	1	40.951419	16.919863
696	2024-01-29 23:00:00	8	casamassima	2.07	1	84.21	1	0.0	1	null	6	null	6	0.0	1	1006.29	1	40.951419	16.919863
697	2024-01-30 00:00:00	8	casamassima	2.74	1	86.14	1	0.0	1	null	6	null	6	0.0	1	1006.47	1	40.951419	16.919863
698	2024-01-30 01:00:00	8	casamassima	3.89	1	80.8	1	0.0	1	null	6	null	6	0.0	1	1006.38	1	40.951419	16.919863
699	2024-01-30 02:00:00	8	casamassima	3.25	1	81.33	1	0.0	1	null	6	null	6	0.0	1	1006.32	1	40.951419	16.919863
700	2024-01-30 03:00:00	8	casamassima	2.34	1	83.72	1	0.0	1	null	6	null	6	0.0	1	1006.2	1	40.951419	16.919863
701	2024-01-30 04:00:00	8	casamassima	1.86	1	84.78	1	0.0	1	null	6	null	6	0.0	1	1005.96	1	40.951419	16.919863
702	2024-01-30 05:00:00	8	casamassima	2.7	1	82.49	1	0.0	1	null	6	null	6	0.0	1	1005.75	1	40.951419	16.919863
703	2024-01-30 06:00:00	8	casamassima	3.34	1	80.1	1	0.0	1	null	6	null	6	0.0	1	1005.71	1	40.951419	16.919863
704	2024-01-30 07:00:00	8	casamassima	3.38	1	81.34	1	0.0	1	null	6	null	6	0.0	5	1006.13	1	40.951419	16.919863
705	2024-01-30 08:00:00	8	casamassima	4.19	1	80.56	1	0.0	1	null	6	null	6	45.46	1	1006.56	1	40.951419	16.919863
706	2024-01-30 09:00:00	8	casamassima	7.42	1	68.45	1	0.0	1	null	6	null	6	138.16	1	1006.98	1	40.951419	16.919863
707	2024-01-30 10:00:00	8	casamassima	9.33	1	56.84	1	0.0	1	null	6	null	6	277.84	1	1007.2	1	40.951419	16.919863
708	2024-01-30 11:00:00	8	casamassima	9.66	1	52.85	1	0.0	1	null	6	null	6	374.83	1	1007.28	1	40.951419	16.919863
709	2024-01-30 12:00:00	8	casamassima	9.27	1	52.27	1	0.0	1	null	6	null	6	269.36	1	1007.06	1	40.951419	16.919863
710	2024-01-30 13:00:00	8	casamassima	9.39	1	50.76	1	0.0	1	null	6	null	6	120.72	1	1006.61	1	40.951419	16.919863
711	2024-01-30 14:00:00	8	casamassima	9.37	1	50.25	1	0.0	1	null	6	null	6	321.06	1	1006.05	1	40.951419	16.919863
712	2024-01-30 15:00:00	8	casamassima	9.86	1	48.72	1	0.0	1	null	6	null	6	372.55	1	1005.91	1	40.951419	16.919863
713	2024-01-30 16:00:00	8	casamassima	9.4	1	49.7	1	0.0	1	null	6	null	6	192.8	1	1006.07	1	40.951419	16.919863
714	2024-01-30 17:00:00	8	casamassima	7.88	1	53.38	1	0.0	1	null	6	null	6	14.68	1	1006.12	1	40.951419	16.919863
715	2024-01-30 18:00:00	8	casamassima	6.68	1	58.63	1	0.0	1	null	6	null	6	0.0	1	1006.3	1	40.951419	16.919863
716	2024-01-30 19:00:00	8	casamassima	3.73	1	70.9	1	0.0	1	null	6	null	6	0.0	1	1006.46	1	40.951419	16.919863
717	2024-01-30 20:00:00	8	casamassima	1.68	1	78.43	1	0.0	1	null	6	null	6	0.0	1	1006.5	1	40.951419	16.919863
718	2024-01-30 21:00:00	8	casamassima	0.49	1	83.7	1	0.0	1	null	6	null	6	0.0	1	1006.55	1	40.951419	16.919863
719	2024-01-30 22:00:00	8	casamassima	-0.05	1	84.95	1	0.0	1	null	6	null	6	0.0	1	1006.61	1	40.951419	16.919863
720	2024-01-30 23:00:00	8	casamassima	-0.2	1	87.24	1	0.0	1	null	6	null	6	0.0	1	1006.43	1	40.951419	16.919863
721	2024-01-31 00:00:00	8	casamassima	-0.23	1	87.19	1	0.0	1	null	6	null	6	0.0	1	1006.45	1	40.951419	16.919863
722	2024-01-31 01:00:00	8	casamassima	-0.08	1	87.25	1	0.0	1	null	6	null	6	0.0	1	1006.19	1	40.951419	16.919863
723	2024-01-31 02:00:00	8	casamassima	0.37	1	89.38	1	0.0	1	null	6	null	6	0.0	1	1006.02	1	40.951419	16.919863
724	2024-01-31 03:00:00	8	casamassima	0.49	1	91.28	1	0.0	1	null	6	null	6	0.0	1	1005.95	1	40.951419	16.919863
725	2024-01-31 04:00:00	8	casamassima	0.51	1	92.38	1	0.0	1	null	6	null	6	0.0	1	1005.59	1	40.951419	16.919863
726	2024-01-31 05:00:00	8	casamassima	0.63	1	93.09	1	0.0	1	null	6	null	6	0.0	1	1005.23	1	40.951419	16.919863
727	2024-01-31 06:00:00	8	casamassima	0.61	1	93.66	1	0.0	1	null	6	null	6	0.0	1	1005.08	1	40.951419	16.919863
728	2024-01-31 07:00:00	8	casamassima	0.48	1	94.07	1	0.0	1	null	6	null	6	0.0	5	1005.12	1	40.951419	16.919863
729	2024-01-31 08:00:00	8	casamassima	1.32	1	93.77	1	0.0	1	null	6	null	6	33.51	1	1005.45	1	40.951419	16.919863
730	2024-01-31 09:00:00	8	casamassima	5.77	1	83.46	1	0.0	1	null	6	null	6	171.37	1	1005.48	1	40.951419	16.919863
731	2024-01-31 10:00:00	8	casamassima	9.08	1	67.4	1	0.0	1	null	6	null	6	314.04	1	1005.22	1	40.951419	16.919863
732	2024-01-31 11:00:00	8	casamassima	10.07	1	63.91	1	0.0	1	null	6	null	6	438.11	1	1005.08	1	40.951419	16.919863
733	2024-01-31 12:00:00	8	casamassima	10.68	1	59.31	1	0.0	1	null	6	null	6	433.58	1	1004.59	1	40.951419	16.919863
734	2024-01-31 13:00:00	8	casamassima	10.31	1	60.48	1	0.0	1	null	6	null	6	67.88	1	1004.09	1	40.951419	16.919863
735	2024-01-31 14:00:00	8	casamassima	10.58	1	60.73	1	0.0	1	null	6	null	6	338.27	1	1003.73	1	40.951419	16.919863
736	2024-01-31 15:00:00	8	casamassima	10.86	1	59.56	1	0.0	1	null	6	null	6	371.15	1	1003.32	1	40.951419	16.919863
737	2024-01-31 16:00:00	8	casamassima	10.49	1	58.94	1	0.0	1	null	6	null	6	194.2	1	1003.27	1	40.951419	16.919863
738	2024-01-31 17:00:00	8	casamassima	9.16	1	68.72	1	0.0	1	null	6	null	6	16.82	1	1003.33	1	40.951419	16.919863
739	2024-01-31 18:00:00	8	casamassima	7.58	1	77.25	1	0.0	1	null	6	null	6	0.0	1	1003.51	1	40.951419	16.919863
740	2024-01-31 19:00:00	8	casamassima	5.09	1	85.32	1	0.0	1	null	6	null	6	0.0	1	1003.48	1	40.951419	16.919863
741	2024-01-31 20:00:00	8	casamassima	3.66	1	89.32	1	0.0	1	null	6	null	6	0.0	1	1003.24	1	40.951419	16.919863
742	2024-01-31 21:00:00	8	casamassima	2.59	1	90.95	1	0.0	1	null	6	null	6	0.0	1	1003.08	1	40.951419	16.919863
743	2024-01-31 22:00:00	8	casamassima	2.08	1	92.01	1	0.0	1	null	6	null	6	0.0	1	1002.87	1	40.951419	16.919863
744	2024-01-31 23:00:00	8	casamassima	1.91	1	92.8	1	0.0	1	null	6	null	6	0.0	1	1002.65	1	40.951419	16.919863
745	2024-02-01 00:00:00	8	casamassima	1.6	1	93.35	1	0.0	1	null	6	null	6	0.0	1	1002.53	1	40.951419	16.919863
746	2024-02-01 01:00:00	8	casamassima	1.73	1	93.85	1	0.0	1	null	6	null	6	0.0	1	1002.27	1	40.951419	16.919863
747	2024-02-01 02:00:00	8	casamassima	1.19	1	93.84	1	0.0	1	null	6	null	6	0.0	1	1002.13	1	40.951419	16.919863
748	2024-02-01 03:00:00	8	casamassima	0.91	1	93.65	1	0.0	1	null	6	null	6	0.0	1	1001.81	1	40.951419	16.919863
749	2024-02-01 04:00:00	8	casamassima	0.96	1	93.56	1	0.0	1	null	6	null	6	0.0	1	1001.28	1	40.951419	16.919863
750	2024-02-01 05:00:00	8	casamassima	1.08	1	93.79	1	0.0	1	null	6	null	6	0.0	1	1000.78	1	40.951419	16.919863
751	2024-02-01 06:00:00	8	casamassima	0.97	1	93.8	1	0.0	1	null	6	null	6	0.0	1	1000.56	1	40.951419	16.919863
752	2024-02-01 07:00:00	8	casamassima	0.89	1	93.16	1	0.0	1	null	6	null	6	0.0	5	1000.5	1	40.951419	16.919863
753	2024-02-01 08:00:00	8	casamassima	1.57	1	92.87	1	0.0	1	null	6	null	6	31.57	1	1000.6	1	40.951419	16.919863
754	2024-02-01 09:00:00	8	casamassima	3.3	1	92.0	1	0.0	1	null	6	null	6	111.83	1	1000.87	1	40.951419	16.919863
755	2024-02-01 10:00:00	8	casamassima	7.52	1	76.59	1	0.0	1	null	6	null	6	320.56	1	1000.9	1	40.951419	16.919863
756	2024-02-01 11:00:00	8	casamassima	10.19	1	57.91	1	0.0	1	null	6	null	6	427.62	1	1000.65	1	40.951419	16.919863
757	2024-02-01 12:00:00	8	casamassima	11.23	1	45.99	1	0.0	1	null	6	null	6	445.51	1	999.77	1	40.951419	16.919863
758	2024-02-01 13:00:00	8	casamassima	11.02	1	45.33	1	0.0	1	null	6	null	6	91.59	1	999.05	1	40.951419	16.919863
759	2024-02-01 14:00:00	8	casamassima	11.66	1	44.44	1	0.0	1	null	6	null	6	367.6	1	998.3	1	40.951419	16.919863
760	2024-02-01 15:00:00	8	casamassima	11.93	1	49.88	1	0.0	1	null	6	null	6	360.41	1	997.67	1	40.951419	16.919863
761	2024-02-01 16:00:00	8	casamassima	11.29	1	50.93	1	0.0	1	null	6	null	6	186.14	1	997.41	1	40.951419	16.919863
762	2024-02-01 17:00:00	8	casamassima	9.35	1	56.72	1	0.0	1	null	6	null	6	19.35	1	997.36	1	40.951419	16.919863
763	2024-02-01 18:00:00	8	casamassima	8.03	1	66.09	1	0.0	1	null	6	null	6	0.0	5	997.6	1	40.951419	16.919863
764	2024-02-01 19:00:00	8	casamassima	5.74	1	74.58	1	0.0	1	null	6	null	6	0.0	1	997.72	1	40.951419	16.919863
765	2024-02-01 20:00:00	8	casamassima	3.97	1	79.73	1	0.0	1	null	6	null	6	0.0	1	997.68	1	40.951419	16.919863
766	2024-02-01 21:00:00	8	casamassima	3.39	1	81.06	1	0.0	1	null	6	null	6	0.0	1	997.46	1	40.951419	16.919863
767	2024-02-01 22:00:00	8	casamassima	3.01	1	81.55	1	0.0	1	null	6	null	6	0.0	1	997.14	1	40.951419	16.919863
768	2024-02-01 23:00:00	8	casamassima	2.66	1	83.16	1	0.0	1	null	6	null	6	0.0	1	997.02	1	40.951419	16.919863
769	2024-02-02 00:00:00	8	casamassima	3.36	1	84.59	1	0.0	1	null	6	null	6	0.0	1	997.13	1	40.951419	16.919863
770	2024-02-02 01:00:00	8	casamassima	2.83	1	85.99	1	0.0	1	null	6	null	6	0.0	1	997.12	1	40.951419	16.919863
771	2024-02-02 02:00:00	8	casamassima	2.17	1	88.2	1	0.0	1	null	6	null	6	0.0	1	996.98	1	40.951419	16.919863
772	2024-02-02 03:00:00	8	casamassima	2.01	1	87.77	1	0.0	1	null	6	null	6	0.0	1	996.8	1	40.951419	16.919863
773	2024-02-02 04:00:00	8	casamassima	1.86	1	88.18	1	0.0	1	null	6	null	6	0.0	1	996.59	1	40.951419	16.919863
774	2024-02-02 05:00:00	8	casamassima	2.6	1	90.59	1	0.0	1	null	6	null	6	0.0	1	996.58	1	40.951419	16.919863
775	2024-02-02 06:00:00	8	casamassima	2.8	1	90.48	1	0.0	1	null	6	null	6	0.0	1	996.59	1	40.951419	16.919863
776	2024-02-02 07:00:00	8	casamassima	4.22	1	84.17	1	0.0	1	null	6	null	6	0.0	5	997.14	1	40.951419	16.919863
777	2024-02-02 08:00:00	8	casamassima	4.42	1	83.19	1	0.0	1	null	6	null	6	24.36	1	997.57	1	40.951419	16.919863
778	2024-02-02 09:00:00	8	casamassima	6.96	1	71.04	1	0.0	1	null	6	null	6	142.56	1	997.95	1	40.951419	16.919863
779	2024-02-02 10:00:00	8	casamassima	9.22	1	62.44	1	0.0	1	null	6	null	6	284.38	1	998.04	1	40.951419	16.919863
780	2024-02-02 11:00:00	8	casamassima	10.78	1	61.52	1	0.0	1	null	6	null	6	417.72	1	998.14	1	40.951419	16.919863
781	2024-02-02 12:00:00	8	casamassima	11.22	1	61.73	1	0.0	1	null	6	null	6	334.95	1	998.05	1	40.951419	16.919863
782	2024-02-02 13:00:00	8	casamassima	11.31	1	59.95	1	0.0	1	null	6	null	6	173.49	1	997.75	1	40.951419	16.919863
783	2024-02-02 14:00:00	8	casamassima	11.87	1	54.69	1	0.0	1	null	6	null	6	331.84	1	997.22	1	40.951419	16.919863
784	2024-02-02 15:00:00	8	casamassima	11.93	1	54.23	1	0.0	1	null	6	null	6	362.89	1	997.23	1	40.951419	16.919863
785	2024-02-02 16:00:00	8	casamassima	11.45	1	48.62	1	0.0	1	null	6	null	6	195.73	1	997.51	1	40.951419	16.919863
786	2024-02-02 17:00:00	8	casamassima	10.32	1	50.92	1	0.0	1	null	6	null	6	17.14	1	997.59	1	40.951419	16.919863
787	2024-02-02 18:00:00	8	casamassima	9.25	1	56.4	1	0.0	1	null	6	null	6	0.0	5	997.91	1	40.951419	16.919863
788	2024-02-02 19:00:00	8	casamassima	8.17	1	67.65	1	0.0	1	null	6	null	6	0.0	1	998.24	1	40.951419	16.919863
789	2024-02-02 20:00:00	8	casamassima	7.26	1	73.61	1	0.0	1	null	6	null	6	0.0	1	998.7	1	40.951419	16.919863
790	2024-02-02 21:00:00	8	casamassima	6.11	1	79.31	1	0.0	1	null	6	null	6	0.0	1	998.79	1	40.951419	16.919863
791	2024-02-02 22:00:00	8	casamassima	5.89	1	79.19	1	0.0	1	null	6	null	6	0.0	1	998.58	1	40.951419	16.919863
792	2024-02-02 23:00:00	8	casamassima	5.65	1	76.07	1	0.0	1	null	6	null	6	0.0	1	998.54	1	40.951419	16.919863
793	2024-02-03 00:00:00	8	casamassima	6.44	1	71.92	1	0.0	1	null	6	null	6	0.0	1	998.6	1	40.951419	16.919863
794	2024-02-03 01:00:00	8	casamassima	5.27	1	78.74	1	0.0	1	null	6	null	6	0.0	1	998.58	1	40.951419	16.919863
795	2024-02-03 02:00:00	8	casamassima	4.35	1	82.18	1	0.0	1	null	6	null	6	0.0	1	998.55	1	40.951419	16.919863
796	2024-02-03 03:00:00	8	casamassima	4.57	1	80.71	1	0.0	1	null	6	null	6	0.0	1	998.65	1	40.951419	16.919863
797	2024-02-03 04:00:00	8	casamassima	4.63	1	81.06	1	0.0	1	null	6	null	6	0.0	1	998.25	1	40.951419	16.919863
798	2024-02-03 05:00:00	8	casamassima	4.51	1	81.58	1	0.0	1	null	6	null	6	0.0	1	998.46	1	40.951419	16.919863
799	2024-02-03 06:00:00	8	casamassima	4.19	1	81.03	1	0.0	1	null	6	null	6	0.0	1	998.42	1	40.951419	16.919863
800	2024-02-03 07:00:00	8	casamassima	4.56	1	77.44	1	0.0	1	null	6	null	6	0.0	5	998.62	1	40.951419	16.919863
801	2024-02-03 08:00:00	8	casamassima	4.86	1	77.55	1	0.0	1	null	6	null	6	42.07	1	998.85	1	40.951419	16.919863
802	2024-02-03 09:00:00	8	casamassima	9.25	1	65.92	1	0.0	1	null	6	null	6	179.05	1	998.92	1	40.951419	16.919863
803	2024-02-03 10:00:00	8	casamassima	10.89	1	60.29	1	0.0	1	null	6	null	6	313.32	1	999.19	1	40.951419	16.919863
804	2024-02-03 11:00:00	8	casamassima	12.24	1	56.37	1	0.0	1	null	6	null	6	436.73	1	999.26	1	40.951419	16.919863
805	2024-02-03 12:00:00	8	casamassima	13.07	1	52.3	1	0.0	1	null	6	null	6	433.01	1	999.06	1	40.951419	16.919863
806	2024-02-03 13:00:00	8	casamassima	13.27	1	44.72	1	0.0	1	null	6	null	6	54.25	1	998.72	1	40.951419	16.919863
807	2024-02-03 14:00:00	8	casamassima	14.12	1	37.46	1	0.0	1	null	6	null	6	399.83	1	998.06	1	40.951419	16.919863
808	2024-02-03 15:00:00	8	casamassima	14.96	1	31.84	1	0.0	1	null	6	null	6	392.95	1	997.68	1	40.951419	16.919863
809	2024-02-03 16:00:00	8	casamassima	15.18	1	30.89	1	0.0	1	null	6	null	6	196.85	1	997.3	1	40.951419	16.919863
810	2024-02-03 17:00:00	8	casamassima	13.6	1	35.82	1	0.0	1	null	6	null	6	17.79	1	997.03	1	40.951419	16.919863
811	2024-02-03 18:00:00	8	casamassima	10.93	1	45.29	1	0.0	1	null	6	null	6	0.0	5	997.03	1	40.951419	16.919863
812	2024-02-03 19:00:00	8	casamassima	8.45	1	53.23	1	0.0	1	null	6	null	6	0.0	1	997.15	1	40.951419	16.919863
813	2024-02-03 20:00:00	8	casamassima	7.35	1	56.69	1	0.0	1	null	6	null	6	0.0	1	997.38	1	40.951419	16.919863
814	2024-02-03 21:00:00	8	casamassima	6.86	1	57.04	1	0.0	1	null	6	null	6	0.0	1	997.49	1	40.951419	16.919863
815	2024-02-03 22:00:00	8	casamassima	6.18	1	59.65	1	0.0	1	null	6	null	6	0.0	1	997.58	1	40.951419	16.919863
816	2024-02-03 23:00:00	8	casamassima	6.33	1	58.46	1	0.0	1	null	6	null	6	0.0	1	997.52	1	40.951419	16.919863
817	2024-02-04 00:00:00	8	casamassima	5.82	1	61.25	1	0.0	1	null	6	null	6	0.0	1	997.37	1	40.951419	16.919863
818	2024-02-04 01:00:00	8	casamassima	5.5	1	64.38	1	0.0	1	null	6	null	6	0.0	1	997.12	1	40.951419	16.919863
819	2024-02-04 02:00:00	8	casamassima	5.06	1	66.8	1	0.0	1	null	6	null	6	0.0	1	996.99	1	40.951419	16.919863
820	2024-02-04 03:00:00	8	casamassima	4.31	1	69.69	1	0.0	1	null	6	null	6	0.0	1	997.0	1	40.951419	16.919863
821	2024-02-04 04:00:00	8	casamassima	3.56	1	73.21	1	0.0	1	null	6	null	6	0.0	1	996.72	1	40.951419	16.919863
822	2024-02-04 05:00:00	8	casamassima	3.45	1	73.21	1	0.0	1	null	6	null	6	0.0	1	996.43	1	40.951419	16.919863
823	2024-02-04 06:00:00	8	casamassima	3.62	1	71.88	1	0.0	1	null	6	null	6	0.0	1	996.2	1	40.951419	16.919863
824	2024-02-04 07:00:00	8	casamassima	3.7	1	72.13	1	0.0	1	null	6	null	6	0.0	5	996.3	1	40.951419	16.919863
825	2024-02-04 08:00:00	8	casamassima	5.85	1	67.33	1	0.0	1	null	6	null	6	62.8	1	996.45	1	40.951419	16.919863
826	2024-02-04 09:00:00	8	casamassima	10.45	1	58.62	1	0.0	1	null	6	null	6	122.7	1	996.34	1	40.951419	16.919863
827	2024-02-04 10:00:00	8	casamassima	13.46	1	52.71	1	0.0	1	null	6	null	6	230.44	1	996.48	1	40.951419	16.919863
828	2024-02-04 11:00:00	8	casamassima	15.22	1	44.38	1	0.0	1	null	6	null	6	368.37	1	996.92	1	40.951419	16.919863
829	2024-02-04 12:00:00	8	casamassima	16.09	1	40.8	1	0.0	1	null	6	null	6	451.06	1	997.08	1	40.951419	16.919863
830	2024-02-04 13:00:00	8	casamassima	15.72	1	40.05	1	0.0	1	null	6	null	6	60.27	1	996.53	1	40.951419	16.919863
831	2024-02-04 14:00:00	8	casamassima	16.71	1	38.56	1	0.0	1	null	6	null	6	384.81	1	995.83	1	40.951419	16.919863
832	2024-02-04 15:00:00	8	casamassima	17.93	1	38.98	1	0.0	1	null	6	null	6	359.03	1	995.39	1	40.951419	16.919863
833	2024-02-04 16:00:00	8	casamassima	17.41	1	41.76	1	0.0	1	null	6	null	6	191.8	1	995.28	1	40.951419	16.919863
834	2024-02-04 17:00:00	8	casamassima	14.81	1	51.15	1	0.0	1	null	6	null	6	21.4	1	995.49	1	40.951419	16.919863
835	2024-02-04 18:00:00	8	casamassima	12.36	1	60.09	1	0.0	1	null	6	null	6	0.0	5	996.17	1	40.951419	16.919863
836	2024-02-04 19:00:00	8	casamassima	9.57	1	70.43	1	0.0	1	null	6	null	6	0.0	1	996.55	1	40.951419	16.919863
837	2024-02-04 20:00:00	8	casamassima	7.67	1	77.03	1	0.0	1	null	6	null	6	0.0	1	996.69	1	40.951419	16.919863
838	2024-02-04 21:00:00	8	casamassima	6.91	1	80.61	1	0.0	1	null	6	null	6	0.0	1	996.99	1	40.951419	16.919863
839	2024-02-04 22:00:00	8	casamassima	6.5	1	81.47	1	0.0	1	null	6	null	6	0.0	1	997.15	1	40.951419	16.919863
840	2024-02-04 23:00:00	8	casamassima	6.03	1	83.91	1	0.0	1	null	6	null	6	0.0	1	997.17	1	40.951419	16.919863
841	2024-02-05 00:00:00	8	casamassima	5.77	1	84.87	1	0.0	1	null	6	null	6	0.0	1	997.22	1	40.951419	16.919863
842	2024-02-05 01:00:00	8	casamassima	5.32	1	85.25	1	0.0	1	null	6	null	6	0.0	1	997.29	1	40.951419	16.919863
843	2024-02-05 02:00:00	8	casamassima	5.01	1	85.51	1	0.0	1	null	6	null	6	0.0	1	996.94	1	40.951419	16.919863
844	2024-02-05 03:00:00	8	casamassima	5.11	1	83.12	1	0.0	1	null	6	null	6	0.0	1	996.84	1	40.951419	16.919863
845	2024-02-05 04:00:00	8	casamassima	4.93	1	83.98	1	0.0	1	null	6	null	6	0.0	1	996.65	1	40.951419	16.919863
846	2024-02-05 05:00:00	8	casamassima	5.12	1	82.92	1	0.0	1	null	6	null	6	0.0	1	996.62	1	40.951419	16.919863
847	2024-02-05 06:00:00	8	casamassima	4.95	1	82.86	1	0.0	1	null	6	null	6	0.0	1	996.45	1	40.951419	16.919863
848	2024-02-05 07:00:00	8	casamassima	4.62	1	83.54	1	0.0	1	null	6	null	6	0.0	5	996.69	1	40.951419	16.919863
849	2024-02-05 08:00:00	8	casamassima	5.83	1	79.41	1	0.0	1	null	6	null	6	47.54	1	996.64	1	40.951419	16.919863
850	2024-02-05 09:00:00	8	casamassima	9.24	1	69.75	1	0.0	1	null	6	null	6	164.67	1	996.73	1	40.951419	16.919863
851	2024-02-05 10:00:00	8	casamassima	13.65	1	57.21	1	0.0	1	null	6	null	6	259.43	1	996.76	1	40.951419	16.919863
852	2024-02-05 11:00:00	8	casamassima	16.35	1	44.94	1	0.0	1	null	6	null	6	430.47	1	997.08	1	40.951419	16.919863
853	2024-02-05 12:00:00	8	casamassima	17.33	1	41.44	1	0.0	1	null	6	null	6	455.95	1	996.84	1	40.951419	16.919863
854	2024-02-05 13:00:00	8	casamassima	16.48	1	42.73	1	0.0	1	null	6	null	6	122.5	1	996.34	1	40.951419	16.919863
855	2024-02-05 14:00:00	8	casamassima	17.05	1	40.93	1	0.0	1	null	6	null	6	329.02	1	995.74	1	40.951419	16.919863
856	2024-02-05 15:00:00	8	casamassima	18.35	1	38.93	1	0.0	1	null	6	null	6	395.91	1	995.41	1	40.951419	16.919863
857	2024-02-05 16:00:00	8	casamassima	17.12	1	46.11	1	0.0	1	null	6	null	6	203.46	1	995.42	1	40.951419	16.919863
858	2024-02-05 17:00:00	8	casamassima	14.49	1	53.77	1	0.0	1	null	6	null	6	19.59	1	995.78	1	40.951419	16.919863
859	2024-02-05 18:00:00	8	casamassima	12.34	1	66.56	1	0.0	1	null	6	null	6	0.0	5	996.06	1	40.951419	16.919863
860	2024-02-05 19:00:00	8	casamassima	10.75	1	71.05	1	0.0	1	null	6	null	6	0.0	1	996.58	1	40.951419	16.919863
861	2024-02-05 20:00:00	8	casamassima	9.11	1	74.92	1	0.0	1	null	6	null	6	0.0	1	996.8	1	40.951419	16.919863
862	2024-02-05 21:00:00	8	casamassima	8.26	1	80.0	1	0.0	1	null	6	null	6	0.0	1	996.65	1	40.951419	16.919863
863	2024-02-05 22:00:00	8	casamassima	8.06	1	86.36	1	0.0	1	null	6	null	6	0.0	1	996.75	1	40.951419	16.919863
864	2024-02-05 23:00:00	8	casamassima	7.23	1	90.56	1	0.0	1	null	6	null	6	0.0	1	996.82	1	40.951419	16.919863
865	2024-02-06 00:00:00	8	casamassima	7.25	1	92.84	1	0.0	1	null	6	null	6	0.0	1	997.31	1	40.951419	16.919863
866	2024-02-06 01:00:00	8	casamassima	7.21	1	93.47	1	0.0	1	null	6	null	6	0.0	1	997.29	1	40.951419	16.919863
867	2024-02-06 02:00:00	8	casamassima	6.5	1	93.84	1	0.0	1	null	6	null	6	0.0	1	996.94	1	40.951419	16.919863
868	2024-02-06 03:00:00	8	casamassima	5.64	1	94.15	1	0.0	1	null	6	null	6	0.0	1	996.86	1	40.951419	16.919863
869	2024-02-06 04:00:00	8	casamassima	4.89	1	94.13	1	0.0	1	null	6	null	6	0.0	1	996.45	1	40.951419	16.919863
870	2024-02-06 05:00:00	8	casamassima	4.67	1	93.87	1	0.0	1	null	6	null	6	0.0	1	996.26	1	40.951419	16.919863
871	2024-02-06 06:00:00	8	casamassima	4.33	1	93.33	1	0.0	1	null	6	null	6	0.0	1	996.18	1	40.951419	16.919863
872	2024-02-06 07:00:00	8	casamassima	4.7	1	92.18	1	0.0	1	null	6	null	6	0.0	5	996.08	1	40.951419	16.919863
873	2024-02-06 08:00:00	8	casamassima	5.39	1	89.81	1	0.0	1	null	6	null	6	47.27	1	996.22	1	40.951419	16.919863
874	2024-02-06 09:00:00	8	casamassima	10.16	1	76.65	1	0.0	1	null	6	null	6	193.4	1	996.24	1	40.951419	16.919863
875	2024-02-06 10:00:00	8	casamassima	13.58	1	64.31	1	0.0	1	null	6	null	6	322.28	1	996.21	1	40.951419	16.919863
876	2024-02-06 11:00:00	8	casamassima	14.42	1	57.78	1	0.0	1	null	6	null	6	452.52	1	996.04	1	40.951419	16.919863
877	2024-02-06 12:00:00	8	casamassima	16.1	1	50.41	1	0.0	1	null	6	null	6	450.43	1	995.63	1	40.951419	16.919863
878	2024-02-06 13:00:00	8	casamassima	15.05	1	56.48	1	0.0	1	null	6	null	6	121.71	1	995.06	1	40.951419	16.919863
879	2024-02-06 14:00:00	8	casamassima	14.89	1	56.63	1	0.0	1	null	6	null	6	403.8	1	994.49	1	40.951419	16.919863
880	2024-02-06 15:00:00	8	casamassima	15.53	1	54.68	1	0.0	1	null	6	null	6	372.9	1	994.15	1	40.951419	16.919863
881	2024-02-06 16:00:00	8	casamassima	14.82	1	57.65	1	0.0	1	null	6	null	6	165.48	1	993.89	1	40.951419	16.919863
882	2024-02-06 17:00:00	8	casamassima	13.28	1	63.8	1	0.0	1	null	6	null	6	36.86	1	993.79	1	40.951419	16.919863
883	2024-02-06 18:00:00	8	casamassima	11.87	1	71.05	1	0.0	1	null	6	null	6	0.0	5	994.08	1	40.951419	16.919863
884	2024-02-06 19:00:00	8	casamassima	10.5	1	76.75	1	0.0	1	null	6	null	6	0.0	1	994.3	1	40.951419	16.919863
885	2024-02-06 20:00:00	8	casamassima	8.87	1	83.99	1	0.0	1	null	6	null	6	0.0	1	994.31	1	40.951419	16.919863
886	2024-02-06 21:00:00	8	casamassima	8.2	1	89.23	1	0.0	1	null	6	null	6	0.0	1	994.18	1	40.951419	16.919863
887	2024-02-06 22:00:00	8	casamassima	8.14	1	92.13	1	0.0	1	null	6	null	6	0.0	1	994.0	1	40.951419	16.919863
888	2024-02-06 23:00:00	8	casamassima	8.35	1	91.87	1	0.0	1	null	6	null	6	0.0	1	993.63	1	40.951419	16.919863
889	2024-02-07 00:00:00	8	casamassima	8.14	1	91.22	1	0.0	1	null	6	null	6	0.0	1	993.2	1	40.951419	16.919863
890	2024-02-07 01:00:00	8	casamassima	7.9	1	91.59	1	0.0	1	null	6	null	6	0.0	1	992.95	1	40.951419	16.919863
891	2024-02-07 02:00:00	8	casamassima	7.85	1	91.78	1	0.2	1	null	6	null	6	0.0	1	992.43	1	40.951419	16.919863
892	2024-02-07 03:00:00	8	casamassima	7.7	1	91.55	1	0.0	1	null	6	null	6	0.0	1	991.9	1	40.951419	16.919863
893	2024-02-07 04:00:00	8	casamassima	7.59	1	91.29	1	0.0	1	null	6	null	6	0.0	1	991.27	1	40.951419	16.919863
894	2024-02-07 05:00:00	8	casamassima	7.74	1	91.43	1	0.0	1	null	6	null	6	0.0	1	990.71	1	40.951419	16.919863
895	2024-02-07 06:00:00	8	casamassima	7.91	1	90.82	1	0.0	1	null	6	null	6	0.0	1	990.33	1	40.951419	16.919863
896	2024-02-07 07:00:00	8	casamassima	7.96	1	91.03	1	0.0	1	null	6	null	6	0.0	5	990.14	1	40.951419	16.919863
897	2024-02-07 08:00:00	8	casamassima	8.71	1	89.23	1	0.0	1	null	6	null	6	51.7	1	989.97	1	40.951419	16.919863
898	2024-02-07 09:00:00	8	casamassima	11.42	1	79.95	1	0.0	1	null	6	null	6	216.98	1	989.72	1	40.951419	16.919863
899	2024-02-07 10:00:00	8	casamassima	12.97	1	71.11	1	0.0	1	null	6	null	6	278.17	1	989.49	1	40.951419	16.919863
900	2024-02-07 11:00:00	8	casamassima	14.92	1	62.35	1	0.0	1	null	6	null	6	395.04	1	989.33	1	40.951419	16.919863
901	2024-02-07 12:00:00	8	casamassima	15.92	1	57.07	1	0.0	1	null	6	null	6	390.77	1	988.7	1	40.951419	16.919863
902	2024-02-07 13:00:00	8	casamassima	16.13	1	51.79	1	0.0	1	null	6	null	6	192.26	1	987.91	1	40.951419	16.919863
903	2024-02-07 14:00:00	8	casamassima	16.66	1	48.86	1	0.2	1	null	6	null	6	325.36	1	987.12	1	40.951419	16.919863
904	2024-02-07 15:00:00	8	casamassima	16.48	1	51.56	1	0.0	1	null	6	null	6	184.42	1	986.54	1	40.951419	16.919863
905	2024-02-07 16:00:00	8	casamassima	15.49	1	54.97	1	0.0	1	null	6	null	6	108.14	1	986.31	1	40.951419	16.919863
906	2024-02-07 17:00:00	8	casamassima	13.7	1	62.87	1	0.0	1	null	6	null	6	30.45	1	986.17	1	40.951419	16.919863
907	2024-02-07 18:00:00	8	casamassima	12.08	1	75.96	1	0.0	1	null	6	null	6	0.0	5	986.17	1	40.951419	16.919863
908	2024-02-07 19:00:00	8	casamassima	10.65	1	85.39	1	0.0	1	null	6	null	6	0.0	1	986.34	1	40.951419	16.919863
909	2024-02-07 20:00:00	8	casamassima	10.12	1	87.05	1	0.0	1	null	6	null	6	0.0	1	986.12	1	40.951419	16.919863
910	2024-02-07 21:00:00	8	casamassima	9.68	1	89.25	1	0.0	1	null	6	null	6	0.0	1	985.71	1	40.951419	16.919863
911	2024-02-07 22:00:00	8	casamassima	9.37	1	90.73	1	0.0	1	null	6	null	6	0.0	1	985.49	1	40.951419	16.919863
912	2024-02-07 23:00:00	8	casamassima	9.0	1	91.34	1	0.0	1	null	6	null	6	0.0	1	985.37	1	40.951419	16.919863
913	2024-02-08 00:00:00	8	casamassima	8.49	1	91.88	1	0.0	1	null	6	null	6	0.0	1	985.45	1	40.951419	16.919863
914	2024-02-08 01:00:00	8	casamassima	7.61	1	92.37	1	0.0	1	null	6	null	6	0.0	1	985.57	1	40.951419	16.919863
915	2024-02-08 02:00:00	8	casamassima	6.95	1	93.16	1	0.0	1	null	6	null	6	0.0	1	985.53	1	40.951419	16.919863
916	2024-02-08 03:00:00	8	casamassima	5.9	1	93.77	1	0.0	1	null	6	null	6	0.0	1	985.42	1	40.951419	16.919863
917	2024-02-08 04:00:00	8	casamassima	5.09	1	93.95	1	0.0	1	null	6	null	6	0.0	1	984.86	1	40.951419	16.919863
918	2024-02-08 05:00:00	8	casamassima	4.44	1	93.65	1	0.0	1	null	6	null	6	0.0	1	984.52	1	40.951419	16.919863
919	2024-02-08 06:00:00	8	casamassima	4.72	1	91.44	1	0.0	1	null	6	null	6	0.0	1	984.46	1	40.951419	16.919863
920	2024-02-08 07:00:00	8	casamassima	5.22	1	86.18	1	0.0	1	null	6	null	6	0.0	5	984.67	1	40.951419	16.919863
921	2024-02-08 08:00:00	8	casamassima	6.83	1	80.53	1	0.0	1	null	6	null	6	52.59	1	985.08	1	40.951419	16.919863
922	2024-02-08 09:00:00	8	casamassima	11.59	1	64.71	1	0.2	1	null	6	null	6	195.51	1	985.46	1	40.951419	16.919863
923	2024-02-08 10:00:00	8	casamassima	15.12	1	53.28	1	0.0	1	null	6	null	6	322.02	1	985.46	1	40.951419	16.919863
924	2024-02-08 11:00:00	8	casamassima	17.18	1	47.11	1	0.0	1	null	6	null	6	449.55	1	985.73	1	40.951419	16.919863
925	2024-02-08 12:00:00	8	casamassima	17.54	1	44.84	1	0.0	1	null	6	null	6	465.96	1	985.49	1	40.951419	16.919863
926	2024-02-08 13:00:00	8	casamassima	16.95	1	40.97	1	0.0	1	null	6	null	6	140.69	1	984.93	1	40.951419	16.919863
927	2024-02-08 14:00:00	8	casamassima	17.35	1	38.31	1	0.0	1	null	6	null	6	368.92	1	984.5	1	40.951419	16.919863
928	2024-02-08 15:00:00	8	casamassima	17.66	1	37.2	1	0.0	1	null	6	null	6	374.33	1	984.34	1	40.951419	16.919863
929	2024-02-08 16:00:00	8	casamassima	15.49	1	48.74	1	0.0	1	null	6	null	6	108.79	1	984.69	1	40.951419	16.919863
930	2024-02-08 17:00:00	8	casamassima	14.0	1	53.48	1	0.0	1	null	6	null	6	31.19	1	984.78	1	40.951419	16.919863
931	2024-02-08 18:00:00	8	casamassima	12.54	1	61.32	1	0.0	1	null	6	null	6	0.0	5	984.77	1	40.951419	16.919863
932	2024-02-08 19:00:00	8	casamassima	10.53	1	67.61	1	0.0	1	null	6	null	6	0.0	1	985.18	1	40.951419	16.919863
933	2024-02-08 20:00:00	8	casamassima	9.56	1	67.26	1	0.0	1	null	6	null	6	0.0	1	985.24	1	40.951419	16.919863
934	2024-02-08 21:00:00	8	casamassima	8.57	1	71.76	1	0.0	1	null	6	null	6	0.0	1	985.33	1	40.951419	16.919863
935	2024-02-08 22:00:00	8	casamassima	8.83	1	69.05	1	0.0	1	null	6	null	6	0.0	1	985.47	1	40.951419	16.919863
936	2024-02-08 23:00:00	8	casamassima	7.41	1	74.63	1	0.0	1	null	6	null	6	0.0	1	985.47	1	40.951419	16.919863
937	2024-02-09 00:00:00	8	casamassima	7.11	1	74.87	1	0.0	1	null	6	null	6	0.0	1	985.57	1	40.951419	16.919863
938	2024-02-09 01:00:00	8	casamassima	6.96	1	74.42	1	0.0	1	null	6	null	6	0.0	1	985.42	1	40.951419	16.919863
939	2024-02-09 02:00:00	8	casamassima	6.65	1	75.21	1	0.0	1	null	6	null	6	0.0	1	984.96	1	40.951419	16.919863
940	2024-02-09 03:00:00	8	casamassima	6.78	1	73.01	1	0.0	1	null	6	null	6	0.0	1	984.79	1	40.951419	16.919863
941	2024-02-09 04:00:00	8	casamassima	7.12	1	70.06	1	0.0	1	null	6	null	6	0.0	1	984.28	1	40.951419	16.919863
942	2024-02-09 05:00:00	8	casamassima	6.5	1	76.99	1	0.0	1	null	6	null	6	0.0	1	984.0	1	40.951419	16.919863
943	2024-02-09 06:00:00	8	casamassima	6.31	1	82.84	1	0.0	1	null	6	null	6	0.0	1	984.02	1	40.951419	16.919863
944	2024-02-09 07:00:00	8	casamassima	6.42	1	79.93	1	0.0	1	null	6	null	6	0.0	5	984.01	1	40.951419	16.919863
945	2024-02-09 08:00:00	8	casamassima	8.23	1	72.4	1	0.0	1	null	6	null	6	71.38	1	984.09	1	40.951419	16.919863
946	2024-02-09 09:00:00	8	casamassima	11.22	1	60.63	1	0.0	1	null	6	null	6	193.62	1	983.84	1	40.951419	16.919863
947	2024-02-09 10:00:00	8	casamassima	13.5	1	53.11	1	0.0	1	null	6	null	6	269.1	1	983.75	1	40.951419	16.919863
948	2024-02-09 11:00:00	8	casamassima	14.02	1	51.7	1	0.0	1	null	6	null	6	292.07	1	983.73	1	40.951419	16.919863
949	2024-02-09 12:00:00	8	casamassima	16.44	1	40.54	1	0.0	1	null	6	null	6	464.17	1	983.31	1	40.951419	16.919863
950	2024-02-09 13:00:00	8	casamassima	16.57	1	39.48	1	0.0	1	null	6	null	6	288.5	1	982.68	1	40.951419	16.919863
951	2024-02-09 14:00:00	8	casamassima	15.71	1	43.69	1	0.0	1	null	6	null	6	169.93	1	982.0	1	40.951419	16.919863
952	2024-02-09 15:00:00	8	casamassima	14.15	1	49.96	1	0.0	1	null	6	null	6	95.78	1	981.58	1	40.951419	16.919863
953	2024-02-09 16:00:00	8	casamassima	13.4	1	53.5	1	0.0	1	null	6	null	6	102.18	1	981.28	1	40.951419	16.919863
954	2024-02-09 17:00:00	8	casamassima	13.22	1	57.28	1	0.0	1	null	6	null	6	42.86	1	980.66	1	40.951419	16.919863
955	2024-02-09 18:00:00	8	casamassima	11.53	1	75.36	1	0.0	1	null	6	null	6	0.0	5	980.31	1	40.951419	16.919863
956	2024-02-09 19:00:00	8	casamassima	10.66	1	84.24	1	0.0	1	null	6	null	6	0.0	1	980.39	1	40.951419	16.919863
957	2024-02-09 20:00:00	8	casamassima	10.37	1	85.69	1	0.0	1	null	6	null	6	0.0	1	980.46	1	40.951419	16.919863
958	2024-02-09 21:00:00	8	casamassima	10.29	1	86.52	1	0.0	1	null	6	null	6	0.0	1	979.95	1	40.951419	16.919863
959	2024-02-09 22:00:00	8	casamassima	10.82	1	84.77	1	0.0	1	null	6	null	6	0.0	1	980.06	1	40.951419	16.919863
960	2024-02-09 23:00:00	8	casamassima	10.87	1	84.66	1	0.0	1	null	6	null	6	0.0	1	980.01	1	40.951419	16.919863
961	2024-02-10 00:00:00	8	casamassima	11.27	1	83.54	1	0.0	1	null	6	null	6	0.0	1	979.49	1	40.951419	16.919863
962	2024-02-10 01:00:00	8	casamassima	11.49	1	84.08	1	0.0	1	null	6	null	6	0.0	1	978.64	1	40.951419	16.919863
963	2024-02-10 02:00:00	8	casamassima	11.7	1	84.25	1	0.0	1	null	6	null	6	0.0	1	978.35	1	40.951419	16.919863
964	2024-02-10 03:00:00	8	casamassima	11.74	1	84.84	1	0.0	1	null	6	null	6	0.0	1	977.84	1	40.951419	16.919863
965	2024-02-10 04:00:00	8	casamassima	11.71	1	83.44	1	0.0	1	null	6	null	6	0.0	1	977.41	1	40.951419	16.919863
966	2024-02-10 05:00:00	8	casamassima	11.76	1	82.36	1	0.0	1	null	6	null	6	0.0	1	977.3	1	40.951419	16.919863
967	2024-02-10 06:00:00	8	casamassima	12.09	1	73.86	1	0.0	1	null	6	null	6	0.0	1	976.94	1	40.951419	16.919863
968	2024-02-10 07:00:00	8	casamassima	12.1	1	68.27	1	0.0	1	null	6	null	6	0.0	1	976.9	1	40.951419	16.919863
969	2024-02-10 08:00:00	8	casamassima	12.44	1	62.99	1	0.0	1	null	6	null	6	7.74	1	977.03	1	40.951419	16.919863
970	2024-02-10 09:00:00	8	casamassima	13.15	1	55.05	1	0.0	1	null	6	null	6	33.69	1	977.07	1	40.951419	16.919863
971	2024-02-10 10:00:00	8	casamassima	13.09	1	64.62	1	0.0	1	null	6	null	6	44.55	1	977.16	1	40.951419	16.919863
972	2024-02-10 11:00:00	8	casamassima	13.43	1	71.33	1	0.0	1	null	6	null	6	114.24	1	977.2	1	40.951419	16.919863
973	2024-02-10 12:00:00	8	casamassima	13.88	1	70.85	1	0.0	1	null	6	null	6	108.15	1	976.65	1	40.951419	16.919863
974	2024-02-10 13:00:00	8	casamassima	13.99	1	68.6	1	0.0	1	null	6	null	6	107.33	1	975.62	1	40.951419	16.919863
975	2024-02-10 14:00:00	8	casamassima	14.12	1	65.48	1	0.0	1	null	6	null	6	75.39	1	974.67	1	40.951419	16.919863
976	2024-02-10 15:00:00	8	casamassima	14.07	1	60.04	1	0.0	1	null	6	null	6	44.85	1	973.81	1	40.951419	16.919863
977	2024-02-10 16:00:00	8	casamassima	14.18	1	58.26	1	0.0	1	null	6	null	6	58.46	1	973.28	1	40.951419	16.919863
978	2024-02-10 17:00:00	8	casamassima	13.4	1	68.64	1	0.0	1	null	6	null	6	13.54	1	972.79	1	40.951419	16.919863
979	2024-02-10 18:00:00	8	casamassima	12.91	1	79.71	1	0.0	1	null	6	null	6	0.0	5	972.28	1	40.951419	16.919863
980	2024-02-10 19:00:00	8	casamassima	12.99	1	79.7	1	0.0	1	null	6	null	6	0.0	1	971.71	1	40.951419	16.919863
981	2024-02-10 20:00:00	8	casamassima	13.09	1	79.07	1	0.0	1	null	6	null	6	0.0	1	971.5	1	40.951419	16.919863
982	2024-02-10 21:00:00	8	casamassima	12.66	1	76.05	1	0.0	1	null	6	null	6	0.0	1	971.25	1	40.951419	16.919863
983	2024-02-10 22:00:00	8	casamassima	11.66	1	79.25	1	0.2	1	null	6	null	6	0.0	1	971.21	1	40.951419	16.919863
984	2024-02-10 23:00:00	8	casamassima	11.65	1	78.31	1	0.0	1	null	6	null	6	0.0	1	971.18	1	40.951419	16.919863
985	2024-02-11 00:00:00	8	casamassima	12.09	1	75.34	1	0.0	1	null	6	null	6	0.0	1	971.41	1	40.951419	16.919863
986	2024-02-11 01:00:00	8	casamassima	11.66	1	75.28	1	0.0	1	null	6	null	6	0.0	1	971.03	1	40.951419	16.919863
987	2024-02-11 02:00:00	8	casamassima	11.22	1	75.84	1	0.0	1	null	6	null	6	0.0	1	970.86	1	40.951419	16.919863
988	2024-02-11 03:00:00	8	casamassima	11.24	1	73.58	1	0.0	1	null	6	null	6	0.0	1	970.49	1	40.951419	16.919863
989	2024-02-11 04:00:00	8	casamassima	10.71	1	78.51	1	0.0	1	null	6	null	6	0.0	1	970.17	1	40.951419	16.919863
990	2024-02-11 05:00:00	8	casamassima	11.22	1	74.79	1	0.0	1	null	6	null	6	0.0	1	970.07	1	40.951419	16.919863
991	2024-02-11 06:00:00	8	casamassima	10.99	1	72.97	1	0.0	1	null	6	null	6	0.0	1	970.1	1	40.951419	16.919863
992	2024-02-11 07:00:00	8	casamassima	9.85	1	76.51	1	0.0	1	null	6	null	6	0.0	5	969.88	1	40.951419	16.919863
993	2024-02-11 08:00:00	8	casamassima	10.54	1	77.94	1	0.0	1	null	6	null	6	75.31	1	970.07	1	40.951419	16.919863
994	2024-02-11 09:00:00	8	casamassima	13.44	1	64.77	1	0.0	1	null	6	null	6	238.6	1	970.47	1	40.951419	16.919863
995	2024-02-11 10:00:00	8	casamassima	15.03	1	57.29	1	0.0	1	null	6	null	6	377.14	1	971.01	1	40.951419	16.919863
996	2024-02-11 11:00:00	8	casamassima	15.14	1	52.03	1	0.0	1	null	6	null	6	420.29	1	971.25	1	40.951419	16.919863
997	2024-02-11 12:00:00	8	casamassima	15.13	1	47.16	1	0.0	1	null	6	null	6	433.59	1	971.67	1	40.951419	16.919863
998	2024-02-11 13:00:00	8	casamassima	15.29	1	45.3	1	0.0	1	null	6	null	6	167.4	1	971.55	1	40.951419	16.919863
999	2024-02-11 14:00:00	8	casamassima	13.65	1	56.78	1	0.6	1	null	6	null	6	159.03	1	971.63	1	40.951419	16.919863
1000	2024-02-11 15:00:00	8	casamassima	12.71	1	68.57	1	0.0	1	null	6	null	6	246.88	1	971.48	1	40.951419	16.919863
1001	2024-02-11 16:00:00	8	casamassima	13.39	1	60.2	1	0.0	1	null	6	null	6	102.43	1	971.61	1	40.951419	16.919863
1002	2024-02-11 17:00:00	8	casamassima	11.59	1	67.21	1	0.0	1	null	6	null	6	22.89	1	971.67	1	40.951419	16.919863
1003	2024-02-11 18:00:00	8	casamassima	10.55	1	73.07	1	0.0	1	null	6	null	6	0.0	5	971.98	1	40.951419	16.919863
1004	2024-02-11 19:00:00	8	casamassima	10.1	1	73.89	1	0.0	1	null	6	null	6	0.0	1	972.53	1	40.951419	16.919863
1005	2024-02-11 20:00:00	8	casamassima	9.01	1	77.94	1	0.0	1	null	6	null	6	0.0	1	972.8	1	40.951419	16.919863
1006	2024-02-11 21:00:00	8	casamassima	7.93	1	79.88	1	0.0	1	null	6	null	6	0.0	1	973.28	1	40.951419	16.919863
1007	2024-02-11 22:00:00	8	casamassima	7.24	1	80.95	1	0.0	1	null	6	null	6	0.0	1	974.01	1	40.951419	16.919863
1008	2024-02-11 23:00:00	8	casamassima	6.61	1	81.56	1	0.0	1	null	6	null	6	0.0	1	974.3	1	40.951419	16.919863
1009	2024-02-12 00:00:00	8	casamassima	5.86	1	81.02	1	0.0	1	null	6	null	6	0.0	1	974.18	1	40.951419	16.919863
1010	2024-02-12 01:00:00	8	casamassima	5.41	1	80.15	1	0.0	1	null	6	null	6	0.0	1	974.42	1	40.951419	16.919863
1011	2024-02-12 02:00:00	8	casamassima	5.32	1	76.96	1	0.0	1	null	6	null	6	0.0	1	974.55	1	40.951419	16.919863
1012	2024-02-12 03:00:00	8	casamassima	4.57	1	79.28	1	0.0	1	null	6	null	6	0.0	1	974.56	1	40.951419	16.919863
1013	2024-02-12 04:00:00	8	casamassima	4.53	1	79.28	1	0.0	1	null	6	null	6	0.0	1	974.58	1	40.951419	16.919863
1014	2024-02-12 05:00:00	8	casamassima	4.74	1	78.74	1	0.0	1	null	6	null	6	0.0	1	974.71	1	40.951419	16.919863
1015	2024-02-12 06:00:00	8	casamassima	4.99	1	78.97	1	0.0	1	null	6	null	6	0.0	1	974.95	1	40.951419	16.919863
1016	2024-02-12 07:00:00	8	casamassima	4.88	1	79.53	1	0.0	1	null	6	null	6	0.0	5	975.24	1	40.951419	16.919863
1017	2024-02-12 08:00:00	8	casamassima	5.52	1	78.23	1	0.0	1	null	6	null	6	42.88	1	975.87	1	40.951419	16.919863
1018	2024-02-12 09:00:00	8	casamassima	7.8	1	72.06	1	0.0	1	null	6	null	6	86.38	1	976.37	1	40.951419	16.919863
1019	2024-02-12 10:00:00	8	casamassima	10.64	1	63.55	1	0.0	1	null	6	null	6	283.67	1	976.66	1	40.951419	16.919863
1020	2024-02-12 11:00:00	8	casamassima	13.73	1	52.71	1	0.0	1	null	6	null	6	374.05	1	976.87	1	40.951419	16.919863
1021	2024-02-12 12:00:00	8	casamassima	13.21	1	53.73	1	0.0	1	null	6	null	6	351.43	1	976.76	1	40.951419	16.919863
1022	2024-02-12 13:00:00	8	casamassima	13.3	1	53.01	1	0.0	1	null	6	null	6	195.74	1	976.58	1	40.951419	16.919863
1023	2024-02-12 14:00:00	8	casamassima	12.76	1	58.24	1	0.0	1	null	6	null	6	207.99	1	976.55	1	40.951419	16.919863
1024	2024-02-12 15:00:00	8	casamassima	12.69	1	58.22	1	0.0	1	null	6	null	6	215.89	1	976.77	1	40.951419	16.919863
1025	2024-02-12 16:00:00	8	casamassima	12.41	1	59.4	1	0.0	1	null	6	null	6	88.68	1	977.13	1	40.951419	16.919863
1026	2024-02-12 17:00:00	8	casamassima	11.85	1	59.86	1	0.0	1	null	6	null	6	30.81	1	977.63	1	40.951419	16.919863
1027	2024-02-12 18:00:00	8	casamassima	11.06	1	64.57	1	0.0	1	null	6	null	6	0.0	5	978.49	1	40.951419	16.919863
1028	2024-02-12 19:00:00	8	casamassima	10.57	1	71.26	1	0.0	1	null	6	null	6	0.0	1	979.45	1	40.951419	16.919863
1029	2024-02-12 20:00:00	8	casamassima	9.42	1	76.72	1	0.0	1	null	6	null	6	0.0	1	979.98	1	40.951419	16.919863
1030	2024-02-12 21:00:00	8	casamassima	7.91	1	81.44	1	0.0	1	null	6	null	6	0.0	1	980.57	1	40.951419	16.919863
1031	2024-02-12 22:00:00	8	casamassima	6.99	1	85.91	1	0.0	1	null	6	null	6	0.0	1	981.08	1	40.951419	16.919863
1032	2024-02-12 23:00:00	8	casamassima	7.02	1	86.62	1	0.0	1	null	6	null	6	0.0	1	981.44	1	40.951419	16.919863
1033	2024-02-13 00:00:00	8	casamassima	6.73	1	86.33	1	0.0	1	null	6	null	6	0.0	1	981.78	1	40.951419	16.919863
1034	2024-02-13 01:00:00	8	casamassima	6.47	1	84.72	1	0.0	1	null	6	null	6	0.0	1	981.84	1	40.951419	16.919863
1035	2024-02-13 02:00:00	8	casamassima	6.42	1	82.95	1	0.0	1	null	6	null	6	0.0	1	981.92	1	40.951419	16.919863
1036	2024-02-13 03:00:00	8	casamassima	5.51	1	83.07	1	0.0	1	null	6	null	6	0.0	1	982.17	1	40.951419	16.919863
1037	2024-02-13 04:00:00	8	casamassima	5.36	1	84.59	1	0.0	1	null	6	null	6	0.0	1	982.37	1	40.951419	16.919863
1038	2024-02-13 05:00:00	8	casamassima	5.87	1	86.72	1	0.0	1	null	6	null	6	0.0	1	982.81	1	40.951419	16.919863
1039	2024-02-13 06:00:00	8	casamassima	6.46	1	87.09	1	0.0	1	null	6	null	6	0.0	1	983.16	1	40.951419	16.919863
1040	2024-02-13 07:00:00	8	casamassima	6.77	1	86.98	1	0.0	1	null	6	null	6	0.0	5	983.63	1	40.951419	16.919863
1041	2024-02-13 08:00:00	8	casamassima	7.97	1	80.92	1	0.0	1	null	6	null	6	81.76	1	984.53	1	40.951419	16.919863
1042	2024-02-13 09:00:00	8	casamassima	10.34	1	70.94	1	0.0	1	null	6	null	6	174.66	1	985.07	1	40.951419	16.919863
1043	2024-02-13 10:00:00	8	casamassima	9.87	1	75.76	1	0.0	1	null	6	null	6	164.06	1	985.69	1	40.951419	16.919863
1044	2024-02-13 11:00:00	8	casamassima	10.04	1	76.56	1	0.0	1	null	6	null	6	201.64	1	985.99	1	40.951419	16.919863
1045	2024-02-13 12:00:00	8	casamassima	10.54	1	71.47	1	0.0	1	null	6	null	6	274.88	1	986.03	1	40.951419	16.919863
1046	2024-02-13 13:00:00	8	casamassima	11.25	1	65.93	1	0.0	1	null	6	null	6	231.47	1	985.6	1	40.951419	16.919863
1047	2024-02-13 14:00:00	8	casamassima	11.06	1	69.63	1	0.0	1	null	6	null	6	161.21	1	985.41	1	40.951419	16.919863
1048	2024-02-13 15:00:00	8	casamassima	10.72	1	71.0	1	0.0	1	null	6	null	6	89.48	1	985.6	1	40.951419	16.919863
1049	2024-02-13 16:00:00	8	casamassima	7.79	1	86.77	1	1.6	1	null	6	null	6	29.8	1	986.35	1	40.951419	16.919863
1050	2024-02-13 17:00:00	8	casamassima	7.44	1	90.56	1	0.2	1	null	6	null	6	26.09	1	986.69	1	40.951419	16.919863
1051	2024-02-13 18:00:00	8	casamassima	7.11	1	91.9	1	0.0	1	null	6	null	6	0.0	5	987.55	1	40.951419	16.919863
1052	2024-02-13 19:00:00	8	casamassima	6.46	1	91.41	1	0.0	1	null	6	null	6	0.0	1	988.17	1	40.951419	16.919863
1053	2024-02-13 20:00:00	8	casamassima	5.95	1	89.65	1	0.0	1	null	6	null	6	0.0	1	988.62	1	40.951419	16.919863
1054	2024-02-13 21:00:00	8	casamassima	6.82	1	87.62	1	0.0	1	null	6	null	6	0.0	1	989.03	1	40.951419	16.919863
1055	2024-02-13 22:00:00	8	casamassima	6.8	1	88.23	1	0.0	1	null	6	null	6	0.0	1	989.3	1	40.951419	16.919863
1056	2024-02-13 23:00:00	8	casamassima	6.39	1	88.21	1	0.0	1	null	6	null	6	0.0	1	989.51	1	40.951419	16.919863
1057	2024-02-14 00:00:00	8	casamassima	6.79	1	85.6	1	0.0	1	null	6	null	6	0.0	1	989.81	1	40.951419	16.919863
1058	2024-02-14 01:00:00	8	casamassima	6.49	1	87.53	1	0.0	1	null	6	null	6	0.0	1	990.09	1	40.951419	16.919863
1059	2024-02-14 02:00:00	8	casamassima	6.27	1	87.53	1	0.0	1	null	6	null	6	0.0	1	990.23	1	40.951419	16.919863
1060	2024-02-14 03:00:00	8	casamassima	6.19	1	87.62	1	0.0	1	null	6	null	6	0.0	1	990.39	1	40.951419	16.919863
1061	2024-02-14 04:00:00	8	casamassima	5.98	1	87.24	1	0.0	1	null	6	null	6	0.0	1	990.46	1	40.951419	16.919863
1062	2024-02-14 05:00:00	8	casamassima	6.14	1	88.95	1	0.4	1	null	6	null	6	0.0	1	990.98	1	40.951419	16.919863
1063	2024-02-14 06:00:00	8	casamassima	6.13	1	86.68	1	0.2	1	null	6	null	6	0.0	1	991.3	1	40.951419	16.919863
1064	2024-02-14 07:00:00	8	casamassima	6.41	1	79.72	1	0.0	1	null	6	null	6	0.0	5	991.64	1	40.951419	16.919863
1065	2024-02-14 08:00:00	8	casamassima	6.91	1	74.26	1	0.0	1	null	6	null	6	69.59	1	992.17	1	40.951419	16.919863
1066	2024-02-14 09:00:00	8	casamassima	8.93	1	60.62	1	0.0	1	null	6	null	6	220.85	1	992.69	1	40.951419	16.919863
1067	2024-02-14 10:00:00	8	casamassima	10.05	1	52.37	1	0.0	1	null	6	null	6	293.02	1	992.83	1	40.951419	16.919863
1068	2024-02-14 11:00:00	8	casamassima	10.46	1	51.11	1	0.0	1	null	6	null	6	328.2	1	992.99	1	40.951419	16.919863
1069	2024-02-14 12:00:00	8	casamassima	10.39	1	51.69	1	0.0	1	null	6	null	6	322.53	1	992.93	1	40.951419	16.919863
1070	2024-02-14 13:00:00	8	casamassima	10.42	1	49.63	1	0.0	1	null	6	null	6	203.7	1	992.85	1	40.951419	16.919863
1071	2024-02-14 14:00:00	8	casamassima	11.05	1	49.26	1	0.0	1	null	6	null	6	503.31	1	992.68	1	40.951419	16.919863
1072	2024-02-14 15:00:00	8	casamassima	10.99	1	49.02	1	0.0	1	null	6	null	6	428.59	1	992.83	1	40.951419	16.919863
1073	2024-02-14 16:00:00	8	casamassima	10.74	1	51.18	1	0.0	1	null	6	null	6	247.1	1	993.13	1	40.951419	16.919863
1074	2024-02-14 17:00:00	8	casamassima	9.99	1	54.63	1	0.0	1	null	6	null	6	25.26	1	993.55	1	40.951419	16.919863
1075	2024-02-14 18:00:00	8	casamassima	9.26	1	59.75	1	0.0	1	null	6	null	6	0.0	5	994.0	1	40.951419	16.919863
1076	2024-02-14 19:00:00	8	casamassima	8.52	1	65.25	1	0.0	1	null	6	null	6	0.0	1	994.42	1	40.951419	16.919863
1077	2024-02-14 20:00:00	8	casamassima	7.28	1	70.89	1	0.0	1	null	6	null	6	0.0	1	994.72	1	40.951419	16.919863
1078	2024-02-14 21:00:00	8	casamassima	7.48	1	67.94	1	0.0	1	null	6	null	6	0.0	1	994.99	1	40.951419	16.919863
1079	2024-02-14 22:00:00	8	casamassima	5.12	1	68.67	1	0.0	1	null	6	null	6	0.0	1	995.04	1	40.951419	16.919863
1080	2024-02-14 23:00:00	8	casamassima	4.59	1	68.82	1	0.0	1	null	6	null	6	0.0	1	994.79	1	40.951419	16.919863
1081	2024-02-15 00:00:00	8	casamassima	4.66	1	72.54	1	0.0	1	null	6	null	6	0.0	1	994.78	1	40.951419	16.919863
1082	2024-02-15 01:00:00	8	casamassima	4.96	1	72.14	1	0.0	1	null	6	null	6	0.0	1	994.63	1	40.951419	16.919863
1083	2024-02-15 02:00:00	8	casamassima	4.94	1	74.03	1	0.0	1	null	6	null	6	0.0	1	994.46	1	40.951419	16.919863
1084	2024-02-15 03:00:00	8	casamassima	5.46	1	72.7	1	0.0	1	null	6	null	6	0.0	1	994.15	1	40.951419	16.919863
1085	2024-02-15 04:00:00	8	casamassima	5.56	1	72.48	1	0.0	1	null	6	null	6	0.0	1	994.08	1	40.951419	16.919863
1086	2024-02-15 05:00:00	8	casamassima	5.8	1	71.64	1	0.0	1	null	6	null	6	0.0	1	994.02	1	40.951419	16.919863
1087	2024-02-15 06:00:00	8	casamassima	5.87	1	69.89	1	0.0	1	null	6	null	6	0.0	1	994.37	1	40.951419	16.919863
1088	2024-02-15 07:00:00	8	casamassima	5.51	1	71.22	1	0.0	1	null	6	null	6	0.0	5	994.57	1	40.951419	16.919863
1089	2024-02-15 08:00:00	8	casamassima	6.29	1	68.04	1	0.0	1	null	6	null	6	73.4	1	994.78	1	40.951419	16.919863
1090	2024-02-15 09:00:00	8	casamassima	9.97	1	62.23	1	0.0	1	null	6	null	6	231.3	1	994.94	1	40.951419	16.919863
1091	2024-02-15 10:00:00	8	casamassima	11.26	1	64.77	1	0.0	1	null	6	null	6	342.61	1	995.05	1	40.951419	16.919863
1092	2024-02-15 11:00:00	8	casamassima	11.94	1	68.18	1	0.0	1	null	6	null	6	391.19	1	995.11	1	40.951419	16.919863
1093	2024-02-15 12:00:00	8	casamassima	12.07	1	68.19	1	0.0	1	null	6	null	6	338.95	1	995.09	1	40.951419	16.919863
1094	2024-02-15 13:00:00	8	casamassima	12.4	1	64.85	1	0.0	1	null	6	null	6	268.02	1	994.63	1	40.951419	16.919863
1095	2024-02-15 14:00:00	8	casamassima	12.84	1	61.42	1	0.0	1	null	6	null	6	460.39	1	994.16	1	40.951419	16.919863
1096	2024-02-15 15:00:00	8	casamassima	13.15	1	58.8	1	0.0	1	null	6	null	6	461.07	1	993.8	1	40.951419	16.919863
1097	2024-02-15 16:00:00	8	casamassima	12.69	1	58.47	1	0.0	1	null	6	null	6	233.83	1	993.6	1	40.951419	16.919863
1098	2024-02-15 17:00:00	8	casamassima	11.66	1	62.39	1	0.0	1	null	6	null	6	23.67	1	993.55	1	40.951419	16.919863
1099	2024-02-15 18:00:00	8	casamassima	10.3	1	76.07	1	0.0	1	null	6	null	6	0.0	5	993.73	1	40.951419	16.919863
1100	2024-02-15 19:00:00	8	casamassima	8.48	1	85.47	1	0.0	1	null	6	null	6	0.0	1	994.1	1	40.951419	16.919863
1101	2024-02-15 20:00:00	8	casamassima	7.05	1	89.22	1	0.0	1	null	6	null	6	0.0	1	994.36	1	40.951419	16.919863
1102	2024-02-15 21:00:00	8	casamassima	6.2	1	91.12	1	0.0	1	null	6	null	6	0.0	1	994.44	1	40.951419	16.919863
1103	2024-02-15 22:00:00	8	casamassima	5.92	1	92.01	1	0.0	1	null	6	null	6	0.0	1	994.41	1	40.951419	16.919863
1104	2024-02-15 23:00:00	8	casamassima	5.24	1	92.55	1	0.0	1	null	6	null	6	0.0	1	994.25	1	40.951419	16.919863
1105	2024-02-16 00:00:00	8	casamassima	5.42	1	93.17	1	0.0	1	null	6	null	6	0.0	1	994.04	1	40.951419	16.919863
1106	2024-02-16 01:00:00	8	casamassima	4.29	1	92.69	1	0.0	1	null	6	null	6	0.0	1	993.86	1	40.951419	16.919863
1107	2024-02-16 02:00:00	8	casamassima	3.56	1	90.78	1	0.0	1	null	6	null	6	0.0	1	993.64	1	40.951419	16.919863
1108	2024-02-16 03:00:00	8	casamassima	3.39	1	89.08	1	0.0	1	null	6	null	6	0.0	1	993.37	1	40.951419	16.919863
1109	2024-02-16 04:00:00	8	casamassima	3.15	1	87.87	1	0.0	1	null	6	null	6	0.0	1	993.25	1	40.951419	16.919863
1110	2024-02-16 05:00:00	8	casamassima	2.92	1	85.7	1	0.0	1	null	6	null	6	0.0	1	993.19	1	40.951419	16.919863
1111	2024-02-16 06:00:00	8	casamassima	2.84	1	82.87	1	0.0	1	null	6	null	6	0.0	1	993.37	1	40.951419	16.919863
1112	2024-02-16 07:00:00	8	casamassima	2.55	1	82.67	1	0.0	1	null	6	null	6	0.0	5	993.47	1	40.951419	16.919863
1113	2024-02-16 08:00:00	8	casamassima	4.2	1	77.18	1	0.0	1	null	6	null	6	79.2	1	993.76	1	40.951419	16.919863
1114	2024-02-16 09:00:00	8	casamassima	10.93	1	60.23	1	0.0	1	null	6	null	6	233.47	1	993.99	1	40.951419	16.919863
1115	2024-02-16 10:00:00	8	casamassima	14.82	1	50.39	1	0.0	1	null	6	null	6	362.02	1	994.0	1	40.951419	16.919863
1116	2024-02-16 11:00:00	8	casamassima	15.89	1	45.12	1	0.0	1	null	6	null	6	496.91	1	994.07	1	40.951419	16.919863
1117	2024-02-16 12:00:00	8	casamassima	16.2	1	43.0	1	0.0	1	null	6	null	6	550.97	1	993.62	1	40.951419	16.919863
1118	2024-02-16 13:00:00	8	casamassima	15.5	1	43.71	1	0.0	1	null	6	null	6	155.48	1	993.05	1	40.951419	16.919863
1119	2024-02-16 14:00:00	8	casamassima	15.84	1	49.97	1	0.0	1	null	6	null	6	520.19	1	992.61	1	40.951419	16.919863
1120	2024-02-16 15:00:00	8	casamassima	15.69	1	53.38	1	0.0	1	null	6	null	6	432.65	1	992.49	1	40.951419	16.919863
1121	2024-02-16 16:00:00	8	casamassima	15.43	1	51.38	1	0.0	1	null	6	null	6	225.57	1	992.45	1	40.951419	16.919863
1122	2024-02-16 17:00:00	8	casamassima	13.89	1	53.31	1	0.0	1	null	6	null	6	24.62	1	992.63	1	40.951419	16.919863
1123	2024-02-16 18:00:00	8	casamassima	12.26	1	54.78	1	0.0	1	null	6	null	6	0.0	5	993.03	1	40.951419	16.919863
1124	2024-02-16 19:00:00	8	casamassima	10.73	1	54.87	1	0.0	1	null	6	null	6	0.0	1	993.67	1	40.951419	16.919863
1125	2024-02-16 20:00:00	8	casamassima	8.63	1	63.57	1	0.0	1	null	6	null	6	0.0	1	993.93	1	40.951419	16.919863
1126	2024-02-16 21:00:00	8	casamassima	7.28	1	75.0	1	0.0	1	null	6	null	6	0.0	1	994.24	1	40.951419	16.919863
1127	2024-02-16 22:00:00	8	casamassima	6.85	1	78.12	1	0.0	1	null	6	null	6	0.0	1	994.57	1	40.951419	16.919863
1128	2024-02-16 23:00:00	8	casamassima	6.4	1	77.55	1	0.0	1	null	6	null	6	0.0	1	994.8	1	40.951419	16.919863
1129	2024-02-17 00:00:00	8	casamassima	6.15	1	74.42	1	0.0	1	null	6	null	6	0.0	1	994.9	1	40.951419	16.919863
1130	2024-02-17 01:00:00	8	casamassima	5.61	1	75.53	1	0.0	1	null	6	null	6	0.0	1	995.02	1	40.951419	16.919863
1131	2024-02-17 02:00:00	8	casamassima	5.41	1	73.75	1	0.0	1	null	6	null	6	0.0	1	995.08	1	40.951419	16.919863
1132	2024-02-17 03:00:00	8	casamassima	5.16	1	73.64	1	0.0	1	null	6	null	6	0.0	1	995.11	1	40.951419	16.919863
1133	2024-02-17 04:00:00	8	casamassima	4.88	1	74.53	1	0.0	1	null	6	null	6	0.0	1	995.15	1	40.951419	16.919863
1134	2024-02-17 05:00:00	8	casamassima	3.57	1	79.82	1	0.0	1	null	6	null	6	0.0	1	995.45	1	40.951419	16.919863
1135	2024-02-17 06:00:00	8	casamassima	2.88	1	81.85	1	0.0	1	null	6	null	6	0.0	1	995.82	1	40.951419	16.919863
1136	2024-02-17 07:00:00	8	casamassima	2.1	1	84.13	1	0.0	1	null	6	null	6	0.0	5	996.27	1	40.951419	16.919863
1137	2024-02-17 08:00:00	8	casamassima	4.12	1	78.19	1	0.0	1	null	6	null	6	81.74	1	996.83	1	40.951419	16.919863
1138	2024-02-17 09:00:00	8	casamassima	10.69	1	60.41	1	0.0	1	null	6	null	6	234.1	1	997.28	1	40.951419	16.919863
1139	2024-02-17 10:00:00	8	casamassima	13.18	1	55.41	1	0.0	1	null	6	null	6	365.48	1	997.61	1	40.951419	16.919863
1140	2024-02-17 11:00:00	8	casamassima	14.41	1	53.11	1	0.0	1	null	6	null	6	494.72	1	997.94	1	40.951419	16.919863
1141	2024-02-17 12:00:00	8	casamassima	15.49	1	48.99	1	0.0	1	null	6	null	6	546.97	1	997.99	1	40.951419	16.919863
1142	2024-02-17 13:00:00	8	casamassima	14.62	1	55.65	1	0.0	1	null	6	null	6	208.58	1	997.85	1	40.951419	16.919863
1143	2024-02-17 14:00:00	8	casamassima	14.08	1	61.72	1	0.0	1	null	6	null	6	516.63	1	997.76	1	40.951419	16.919863
1144	2024-02-17 15:00:00	8	casamassima	14.2	1	60.67	1	0.0	1	null	6	null	6	432.99	1	997.9	1	40.951419	16.919863
1145	2024-02-17 16:00:00	8	casamassima	13.95	1	59.73	1	0.0	1	null	6	null	6	222.17	1	998.22	1	40.951419	16.919863
1146	2024-02-17 17:00:00	8	casamassima	12.55	1	60.93	1	0.0	1	null	6	null	6	27.75	1	998.57	1	40.951419	16.919863
1147	2024-02-17 18:00:00	8	casamassima	11.18	1	74.21	1	0.0	1	null	6	null	6	0.0	5	999.19	1	40.951419	16.919863
1148	2024-02-17 19:00:00	8	casamassima	9.45	1	83.03	1	0.0	1	null	6	null	6	0.0	1	999.89	1	40.951419	16.919863
1149	2024-02-17 20:00:00	8	casamassima	7.27	1	88.63	1	0.0	1	null	6	null	6	0.0	1	1000.24	1	40.951419	16.919863
1150	2024-02-17 21:00:00	8	casamassima	6.42	1	91.2	1	0.0	1	null	6	null	6	0.0	1	1000.76	1	40.951419	16.919863
1151	2024-02-17 22:00:00	8	casamassima	5.83	1	92.29	1	0.0	1	null	6	null	6	0.0	1	1001.23	1	40.951419	16.919863
1152	2024-02-17 23:00:00	8	casamassima	6.26	1	93.19	1	0.0	1	null	6	null	6	0.0	1	1001.62	1	40.951419	16.919863
1153	2024-02-18 00:00:00	8	casamassima	7.27	1	93.56	1	0.0	1	null	6	null	6	0.0	1	1001.77	1	40.951419	16.919863
1154	2024-02-18 01:00:00	8	casamassima	8.08	1	93.59	1	0.0	1	null	6	null	6	0.0	1	1001.82	1	40.951419	16.919863
1155	2024-02-18 02:00:00	8	casamassima	8.0	1	93.63	1	0.0	1	null	6	null	6	0.0	1	1001.75	1	40.951419	16.919863
1156	2024-02-18 03:00:00	8	casamassima	6.71	1	93.85	1	0.0	1	null	6	null	6	0.0	1	1001.59	1	40.951419	16.919863
1157	2024-02-18 04:00:00	8	casamassima	5.84	1	94.18	1	0.0	1	null	6	null	6	0.0	1	1001.45	1	40.951419	16.919863
1158	2024-02-18 05:00:00	8	casamassima	4.8	1	94.32	1	0.0	1	null	6	null	6	0.0	1	1001.56	1	40.951419	16.919863
1159	2024-02-18 06:00:00	8	casamassima	3.75	1	94.68	1	0.0	1	null	6	null	6	0.0	1	1001.78	1	40.951419	16.919863
1160	2024-02-18 07:00:00	8	casamassima	3.3	1	94.94	1	0.0	1	null	6	null	6	0.0	5	1002.08	1	40.951419	16.919863
1161	2024-02-18 08:00:00	8	casamassima	4.83	1	94.9	1	0.0	1	null	6	null	6	39.77	1	1002.65	1	40.951419	16.919863
1162	2024-02-18 09:00:00	8	casamassima	7.27	1	93.86	1	0.0	1	null	6	null	6	132.82	1	1002.87	1	40.951419	16.919863
1163	2024-02-18 10:00:00	8	casamassima	9.61	1	81.88	1	0.0	1	null	6	null	6	330.59	1	1002.71	1	40.951419	16.919863
1164	2024-02-18 11:00:00	8	casamassima	11.72	1	63.91	1	0.0	1	null	6	null	6	490.62	1	1002.57	1	40.951419	16.919863
1165	2024-02-18 12:00:00	8	casamassima	12.65	1	62.64	1	0.0	1	null	6	null	6	541.65	1	1002.3	1	40.951419	16.919863
1166	2024-02-18 13:00:00	8	casamassima	13.24	1	59.85	1	0.0	1	null	6	null	6	247.42	1	1001.61	1	40.951419	16.919863
1167	2024-02-18 14:00:00	8	casamassima	14.09	1	59.76	1	0.0	1	null	6	null	6	522.69	1	1000.88	1	40.951419	16.919863
1168	2024-02-18 15:00:00	8	casamassima	13.9	1	63.42	1	0.0	1	null	6	null	6	427.73	1	1000.53	1	40.951419	16.919863
1169	2024-02-18 16:00:00	8	casamassima	13.52	1	64.24	1	0.0	1	null	6	null	6	232.71	1	1000.35	1	40.951419	16.919863
1170	2024-02-18 17:00:00	8	casamassima	12.37	1	67.7	1	0.0	1	null	6	null	6	32.32	1	1000.12	1	40.951419	16.919863
1171	2024-02-18 18:00:00	8	casamassima	11.38	1	72.02	1	0.0	1	null	6	null	6	0.0	5	999.96	1	40.951419	16.919863
1172	2024-02-18 19:00:00	8	casamassima	10.36	1	77.59	1	0.0	1	null	6	null	6	0.0	1	1000.03	1	40.951419	16.919863
1173	2024-02-18 20:00:00	8	casamassima	8.41	1	83.48	1	0.0	1	null	6	null	6	0.0	1	999.54	1	40.951419	16.919863
1174	2024-02-18 21:00:00	8	casamassima	7.92	1	85.9	1	0.0	1	null	6	null	6	0.0	1	999.33	1	40.951419	16.919863
1175	2024-02-18 22:00:00	8	casamassima	8.37	1	83.95	1	0.0	1	null	6	null	6	0.0	1	999.11	1	40.951419	16.919863
1176	2024-02-18 23:00:00	8	casamassima	8.26	1	81.97	1	0.0	1	null	6	null	6	0.0	1	998.75	1	40.951419	16.919863
1177	2024-02-19 00:00:00	8	casamassima	7.98	1	79.2	1	0.0	1	null	6	null	6	0.0	1	998.58	1	40.951419	16.919863
1178	2024-02-19 01:00:00	8	casamassima	8.4	1	75.01	1	0.0	1	null	6	null	6	0.0	1	998.45	1	40.951419	16.919863
1179	2024-02-19 02:00:00	8	casamassima	7.87	1	78.76	1	0.0	1	null	6	null	6	0.0	1	997.99	1	40.951419	16.919863
1180	2024-02-19 03:00:00	8	casamassima	6.83	1	82.76	1	0.0	1	null	6	null	6	0.0	1	997.36	1	40.951419	16.919863
1181	2024-02-19 04:00:00	8	casamassima	6.23	1	85.75	1	0.0	1	null	6	null	6	0.0	1	996.8	1	40.951419	16.919863
1182	2024-02-19 05:00:00	8	casamassima	5.73	1	87.43	1	0.0	1	null	6	null	6	0.0	1	996.71	1	40.951419	16.919863
1183	2024-02-19 06:00:00	8	casamassima	5.52	1	84.72	1	0.0	1	null	6	null	6	0.0	1	996.33	1	40.951419	16.919863
1184	2024-02-19 07:00:00	8	casamassima	5.62	1	77.24	1	0.0	1	null	6	null	6	0.0	5	996.0	1	40.951419	16.919863
1185	2024-02-19 08:00:00	8	casamassima	7.23	1	71.86	1	0.0	1	null	6	null	6	67.69	1	996.25	1	40.951419	16.919863
1186	2024-02-19 09:00:00	8	casamassima	12.52	1	59.33	1	0.0	1	null	6	null	6	230.31	1	996.16	1	40.951419	16.919863
1187	2024-02-19 10:00:00	8	casamassima	15.38	1	49.02	1	0.0	1	null	6	null	6	358.09	1	995.75	1	40.951419	16.919863
1188	2024-02-19 11:00:00	8	casamassima	16.3	1	43.98	1	0.0	1	null	6	null	6	485.9	1	995.61	1	40.951419	16.919863
1189	2024-02-19 12:00:00	8	casamassima	16.61	1	44.96	1	0.0	1	null	6	null	6	558.41	1	995.25	1	40.951419	16.919863
1190	2024-02-19 13:00:00	8	casamassima	15.86	1	48.7	1	0.0	1	null	6	null	6	309.22	1	994.45	1	40.951419	16.919863
1191	2024-02-19 14:00:00	8	casamassima	15.96	1	50.34	1	0.0	1	null	6	null	6	458.01	1	993.71	1	40.951419	16.919863
1192	2024-02-19 15:00:00	8	casamassima	16.48	1	49.22	1	0.0	1	null	6	null	6	381.6	1	993.18	1	40.951419	16.919863
1193	2024-02-19 16:00:00	8	casamassima	15.21	1	56.26	1	0.0	1	null	6	null	6	196.59	1	993.12	1	40.951419	16.919863
1194	2024-02-19 17:00:00	8	casamassima	13.65	1	62.01	1	0.0	1	null	6	null	6	49.26	1	993.43	1	40.951419	16.919863
1195	2024-02-19 18:00:00	8	casamassima	12.18	1	65.35	1	0.0	1	null	6	null	6	0.0	5	993.97	1	40.951419	16.919863
1196	2024-02-19 19:00:00	8	casamassima	11.2	1	69.38	1	0.0	1	null	6	null	6	0.0	1	994.25	1	40.951419	16.919863
1197	2024-02-19 20:00:00	8	casamassima	10.13	1	76.17	1	0.0	1	null	6	null	6	0.0	1	994.25	1	40.951419	16.919863
1198	2024-02-19 21:00:00	8	casamassima	8.74	1	80.99	1	0.0	1	null	6	null	6	0.0	1	994.21	1	40.951419	16.919863
1199	2024-02-19 22:00:00	8	casamassima	7.6	1	86.14	1	0.0	1	null	6	null	6	0.0	1	994.37	1	40.951419	16.919863
1200	2024-02-19 23:00:00	8	casamassima	7.47	1	89.56	1	0.0	1	null	6	null	6	0.0	1	994.42	1	40.951419	16.919863
1201	2024-02-20 00:00:00	8	casamassima	7.47	1	90.7	1	0.0	1	null	6	null	6	0.0	1	994.16	1	40.951419	16.919863
1202	2024-02-20 01:00:00	8	casamassima	7.21	1	91.51	1	0.0	1	null	6	null	6	0.0	1	994.1	1	40.951419	16.919863
1203	2024-02-20 02:00:00	8	casamassima	7.78	1	91.49	1	0.0	1	null	6	null	6	0.0	1	993.74	1	40.951419	16.919863
1204	2024-02-20 03:00:00	8	casamassima	7.74	1	91.17	1	0.0	1	null	6	null	6	0.0	1	993.41	1	40.951419	16.919863
1205	2024-02-20 04:00:00	8	casamassima	7.69	1	90.57	1	0.0	1	null	6	null	6	0.0	1	993.05	1	40.951419	16.919863
1206	2024-02-20 05:00:00	8	casamassima	7.16	1	90.47	1	0.0	1	null	6	null	6	0.0	1	992.99	1	40.951419	16.919863
1207	2024-02-20 06:00:00	8	casamassima	7.01	1	89.72	1	0.0	1	null	6	null	6	0.0	1	993.02	1	40.951419	16.919863
1208	2024-02-20 07:00:00	8	casamassima	6.71	1	89.23	1	0.0	1	null	6	null	6	0.0	5	993.04	1	40.951419	16.919863
1209	2024-02-20 08:00:00	8	casamassima	8.52	1	83.88	1	0.0	1	null	6	null	6	105.98	1	993.33	1	40.951419	16.919863
1210	2024-02-20 09:00:00	8	casamassima	10.38	1	77.13	1	0.0	1	null	6	null	6	148.64	1	993.81	1	40.951419	16.919863
1211	2024-02-20 10:00:00	8	casamassima	10.43	1	78.34	1	0.0	1	null	6	null	6	158.18	1	994.03	1	40.951419	16.919863
1212	2024-02-20 11:00:00	8	casamassima	11.07	1	74.8	1	0.0	1	null	6	null	6	221.75	1	994.03	1	40.951419	16.919863
1213	2024-02-20 12:00:00	8	casamassima	12.76	1	63.99	1	0.0	1	null	6	null	6	540.8	1	993.77	1	40.951419	16.919863
1214	2024-02-20 13:00:00	8	casamassima	13.48	1	55.65	1	0.0	1	null	6	null	6	393.42	1	993.18	1	40.951419	16.919863
1215	2024-02-20 14:00:00	8	casamassima	13.32	1	60.69	1	0.0	1	null	6	null	6	334.6	1	992.77	1	40.951419	16.919863
1216	2024-02-20 15:00:00	8	casamassima	13.18	1	62.82	1	0.0	1	null	6	null	6	308.3	1	992.54	1	40.951419	16.919863
1217	2024-02-20 16:00:00	8	casamassima	12.83	1	63.42	1	0.0	1	null	6	null	6	205.68	1	992.48	1	40.951419	16.919863
1218	2024-02-20 17:00:00	8	casamassima	11.92	1	67.83	1	0.0	1	null	6	null	6	36.74	1	992.61	1	40.951419	16.919863
1219	2024-02-20 18:00:00	8	casamassima	11.19	1	70.44	1	0.0	1	null	6	null	6	0.0	5	993.14	1	40.951419	16.919863
1220	2024-02-20 19:00:00	8	casamassima	10.13	1	75.9	1	0.0	1	null	6	null	6	0.0	1	993.83	1	40.951419	16.919863
1221	2024-02-20 20:00:00	8	casamassima	7.78	1	84.55	1	0.0	1	null	6	null	6	0.0	1	994.23	1	40.951419	16.919863
1222	2024-02-20 21:00:00	8	casamassima	7.49	1	89.6	1	0.0	1	null	6	null	6	0.0	1	994.62	1	40.951419	16.919863
1223	2024-02-20 22:00:00	8	casamassima	7.35	1	90.75	1	0.0	1	null	6	null	6	0.0	1	994.95	1	40.951419	16.919863
1224	2024-02-20 23:00:00	8	casamassima	7.03	1	91.96	1	0.0	1	null	6	null	6	0.0	1	995.06	1	40.951419	16.919863
1225	2024-02-21 00:00:00	8	casamassima	6.46	1	92.64	1	0.0	1	null	6	null	6	0.0	1	995.28	1	40.951419	16.919863
1226	2024-02-21 01:00:00	8	casamassima	6.35	1	93.01	1	0.0	1	null	6	null	6	0.0	1	995.27	1	40.951419	16.919863
1227	2024-02-21 02:00:00	8	casamassima	6.39	1	93.24	1	0.0	1	null	6	null	6	0.0	1	995.08	1	40.951419	16.919863
1228	2024-02-21 03:00:00	8	casamassima	5.64	1	93.56	1	0.0	1	null	6	null	6	0.0	1	994.7	1	40.951419	16.919863
1229	2024-02-21 04:00:00	8	casamassima	5.08	1	93.91	1	0.0	1	null	6	null	6	0.0	1	994.26	1	40.951419	16.919863
1230	2024-02-21 05:00:00	8	casamassima	4.74	1	94.03	1	0.2	1	null	6	null	6	0.0	1	994.24	1	40.951419	16.919863
1231	2024-02-21 06:00:00	8	casamassima	4.46	1	94.06	1	0.0	1	null	6	null	6	0.0	1	994.52	1	40.951419	16.919863
1232	2024-02-21 07:00:00	8	casamassima	4.51	1	93.9	1	0.0	1	null	6	null	6	0.0	5	994.9	1	40.951419	16.919863
1233	2024-02-21 08:00:00	8	casamassima	6.17	1	92.27	1	0.0	1	null	6	null	6	86.69	1	995.58	1	40.951419	16.919863
1234	2024-02-21 09:00:00	8	casamassima	9.59	1	80.03	1	0.0	1	null	6	null	6	246.8	1	996.11	1	40.951419	16.919863
1235	2024-02-21 10:00:00	8	casamassima	11.6	1	74.83	1	0.0	1	null	6	null	6	383.01	1	996.45	1	40.951419	16.919863
1236	2024-02-21 11:00:00	8	casamassima	12.46	1	65.88	1	0.0	1	null	6	null	6	364.19	1	996.71	1	40.951419	16.919863
1237	2024-02-21 12:00:00	8	casamassima	13.94	1	51.71	1	0.0	1	null	6	null	6	579.55	1	996.56	1	40.951419	16.919863
1238	2024-02-21 13:00:00	8	casamassima	14.06	1	41.95	1	0.0	1	null	6	null	6	361.87	1	995.9	1	40.951419	16.919863
1239	2024-02-21 14:00:00	8	casamassima	14.73	1	38.0	1	0.0	1	null	6	null	6	569.03	1	995.27	1	40.951419	16.919863
1240	2024-02-21 15:00:00	8	casamassima	14.46	1	42.28	1	0.0	1	null	6	null	6	462.88	1	994.79	1	40.951419	16.919863
1241	2024-02-21 16:00:00	8	casamassima	13.59	1	47.02	1	0.0	1	null	6	null	6	204.91	1	994.73	1	40.951419	16.919863
1242	2024-02-21 17:00:00	8	casamassima	12.08	1	57.74	1	0.0	1	null	6	null	6	50.9	1	994.79	1	40.951419	16.919863
1243	2024-02-21 18:00:00	8	casamassima	10.92	1	65.64	1	0.0	1	null	6	null	6	0.0	5	994.9	1	40.951419	16.919863
1244	2024-02-21 19:00:00	8	casamassima	9.69	1	68.84	1	0.0	1	null	6	null	6	0.0	1	995.41	1	40.951419	16.919863
1245	2024-02-21 20:00:00	8	casamassima	7.58	1	78.31	1	0.0	1	null	6	null	6	0.0	1	995.55	1	40.951419	16.919863
1246	2024-02-21 21:00:00	8	casamassima	5.77	1	84.27	1	0.0	1	null	6	null	6	0.0	1	995.47	1	40.951419	16.919863
1247	2024-02-21 22:00:00	8	casamassima	4.78	1	85.99	1	0.0	1	null	6	null	6	0.0	1	995.59	1	40.951419	16.919863
1248	2024-02-21 23:00:00	8	casamassima	4.58	1	85.36	1	0.0	1	null	6	null	6	0.0	1	995.28	1	40.951419	16.919863
1249	2024-02-22 00:00:00	8	casamassima	4.26	1	84.08	1	0.0	1	null	6	null	6	0.0	1	995.05	1	40.951419	16.919863
1250	2024-02-22 01:00:00	8	casamassima	3.46	1	83.62	1	0.0	1	null	6	null	6	0.0	1	994.79	1	40.951419	16.919863
1251	2024-02-22 02:00:00	8	casamassima	3.03	1	84.17	1	0.0	1	null	6	null	6	0.0	1	994.48	1	40.951419	16.919863
1252	2024-02-22 03:00:00	8	casamassima	2.88	1	83.85	1	0.0	1	null	6	null	6	0.0	1	993.83	1	40.951419	16.919863
1253	2024-02-22 04:00:00	8	casamassima	2.87	1	80.77	1	0.0	1	null	6	null	6	0.0	1	993.19	1	40.951419	16.919863
1254	2024-02-22 05:00:00	8	casamassima	3.15	1	77.97	1	0.0	1	null	6	null	6	0.0	1	993.01	1	40.951419	16.919863
1255	2024-02-22 06:00:00	8	casamassima	3.26	1	76.91	1	0.0	1	null	6	null	6	0.0	1	992.93	1	40.951419	16.919863
1256	2024-02-22 07:00:00	8	casamassima	3.01	1	81.39	1	0.0	1	null	6	null	6	0.0	5	992.75	1	40.951419	16.919863
1257	2024-02-22 08:00:00	8	casamassima	5.95	1	76.9	1	0.0	1	null	6	null	6	103.4	1	992.62	1	40.951419	16.919863
1258	2024-02-22 09:00:00	8	casamassima	11.02	1	67.71	1	0.0	1	null	6	null	6	265.0	1	992.48	1	40.951419	16.919863
1259	2024-02-22 10:00:00	8	casamassima	13.43	1	59.55	1	0.0	1	null	6	null	6	397.51	1	992.34	1	40.951419	16.919863
1260	2024-02-22 11:00:00	8	casamassima	14.55	1	53.55	1	0.0	1	null	6	null	6	526.43	1	992.03	1	40.951419	16.919863
1261	2024-02-22 12:00:00	8	casamassima	15.56	1	49.18	1	0.0	1	null	6	null	6	597.93	1	991.68	1	40.951419	16.919863
1262	2024-02-22 13:00:00	8	casamassima	15.65	1	46.59	1	0.0	1	null	6	null	6	418.36	1	990.78	1	40.951419	16.919863
1263	2024-02-22 14:00:00	8	casamassima	15.68	1	45.69	1	0.0	1	null	6	null	6	551.1	1	989.81	1	40.951419	16.919863
1264	2024-02-22 15:00:00	8	casamassima	15.45	1	45.28	1	0.0	1	null	6	null	6	420.73	1	989.22	1	40.951419	16.919863
1265	2024-02-22 16:00:00	8	casamassima	14.34	1	48.89	1	0.0	1	null	6	null	6	223.14	1	988.76	1	40.951419	16.919863
1266	2024-02-22 17:00:00	8	casamassima	12.61	1	55.41	1	0.0	1	null	6	null	6	55.52	1	988.44	1	40.951419	16.919863
1267	2024-02-22 18:00:00	8	casamassima	11.07	1	63.17	1	0.0	1	null	6	null	6	5.49	1	988.51	1	40.951419	16.919863
1268	2024-02-22 19:00:00	8	casamassima	10.12	1	68.99	1	0.0	1	null	6	null	6	0.0	1	988.38	1	40.951419	16.919863
1269	2024-02-22 20:00:00	8	casamassima	9.62	1	78.49	1	0.0	1	null	6	null	6	0.0	1	988.25	1	40.951419	16.919863
1270	2024-02-22 21:00:00	8	casamassima	9.29	1	82.96	1	0.0	1	null	6	null	6	0.0	1	987.89	1	40.951419	16.919863
1271	2024-02-22 22:00:00	8	casamassima	8.85	1	86.34	1	0.0	1	null	6	null	6	0.0	1	987.43	1	40.951419	16.919863
1272	2024-02-22 23:00:00	8	casamassima	8.66	1	82.77	1	0.0	1	null	6	null	6	0.0	1	987.06	1	40.951419	16.919863
1273	2024-02-23 00:00:00	8	casamassima	9.44	1	65.8	1	0.0	1	null	6	null	6	0.0	1	986.45	1	40.951419	16.919863
1274	2024-02-23 01:00:00	8	casamassima	9.54	1	61.83	1	0.0	1	null	6	null	6	0.0	1	986.0	1	40.951419	16.919863
1275	2024-02-23 02:00:00	8	casamassima	9.55	1	59.24	1	0.0	1	null	6	null	6	0.0	1	985.27	1	40.951419	16.919863
1276	2024-02-23 03:00:00	8	casamassima	9.55	1	64.66	1	0.0	1	null	6	null	6	0.0	1	985.0	1	40.951419	16.919863
1277	2024-02-23 04:00:00	8	casamassima	9.13	1	62.6	1	0.0	1	null	6	null	6	0.0	1	984.63	1	40.951419	16.919863
1278	2024-02-23 05:00:00	8	casamassima	8.55	1	61.94	1	0.0	1	null	6	null	6	0.0	1	984.38	1	40.951419	16.919863
1279	2024-02-23 06:00:00	8	casamassima	8.21	1	74.17	1	0.0	1	null	6	null	6	0.0	1	984.22	1	40.951419	16.919863
1280	2024-02-23 07:00:00	8	casamassima	7.75	1	74.63	1	0.0	1	null	6	null	6	7.52	1	984.21	1	40.951419	16.919863
1281	2024-02-23 08:00:00	8	casamassima	9.56	1	64.89	1	0.0	1	null	6	null	6	103.42	1	984.03	1	40.951419	16.919863
1282	2024-02-23 09:00:00	8	casamassima	11.67	1	65.55	1	0.0	1	null	6	null	6	169.76	1	984.23	1	40.951419	16.919863
1283	2024-02-23 10:00:00	8	casamassima	13.08	1	58.79	1	0.0	1	null	6	null	6	230.47	1	984.18	1	40.951419	16.919863
1284	2024-02-23 11:00:00	8	casamassima	13.99	1	54.47	1	0.0	1	null	6	null	6	322.0	1	983.72	1	40.951419	16.919863
1285	2024-02-23 12:00:00	8	casamassima	14.14	1	55.34	1	0.0	1	null	6	null	6	283.6	1	983.03	1	40.951419	16.919863
1286	2024-02-23 13:00:00	8	casamassima	13.52	1	55.66	1	0.0	1	null	6	null	6	184.07	1	983.05	1	40.951419	16.919863
1287	2024-02-23 14:00:00	8	casamassima	13.47	1	53.16	1	0.0	1	null	6	null	6	190.72	1	982.71	1	40.951419	16.919863
1288	2024-02-23 15:00:00	8	casamassima	13.4	1	51.44	1	0.0	1	null	6	null	6	130.44	1	982.43	1	40.951419	16.919863
1289	2024-02-23 16:00:00	8	casamassima	12.96	1	58.25	1	0.0	1	null	6	null	6	42.03	1	982.21	1	40.951419	16.919863
1290	2024-02-23 17:00:00	8	casamassima	12.25	1	72.04	1	0.0	1	null	6	null	6	17.44	1	982.05	1	40.951419	16.919863
1291	2024-02-23 18:00:00	8	casamassima	12.04	1	73.21	1	0.0	1	null	6	null	6	0.0	5	981.89	1	40.951419	16.919863
1292	2024-02-23 19:00:00	8	casamassima	11.82	1	75.8	1	0.0	1	null	6	null	6	0.0	1	982.0	1	40.951419	16.919863
1293	2024-02-23 20:00:00	8	casamassima	11.77	1	80.09	1	0.0	1	null	6	null	6	0.0	1	982.11	1	40.951419	16.919863
1294	2024-02-23 21:00:00	8	casamassima	11.75	1	81.94	1	0.0	1	null	6	null	6	0.0	1	982.2	1	40.951419	16.919863
1295	2024-02-23 22:00:00	8	casamassima	11.79	1	79.86	1	0.0	1	null	6	null	6	0.0	1	981.81	1	40.951419	16.919863
1296	2024-02-23 23:00:00	8	casamassima	11.94	1	77.84	1	0.0	1	null	6	null	6	0.0	1	981.74	1	40.951419	16.919863
1297	2024-02-24 00:00:00	8	casamassima	11.91	1	79.29	1	0.0	1	null	6	null	6	0.0	1	981.67	1	40.951419	16.919863
1298	2024-02-24 01:00:00	8	casamassima	11.94	1	78.35	1	0.0	1	null	6	null	6	0.0	1	982.11	1	40.951419	16.919863
1299	2024-02-24 02:00:00	8	casamassima	11.93	1	76.14	1	0.0	1	null	6	null	6	0.0	1	982.27	1	40.951419	16.919863
1300	2024-02-24 03:00:00	8	casamassima	12.23	1	71.36	1	0.0	1	null	6	null	6	0.0	1	982.05	1	40.951419	16.919863
1301	2024-02-24 04:00:00	8	casamassima	12.06	1	73.53	1	0.0	1	null	6	null	6	0.0	1	981.73	1	40.951419	16.919863
1302	2024-02-24 05:00:00	8	casamassima	11.46	1	79.6	1	0.0	1	null	6	null	6	0.0	1	982.07	1	40.951419	16.919863
1303	2024-02-24 06:00:00	8	casamassima	10.86	1	85.58	1	0.2	1	null	6	null	6	0.0	1	982.61	1	40.951419	16.919863
1304	2024-02-24 07:00:00	8	casamassima	10.78	1	86.02	1	0.0	1	null	6	null	6	0.0	5	983.15	1	40.951419	16.919863
1305	2024-02-24 08:00:00	8	casamassima	10.72	1	86.7	1	0.2	1	null	6	null	6	29.61	1	983.7	1	40.951419	16.919863
1306	2024-02-24 09:00:00	8	casamassima	11.16	1	85.22	1	0.0	1	null	6	null	6	77.72	1	984.14	1	40.951419	16.919863
1307	2024-02-24 10:00:00	8	casamassima	11.78	1	80.58	1	0.0	1	null	6	null	6	104.62	1	984.58	1	40.951419	16.919863
1308	2024-02-24 11:00:00	8	casamassima	12.48	1	75.22	1	0.0	1	null	6	null	6	122.64	1	984.88	1	40.951419	16.919863
1309	2024-02-24 12:00:00	8	casamassima	12.52	1	78.41	1	0.0	1	null	6	null	6	121.01	1	984.89	1	40.951419	16.919863
1310	2024-02-24 13:00:00	8	casamassima	12.56	1	76.25	1	0.0	1	null	6	null	6	159.43	1	984.49	1	40.951419	16.919863
1311	2024-02-24 14:00:00	8	casamassima	12.78	1	74.13	1	0.0	1	null	6	null	6	194.02	1	983.95	1	40.951419	16.919863
1312	2024-02-24 15:00:00	8	casamassima	13.23	1	72.31	1	0.0	1	null	6	null	6	249.57	1	983.74	1	40.951419	16.919863
1313	2024-02-24 16:00:00	8	casamassima	13.08	1	75.04	1	0.0	1	null	6	null	6	94.43	1	983.62	1	40.951419	16.919863
1314	2024-02-24 17:00:00	8	casamassima	12.56	1	80.52	1	0.0	1	null	6	null	6	67.12	1	983.44	1	40.951419	16.919863
1315	2024-02-24 18:00:00	8	casamassima	12.2	1	84.15	1	0.2	1	null	6	null	6	0.0	5	983.93	1	40.951419	16.919863
1316	2024-02-24 19:00:00	8	casamassima	10.96	1	86.03	1	0.0	1	null	6	null	6	0.0	1	984.3	1	40.951419	16.919863
1317	2024-02-24 20:00:00	8	casamassima	10.05	1	87.41	1	0.0	1	null	6	null	6	0.0	1	984.67	1	40.951419	16.919863
1318	2024-02-24 21:00:00	8	casamassima	10.56	1	88.59	1	0.2	1	null	6	null	6	0.0	1	985.21	1	40.951419	16.919863
1319	2024-02-24 22:00:00	8	casamassima	10.63	1	84.04	1	0.0	1	null	6	null	6	0.0	1	984.71	1	40.951419	16.919863
1320	2024-02-24 23:00:00	8	casamassima	9.84	1	86.66	1	0.0	1	null	6	null	6	0.0	1	984.92	1	40.951419	16.919863
1321	2024-02-25 00:00:00	8	casamassima	9.81	1	86.56	1	0.0	1	null	6	null	6	0.0	1	984.69	1	40.951419	16.919863
1322	2024-02-25 01:00:00	8	casamassima	9.26	1	85.18	1	0.0	1	null	6	null	6	0.0	1	984.49	1	40.951419	16.919863
1323	2024-02-25 02:00:00	8	casamassima	9.34	1	88.67	1	0.0	1	null	6	null	6	0.0	1	984.28	1	40.951419	16.919863
1324	2024-02-25 03:00:00	8	casamassima	11.52	1	86.58	1	0.2	1	null	6	null	6	0.0	5	983.9	1	40.951419	16.919863
1325	2024-02-25 04:00:00	8	casamassima	9.31	1	88.59	1	4.4	1	null	6	null	6	0.0	1	983.48	1	40.951419	16.919863
1326	2024-02-25 05:00:00	8	casamassima	8.54	1	90.0	1	2.4	1	null	6	null	6	0.0	5	982.84	1	40.951419	16.919863
1327	2024-02-25 06:00:00	8	casamassima	8.48	1	91.38	1	13.4	1	null	6	null	6	0.0	5	982.55	1	40.951419	16.919863
1328	2024-02-25 07:00:00	8	casamassima	8.95	1	92.83	1	6.4	1	null	6	null	6	0.0	5	982.39	1	40.951419	16.919863
1329	2024-02-25 08:00:00	8	casamassima	8.53	1	93.16	1	4.4	1	null	6	null	6	26.76	1	982.85	1	40.951419	16.919863
1330	2024-02-25 09:00:00	8	casamassima	8.64	1	92.54	1	0.0	1	null	6	null	6	49.94	1	982.81	1	40.951419	16.919863
1331	2024-02-25 10:00:00	8	casamassima	8.73	1	91.25	1	1.8	1	null	6	null	6	36.74	1	982.83	1	40.951419	16.919863
1332	2024-02-25 11:00:00	8	casamassima	8.75	1	91.84	1	0.6	1	null	6	null	6	97.33	1	982.57	1	40.951419	16.919863
1333	2024-02-25 12:00:00	8	casamassima	9.09	1	91.81	1	0.0	1	null	6	null	6	73.61	1	981.85	1	40.951419	16.919863
1334	2024-02-25 13:00:00	8	casamassima	8.87	1	91.99	1	6.2	1	null	6	null	6	10.05	1	982.0	1	40.951419	16.919863
1335	2024-02-25 14:00:00	8	casamassima	8.53	1	93.01	1	9.2	1	null	6	null	6	13.28	1	981.45	1	40.951419	16.919863
1336	2024-02-25 15:00:00	8	casamassima	8.08	1	94.2	1	8.0	1	null	6	null	6	10.7	1	980.77	1	40.951419	16.919863
1337	2024-02-25 16:00:00	8	casamassima	8.16	1	94.92	1	6.8	1	null	6	null	6	0.0	5	980.63	1	40.951419	16.919863
1338	2024-02-25 17:00:00	8	casamassima	8.17	1	95.22	1	5.6	1	null	6	null	6	0.0	5	980.53	1	40.951419	16.919863
1339	2024-02-25 18:00:00	8	casamassima	8.26	1	95.27	1	4.8	1	null	6	null	6	0.0	5	980.48	1	40.951419	16.919863
1340	2024-02-25 19:00:00	8	casamassima	8.26	1	95.28	1	2.4	1	null	6	null	6	0.0	5	981.15	1	40.951419	16.919863
1341	2024-02-25 20:00:00	8	casamassima	8.04	1	95.3	1	0.2	1	null	6	null	6	0.0	5	981.26	1	40.951419	16.919863
1342	2024-02-25 21:00:00	8	casamassima	7.84	1	95.4	1	0.0	1	null	6	null	6	0.0	5	981.01	1	40.951419	16.919863
1343	2024-02-25 22:00:00	8	casamassima	7.77	1	95.49	1	0.0	1	null	6	null	6	0.0	1	980.92	1	40.951419	16.919863
1344	2024-02-25 23:00:00	8	casamassima	7.94	1	95.5	1	0.0	1	null	6	null	6	0.0	1	981.18	1	40.951419	16.919863
1345	2024-02-26 00:00:00	8	casamassima	8.29	1	95.67	1	0.4	1	null	6	null	6	0.0	5	981.44	1	40.951419	16.919863
1346	2024-02-26 01:00:00	8	casamassima	8.32	1	96.03	1	0.2	1	null	6	null	6	0.0	5	981.36	1	40.951419	16.919863
1347	2024-02-26 02:00:00	8	casamassima	8.23	1	96.14	1	0.0	1	null	6	null	6	0.0	5	981.02	1	40.951419	16.919863
1348	2024-02-26 03:00:00	8	casamassima	8.12	1	96.14	1	0.0	1	null	6	null	6	0.0	5	980.8	1	40.951419	16.919863
1349	2024-02-26 04:00:00	8	casamassima	8.08	1	96.08	1	0.0	1	null	6	null	6	0.0	5	980.59	1	40.951419	16.919863
1350	2024-02-26 05:00:00	8	casamassima	7.91	1	95.98	1	0.0	1	null	6	null	6	0.0	5	980.51	1	40.951419	16.919863
1351	2024-02-26 06:00:00	8	casamassima	7.35	1	96.04	1	0.0	1	null	6	null	6	0.0	1	980.52	1	40.951419	16.919863
1352	2024-02-26 07:00:00	8	casamassima	7.49	1	95.92	1	0.0	1	null	6	null	6	0.0	5	980.81	1	40.951419	16.919863
1353	2024-02-26 08:00:00	8	casamassima	7.66	1	95.2	1	0.0	1	null	6	null	6	57.46	1	981.2	1	40.951419	16.919863
1354	2024-02-26 09:00:00	8	casamassima	8.44	1	88.62	1	0.0	1	null	6	null	6	145.11	1	981.58	1	40.951419	16.919863
1355	2024-02-26 10:00:00	8	casamassima	10.54	1	78.23	1	0.0	1	null	6	null	6	328.06	1	981.47	1	40.951419	16.919863
1356	2024-02-26 11:00:00	8	casamassima	13.43	1	67.66	1	0.0	1	null	6	null	6	518.53	1	981.43	1	40.951419	16.919863
1357	2024-02-26 12:00:00	8	casamassima	14.15	1	65.43	1	0.0	1	null	6	null	6	606.37	1	981.19	1	40.951419	16.919863
1358	2024-02-26 13:00:00	8	casamassima	15.61	1	62.42	1	0.0	1	null	6	null	6	543.96	1	980.63	1	40.951419	16.919863
1359	2024-02-26 14:00:00	8	casamassima	15.76	1	60.38	1	0.0	1	null	6	null	6	553.56	1	980.07	1	40.951419	16.919863
1360	2024-02-26 15:00:00	8	casamassima	16.22	1	57.04	1	0.0	1	null	6	null	6	438.4	1	980.06	1	40.951419	16.919863
1361	2024-02-26 16:00:00	8	casamassima	16.17	1	58.73	1	0.0	1	null	6	null	6	223.18	1	979.99	1	40.951419	16.919863
1362	2024-02-26 17:00:00	8	casamassima	13.92	1	75.51	1	0.0	1	null	6	null	6	45.64	1	980.16	1	40.951419	16.919863
1363	2024-02-26 18:00:00	8	casamassima	12.47	1	80.58	1	0.0	1	null	6	null	6	5.7	1	980.54	1	40.951419	16.919863
1364	2024-02-26 19:00:00	8	casamassima	11.72	1	82.99	1	0.0	1	null	6	null	6	0.0	1	981.0	1	40.951419	16.919863
1365	2024-02-26 20:00:00	8	casamassima	10.8	1	83.49	1	0.0	1	null	6	null	6	0.0	1	981.39	1	40.951419	16.919863
1366	2024-02-26 21:00:00	8	casamassima	10.24	1	82.89	1	0.0	1	null	6	null	6	0.0	1	981.86	1	40.951419	16.919863
1367	2024-02-26 22:00:00	8	casamassima	10.17	1	83.09	1	0.0	1	null	6	null	6	0.0	1	982.18	1	40.951419	16.919863
1368	2024-02-26 23:00:00	8	casamassima	9.89	1	82.8	1	0.0	1	null	6	null	6	0.0	1	982.27	1	40.951419	16.919863
1369	2024-02-27 00:00:00	8	casamassima	9.85	1	84.59	1	0.0	1	null	6	null	6	0.0	1	982.42	1	40.951419	16.919863
1370	2024-02-27 01:00:00	8	casamassima	9.48	1	85.66	1	0.0	1	null	6	null	6	0.0	1	982.41	1	40.951419	16.919863
1371	2024-02-27 02:00:00	8	casamassima	9.26	1	86.53	1	0.0	1	null	6	null	6	0.0	1	982.33	1	40.951419	16.919863
1372	2024-02-27 03:00:00	8	casamassima	8.91	1	86.35	1	0.0	1	null	6	null	6	0.0	1	982.43	1	40.951419	16.919863
1373	2024-02-27 04:00:00	8	casamassima	8.99	1	82.26	1	0.0	1	null	6	null	6	0.0	1	982.35	1	40.951419	16.919863
1374	2024-02-27 05:00:00	8	casamassima	9.32	1	86.86	1	0.0	1	null	6	null	6	0.0	1	982.49	1	40.951419	16.919863
1375	2024-02-27 06:00:00	8	casamassima	9.66	1	88.2	1	0.0	1	null	6	null	6	0.0	1	982.69	1	40.951419	16.919863
1376	2024-02-27 07:00:00	8	casamassima	9.74	1	86.95	1	0.0	1	null	6	null	6	0.0	5	982.66	1	40.951419	16.919863
1377	2024-02-27 08:00:00	8	casamassima	10.96	1	82.24	1	0.0	1	null	6	null	6	107.51	1	982.9	1	40.951419	16.919863
1378	2024-02-27 09:00:00	8	casamassima	12.58	1	74.48	1	0.0	1	null	6	null	6	269.02	1	983.03	1	40.951419	16.919863
1379	2024-02-27 10:00:00	8	casamassima	13.74	1	67.16	1	0.0	1	null	6	null	6	345.33	1	983.53	1	40.951419	16.919863
1380	2024-02-27 11:00:00	8	casamassima	13.95	1	66.07	1	0.0	1	null	6	null	6	369.91	1	984.0	1	40.951419	16.919863
1381	2024-02-27 12:00:00	8	casamassima	14.78	1	61.82	1	0.0	1	null	6	null	6	534.15	1	983.68	1	40.951419	16.919863
1382	2024-02-27 13:00:00	8	casamassima	15.02	1	58.4	1	0.0	1	null	6	null	6	539.6	1	983.16	1	40.951419	16.919863
1383	2024-02-27 14:00:00	8	casamassima	14.36	1	64.8	1	0.0	1	null	6	null	6	335.65	1	983.03	1	40.951419	16.919863
1384	2024-02-27 15:00:00	8	casamassima	13.92	1	68.92	1	0.0	1	null	6	null	6	214.23	1	982.84	1	40.951419	16.919863
1385	2024-02-27 16:00:00	8	casamassima	13.5	1	72.0	1	0.0	1	null	6	null	6	136.4	1	982.88	1	40.951419	16.919863
1386	2024-02-27 17:00:00	8	casamassima	13.13	1	75.95	1	0.0	1	null	6	null	6	46.31	1	982.83	1	40.951419	16.919863
1387	2024-02-27 18:00:00	8	casamassima	12.77	1	77.72	1	0.0	1	null	6	null	6	5.48	1	983.02	1	40.951419	16.919863
1388	2024-02-27 19:00:00	8	casamassima	12.73	1	78.78	1	0.0	1	null	6	null	6	0.0	1	983.45	1	40.951419	16.919863
1389	2024-02-27 20:00:00	8	casamassima	12.66	1	80.17	1	0.0	1	null	6	null	6	0.0	1	983.72	1	40.951419	16.919863
1390	2024-02-27 21:00:00	8	casamassima	12.68	1	80.9	1	0.0	1	null	6	null	6	0.0	1	984.17	1	40.951419	16.919863
1391	2024-02-27 22:00:00	8	casamassima	12.71	1	81.29	1	0.0	1	null	6	null	6	0.0	1	984.73	1	40.951419	16.919863
1392	2024-02-27 23:00:00	8	casamassima	12.8	1	80.36	1	0.0	1	null	6	null	6	0.0	1	985.14	1	40.951419	16.919863
1393	2024-02-28 00:00:00	8	casamassima	12.73	1	80.46	1	0.0	1	null	6	null	6	0.0	1	985.31	1	40.951419	16.919863
1394	2024-02-28 01:00:00	8	casamassima	12.52	1	80.73	1	0.0	1	null	6	null	6	0.0	1	985.38	1	40.951419	16.919863
1395	2024-02-28 02:00:00	8	casamassima	12.42	1	80.0	1	0.0	1	null	6	null	6	0.0	1	985.84	1	40.951419	16.919863
1396	2024-02-28 03:00:00	8	casamassima	12.18	1	77.18	1	0.0	1	null	6	null	6	0.0	1	985.8	1	40.951419	16.919863
1397	2024-02-28 04:00:00	8	casamassima	11.86	1	77.72	1	0.0	1	null	6	null	6	0.0	1	985.45	1	40.951419	16.919863
1398	2024-02-28 05:00:00	8	casamassima	11.5	1	80.66	1	0.0	1	null	6	null	6	0.0	1	985.72	1	40.951419	16.919863
1399	2024-02-28 06:00:00	8	casamassima	11.71	1	79.45	1	0.0	1	null	6	null	6	0.0	1	985.76	1	40.951419	16.919863
1400	2024-02-28 07:00:00	8	casamassima	11.49	1	80.6	1	0.0	1	null	6	null	6	5.8	1	985.76	1	40.951419	16.919863
1401	2024-02-28 08:00:00	8	casamassima	12.28	1	78.09	1	0.0	1	null	6	null	6	121.63	1	986.36	1	40.951419	16.919863
1402	2024-02-28 09:00:00	8	casamassima	13.47	1	72.28	1	0.0	1	null	6	null	6	245.9	1	986.71	1	40.951419	16.919863
1403	2024-02-28 10:00:00	8	casamassima	13.51	1	73.39	1	0.0	1	null	6	null	6	202.98	1	986.55	1	40.951419	16.919863
1404	2024-02-28 11:00:00	8	casamassima	14.42	1	69.72	1	0.0	1	null	6	null	6	387.12	1	986.58	1	40.951419	16.919863
1405	2024-02-28 12:00:00	8	casamassima	15.0	1	68.59	1	0.0	1	null	6	null	6	438.6	1	986.31	1	40.951419	16.919863
1406	2024-02-28 13:00:00	8	casamassima	15.27	1	64.15	1	0.0	1	null	6	null	6	385.3	1	985.8	1	40.951419	16.919863
1407	2024-02-28 14:00:00	8	casamassima	15.6	1	62.23	1	0.0	1	null	6	null	6	325.38	1	985.3	1	40.951419	16.919863
1408	2024-02-28 15:00:00	8	casamassima	15.68	1	59.52	1	0.0	1	null	6	null	6	372.96	1	985.08	1	40.951419	16.919863
1409	2024-02-28 16:00:00	8	casamassima	15.26	1	61.1	1	0.0	1	null	6	null	6	229.72	1	984.97	1	40.951419	16.919863
1410	2024-02-28 17:00:00	8	casamassima	14.87	1	64.25	1	0.0	1	null	6	null	6	96.69	1	984.92	1	40.951419	16.919863
1411	2024-02-28 18:00:00	8	casamassima	14.27	1	66.49	1	0.0	1	null	6	null	6	12.52	1	984.87	1	40.951419	16.919863
1412	2024-02-28 19:00:00	8	casamassima	13.72	1	69.0	1	0.0	1	null	6	null	6	0.0	1	984.9	1	40.951419	16.919863
1413	2024-02-28 20:00:00	8	casamassima	13.65	1	70.33	1	0.0	1	null	6	null	6	0.0	1	985.28	1	40.951419	16.919863
1414	2024-02-28 21:00:00	8	casamassima	13.68	1	66.44	1	0.0	1	null	6	null	6	0.0	1	985.64	1	40.951419	16.919863
1415	2024-02-28 22:00:00	8	casamassima	14.07	1	61.38	1	0.0	1	null	6	null	6	0.0	1	985.87	1	40.951419	16.919863
1416	2024-02-28 23:00:00	8	casamassima	14.23	1	59.89	1	0.0	1	null	6	null	6	0.0	1	985.77	1	40.951419	16.919863
1417	2024-02-29 00:00:00	8	casamassima	13.81	1	65.66	1	0.0	1	null	6	null	6	0.0	1	985.68	1	40.951419	16.919863
1418	2024-02-29 01:00:00	8	casamassima	13.42	1	67.58	1	0.0	1	null	6	null	6	0.0	1	985.64	1	40.951419	16.919863
1419	2024-02-29 02:00:00	8	casamassima	12.63	1	78.5	1	0.0	1	null	6	null	6	0.0	1	985.42	1	40.951419	16.919863
1420	2024-02-29 03:00:00	8	casamassima	12.74	1	82.34	1	0.0	1	null	6	null	6	0.0	1	984.89	1	40.951419	16.919863
1421	2024-02-29 04:00:00	8	casamassima	12.86	1	81.94	1	0.0	1	null	6	null	6	0.0	1	984.16	1	40.951419	16.919863
1422	2024-02-29 05:00:00	8	casamassima	13.03	1	79.79	1	0.0	1	null	6	null	6	0.0	1	983.65	1	40.951419	16.919863
1423	2024-02-29 06:00:00	8	casamassima	12.99	1	76.99	1	0.0	1	null	6	null	6	0.0	1	983.13	1	40.951419	16.919863
1424	2024-02-29 07:00:00	8	casamassima	12.9	1	76.45	1	0.0	1	null	6	null	6	0.0	5	982.64	1	40.951419	16.919863
1425	2024-02-29 08:00:00	8	casamassima	13.2	1	72.61	1	0.0	1	null	6	null	6	52.71	1	982.71	1	40.951419	16.919863
1426	2024-02-29 09:00:00	8	casamassima	14.08	1	67.41	1	0.0	1	null	6	null	6	68.46	1	982.84	1	40.951419	16.919863
1427	2024-02-29 10:00:00	8	casamassima	14.64	1	63.84	1	0.0	1	null	6	null	6	105.4	1	983.11	1	40.951419	16.919863
1428	2024-02-29 11:00:00	8	casamassima	13.9	1	72.61	1	0.4	1	null	6	null	6	101.98	1	983.08	1	40.951419	16.919863
1429	2024-02-29 12:00:00	8	casamassima	14.33	1	74.04	1	0.0	1	null	6	null	6	269.4	1	982.54	1	40.951419	16.919863
1430	2024-02-29 13:00:00	8	casamassima	14.75	1	70.53	1	0.0	1	null	6	null	6	117.01	1	981.66	1	40.951419	16.919863
1431	2024-02-29 14:00:00	8	casamassima	13.42	1	78.7	1	2.6	1	null	6	null	6	45.32	1	981.0	1	40.951419	16.919863
1432	2024-02-29 15:00:00	8	casamassima	10.73	1	89.81	1	9.0	1	null	6	null	6	23.97	1	980.96	1	40.951419	16.919863
1433	2024-02-29 16:00:00	8	casamassima	11.49	1	86.94	1	0.8	1	null	6	null	6	26.85	1	980.4	1	40.951419	16.919863
1434	2024-02-29 17:00:00	8	casamassima	11.47	1	86.45	1	1.8	1	null	6	null	6	15.62	1	980.21	1	40.951419	16.919863
1435	2024-02-29 18:00:00	8	casamassima	10.86	1	87.77	1	0.4	1	null	6	null	6	0.0	5	979.67	1	40.951419	16.919863
1436	2024-02-29 19:00:00	8	casamassima	10.69	1	88.79	1	1.4	1	null	6	null	6	0.0	5	979.78	1	40.951419	16.919863
1437	2024-02-29 20:00:00	8	casamassima	10.01	1	89.92	1	2.4	1	null	6	null	6	0.0	5	979.79	1	40.951419	16.919863
1438	2024-02-29 21:00:00	8	casamassima	9.59	1	90.39	1	1.6	1	null	6	null	6	0.0	1	979.76	1	40.951419	16.919863
1439	2024-02-29 22:00:00	8	casamassima	9.45	1	90.62	1	0.8	1	null	6	null	6	0.0	1	979.27	1	40.951419	16.919863
1440	2024-02-29 23:00:00	8	casamassima	9.17	1	90.23	1	0.0	1	null	6	null	6	0.0	5	979.47	1	40.951419	16.919863
1441	2024-03-01 00:00:00	8	casamassima	9.11	1	85.53	1	0.0	1	null	6	null	6	0.0	5	979.01	1	40.951419	16.919863
1442	2024-03-01 01:00:00	8	casamassima	9.12	1	86.36	1	0.2	1	null	6	null	6	0.0	5	979.03	1	40.951419	16.919863
1443	2024-03-01 02:00:00	8	casamassima	9.45	1	88.11	1	0.0	1	null	6	null	6	0.0	1	978.76	1	40.951419	16.919863
1444	2024-03-01 03:00:00	8	casamassima	9.4	1	88.32	1	0.0	1	null	6	null	6	0.0	1	978.69	1	40.951419	16.919863
1445	2024-03-01 04:00:00	8	casamassima	8.82	1	88.05	1	0.0	1	null	6	null	6	0.0	1	978.48	1	40.951419	16.919863
1446	2024-03-01 05:00:00	8	casamassima	7.51	1	89.65	1	0.0	1	null	6	null	6	0.0	1	979.07	1	40.951419	16.919863
1447	2024-03-01 06:00:00	8	casamassima	6.46	1	90.8	1	0.0	1	null	6	null	6	0.0	1	979.6	1	40.951419	16.919863
1448	2024-03-01 07:00:00	8	casamassima	5.73	1	90.53	1	0.0	1	null	6	null	6	9.71	1	979.63	1	40.951419	16.919863
1449	2024-03-01 08:00:00	8	casamassima	8.06	1	82.2	1	0.0	1	null	6	null	6	125.08	1	980.04	1	40.951419	16.919863
1450	2024-03-01 09:00:00	8	casamassima	11.99	1	71.97	1	0.0	1	null	6	null	6	294.58	1	980.21	1	40.951419	16.919863
1451	2024-03-01 10:00:00	8	casamassima	13.59	1	59.74	1	0.0	1	null	6	null	6	434.93	1	980.44	1	40.951419	16.919863
1452	2024-03-01 11:00:00	8	casamassima	14.78	1	57.82	1	0.2	1	null	6	null	6	579.25	1	980.43	1	40.951419	16.919863
1453	2024-03-01 12:00:00	8	casamassima	15.31	1	55.86	1	0.0	1	null	6	null	6	642.94	1	980.36	1	40.951419	16.919863
1454	2024-03-01 13:00:00	8	casamassima	15.39	1	52.66	1	0.0	1	null	6	null	6	657.95	1	980.1	1	40.951419	16.919863
1455	2024-03-01 14:00:00	8	casamassima	16.1	1	45.0	1	0.0	1	null	6	null	6	630.99	1	980.0	1	40.951419	16.919863
1456	2024-03-01 15:00:00	8	casamassima	15.52	1	46.71	1	0.0	1	null	6	null	6	448.86	1	979.77	1	40.951419	16.919863
1457	2024-03-01 16:00:00	8	casamassima	14.52	1	54.25	1	0.0	1	null	6	null	6	248.15	1	979.93	1	40.951419	16.919863
1458	2024-03-01 17:00:00	8	casamassima	13.02	1	62.33	1	0.0	1	null	6	null	6	63.76	1	980.35	1	40.951419	16.919863
1459	2024-03-01 18:00:00	8	casamassima	11.52	1	70.87	1	0.0	1	null	6	null	6	6.33	1	980.79	1	40.951419	16.919863
1460	2024-03-01 19:00:00	8	casamassima	10.21	1	82.04	1	0.0	1	null	6	null	6	0.0	1	981.08	1	40.951419	16.919863
1461	2024-03-01 20:00:00	8	casamassima	9.36	1	87.13	1	0.0	1	null	6	null	6	0.0	1	981.33	1	40.951419	16.919863
1462	2024-03-01 21:00:00	8	casamassima	8.71	1	89.09	1	0.0	1	null	6	null	6	0.0	1	981.4	1	40.951419	16.919863
1463	2024-03-01 22:00:00	8	casamassima	8.09	1	89.93	1	0.0	1	null	6	null	6	0.0	1	981.5	1	40.951419	16.919863
1464	2024-03-01 23:00:00	8	casamassima	7.54	1	91.01	1	0.0	1	null	6	null	6	0.0	1	981.52	1	40.951419	16.919863
1465	2024-03-02 00:00:00	8	casamassima	7.36	1	91.79	1	0.0	1	null	6	null	6	0.0	1	981.58	1	40.951419	16.919863
1466	2024-03-02 01:00:00	8	casamassima	6.98	1	92.25	1	0.0	1	null	6	null	6	0.0	1	981.6	1	40.951419	16.919863
1467	2024-03-02 02:00:00	8	casamassima	6.75	1	92.93	1	0.0	1	null	6	null	6	0.0	1	981.8	1	40.951419	16.919863
1468	2024-03-02 03:00:00	8	casamassima	5.83	1	93.25	1	0.0	1	null	6	null	6	0.0	1	981.75	1	40.951419	16.919863
1469	2024-03-02 04:00:00	8	casamassima	4.78	1	93.47	1	0.0	1	null	6	null	6	0.0	1	981.66	1	40.951419	16.919863
1470	2024-03-02 05:00:00	8	casamassima	4.51	1	93.62	1	0.0	1	null	6	null	6	0.0	1	981.91	1	40.951419	16.919863
1471	2024-03-02 06:00:00	8	casamassima	4.14	1	93.67	1	0.0	1	null	6	null	6	0.0	1	982.24	1	40.951419	16.919863
1472	2024-03-02 07:00:00	8	casamassima	3.91	1	93.4	1	0.0	1	null	6	null	6	13.09	1	982.64	1	40.951419	16.919863
1473	2024-03-02 08:00:00	8	casamassima	7.57	1	88.84	1	0.0	1	null	6	null	6	142.71	1	983.16	1	40.951419	16.919863
1474	2024-03-02 09:00:00	8	casamassima	12.65	1	67.69	1	0.0	1	null	6	null	6	289.17	1	983.61	1	40.951419	16.919863
1475	2024-03-02 10:00:00	8	casamassima	15.23	1	54.94	1	0.0	1	null	6	null	6	440.72	1	984.0	1	40.951419	16.919863
1476	2024-03-02 11:00:00	8	casamassima	17.28	1	45.76	1	0.2	1	null	6	null	6	576.75	1	984.07	1	40.951419	16.919863
1477	2024-03-02 12:00:00	8	casamassima	18.25	1	40.34	1	0.0	1	null	6	null	6	688.54	1	983.99	1	40.951419	16.919863
1478	2024-03-02 13:00:00	8	casamassima	18.44	1	32.79	1	0.0	1	null	6	null	6	674.25	1	983.63	1	40.951419	16.919863
1479	2024-03-02 14:00:00	8	casamassima	19.08	1	31.55	1	0.0	1	null	6	null	6	625.63	1	983.45	1	40.951419	16.919863
1480	2024-03-02 15:00:00	8	casamassima	18.11	1	40.23	1	0.0	1	null	6	null	6	565.27	1	983.47	1	40.951419	16.919863
1481	2024-03-02 16:00:00	8	casamassima	16.19	1	53.51	1	0.0	1	null	6	null	6	140.55	1	983.61	1	40.951419	16.919863
1482	2024-03-02 17:00:00	8	casamassima	14.48	1	61.21	1	0.0	1	null	6	null	6	39.27	1	984.15	1	40.951419	16.919863
1483	2024-03-02 18:00:00	8	casamassima	12.83	1	67.31	1	0.0	1	null	6	null	6	10.21	1	984.82	1	40.951419	16.919863
1484	2024-03-02 19:00:00	8	casamassima	11.28	1	77.51	1	0.0	1	null	6	null	6	0.0	1	985.12	1	40.951419	16.919863
1485	2024-03-02 20:00:00	8	casamassima	10.3	1	82.37	1	0.0	1	null	6	null	6	0.0	1	985.38	1	40.951419	16.919863
1486	2024-03-02 21:00:00	8	casamassima	9.51	1	86.06	1	0.0	1	null	6	null	6	0.0	1	985.78	1	40.951419	16.919863
1487	2024-03-02 22:00:00	8	casamassima	8.98	1	87.9	1	0.0	1	null	6	null	6	0.0	1	986.09	1	40.951419	16.919863
1488	2024-03-02 23:00:00	8	casamassima	8.19	1	90.12	1	0.0	1	null	6	null	6	0.0	1	986.14	1	40.951419	16.919863
1489	2024-03-03 00:00:00	8	casamassima	7.89	1	89.37	1	0.0	1	null	6	null	6	0.0	1	986.32	1	40.951419	16.919863
1490	2024-03-03 01:00:00	8	casamassima	7.23	1	86.58	1	0.0	1	null	6	null	6	0.0	1	986.33	1	40.951419	16.919863
1491	2024-03-03 02:00:00	8	casamassima	7.13	1	76.66	1	0.0	1	null	6	null	6	0.0	1	986.09	1	40.951419	16.919863
1492	2024-03-03 03:00:00	8	casamassima	7.6	1	70.02	1	0.0	1	null	6	null	6	0.0	1	985.78	1	40.951419	16.919863
1493	2024-03-03 04:00:00	8	casamassima	7.89	1	66.42	1	0.0	1	null	6	null	6	0.0	1	985.44	1	40.951419	16.919863
1494	2024-03-03 05:00:00	8	casamassima	6.95	1	68.1	1	0.0	1	null	6	null	6	0.0	1	985.5	1	40.951419	16.919863
1495	2024-03-03 06:00:00	8	casamassima	6.98	1	65.76	1	0.0	1	null	6	null	6	0.0	1	985.48	1	40.951419	16.919863
1496	2024-03-03 07:00:00	8	casamassima	5.25	1	74.73	1	0.0	1	null	6	null	6	14.44	1	985.41	1	40.951419	16.919863
1497	2024-03-03 08:00:00	8	casamassima	8.58	1	65.32	1	0.0	1	null	6	null	6	147.57	1	985.4	1	40.951419	16.919863
1498	2024-03-03 09:00:00	8	casamassima	13.28	1	51.11	1	0.0	1	null	6	null	6	299.8	1	985.57	1	40.951419	16.919863
1499	2024-03-03 10:00:00	8	casamassima	14.64	1	46.73	1	0.0	1	null	6	null	6	457.9	1	985.6	1	40.951419	16.919863
1500	2024-03-03 11:00:00	8	casamassima	15.33	1	48.53	1	0.0	1	null	6	null	6	606.03	1	985.31	1	40.951419	16.919863
1501	2024-03-03 12:00:00	8	casamassima	15.53	1	51.46	1	0.0	1	null	6	null	6	706.5	1	984.79	1	40.951419	16.919863
1502	2024-03-03 13:00:00	8	casamassima	15.56	1	48.56	1	0.0	1	null	6	null	6	598.77	1	984.27	1	40.951419	16.919863
1503	2024-03-03 14:00:00	8	casamassima	14.65	1	50.22	1	0.0	1	null	6	null	6	606.91	1	983.61	1	40.951419	16.919863
1504	2024-03-03 15:00:00	8	casamassima	14.75	1	52.84	1	0.0	1	null	6	null	6	541.08	1	983.11	1	40.951419	16.919863
1505	2024-03-03 16:00:00	8	casamassima	13.95	1	57.85	1	0.0	1	null	6	null	6	281.03	1	982.83	1	40.951419	16.919863
1506	2024-03-03 17:00:00	8	casamassima	12.6	1	62.64	1	0.0	1	null	6	null	6	37.82	1	982.39	1	40.951419	16.919863
1507	2024-03-03 18:00:00	8	casamassima	11.34	1	68.33	1	0.0	1	null	6	null	6	7.65	1	982.05	1	40.951419	16.919863
1508	2024-03-03 19:00:00	8	casamassima	10.67	1	78.13	1	0.0	1	null	6	null	6	0.0	1	982.11	1	40.951419	16.919863
1509	2024-03-03 20:00:00	8	casamassima	10.43	1	80.21	1	0.0	1	null	6	null	6	0.0	1	982.11	1	40.951419	16.919863
1510	2024-03-03 21:00:00	8	casamassima	10.33	1	81.95	1	0.0	1	null	6	null	6	0.0	1	981.88	1	40.951419	16.919863
1511	2024-03-03 22:00:00	8	casamassima	10.63	1	81.52	1	0.0	1	null	6	null	6	0.0	1	981.08	1	40.951419	16.919863
1512	2024-03-03 23:00:00	8	casamassima	10.89	1	80.72	1	0.0	1	null	6	null	6	0.0	1	980.43	1	40.951419	16.919863
1513	2024-03-04 00:00:00	8	casamassima	11.34	1	81.75	1	0.0	1	null	6	null	6	0.0	1	980.16	1	40.951419	16.919863
1514	2024-03-04 01:00:00	8	casamassima	11.63	1	81.86	1	0.0	1	null	6	null	6	0.0	1	979.72	1	40.951419	16.919863
1515	2024-03-04 02:00:00	8	casamassima	11.81	1	81.8	1	0.0	1	null	6	null	6	0.0	1	979.49	1	40.951419	16.919863
1516	2024-03-04 03:00:00	8	casamassima	11.87	1	82.45	1	0.0	1	null	6	null	6	0.0	1	979.22	1	40.951419	16.919863
1517	2024-03-04 04:00:00	8	casamassima	11.88	1	82.75	1	0.0	1	null	6	null	6	0.0	1	979.09	1	40.951419	16.919863
1518	2024-03-04 05:00:00	8	casamassima	11.83	1	82.9	1	0.0	1	null	6	null	6	0.0	1	978.71	1	40.951419	16.919863
1519	2024-03-04 06:00:00	8	casamassima	11.82	1	82.95	1	0.0	1	null	6	null	6	0.0	1	978.76	1	40.951419	16.919863
1520	2024-03-04 07:00:00	8	casamassima	11.67	1	83.27	1	0.0	1	null	6	null	6	11.91	1	978.17	1	40.951419	16.919863
1521	2024-03-04 08:00:00	8	casamassima	11.5	1	85.0	1	0.8	1	null	6	null	6	21.9	1	978.11	1	40.951419	16.919863
1522	2024-03-04 09:00:00	8	casamassima	11.01	1	86.65	1	4.6	1	null	6	null	6	21.09	1	977.58	1	40.951419	16.919863
1523	2024-03-04 10:00:00	8	casamassima	7.62	1	88.54	1	5.2	1	null	6	null	6	16.67	1	978.56	1	40.951419	16.919863
1524	2024-03-04 11:00:00	8	casamassima	7.06	1	90.25	1	7.0	1	null	6	null	6	12.82	1	979.27	1	40.951419	16.919863
1525	2024-03-04 12:00:00	8	casamassima	7.06	1	90.38	1	3.6	1	null	6	null	6	86.07	1	979.28	1	40.951419	16.919863
1526	2024-03-04 13:00:00	8	casamassima	7.73	1	86.48	1	0.0	1	null	6	null	6	184.83	1	978.44	1	40.951419	16.919863
1527	2024-03-04 14:00:00	8	casamassima	7.69	1	86.78	1	0.0	1	null	6	null	6	126.15	1	978.08	1	40.951419	16.919863
1528	2024-03-04 15:00:00	8	casamassima	8.32	1	84.57	1	0.0	1	null	6	null	6	145.3	1	977.89	1	40.951419	16.919863
1529	2024-03-04 16:00:00	8	casamassima	9.95	1	72.76	1	0.0	1	null	6	null	6	221.48	1	977.15	1	40.951419	16.919863
1530	2024-03-04 17:00:00	8	casamassima	9.96	1	69.35	1	0.0	1	null	6	null	6	73.44	1	977.2	1	40.951419	16.919863
1531	2024-03-04 18:00:00	8	casamassima	8.62	1	76.78	1	0.0	1	null	6	null	6	7.33	1	977.5	1	40.951419	16.919863
1532	2024-03-04 19:00:00	8	casamassima	7.19	1	83.59	1	0.0	1	null	6	null	6	0.0	1	978.04	1	40.951419	16.919863
1533	2024-03-04 20:00:00	8	casamassima	6.98	1	83.62	1	0.0	1	null	6	null	6	0.0	1	978.34	1	40.951419	16.919863
1534	2024-03-04 21:00:00	8	casamassima	6.57	1	83.74	1	0.0	1	null	6	null	6	0.0	1	978.34	1	40.951419	16.919863
1535	2024-03-04 22:00:00	8	casamassima	5.79	1	86.94	1	0.0	1	null	6	null	6	0.0	1	978.61	1	40.951419	16.919863
1536	2024-03-04 23:00:00	8	casamassima	5.21	1	88.52	1	0.0	1	null	6	null	6	0.0	1	979.02	1	40.951419	16.919863
1537	2024-03-05 00:00:00	8	casamassima	4.4	1	89.98	1	0.0	1	null	6	null	6	0.0	1	979.32	1	40.951419	16.919863
1538	2024-03-05 01:00:00	8	casamassima	3.81	1	89.95	1	0.0	1	null	6	null	6	0.0	1	979.71	1	40.951419	16.919863
1539	2024-03-05 02:00:00	8	casamassima	3.59	1	89.83	1	0.0	1	null	6	null	6	0.0	1	980.07	1	40.951419	16.919863
1540	2024-03-05 03:00:00	8	casamassima	3.86	1	91.0	1	0.0	1	null	6	null	6	0.0	1	980.23	1	40.951419	16.919863
1541	2024-03-05 04:00:00	8	casamassima	3.78	1	92.17	1	0.0	1	null	6	null	6	0.0	1	980.45	1	40.951419	16.919863
1542	2024-03-05 05:00:00	8	casamassima	3.85	1	92.88	1	0.0	1	null	6	null	6	0.0	1	980.93	1	40.951419	16.919863
1543	2024-03-05 06:00:00	8	casamassima	3.95	1	93.53	1	0.0	1	null	6	null	6	0.0	1	981.24	1	40.951419	16.919863
1544	2024-03-05 07:00:00	8	casamassima	3.95	1	93.8	1	0.0	1	null	6	null	6	16.23	1	981.5	1	40.951419	16.919863
1545	2024-03-05 08:00:00	8	casamassima	5.9	1	90.38	1	0.0	1	null	6	null	6	132.97	1	982.02	1	40.951419	16.919863
1546	2024-03-05 09:00:00	8	casamassima	9.45	1	68.98	1	0.0	1	null	6	null	6	309.46	1	982.52	1	40.951419	16.919863
1547	2024-03-05 10:00:00	8	casamassima	10.77	1	66.12	1	0.0	1	null	6	null	6	375.94	1	983.1	1	40.951419	16.919863
1548	2024-03-05 11:00:00	8	casamassima	10.84	1	65.71	1	0.0	1	null	6	null	6	298.4	1	983.4	1	40.951419	16.919863
1549	2024-03-05 12:00:00	8	casamassima	11.16	1	64.12	1	0.2	1	null	6	null	6	230.95	1	983.8	1	40.951419	16.919863
1550	2024-03-05 13:00:00	8	casamassima	11.17	1	62.94	1	0.0	1	null	6	null	6	123.28	1	983.98	1	40.951419	16.919863
1551	2024-03-05 14:00:00	8	casamassima	11.99	1	61.55	1	0.0	1	null	6	null	6	272.29	1	983.87	1	40.951419	16.919863
1552	2024-03-05 15:00:00	8	casamassima	12.26	1	65.03	1	0.0	1	null	6	null	6	181.87	1	983.97	1	40.951419	16.919863
1553	2024-03-05 16:00:00	8	casamassima	12.59	1	64.47	1	0.0	1	null	6	null	6	121.94	1	984.07	1	40.951419	16.919863
1554	2024-03-05 17:00:00	8	casamassima	12.41	1	65.07	1	0.0	1	null	6	null	6	48.14	1	984.41	1	40.951419	16.919863
1555	2024-03-05 18:00:00	8	casamassima	10.59	1	77.04	1	0.0	1	null	6	null	6	7.7	1	985.03	1	40.951419	16.919863
1556	2024-03-05 19:00:00	8	casamassima	8.75	1	85.41	1	0.0	1	null	6	null	6	0.0	1	985.41	1	40.951419	16.919863
1557	2024-03-05 20:00:00	8	casamassima	8.0	1	88.74	1	0.0	1	null	6	null	6	0.0	1	985.77	1	40.951419	16.919863
1558	2024-03-05 21:00:00	8	casamassima	7.35	1	89.63	1	0.0	1	null	6	null	6	0.0	1	986.34	1	40.951419	16.919863
1559	2024-03-05 22:00:00	8	casamassima	6.84	1	89.48	1	0.0	1	null	6	null	6	0.0	1	986.63	1	40.951419	16.919863
1560	2024-03-05 23:00:00	8	casamassima	6.1	1	90.13	1	0.0	1	null	6	null	6	0.0	1	986.84	1	40.951419	16.919863
1561	2024-03-06 00:00:00	8	casamassima	5.84	1	90.3	1	0.0	1	null	6	null	6	0.0	1	987.09	1	40.951419	16.919863
1562	2024-03-06 01:00:00	8	casamassima	5.62	1	89.18	1	0.0	1	null	6	null	6	0.0	1	987.29	1	40.951419	16.919863
1563	2024-03-06 02:00:00	8	casamassima	6.47	1	85.5	1	0.0	1	null	6	null	6	0.0	1	987.39	1	40.951419	16.919863
1564	2024-03-06 03:00:00	8	casamassima	6.27	1	84.72	1	0.0	1	null	6	null	6	0.0	1	987.37	1	40.951419	16.919863
1565	2024-03-06 04:00:00	8	casamassima	6.24	1	82.62	1	0.0	1	null	6	null	6	0.0	1	987.32	1	40.951419	16.919863
1566	2024-03-06 05:00:00	8	casamassima	6.13	1	80.4	1	0.0	1	null	6	null	6	0.0	1	987.28	1	40.951419	16.919863
1567	2024-03-06 06:00:00	8	casamassima	6.07	1	78.8	1	0.0	1	null	6	null	6	0.0	1	987.22	1	40.951419	16.919863
1568	2024-03-06 07:00:00	8	casamassima	5.63	1	81.5	1	0.0	1	null	6	null	6	18.18	1	987.47	1	40.951419	16.919863
1569	2024-03-06 08:00:00	8	casamassima	9.4	1	69.66	1	0.0	1	null	6	null	6	142.97	1	987.99	1	40.951419	16.919863
1570	2024-03-06 09:00:00	8	casamassima	13.68	1	58.16	1	0.0	1	null	6	null	6	295.55	1	988.15	1	40.951419	16.919863
1571	2024-03-06 10:00:00	8	casamassima	16.46	1	48.87	1	0.0	1	null	6	null	6	407.01	1	988.35	1	40.951419	16.919863
1572	2024-03-06 11:00:00	8	casamassima	15.9	1	48.67	1	0.0	1	null	6	null	6	302.5	1	988.53	1	40.951419	16.919863
1573	2024-03-06 12:00:00	8	casamassima	16.31	1	48.56	1	0.0	1	null	6	null	6	427.09	1	988.3	1	40.951419	16.919863
1574	2024-03-06 13:00:00	8	casamassima	15.64	1	51.63	1	0.0	1	null	6	null	6	304.28	1	987.8	1	40.951419	16.919863
1575	2024-03-06 14:00:00	8	casamassima	15.5	1	55.76	1	0.0	1	null	6	null	6	510.53	1	987.41	1	40.951419	16.919863
1576	2024-03-06 15:00:00	8	casamassima	15.13	1	55.58	1	0.0	1	null	6	null	6	354.85	1	986.91	1	40.951419	16.919863
1577	2024-03-06 16:00:00	8	casamassima	15.54	1	53.23	1	0.0	1	null	6	null	6	213.35	1	986.65	1	40.951419	16.919863
1578	2024-03-06 17:00:00	8	casamassima	14.84	1	53.81	1	0.0	1	null	6	null	6	61.31	1	986.64	1	40.951419	16.919863
1579	2024-03-06 18:00:00	8	casamassima	13.27	1	42.0	1	0.0	1	null	6	null	6	18.55	1	987.27	1	40.951419	16.919863
1580	2024-03-06 19:00:00	8	casamassima	11.22	1	48.12	1	0.0	1	null	6	null	6	0.0	1	987.8	1	40.951419	16.919863
1581	2024-03-06 20:00:00	8	casamassima	10.38	1	51.54	1	0.0	1	null	6	null	6	0.0	1	988.3	1	40.951419	16.919863
1582	2024-03-06 21:00:00	8	casamassima	9.72	1	53.05	1	0.0	1	null	6	null	6	0.0	1	988.95	1	40.951419	16.919863
1583	2024-03-06 22:00:00	8	casamassima	8.64	1	55.48	1	0.0	1	null	6	null	6	0.0	1	989.2	1	40.951419	16.919863
1584	2024-03-06 23:00:00	8	casamassima	7.62	1	59.77	1	0.0	1	null	6	null	6	0.0	1	989.1	1	40.951419	16.919863
1585	2024-03-07 00:00:00	8	casamassima	6.94	1	63.43	1	0.0	1	null	6	null	6	0.0	1	988.86	1	40.951419	16.919863
1586	2024-03-07 01:00:00	8	casamassima	5.84	1	69.45	1	0.0	1	null	6	null	6	0.0	1	988.61	1	40.951419	16.919863
1587	2024-03-07 02:00:00	8	casamassima	6.05	1	69.14	1	0.0	1	null	6	null	6	0.0	1	988.53	1	40.951419	16.919863
1588	2024-03-07 03:00:00	8	casamassima	6.01	1	69.65	1	0.0	1	null	6	null	6	0.0	1	987.94	1	40.951419	16.919863
1589	2024-03-07 04:00:00	8	casamassima	5.22	1	72.25	1	0.0	1	null	6	null	6	0.0	1	987.6	1	40.951419	16.919863
1590	2024-03-07 05:00:00	8	casamassima	4.91	1	74.12	1	0.0	1	null	6	null	6	0.0	1	987.43	1	40.951419	16.919863
1591	2024-03-07 06:00:00	8	casamassima	4.67	1	75.31	1	0.0	1	null	6	null	6	0.0	1	987.42	1	40.951419	16.919863
1592	2024-03-07 07:00:00	8	casamassima	4.83	1	74.38	1	0.0	1	null	6	null	6	20.08	1	987.51	1	40.951419	16.919863
1593	2024-03-07 08:00:00	8	casamassima	7.94	1	65.11	1	0.0	1	null	6	null	6	165.92	1	987.91	1	40.951419	16.919863
1594	2024-03-07 09:00:00	8	casamassima	11.94	1	51.62	1	0.0	1	null	6	null	6	313.55	1	987.94	1	40.951419	16.919863
1595	2024-03-07 10:00:00	8	casamassima	12.64	1	46.44	1	0.0	1	null	6	null	6	399.91	1	988.09	1	40.951419	16.919863
1596	2024-03-07 11:00:00	8	casamassima	13.3	1	43.51	1	0.0	1	null	6	null	6	450.42	1	988.12	1	40.951419	16.919863
1597	2024-03-07 12:00:00	8	casamassima	13.07	1	41.87	1	0.0	1	null	6	null	6	465.07	1	988.06	1	40.951419	16.919863
1598	2024-03-07 13:00:00	8	casamassima	12.46	1	42.75	1	0.0	1	null	6	null	6	335.62	1	987.71	1	40.951419	16.919863
1599	2024-03-07 14:00:00	8	casamassima	12.55	1	47.09	1	0.0	1	null	6	null	6	386.72	1	987.38	1	40.951419	16.919863
1600	2024-03-07 15:00:00	8	casamassima	11.81	1	50.77	1	0.0	1	null	6	null	6	209.43	1	987.26	1	40.951419	16.919863
1601	2024-03-07 16:00:00	8	casamassima	11.35	1	53.0	1	0.0	1	null	6	null	6	141.03	1	987.52	1	40.951419	16.919863
1602	2024-03-07 17:00:00	8	casamassima	10.97	1	55.7	1	0.0	1	null	6	null	6	44.53	1	987.64	1	40.951419	16.919863
1603	2024-03-07 18:00:00	8	casamassima	10.37	1	58.98	1	0.0	1	null	6	null	6	10.55	1	988.04	1	40.951419	16.919863
1604	2024-03-07 19:00:00	8	casamassima	9.26	1	68.8	1	0.0	1	null	6	null	6	0.0	1	988.67	1	40.951419	16.919863
1605	2024-03-07 20:00:00	8	casamassima	8.08	1	76.9	1	0.0	1	null	6	null	6	0.0	1	989.1	1	40.951419	16.919863
1606	2024-03-07 21:00:00	8	casamassima	6.2	1	83.93	1	0.0	1	null	6	null	6	0.0	1	989.34	1	40.951419	16.919863
1607	2024-03-07 22:00:00	8	casamassima	5.34	1	87.38	1	0.0	1	null	6	null	6	0.0	1	989.44	1	40.951419	16.919863
1608	2024-03-07 23:00:00	8	casamassima	5.31	1	87.99	1	0.0	1	null	6	null	6	0.0	1	989.45	1	40.951419	16.919863
1609	2024-03-08 00:00:00	8	casamassima	5.44	1	87.1	1	0.0	1	null	6	null	6	0.0	1	989.52	1	40.951419	16.919863
1610	2024-03-08 01:00:00	8	casamassima	5.23	1	87.2	1	0.0	1	null	6	null	6	0.0	1	989.48	1	40.951419	16.919863
1611	2024-03-08 02:00:00	8	casamassima	4.5	1	88.56	1	0.0	1	null	6	null	6	0.0	1	989.53	1	40.951419	16.919863
1612	2024-03-08 03:00:00	8	casamassima	5.2	1	86.69	1	0.0	1	null	6	null	6	0.0	1	989.37	1	40.951419	16.919863
1613	2024-03-08 04:00:00	8	casamassima	5.58	1	86.31	1	0.0	1	null	6	null	6	0.0	1	989.22	1	40.951419	16.919863
1614	2024-03-08 05:00:00	8	casamassima	5.01	1	87.78	1	0.0	1	null	6	null	6	0.0	1	989.16	1	40.951419	16.919863
1615	2024-03-08 06:00:00	8	casamassima	4.76	1	86.69	1	0.0	1	null	6	null	6	0.0	1	989.13	1	40.951419	16.919863
1616	2024-03-08 07:00:00	8	casamassima	4.16	1	86.56	1	0.0	1	null	6	null	6	22.43	1	989.3	1	40.951419	16.919863
1617	2024-03-08 08:00:00	8	casamassima	8.23	1	73.33	1	0.0	1	null	6	null	6	169.42	1	989.61	1	40.951419	16.919863
1618	2024-03-08 09:00:00	8	casamassima	11.92	1	59.99	1	0.0	1	null	6	null	6	321.19	1	989.73	1	40.951419	16.919863
1619	2024-03-08 10:00:00	8	casamassima	13.37	1	54.11	1	0.0	1	null	6	null	6	486.18	1	989.68	1	40.951419	16.919863
1620	2024-03-08 11:00:00	8	casamassima	13.49	1	52.68	1	0.2	1	null	6	null	6	603.9	1	989.58	1	40.951419	16.919863
1621	2024-03-08 12:00:00	8	casamassima	13.21	1	52.04	1	0.0	1	null	6	null	6	461.4	1	989.41	1	40.951419	16.919863
1622	2024-03-08 13:00:00	8	casamassima	13.24	1	51.73	1	0.0	1	null	6	null	6	227.73	1	988.93	1	40.951419	16.919863
1623	2024-03-08 14:00:00	8	casamassima	12.9	1	61.99	1	0.0	1	null	6	null	6	400.13	1	988.44	1	40.951419	16.919863
1624	2024-03-08 15:00:00	8	casamassima	12.22	1	65.27	1	0.0	1	null	6	null	6	196.9	1	988.2	1	40.951419	16.919863
1625	2024-03-08 16:00:00	8	casamassima	13.02	1	53.62	1	0.0	1	null	6	null	6	248.03	1	987.96	1	40.951419	16.919863
1626	2024-03-08 17:00:00	8	casamassima	12.25	1	47.71	1	0.0	1	null	6	null	6	37.13	1	987.93	1	40.951419	16.919863
1627	2024-03-08 18:00:00	8	casamassima	10.57	1	56.79	1	0.0	1	null	6	null	6	8.9	1	988.28	1	40.951419	16.919863
1628	2024-03-08 19:00:00	8	casamassima	9.04	1	70.64	1	0.0	1	null	6	null	6	0.0	1	988.58	1	40.951419	16.919863
1629	2024-03-08 20:00:00	8	casamassima	8.47	1	78.78	1	0.0	1	null	6	null	6	0.0	1	988.63	1	40.951419	16.919863
1630	2024-03-08 21:00:00	8	casamassima	8.7	1	79.56	1	0.0	1	null	6	null	6	0.0	1	988.65	1	40.951419	16.919863
1631	2024-03-08 22:00:00	8	casamassima	9.04	1	79.78	1	0.0	1	null	6	null	6	0.0	1	988.64	1	40.951419	16.919863
1632	2024-03-08 23:00:00	8	casamassima	9.24	1	80.87	1	0.0	1	null	6	null	6	0.0	1	988.21	1	40.951419	16.919863
1633	2024-03-09 00:00:00	8	casamassima	9.87	1	79.9	1	0.0	1	null	6	null	6	0.0	1	987.83	1	40.951419	16.919863
1634	2024-03-09 01:00:00	8	casamassima	10.17	1	81.23	1	0.0	1	null	6	null	6	0.0	1	987.5	1	40.951419	16.919863
1635	2024-03-09 02:00:00	8	casamassima	10.28	1	83.82	1	0.0	1	null	6	null	6	0.0	1	987.3	1	40.951419	16.919863
1636	2024-03-09 03:00:00	8	casamassima	10.32	1	86.94	1	0.0	1	null	6	null	6	0.0	1	986.65	1	40.951419	16.919863
1637	2024-03-09 04:00:00	8	casamassima	10.49	1	87.37	1	0.0	1	null	6	null	6	0.0	1	986.65	1	40.951419	16.919863
1638	2024-03-09 05:00:00	8	casamassima	10.59	1	87.61	1	0.0	1	null	6	null	6	0.0	1	986.35	1	40.951419	16.919863
1639	2024-03-09 06:00:00	8	casamassima	10.8	1	88.7	1	0.6	1	null	6	null	6	0.0	1	986.05	1	40.951419	16.919863
1640	2024-03-09 07:00:00	8	casamassima	11.05	1	89.25	1	0.2	1	null	6	null	6	0.0	5	985.55	1	40.951419	16.919863
1641	2024-03-09 08:00:00	8	casamassima	11.52	1	87.81	1	0.0	1	null	6	null	6	44.71	1	985.7	1	40.951419	16.919863
1642	2024-03-09 09:00:00	8	casamassima	12.53	1	84.86	1	0.0	1	null	6	null	6	167.15	1	985.91	1	40.951419	16.919863
1643	2024-03-09 10:00:00	8	casamassima	13.62	1	79.14	1	0.2	1	null	6	null	6	297.89	1	986.15	1	40.951419	16.919863
1644	2024-03-09 11:00:00	8	casamassima	14.23	1	75.04	1	0.0	1	null	6	null	6	348.72	1	986.24	1	40.951419	16.919863
1645	2024-03-09 12:00:00	8	casamassima	15.72	1	68.15	1	0.0	1	null	6	null	6	520.05	1	985.98	1	40.951419	16.919863
1646	2024-03-09 13:00:00	8	casamassima	16.43	1	63.09	1	0.0	1	null	6	null	6	529.62	1	985.61	1	40.951419	16.919863
1647	2024-03-09 14:00:00	8	casamassima	15.54	1	66.65	1	0.0	1	null	6	null	6	223.12	1	985.65	1	40.951419	16.919863
1648	2024-03-09 15:00:00	8	casamassima	15.02	1	68.89	1	0.0	1	null	6	null	6	283.03	1	985.7	1	40.951419	16.919863
1649	2024-03-09 16:00:00	8	casamassima	15.67	1	63.91	1	0.0	1	null	6	null	6	235.0	1	985.34	1	40.951419	16.919863
1650	2024-03-09 17:00:00	8	casamassima	14.78	1	65.02	1	0.0	1	null	6	null	6	65.83	1	985.12	1	40.951419	16.919863
1651	2024-03-09 18:00:00	8	casamassima	13.1	1	72.8	1	0.0	1	null	6	null	6	9.79	1	985.33	1	40.951419	16.919863
1652	2024-03-09 19:00:00	8	casamassima	12.19	1	81.55	1	0.0	1	null	6	null	6	0.0	1	985.51	1	40.951419	16.919863
1653	2024-03-09 20:00:00	8	casamassima	11.46	1	86.21	1	0.0	1	null	6	null	6	0.0	1	985.78	1	40.951419	16.919863
1654	2024-03-09 21:00:00	8	casamassima	10.83	1	87.19	1	0.0	1	null	6	null	6	0.0	1	985.95	1	40.951419	16.919863
1655	2024-03-09 22:00:00	8	casamassima	10.43	1	87.81	1	0.0	1	null	6	null	6	0.0	1	985.65	1	40.951419	16.919863
1656	2024-03-09 23:00:00	8	casamassima	10.97	1	86.89	1	0.0	1	null	6	null	6	0.0	1	985.37	1	40.951419	16.919863
1657	2024-03-10 00:00:00	8	casamassima	11.11	1	85.06	1	0.0	1	null	6	null	6	0.0	1	984.93	1	40.951419	16.919863
1658	2024-03-10 01:00:00	8	casamassima	11.33	1	82.39	1	0.0	1	null	6	null	6	0.0	1	984.68	1	40.951419	16.919863
1659	2024-03-10 02:00:00	8	casamassima	11.55	1	81.19	1	0.0	1	null	6	null	6	0.0	1	984.34	1	40.951419	16.919863
1660	2024-03-10 03:00:00	8	casamassima	11.47	1	80.58	1	0.0	1	null	6	null	6	0.0	1	983.75	1	40.951419	16.919863
1661	2024-03-10 04:00:00	8	casamassima	11.4	1	80.29	1	0.0	1	null	6	null	6	0.0	1	983.35	1	40.951419	16.919863
1662	2024-03-10 05:00:00	8	casamassima	11.49	1	80.77	1	0.0	1	null	6	null	6	0.0	1	983.09	1	40.951419	16.919863
1663	2024-03-10 06:00:00	8	casamassima	11.67	1	81.22	1	0.0	1	null	6	null	6	0.0	5	982.74	1	40.951419	16.919863
1664	2024-03-10 07:00:00	8	casamassima	11.89	1	80.29	1	0.0	1	null	6	null	6	25.37	1	982.47	1	40.951419	16.919863
1665	2024-03-10 08:00:00	8	casamassima	12.67	1	76.67	1	0.0	1	null	6	null	6	137.98	1	982.88	1	40.951419	16.919863
1666	2024-03-10 09:00:00	8	casamassima	13.27	1	74.8	1	0.0	1	null	6	null	6	178.17	1	983.13	1	40.951419	16.919863
1667	2024-03-10 10:00:00	8	casamassima	13.09	1	75.36	1	0.0	1	null	6	null	6	119.55	1	983.19	1	40.951419	16.919863
1668	2024-03-10 11:00:00	8	casamassima	13.28	1	74.29	1	0.0	1	null	6	null	6	178.26	1	983.35	1	40.951419	16.919863
1669	2024-03-10 12:00:00	8	casamassima	13.76	1	71.31	1	0.0	1	null	6	null	6	270.17	1	983.16	1	40.951419	16.919863
1670	2024-03-10 13:00:00	8	casamassima	14.28	1	69.23	1	0.0	1	null	6	null	6	358.75	1	982.65	1	40.951419	16.919863
1671	2024-03-10 14:00:00	8	casamassima	14.3	1	69.33	1	0.0	1	null	6	null	6	320.68	1	982.41	1	40.951419	16.919863
1672	2024-03-10 15:00:00	8	casamassima	14.24	1	68.85	1	0.0	1	null	6	null	6	302.54	1	982.08	1	40.951419	16.919863
1673	2024-03-10 16:00:00	8	casamassima	14.0	1	69.54	1	0.0	1	null	6	null	6	230.07	1	981.71	1	40.951419	16.919863
1674	2024-03-10 17:00:00	8	casamassima	13.58	1	71.3	1	0.0	1	null	6	null	6	122.49	1	981.71	1	40.951419	16.919863
1675	2024-03-10 18:00:00	8	casamassima	13.05	1	73.44	1	0.0	1	null	6	null	6	20.75	1	981.85	1	40.951419	16.919863
1676	2024-03-10 19:00:00	8	casamassima	12.88	1	74.42	1	0.0	1	null	6	null	6	0.0	1	981.87	1	40.951419	16.919863
1677	2024-03-10 20:00:00	8	casamassima	12.79	1	74.84	1	0.0	1	null	6	null	6	0.0	1	981.86	1	40.951419	16.919863
1678	2024-03-10 21:00:00	8	casamassima	12.77	1	75.4	1	0.0	1	null	6	null	6	0.0	1	981.35	1	40.951419	16.919863
1679	2024-03-10 22:00:00	8	casamassima	12.81	1	75.02	1	0.0	1	null	6	null	6	0.0	1	980.95	1	40.951419	16.919863
1680	2024-03-10 23:00:00	8	casamassima	12.94	1	76.19	1	0.0	1	null	6	null	6	0.0	1	980.68	1	40.951419	16.919863
1681	2024-03-11 00:00:00	8	casamassima	12.84	1	79.04	1	0.0	1	null	6	null	6	0.0	1	980.12	1	40.951419	16.919863
1682	2024-03-11 01:00:00	8	casamassima	12.85	1	79.76	1	0.0	1	null	6	null	6	0.0	1	979.29	1	40.951419	16.919863
1683	2024-03-11 02:00:00	8	casamassima	12.81	1	80.98	1	0.0	1	null	6	null	6	0.0	1	979.06	1	40.951419	16.919863
1684	2024-03-11 03:00:00	8	casamassima	12.8	1	80.54	1	0.0	1	null	6	null	6	0.0	1	977.82	1	40.951419	16.919863
1685	2024-03-11 04:00:00	8	casamassima	12.81	1	80.05	1	0.0	1	null	6	null	6	0.0	1	976.45	1	40.951419	16.919863
1686	2024-03-11 05:00:00	8	casamassima	12.89	1	79.16	1	0.0	1	null	6	null	6	0.0	1	975.35	1	40.951419	16.919863
1687	2024-03-11 06:00:00	8	casamassima	13.04	1	78.73	1	0.0	1	null	6	null	6	0.0	1	975.6	1	40.951419	16.919863
1688	2024-03-11 07:00:00	8	casamassima	12.64	1	83.77	1	1.2	1	null	6	null	6	5.45	1	976.38	1	40.951419	16.919863
1689	2024-03-11 08:00:00	8	casamassima	11.97	1	87.29	1	0.2	1	null	6	null	6	20.23	1	977.8	1	40.951419	16.919863
1690	2024-03-11 09:00:00	8	casamassima	12.09	1	80.38	1	0.0	1	null	6	null	6	217.49	1	978.84	1	40.951419	16.919863
1691	2024-03-11 10:00:00	8	casamassima	15.77	1	58.42	1	0.0	1	null	6	null	6	506.25	1	979.2	1	40.951419	16.919863
1692	2024-03-11 11:00:00	8	casamassima	16.92	1	50.41	1	0.0	1	null	6	null	6	667.53	1	979.02	1	40.951419	16.919863
1693	2024-03-11 12:00:00	8	casamassima	18.05	1	45.38	1	0.0	1	null	6	null	6	804.73	1	979.42	1	40.951419	16.919863
1694	2024-03-11 13:00:00	8	casamassima	18.92	1	42.65	1	0.0	1	null	6	null	6	856.38	1	979.28	1	40.951419	16.919863
1695	2024-03-11 14:00:00	8	casamassima	19.14	1	41.66	1	0.0	1	null	6	null	6	753.37	1	979.08	1	40.951419	16.919863
1696	2024-03-11 15:00:00	8	casamassima	14.95	1	60.77	1	0.0	1	null	6	null	6	224.92	1	979.23	1	40.951419	16.919863
1697	2024-03-11 16:00:00	8	casamassima	11.93	1	77.75	1	1.2	1	null	6	null	6	41.62	1	980.26	1	40.951419	16.919863
1698	2024-03-11 17:00:00	8	casamassima	12.47	1	76.74	1	0.0	1	null	6	null	6	97.03	1	980.25	1	40.951419	16.919863
1699	2024-03-11 18:00:00	8	casamassima	12.21	1	75.82	1	0.0	1	null	6	null	6	19.77	1	980.61	1	40.951419	16.919863
1700	2024-03-11 19:00:00	8	casamassima	11.23	1	75.25	1	0.0	1	null	6	null	6	0.0	1	981.18	1	40.951419	16.919863
1701	2024-03-11 20:00:00	8	casamassima	10.59	1	81.17	1	0.0	1	null	6	null	6	0.0	1	981.78	1	40.951419	16.919863
1702	2024-03-11 21:00:00	8	casamassima	10.01	1	75.11	1	0.0	1	null	6	null	6	0.0	1	982.06	1	40.951419	16.919863
1703	2024-03-11 22:00:00	8	casamassima	8.44	1	78.5	1	0.0	1	null	6	null	6	0.0	1	982.24	1	40.951419	16.919863
1704	2024-03-11 23:00:00	8	casamassima	7.94	1	76.94	1	0.0	1	null	6	null	6	0.0	1	982.32	1	40.951419	16.919863
1705	2024-03-12 00:00:00	8	casamassima	8.11	1	75.17	1	0.0	1	null	6	null	6	0.0	1	982.26	1	40.951419	16.919863
1706	2024-03-12 01:00:00	8	casamassima	8.74	1	72.45	1	0.0	1	null	6	null	6	0.0	1	982.38	1	40.951419	16.919863
1707	2024-03-12 02:00:00	8	casamassima	8.53	1	73.13	1	0.0	1	null	6	null	6	0.0	1	982.37	1	40.951419	16.919863
1708	2024-03-12 03:00:00	8	casamassima	8.68	1	70.23	1	0.0	1	null	6	null	6	0.0	1	981.54	1	40.951419	16.919863
1709	2024-03-12 04:00:00	8	casamassima	7.84	1	71.12	1	0.0	1	null	6	null	6	0.0	1	981.62	1	40.951419	16.919863
1710	2024-03-12 05:00:00	8	casamassima	7.0	1	76.29	1	0.0	1	null	6	null	6	0.0	1	981.65	1	40.951419	16.919863
1711	2024-03-12 06:00:00	8	casamassima	6.68	1	74.36	1	0.0	1	null	6	null	6	0.0	1	981.69	1	40.951419	16.919863
1712	2024-03-12 07:00:00	8	casamassima	7.07	1	72.72	1	0.0	1	null	6	null	6	16.69	1	981.95	1	40.951419	16.919863
1713	2024-03-12 08:00:00	8	casamassima	8.54	1	68.77	1	0.0	1	null	6	null	6	113.56	1	982.63	1	40.951419	16.919863
1714	2024-03-12 09:00:00	8	casamassima	13.75	1	53.83	1	0.0	1	null	6	null	6	340.15	1	983.08	1	40.951419	16.919863
1715	2024-03-12 10:00:00	8	casamassima	14.05	1	49.3	1	0.0	1	null	6	null	6	416.9	1	983.28	1	40.951419	16.919863
1716	2024-03-12 11:00:00	8	casamassima	13.67	1	48.75	1	0.0	1	null	6	null	6	544.59	1	983.48	1	40.951419	16.919863
1717	2024-03-12 12:00:00	8	casamassima	14.02	1	49.01	1	0.2	1	null	6	null	6	594.98	1	983.63	1	40.951419	16.919863
1718	2024-03-12 13:00:00	8	casamassima	13.96	1	50.68	1	0.0	1	null	6	null	6	334.65	1	983.47	1	40.951419	16.919863
1719	2024-03-12 14:00:00	8	casamassima	13.68	1	52.82	1	0.0	1	null	6	null	6	374.04	1	983.45	1	40.951419	16.919863
1720	2024-03-12 15:00:00	8	casamassima	13.04	1	57.85	1	0.0	1	null	6	null	6	244.23	1	983.63	1	40.951419	16.919863
1721	2024-03-12 16:00:00	8	casamassima	12.15	1	62.65	1	0.0	1	null	6	null	6	146.98	1	984.05	1	40.951419	16.919863
1722	2024-03-12 17:00:00	8	casamassima	11.24	1	69.3	1	0.0	1	null	6	null	6	52.28	1	984.51	1	40.951419	16.919863
1723	2024-03-12 18:00:00	8	casamassima	10.59	1	73.11	1	0.0	1	null	6	null	6	8.98	1	984.94	1	40.951419	16.919863
1724	2024-03-12 19:00:00	8	casamassima	9.95	1	74.06	1	0.0	1	null	6	null	6	0.0	1	985.26	1	40.951419	16.919863
1725	2024-03-12 20:00:00	8	casamassima	8.78	1	79.52	1	0.0	1	null	6	null	6	0.0	1	985.8	1	40.951419	16.919863
1726	2024-03-12 21:00:00	8	casamassima	7.8	1	83.92	1	0.0	1	null	6	null	6	0.0	1	986.1	1	40.951419	16.919863
1727	2024-03-12 22:00:00	8	casamassima	6.97	1	84.57	1	0.0	1	null	6	null	6	0.0	1	986.4	1	40.951419	16.919863
1728	2024-03-12 23:00:00	8	casamassima	6.89	1	79.49	1	0.0	1	null	6	null	6	0.0	1	986.66	1	40.951419	16.919863
1729	2024-03-13 00:00:00	8	casamassima	6.63	1	79.96	1	0.0	1	null	6	null	6	0.0	1	986.66	1	40.951419	16.919863
1730	2024-03-13 01:00:00	8	casamassima	7.23	1	81.29	1	0.0	1	null	6	null	6	0.0	1	986.72	1	40.951419	16.919863
1731	2024-03-13 02:00:00	8	casamassima	6.82	1	84.51	1	0.0	1	null	6	null	6	0.0	1	986.66	1	40.951419	16.919863
1732	2024-03-13 03:00:00	8	casamassima	7.27	1	80.68	1	0.0	1	null	6	null	6	0.0	1	986.56	1	40.951419	16.919863
1733	2024-03-13 04:00:00	8	casamassima	7.82	1	76.68	1	0.0	1	null	6	null	6	0.0	1	986.47	1	40.951419	16.919863
1734	2024-03-13 05:00:00	8	casamassima	8.08	1	73.45	1	0.0	1	null	6	null	6	0.0	1	986.54	1	40.951419	16.919863
1735	2024-03-13 06:00:00	8	casamassima	7.78	1	75.92	1	0.0	1	null	6	null	6	0.0	1	986.69	1	40.951419	16.919863
1736	2024-03-13 07:00:00	8	casamassima	6.78	1	78.97	1	0.0	1	null	6	null	6	25.73	1	986.87	1	40.951419	16.919863
1737	2024-03-13 08:00:00	8	casamassima	9.21	1	71.0	1	0.0	1	null	6	null	6	154.96	1	987.31	1	40.951419	16.919863
1738	2024-03-13 09:00:00	8	casamassima	11.73	1	61.19	1	0.0	1	null	6	null	6	348.26	1	987.89	1	40.951419	16.919863
1739	2024-03-13 10:00:00	8	casamassima	12.72	1	57.44	1	0.0	1	null	6	null	6	432.11	1	988.25	1	40.951419	16.919863
1740	2024-03-13 11:00:00	8	casamassima	13.4	1	53.56	1	0.0	1	null	6	null	6	630.54	1	988.51	1	40.951419	16.919863
1741	2024-03-13 12:00:00	8	casamassima	13.82	1	49.8	1	0.0	1	null	6	null	6	689.06	1	988.4	1	40.951419	16.919863
1742	2024-03-13 13:00:00	8	casamassima	13.91	1	51.35	1	0.0	1	null	6	null	6	760.51	1	988.16	1	40.951419	16.919863
1743	2024-03-13 14:00:00	8	casamassima	13.92	1	51.76	1	0.0	1	null	6	null	6	725.0	1	987.91	1	40.951419	16.919863
1744	2024-03-13 15:00:00	8	casamassima	13.74	1	52.95	1	0.0	1	null	6	null	6	575.27	1	987.93	1	40.951419	16.919863
1745	2024-03-13 16:00:00	8	casamassima	13.22	1	57.21	1	0.0	1	null	6	null	6	243.21	1	988.02	1	40.951419	16.919863
1746	2024-03-13 17:00:00	8	casamassima	12.43	1	58.42	1	0.0	1	null	6	null	6	38.11	1	988.06	1	40.951419	16.919863
1747	2024-03-13 18:00:00	8	casamassima	11.49	1	69.1	1	0.0	1	null	6	null	6	10.07	1	988.35	1	40.951419	16.919863
1748	2024-03-13 19:00:00	8	casamassima	10.06	1	72.36	1	0.0	1	null	6	null	6	0.0	1	988.59	1	40.951419	16.919863
1749	2024-03-13 20:00:00	8	casamassima	8.07	1	80.74	1	0.0	1	null	6	null	6	0.0	1	989.01	1	40.951419	16.919863
1750	2024-03-13 21:00:00	8	casamassima	6.96	1	84.56	1	0.0	1	null	6	null	6	0.0	1	989.48	1	40.951419	16.919863
1751	2024-03-13 22:00:00	8	casamassima	6.34	1	86.56	1	0.0	1	null	6	null	6	0.0	1	989.68	1	40.951419	16.919863
1752	2024-03-13 23:00:00	8	casamassima	6.25	1	86.92	1	0.0	1	null	6	null	6	0.0	1	989.67	1	40.951419	16.919863
1753	2024-03-14 00:00:00	8	casamassima	5.7	1	87.5	1	0.0	1	null	6	null	6	0.0	1	989.73	1	40.951419	16.919863
1754	2024-03-14 01:00:00	8	casamassima	5.31	1	86.5	1	0.0	1	null	6	null	6	0.0	1	989.72	1	40.951419	16.919863
1755	2024-03-14 02:00:00	8	casamassima	5.36	1	77.38	1	0.0	1	null	6	null	6	0.0	1	989.69	1	40.951419	16.919863
1756	2024-03-14 03:00:00	8	casamassima	5.21	1	72.96	1	0.0	1	null	6	null	6	0.0	1	989.46	1	40.951419	16.919863
1757	2024-03-14 04:00:00	8	casamassima	5.44	1	69.06	1	0.0	1	null	6	null	6	0.0	1	989.28	1	40.951419	16.919863
1758	2024-03-14 05:00:00	8	casamassima	4.72	1	69.45	1	0.0	1	null	6	null	6	0.0	1	989.56	1	40.951419	16.919863
1759	2024-03-14 06:00:00	8	casamassima	4.69	1	66.03	1	0.0	1	null	6	null	6	0.0	1	990.03	1	40.951419	16.919863
1760	2024-03-14 07:00:00	8	casamassima	5.61	1	62.27	1	0.0	1	null	6	null	6	40.11	1	990.28	1	40.951419	16.919863
1761	2024-03-14 08:00:00	8	casamassima	10.92	1	50.36	1	0.0	1	null	6	null	6	200.61	1	990.4	1	40.951419	16.919863
1762	2024-03-14 09:00:00	8	casamassima	13.28	1	40.64	1	0.0	1	null	6	null	6	361.87	1	990.65	1	40.951419	16.919863
1763	2024-03-14 10:00:00	8	casamassima	14.43	1	36.2	1	0.0	1	null	6	null	6	530.65	1	990.82	1	40.951419	16.919863
1764	2024-03-14 11:00:00	8	casamassima	14.97	1	35.2	1	0.0	1	null	6	null	6	701.94	1	990.87	1	40.951419	16.919863
1765	2024-03-14 12:00:00	8	casamassima	15.22	1	35.33	1	0.0	1	null	6	null	6	836.59	1	990.77	1	40.951419	16.919863
1766	2024-03-14 13:00:00	8	casamassima	15.36	1	35.01	1	0.0	1	null	6	null	6	812.98	1	990.62	1	40.951419	16.919863
1767	2024-03-14 14:00:00	8	casamassima	15.56	1	35.25	1	0.0	1	null	6	null	6	747.75	1	990.27	1	40.951419	16.919863
1768	2024-03-14 15:00:00	8	casamassima	15.64	1	32.37	1	0.0	1	null	6	null	6	597.02	1	990.05	1	40.951419	16.919863
1769	2024-03-14 16:00:00	8	casamassima	14.75	1	43.43	1	0.0	1	null	6	null	6	259.36	1	990.05	1	40.951419	16.919863
1770	2024-03-14 17:00:00	8	casamassima	13.63	1	47.38	1	0.0	1	null	6	null	6	45.52	1	989.94	1	40.951419	16.919863
1771	2024-03-14 18:00:00	8	casamassima	12.88	1	50.96	1	0.0	1	null	6	null	6	14.66	1	990.12	1	40.951419	16.919863
1772	2024-03-14 19:00:00	8	casamassima	10.82	1	60.51	1	0.0	1	null	6	null	6	0.0	1	990.41	1	40.951419	16.919863
1773	2024-03-14 20:00:00	8	casamassima	8.65	1	69.4	1	0.0	1	null	6	null	6	0.0	1	990.72	1	40.951419	16.919863
1774	2024-03-14 21:00:00	8	casamassima	7.36	1	74.73	1	0.0	1	null	6	null	6	0.0	1	990.89	1	40.951419	16.919863
1775	2024-03-14 22:00:00	8	casamassima	6.85	1	73.26	1	0.0	1	null	6	null	6	0.0	1	990.98	1	40.951419	16.919863
1776	2024-03-14 23:00:00	8	casamassima	6.45	1	69.86	1	0.0	1	null	6	null	6	0.0	1	991.05	1	40.951419	16.919863
1777	2024-03-15 00:00:00	8	casamassima	6.25	1	67.93	1	0.0	1	null	6	null	6	0.0	1	990.95	1	40.951419	16.919863
1778	2024-03-15 01:00:00	8	casamassima	5.77	1	71.34	1	0.0	1	null	6	null	6	0.0	1	990.92	1	40.951419	16.919863
1779	2024-03-15 02:00:00	8	casamassima	5.19	1	76.29	1	0.0	1	null	6	null	6	0.0	1	990.84	1	40.951419	16.919863
1780	2024-03-15 03:00:00	8	casamassima	4.81	1	82.46	1	0.0	1	null	6	null	6	0.0	1	990.52	1	40.951419	16.919863
1781	2024-03-15 04:00:00	8	casamassima	4.74	1	85.58	1	0.0	1	null	6	null	6	0.0	1	990.41	1	40.951419	16.919863
1782	2024-03-15 05:00:00	8	casamassima	4.61	1	87.6	1	0.0	1	null	6	null	6	0.0	1	990.45	1	40.951419	16.919863
1783	2024-03-15 06:00:00	8	casamassima	4.88	1	87.0	1	0.0	1	null	6	null	6	0.0	5	990.44	1	40.951419	16.919863
1784	2024-03-15 07:00:00	8	casamassima	5.72	1	84.47	1	0.0	1	null	6	null	6	43.77	1	990.72	1	40.951419	16.919863
1785	2024-03-15 08:00:00	8	casamassima	11.63	1	66.79	1	0.0	1	null	6	null	6	197.76	1	990.77	1	40.951419	16.919863
1786	2024-03-15 09:00:00	8	casamassima	15.05	1	56.67	1	0.0	1	null	6	null	6	348.0	1	990.97	1	40.951419	16.919863
1787	2024-03-15 10:00:00	8	casamassima	16.82	1	50.07	1	0.0	1	null	6	null	6	434.45	1	991.05	1	40.951419	16.919863
1788	2024-03-15 11:00:00	8	casamassima	17.7	1	43.6	1	0.0	1	null	6	null	6	622.35	1	991.01	1	40.951419	16.919863
1789	2024-03-15 12:00:00	8	casamassima	18.65	1	33.13	1	0.0	1	null	6	null	6	815.28	1	990.69	1	40.951419	16.919863
1790	2024-03-15 13:00:00	8	casamassima	19.4	1	32.13	1	0.0	1	null	6	null	6	785.12	1	990.19	1	40.951419	16.919863
1791	2024-03-15 14:00:00	8	casamassima	18.43	1	42.87	1	0.0	1	null	6	null	6	703.12	1	989.7	1	40.951419	16.919863
1792	2024-03-15 15:00:00	8	casamassima	18.05	1	46.44	1	0.0	1	null	6	null	6	566.25	1	989.5	1	40.951419	16.919863
1793	2024-03-15 16:00:00	8	casamassima	17.03	1	50.71	1	0.0	1	null	6	null	6	252.75	1	989.35	1	40.951419	16.919863
1794	2024-03-15 17:00:00	8	casamassima	15.45	1	58.11	1	0.0	1	null	6	null	6	57.81	1	989.5	1	40.951419	16.919863
1795	2024-03-15 18:00:00	8	casamassima	14.58	1	53.41	1	0.0	1	null	6	null	6	23.41	1	989.86	1	40.951419	16.919863
1796	2024-03-15 19:00:00	8	casamassima	12.48	1	58.2	1	0.0	1	null	6	null	6	0.0	1	990.25	1	40.951419	16.919863
1797	2024-03-15 20:00:00	8	casamassima	10.83	1	70.86	1	0.0	1	null	6	null	6	0.0	1	990.64	1	40.951419	16.919863
1798	2024-03-15 21:00:00	8	casamassima	10.69	1	74.45	1	0.0	1	null	6	null	6	0.0	1	990.95	1	40.951419	16.919863
1799	2024-03-15 22:00:00	8	casamassima	10.18	1	76.21	1	0.0	1	null	6	null	6	0.0	1	991.13	1	40.951419	16.919863
1800	2024-03-15 23:00:00	8	casamassima	9.39	1	74.65	1	0.0	1	null	6	null	6	0.0	1	991.23	1	40.951419	16.919863
1801	2024-03-16 00:00:00	8	casamassima	8.74	1	76.38	1	0.0	1	null	6	null	6	0.0	1	991.24	1	40.951419	16.919863
1802	2024-03-16 01:00:00	8	casamassima	8.22	1	78.07	1	0.0	1	null	6	null	6	0.0	1	991.34	1	40.951419	16.919863
1803	2024-03-16 02:00:00	8	casamassima	8.07	1	78.76	1	0.0	1	null	6	null	6	0.0	1	991.42	1	40.951419	16.919863
1804	2024-03-16 03:00:00	8	casamassima	7.82	1	79.5	1	0.0	1	null	6	null	6	0.0	1	991.31	1	40.951419	16.919863
1805	2024-03-16 04:00:00	8	casamassima	7.22	1	80.69	1	0.0	1	null	6	null	6	0.0	1	991.24	1	40.951419	16.919863
1806	2024-03-16 05:00:00	8	casamassima	6.51	1	83.42	1	0.0	1	null	6	null	6	0.0	1	991.26	1	40.951419	16.919863
1807	2024-03-16 06:00:00	8	casamassima	6.19	1	83.1	1	0.0	1	null	6	null	6	0.0	5	991.37	1	40.951419	16.919863
1808	2024-03-16 07:00:00	8	casamassima	6.51	1	81.06	1	0.0	1	null	6	null	6	31.75	1	991.56	1	40.951419	16.919863
1809	2024-03-16 08:00:00	8	casamassima	11.74	1	63.16	1	0.0	1	null	6	null	6	215.01	1	991.75	1	40.951419	16.919863
1810	2024-03-16 09:00:00	8	casamassima	14.57	1	54.67	1	0.0	1	null	6	null	6	294.93	1	991.81	1	40.951419	16.919863
1811	2024-03-16 10:00:00	8	casamassima	15.04	1	51.96	1	0.0	1	null	6	null	6	451.22	1	991.8	1	40.951419	16.919863
1812	2024-03-16 11:00:00	8	casamassima	15.98	1	50.59	1	0.0	1	null	6	null	6	534.13	1	991.78	1	40.951419	16.919863
1813	2024-03-16 12:00:00	8	casamassima	16.21	1	51.65	1	0.0	1	null	6	null	6	569.39	1	991.64	1	40.951419	16.919863
1814	2024-03-16 13:00:00	8	casamassima	16.17	1	53.74	1	0.0	1	null	6	null	6	633.41	1	991.27	1	40.951419	16.919863
1815	2024-03-16 14:00:00	8	casamassima	15.3	1	57.93	1	0.0	1	null	6	null	6	385.72	1	990.98	1	40.951419	16.919863
1816	2024-03-16 15:00:00	8	casamassima	15.26	1	55.79	1	0.0	1	null	6	null	6	452.85	1	990.7	1	40.951419	16.919863
1817	2024-03-16 16:00:00	8	casamassima	14.67	1	56.74	1	0.0	1	null	6	null	6	150.8	1	990.54	1	40.951419	16.919863
1818	2024-03-16 17:00:00	8	casamassima	14.07	1	57.86	1	0.0	1	null	6	null	6	67.51	1	990.55	1	40.951419	16.919863
1819	2024-03-16 18:00:00	8	casamassima	13.34	1	65.32	1	0.0	1	null	6	null	6	10.56	1	990.94	1	40.951419	16.919863
1820	2024-03-16 19:00:00	8	casamassima	12.08	1	77.67	1	0.0	1	null	6	null	6	0.0	1	991.42	1	40.951419	16.919863
1821	2024-03-16 20:00:00	8	casamassima	11.25	1	81.7	1	0.0	1	null	6	null	6	0.0	1	991.92	1	40.951419	16.919863
1822	2024-03-16 21:00:00	8	casamassima	10.77	1	84.11	1	0.0	1	null	6	null	6	0.0	1	992.34	1	40.951419	16.919863
1823	2024-03-16 22:00:00	8	casamassima	10.7	1	87.13	1	0.0	1	null	6	null	6	0.0	1	992.45	1	40.951419	16.919863
1824	2024-03-16 23:00:00	8	casamassima	10.51	1	89.02	1	0.0	1	null	6	null	6	0.0	1	992.61	1	40.951419	16.919863
1825	2024-03-17 00:00:00	8	casamassima	9.89	1	89.83	1	0.0	1	null	6	null	6	0.0	1	992.6	1	40.951419	16.919863
1826	2024-03-17 01:00:00	8	casamassima	9.88	1	91.0	1	0.0	1	null	6	null	6	0.0	1	992.65	1	40.951419	16.919863
1827	2024-03-17 02:00:00	8	casamassima	10.32	1	92.32	1	0.0	1	null	6	null	6	0.0	1	992.6	1	40.951419	16.919863
1828	2024-03-17 03:00:00	8	casamassima	9.93	1	92.98	1	0.0	1	null	6	null	6	0.0	1	992.5	1	40.951419	16.919863
1829	2024-03-17 04:00:00	8	casamassima	9.25	1	93.22	1	0.0	1	null	6	null	6	0.0	1	992.37	1	40.951419	16.919863
1830	2024-03-17 05:00:00	8	casamassima	8.26	1	93.5	1	0.0	1	null	6	null	6	0.0	1	992.4	1	40.951419	16.919863
1831	2024-03-17 06:00:00	8	casamassima	7.75	1	93.47	1	0.0	1	null	6	null	6	0.0	5	992.69	1	40.951419	16.919863
1832	2024-03-17 07:00:00	8	casamassima	7.75	1	93.17	1	0.0	1	null	6	null	6	44.22	1	993.04	1	40.951419	16.919863
1833	2024-03-17 08:00:00	8	casamassima	11.15	1	80.47	1	0.0	1	null	6	null	6	204.7	1	993.29	1	40.951419	16.919863
1834	2024-03-17 09:00:00	8	casamassima	13.05	1	69.42	1	0.0	1	null	6	null	6	364.86	1	993.68	1	40.951419	16.919863
1835	2024-03-17 10:00:00	8	casamassima	14.14	1	63.02	1	0.0	1	null	6	null	6	505.56	1	993.87	1	40.951419	16.919863
1836	2024-03-17 11:00:00	8	casamassima	14.7	1	58.93	1	0.0	1	null	6	null	6	614.66	1	993.9	1	40.951419	16.919863
1837	2024-03-17 12:00:00	8	casamassima	15.07	1	57.64	1	0.0	1	null	6	null	6	795.53	1	993.93	1	40.951419	16.919863
1838	2024-03-17 13:00:00	8	casamassima	15.12	1	58.48	1	0.2	1	null	6	null	6	763.0	1	993.76	1	40.951419	16.919863
1839	2024-03-17 14:00:00	8	casamassima	15.53	1	55.96	1	0.0	1	null	6	null	6	702.78	1	993.23	1	40.951419	16.919863
1840	2024-03-17 15:00:00	8	casamassima	15.51	1	55.72	1	0.0	1	null	6	null	6	583.61	1	992.76	1	40.951419	16.919863
1841	2024-03-17 16:00:00	8	casamassima	15.1	1	57.06	1	0.0	1	null	6	null	6	272.88	1	992.56	1	40.951419	16.919863
1842	2024-03-17 17:00:00	8	casamassima	14.19	1	61.82	1	0.0	1	null	6	null	6	45.16	1	992.45	1	40.951419	16.919863
1843	2024-03-17 18:00:00	8	casamassima	13.28	1	70.11	1	0.0	1	null	6	null	6	14.61	1	992.68	1	40.951419	16.919863
1844	2024-03-17 19:00:00	8	casamassima	11.85	1	84.2	1	0.0	1	null	6	null	6	0.0	1	992.92	1	40.951419	16.919863
1845	2024-03-17 20:00:00	8	casamassima	10.78	1	87.0	1	0.0	1	null	6	null	6	0.0	1	993.1	1	40.951419	16.919863
1846	2024-03-17 21:00:00	8	casamassima	9.16	1	89.16	1	0.0	1	null	6	null	6	0.0	1	993.02	1	40.951419	16.919863
1847	2024-03-17 22:00:00	8	casamassima	8.4	1	90.65	1	0.0	1	null	6	null	6	0.0	1	993.15	1	40.951419	16.919863
1848	2024-03-17 23:00:00	8	casamassima	7.77	1	90.88	1	0.0	1	null	6	null	6	0.0	1	993.02	1	40.951419	16.919863
1849	2024-03-18 00:00:00	8	casamassima	7.24	1	88.94	1	0.0	1	null	6	null	6	0.0	1	992.73	1	40.951419	16.919863
1850	2024-03-18 01:00:00	8	casamassima	7.11	1	85.48	1	0.0	1	null	6	null	6	0.0	1	992.59	1	40.951419	16.919863
1851	2024-03-18 02:00:00	8	casamassima	6.75	1	85.5	1	0.0	1	null	6	null	6	0.0	1	992.05	1	40.951419	16.919863
1852	2024-03-18 03:00:00	8	casamassima	6.45	1	84.83	1	0.0	1	null	6	null	6	0.0	1	991.37	1	40.951419	16.919863
1853	2024-03-18 04:00:00	8	casamassima	5.87	1	84.96	1	0.0	1	null	6	null	6	0.0	1	991.01	1	40.951419	16.919863
1854	2024-03-18 05:00:00	8	casamassima	5.57	1	85.73	1	0.0	1	null	6	null	6	0.0	1	990.69	1	40.951419	16.919863
1855	2024-03-18 06:00:00	8	casamassima	5.77	1	85.57	1	0.0	1	null	6	null	6	0.0	5	990.4	1	40.951419	16.919863
1856	2024-03-18 07:00:00	8	casamassima	7.26	1	83.94	1	0.0	1	null	6	null	6	37.47	1	990.4	1	40.951419	16.919863
1857	2024-03-18 08:00:00	8	casamassima	11.97	1	71.18	1	0.0	1	null	6	null	6	207.36	1	990.13	1	40.951419	16.919863
1858	2024-03-18 09:00:00	8	casamassima	17.35	1	53.13	1	0.0	1	null	6	null	6	371.77	1	989.95	1	40.951419	16.919863
1859	2024-03-18 10:00:00	8	casamassima	19.12	1	45.2	1	0.0	1	null	6	null	6	518.75	1	989.59	1	40.951419	16.919863
1860	2024-03-18 11:00:00	8	casamassima	19.71	1	42.52	1	0.0	1	null	6	null	6	690.74	1	988.89	1	40.951419	16.919863
1861	2024-03-18 12:00:00	8	casamassima	21.03	1	37.73	1	0.0	1	null	6	null	6	763.7	1	988.29	1	40.951419	16.919863
1862	2024-03-18 13:00:00	8	casamassima	21.27	1	34.22	1	0.0	1	null	6	null	6	747.75	1	987.45	1	40.951419	16.919863
1863	2024-03-18 14:00:00	8	casamassima	20.36	1	39.52	1	0.0	1	null	6	null	6	487.21	1	986.74	1	40.951419	16.919863
1864	2024-03-18 15:00:00	8	casamassima	18.26	1	45.45	1	0.0	1	null	6	null	6	282.79	1	986.56	1	40.951419	16.919863
1865	2024-03-18 16:00:00	8	casamassima	17.55	1	46.72	1	0.0	1	null	6	null	6	163.36	1	986.31	1	40.951419	16.919863
1866	2024-03-18 17:00:00	8	casamassima	16.77	1	50.37	1	0.0	1	null	6	null	6	63.19	1	986.01	1	40.951419	16.919863
1867	2024-03-18 18:00:00	8	casamassima	16.14	1	54.11	1	0.0	1	null	6	null	6	12.07	1	985.94	1	40.951419	16.919863
1868	2024-03-18 19:00:00	8	casamassima	15.3	1	55.92	1	0.0	1	null	6	null	6	0.0	1	985.96	1	40.951419	16.919863
1869	2024-03-18 20:00:00	8	casamassima	14.4	1	58.83	1	0.0	1	null	6	null	6	0.0	1	986.23	1	40.951419	16.919863
1870	2024-03-18 21:00:00	8	casamassima	13.24	1	69.29	1	0.0	1	null	6	null	6	0.0	1	986.29	1	40.951419	16.919863
1871	2024-03-18 22:00:00	8	casamassima	11.55	1	84.07	1	1.4	1	null	6	null	6	0.0	1	986.27	1	40.951419	16.919863
1872	2024-03-18 23:00:00	8	casamassima	10.97	1	88.57	1	1.6	1	null	6	null	6	0.0	1	986.11	1	40.951419	16.919863
1873	2024-03-19 00:00:00	8	casamassima	10.71	1	89.38	1	2.0	1	null	6	null	6	0.0	1	985.75	1	40.951419	16.919863
1874	2024-03-19 01:00:00	8	casamassima	10.55	1	90.49	1	0.4	1	null	6	null	6	0.0	1	985.13	1	40.951419	16.919863
1875	2024-03-19 02:00:00	8	casamassima	10.49	1	91.35	1	0.2	1	null	6	null	6	0.0	1	984.74	1	40.951419	16.919863
1876	2024-03-19 03:00:00	8	casamassima	10.28	1	91.76	1	0.0	1	null	6	null	6	0.0	1	984.26	1	40.951419	16.919863
1877	2024-03-19 04:00:00	8	casamassima	10.24	1	92.04	1	0.4	1	null	6	null	6	0.0	1	984.03	1	40.951419	16.919863
1878	2024-03-19 05:00:00	8	casamassima	10.15	1	92.72	1	1.0	1	null	6	null	6	0.0	1	984.07	1	40.951419	16.919863
1879	2024-03-19 06:00:00	8	casamassima	9.91	1	93.21	1	0.2	1	null	6	null	6	0.0	5	984.34	1	40.951419	16.919863
1880	2024-03-19 07:00:00	8	casamassima	9.95	1	93.54	1	0.4	1	null	6	null	6	8.8	1	984.84	1	40.951419	16.919863
1881	2024-03-19 08:00:00	8	casamassima	10.05	1	93.27	1	4.2	1	null	6	null	6	18.59	1	985.41	1	40.951419	16.919863
1882	2024-03-19 09:00:00	8	casamassima	9.98	1	92.96	1	1.4	1	null	6	null	6	56.88	1	986.14	1	40.951419	16.919863
1883	2024-03-19 10:00:00	8	casamassima	10.12	1	92.55	1	0.6	1	null	6	null	6	176.36	1	986.65	1	40.951419	16.919863
1884	2024-03-19 11:00:00	8	casamassima	10.67	1	91.28	1	0.0	1	null	6	null	6	177.09	1	987.07	1	40.951419	16.919863
1885	2024-03-19 12:00:00	8	casamassima	11.73	1	84.77	1	0.0	1	null	6	null	6	349.53	1	987.09	1	40.951419	16.919863
1886	2024-03-19 13:00:00	8	casamassima	12.98	1	74.01	1	0.0	1	null	6	null	6	580.69	1	986.99	1	40.951419	16.919863
1887	2024-03-19 14:00:00	8	casamassima	13.3	1	69.53	1	0.2	1	null	6	null	6	358.7	1	987.0	1	40.951419	16.919863
1888	2024-03-19 15:00:00	8	casamassima	12.76	1	71.76	1	0.0	1	null	6	null	6	258.56	1	987.19	1	40.951419	16.919863
1889	2024-03-19 16:00:00	8	casamassima	13.18	1	68.92	1	0.0	1	null	6	null	6	223.79	1	987.08	1	40.951419	16.919863
1890	2024-03-19 17:00:00	8	casamassima	13.01	1	66.1	1	0.0	1	null	6	null	6	62.83	1	987.24	1	40.951419	16.919863
1891	2024-03-19 18:00:00	8	casamassima	11.98	1	76.51	1	0.0	1	null	6	null	6	18.98	1	987.87	1	40.951419	16.919863
1892	2024-03-19 19:00:00	8	casamassima	10.96	1	83.68	1	0.0	1	null	6	null	6	0.0	1	988.45	1	40.951419	16.919863
1893	2024-03-19 20:00:00	8	casamassima	9.58	1	87.23	1	0.0	1	null	6	null	6	0.0	1	989.14	1	40.951419	16.919863
1894	2024-03-19 21:00:00	8	casamassima	8.8	1	89.85	1	0.0	1	null	6	null	6	0.0	1	989.61	1	40.951419	16.919863
1895	2024-03-19 22:00:00	8	casamassima	9.22	1	81.77	1	0.0	1	null	6	null	6	0.0	1	989.87	1	40.951419	16.919863
1896	2024-03-19 23:00:00	8	casamassima	9.01	1	76.26	1	0.0	1	null	6	null	6	0.0	1	989.99	1	40.951419	16.919863
1897	2024-03-20 00:00:00	8	casamassima	8.25	1	78.08	1	0.0	1	null	6	null	6	0.0	1	990.25	1	40.951419	16.919863
1898	2024-03-20 01:00:00	8	casamassima	8.21	1	77.56	1	0.0	1	null	6	null	6	0.0	1	990.63	1	40.951419	16.919863
1899	2024-03-20 02:00:00	8	casamassima	8.37	1	76.41	1	0.0	1	null	6	null	6	0.0	1	990.6	1	40.951419	16.919863
1900	2024-03-20 03:00:00	8	casamassima	7.59	1	80.57	1	0.0	1	null	6	null	6	0.0	1	990.61	1	40.951419	16.919863
1901	2024-03-20 04:00:00	8	casamassima	6.88	1	83.49	1	0.0	1	null	6	null	6	0.0	1	990.61	1	40.951419	16.919863
1902	2024-03-20 05:00:00	8	casamassima	5.61	1	88.0	1	0.0	1	null	6	null	6	0.0	1	990.8	1	40.951419	16.919863
1903	2024-03-20 06:00:00	8	casamassima	4.66	1	90.45	1	0.0	1	null	6	null	6	0.0	5	991.18	1	40.951419	16.919863
1904	2024-03-20 07:00:00	8	casamassima	5.8	1	86.72	1	0.0	1	null	6	null	6	62.57	1	991.86	1	40.951419	16.919863
1905	2024-03-20 08:00:00	8	casamassima	9.34	1	72.32	1	0.0	1	null	6	null	6	236.64	1	992.35	1	40.951419	16.919863
1906	2024-03-20 09:00:00	8	casamassima	11.4	1	59.67	1	0.0	1	null	6	null	6	405.53	1	992.91	1	40.951419	16.919863
1907	2024-03-20 10:00:00	8	casamassima	12.59	1	50.82	1	0.0	1	null	6	null	6	587.32	1	993.27	1	40.951419	16.919863
1908	2024-03-20 11:00:00	8	casamassima	13.16	1	46.68	1	0.0	1	null	6	null	6	754.06	1	993.57	1	40.951419	16.919863
1909	2024-03-20 12:00:00	8	casamassima	13.44	1	46.4	1	0.0	1	null	6	null	6	834.59	1	993.7	1	40.951419	16.919863
1910	2024-03-20 13:00:00	8	casamassima	13.53	1	45.3	1	0.0	1	null	6	null	6	808.59	1	993.72	1	40.951419	16.919863
1911	2024-03-20 14:00:00	8	casamassima	13.67	1	45.55	1	0.0	1	null	6	null	6	781.86	1	993.55	1	40.951419	16.919863
1912	2024-03-20 15:00:00	8	casamassima	13.9	1	44.61	1	0.0	1	null	6	null	6	628.2	1	993.57	1	40.951419	16.919863
1913	2024-03-20 16:00:00	8	casamassima	13.46	1	46.23	1	0.0	1	null	6	null	6	269.67	1	993.46	1	40.951419	16.919863
1914	2024-03-20 17:00:00	8	casamassima	12.35	1	52.15	1	0.0	1	null	6	null	6	46.99	1	993.65	1	40.951419	16.919863
1915	2024-03-20 18:00:00	8	casamassima	11.44	1	59.73	1	0.0	1	null	6	null	6	17.35	1	994.04	1	40.951419	16.919863
1916	2024-03-20 19:00:00	8	casamassima	10.16	1	65.0	1	0.0	1	null	6	null	6	0.0	5	994.4	1	40.951419	16.919863
1917	2024-03-20 20:00:00	8	casamassima	8.32	1	73.25	1	0.0	1	null	6	null	6	0.0	1	994.87	1	40.951419	16.919863
1918	2024-03-20 21:00:00	8	casamassima	6.49	1	79.29	1	0.0	1	null	6	null	6	0.0	1	995.3	1	40.951419	16.919863
1919	2024-03-20 22:00:00	8	casamassima	5.39	1	82.41	1	0.0	1	null	6	null	6	0.0	1	995.48	1	40.951419	16.919863
1920	2024-03-20 23:00:00	8	casamassima	4.65	1	84.0	1	0.0	1	null	6	null	6	0.0	1	995.54	1	40.951419	16.919863
1921	2024-03-21 00:00:00	8	casamassima	4.29	1	85.47	1	0.0	1	null	6	null	6	0.0	1	995.63	1	40.951419	16.919863
1922	2024-03-21 01:00:00	8	casamassima	3.8	1	86.56	1	0.0	1	null	6	null	6	0.0	1	995.75	1	40.951419	16.919863
1923	2024-03-21 02:00:00	8	casamassima	3.26	1	85.78	1	0.0	1	null	6	null	6	0.0	1	995.55	1	40.951419	16.919863
1924	2024-03-21 03:00:00	8	casamassima	2.93	1	79.96	1	0.0	1	null	6	null	6	0.0	1	995.37	1	40.951419	16.919863
1925	2024-03-21 04:00:00	8	casamassima	2.85	1	68.07	1	0.0	1	null	6	null	6	0.0	1	995.33	1	40.951419	16.919863
1926	2024-03-21 05:00:00	8	casamassima	2.37	1	62.76	1	0.0	1	null	6	null	6	0.0	1	995.3	1	40.951419	16.919863
1927	2024-03-21 06:00:00	8	casamassima	1.79	1	66.11	1	0.0	1	null	6	null	6	0.0	5	995.43	1	40.951419	16.919863
1928	2024-03-21 07:00:00	8	casamassima	3.48	1	65.49	1	0.0	1	null	6	null	6	64.74	1	995.53	1	40.951419	16.919863
1929	2024-03-21 08:00:00	8	casamassima	10.73	1	49.33	1	0.0	1	null	6	null	6	240.57	1	995.5	1	40.951419	16.919863
1930	2024-03-21 09:00:00	8	casamassima	13.09	1	39.18	1	0.0	1	null	6	null	6	405.66	1	995.68	1	40.951419	16.919863
1931	2024-03-21 10:00:00	8	casamassima	15.08	1	34.39	1	0.0	1	null	6	null	6	595.52	1	995.63	1	40.951419	16.919863
1932	2024-03-21 11:00:00	8	casamassima	16.1	1	35.02	1	0.0	1	null	6	null	6	767.79	1	995.58	1	40.951419	16.919863
1933	2024-03-21 12:00:00	8	casamassima	16.54	1	35.51	1	0.0	1	null	6	null	6	878.31	1	995.34	1	40.951419	16.919863
1934	2024-03-21 13:00:00	8	casamassima	16.89	1	35.14	1	0.0	1	null	6	null	6	837.53	1	994.7	1	40.951419	16.919863
1935	2024-03-21 14:00:00	8	casamassima	17.42	1	34.68	1	0.0	1	null	6	null	6	760.63	1	994.03	1	40.951419	16.919863
1936	2024-03-21 15:00:00	8	casamassima	17.85	1	34.91	1	0.0	1	null	6	null	6	617.46	1	993.26	1	40.951419	16.919863
1937	2024-03-21 16:00:00	8	casamassima	17.58	1	33.8	1	0.0	1	null	6	null	6	268.94	1	992.56	1	40.951419	16.919863
1938	2024-03-21 17:00:00	8	casamassima	16.49	1	34.62	1	0.0	1	null	6	null	6	39.88	1	992.03	1	40.951419	16.919863
1939	2024-03-21 18:00:00	8	casamassima	15.65	1	36.51	1	0.0	1	null	6	null	6	15.13	1	991.81	1	40.951419	16.919863
1940	2024-03-21 19:00:00	8	casamassima	13.38	1	56.44	1	0.0	1	null	6	null	6	0.0	1	991.72	1	40.951419	16.919863
1941	2024-03-21 20:00:00	8	casamassima	11.14	1	70.89	1	0.0	1	null	6	null	6	0.0	1	991.82	1	40.951419	16.919863
1942	2024-03-21 21:00:00	8	casamassima	9.96	1	73.54	1	0.0	1	null	6	null	6	0.0	1	992.02	1	40.951419	16.919863
1943	2024-03-21 22:00:00	8	casamassima	9.41	1	70.52	1	0.0	1	null	6	null	6	0.0	1	991.98	1	40.951419	16.919863
1944	2024-03-21 23:00:00	8	casamassima	9.19	1	74.4	1	0.0	1	null	6	null	6	0.0	1	991.82	1	40.951419	16.919863
1945	2024-03-22 00:00:00	8	casamassima	8.69	1	77.6	1	0.0	1	null	6	null	6	0.0	1	991.39	1	40.951419	16.919863
1946	2024-03-22 01:00:00	8	casamassima	8.08	1	79.93	1	0.0	1	null	6	null	6	0.0	1	990.99	1	40.951419	16.919863
1947	2024-03-22 02:00:00	8	casamassima	8.59	1	79.79	1	0.0	1	null	6	null	6	0.0	1	990.35	1	40.951419	16.919863
1948	2024-03-22 03:00:00	8	casamassima	9.7	1	75.54	1	0.0	1	null	6	null	6	0.0	1	989.83	1	40.951419	16.919863
1949	2024-03-22 04:00:00	8	casamassima	10.26	1	72.91	1	0.0	1	null	6	null	6	0.0	1	989.78	1	40.951419	16.919863
1950	2024-03-22 05:00:00	8	casamassima	10.46	1	72.02	1	0.0	1	null	6	null	6	0.0	1	990.06	1	40.951419	16.919863
1951	2024-03-22 06:00:00	8	casamassima	9.64	1	77.36	1	0.0	1	null	6	null	6	0.0	5	990.29	1	40.951419	16.919863
1952	2024-03-22 07:00:00	8	casamassima	10.58	1	79.88	1	0.0	1	null	6	null	6	55.1	1	990.56	1	40.951419	16.919863
1953	2024-03-22 08:00:00	8	casamassima	11.73	1	81.03	1	0.0	1	null	6	null	6	177.29	1	990.64	1	40.951419	16.919863
1954	2024-03-22 09:00:00	8	casamassima	12.57	1	78.05	1	0.0	1	null	6	null	6	198.1	1	991.02	1	40.951419	16.919863
1955	2024-03-22 10:00:00	8	casamassima	13.64	1	61.08	1	0.0	1	null	6	null	6	436.61	1	991.28	1	40.951419	16.919863
1956	2024-03-22 11:00:00	8	casamassima	14.79	1	52.63	1	0.0	1	null	6	null	6	694.25	1	991.26	1	40.951419	16.919863
1957	2024-03-22 12:00:00	8	casamassima	14.77	1	58.53	1	0.0	1	null	6	null	6	557.9	1	990.87	1	40.951419	16.919863
1958	2024-03-22 13:00:00	8	casamassima	14.93	1	60.06	1	0.0	1	null	6	null	6	628.19	1	990.56	1	40.951419	16.919863
1959	2024-03-22 14:00:00	8	casamassima	14.62	1	65.58	1	0.0	1	null	6	null	6	459.87	1	990.28	1	40.951419	16.919863
1960	2024-03-22 15:00:00	8	casamassima	14.63	1	66.55	1	0.0	1	null	6	null	6	459.91	1	989.9	1	40.951419	16.919863
1961	2024-03-22 16:00:00	8	casamassima	13.88	1	71.13	1	0.0	1	null	6	null	6	186.92	1	989.68	1	40.951419	16.919863
1962	2024-03-22 17:00:00	8	casamassima	13.04	1	73.17	1	0.0	1	null	6	null	6	77.35	1	989.72	1	40.951419	16.919863
1963	2024-03-22 18:00:00	8	casamassima	12.7	1	75.11	1	0.0	1	null	6	null	6	32.98	1	989.64	1	40.951419	16.919863
1964	2024-03-22 19:00:00	8	casamassima	11.81	1	81.36	1	0.0	1	null	6	null	6	0.0	5	989.72	1	40.951419	16.919863
1965	2024-03-22 20:00:00	8	casamassima	10.69	1	86.57	1	0.0	1	null	6	null	6	0.0	1	989.82	1	40.951419	16.919863
1966	2024-03-22 21:00:00	8	casamassima	9.08	1	89.49	1	0.0	1	null	6	null	6	0.0	1	989.94	1	40.951419	16.919863
1967	2024-03-22 22:00:00	8	casamassima	8.26	1	91.01	1	0.0	1	null	6	null	6	0.0	1	990.08	1	40.951419	16.919863
1968	2024-03-22 23:00:00	8	casamassima	7.76	1	91.63	1	0.0	1	null	6	null	6	0.0	1	990.07	1	40.951419	16.919863
1969	2024-03-23 00:00:00	8	casamassima	7.61	1	92.37	1	0.0	1	null	6	null	6	0.0	1	990.03	1	40.951419	16.919863
1970	2024-03-23 01:00:00	8	casamassima	6.79	1	92.35	1	0.0	1	null	6	null	6	0.0	1	989.99	1	40.951419	16.919863
1971	2024-03-23 02:00:00	8	casamassima	5.98	1	92.45	1	0.0	1	null	6	null	6	0.0	1	989.75	1	40.951419	16.919863
1972	2024-03-23 03:00:00	8	casamassima	5.52	1	92.49	1	0.0	1	null	6	null	6	0.0	1	989.45	1	40.951419	16.919863
1973	2024-03-23 04:00:00	8	casamassima	5.51	1	92.77	1	0.0	1	null	6	null	6	0.0	1	989.29	1	40.951419	16.919863
1974	2024-03-23 05:00:00	8	casamassima	5.68	1	92.21	1	0.0	1	null	6	null	6	0.0	1	989.18	1	40.951419	16.919863
1975	2024-03-23 06:00:00	8	casamassima	5.48	1	91.52	1	0.0	1	null	6	null	6	0.0	5	989.09	1	40.951419	16.919863
1976	2024-03-23 07:00:00	8	casamassima	6.48	1	88.82	1	0.0	1	null	6	null	6	62.55	1	989.15	1	40.951419	16.919863
1977	2024-03-23 08:00:00	8	casamassima	11.89	1	68.47	1	0.0	1	null	6	null	6	237.5	1	989.2	1	40.951419	16.919863
1978	2024-03-23 09:00:00	8	casamassima	16.63	1	49.0	1	0.0	1	null	6	null	6	401.81	1	989.08	1	40.951419	16.919863
1979	2024-03-23 10:00:00	8	casamassima	18.68	1	36.41	1	0.0	1	null	6	null	6	585.06	1	989.05	1	40.951419	16.919863
1980	2024-03-23 11:00:00	8	casamassima	19.29	1	31.3	1	0.0	1	null	6	null	6	744.35	1	988.74	1	40.951419	16.919863
1981	2024-03-23 12:00:00	8	casamassima	19.8	1	30.65	1	0.0	1	null	6	null	6	854.4	1	988.27	1	40.951419	16.919863
1982	2024-03-23 13:00:00	8	casamassima	19.72	1	31.38	1	0.0	1	null	6	null	6	820.75	1	987.56	1	40.951419	16.919863
1983	2024-03-23 14:00:00	8	casamassima	19.58	1	32.47	1	0.0	1	null	6	null	6	754.86	1	986.76	1	40.951419	16.919863
1984	2024-03-23 15:00:00	8	casamassima	19.55	1	37.03	1	0.0	1	null	6	null	6	615.23	1	986.18	1	40.951419	16.919863
1985	2024-03-23 16:00:00	8	casamassima	18.33	1	35.76	1	0.0	1	null	6	null	6	249.38	1	985.62	1	40.951419	16.919863
1986	2024-03-23 17:00:00	8	casamassima	16.35	1	40.48	1	0.0	1	null	6	null	6	53.38	1	985.49	1	40.951419	16.919863
1987	2024-03-23 18:00:00	8	casamassima	14.25	1	54.95	1	0.0	1	null	6	null	6	14.63	1	985.57	1	40.951419	16.919863
1988	2024-03-23 19:00:00	8	casamassima	12.72	1	65.87	1	0.0	1	null	6	null	6	0.0	5	985.61	1	40.951419	16.919863
1989	2024-03-23 20:00:00	8	casamassima	11.62	1	75.83	1	0.0	1	null	6	null	6	0.0	1	985.8	1	40.951419	16.919863
1990	2024-03-23 21:00:00	8	casamassima	10.9	1	83.41	1	0.0	1	null	6	null	6	0.0	1	985.7	1	40.951419	16.919863
1991	2024-03-23 22:00:00	8	casamassima	10.63	1	86.87	1	0.0	1	null	6	null	6	0.0	1	985.26	1	40.951419	16.919863
1992	2024-03-23 23:00:00	8	casamassima	10.34	1	88.93	1	0.0	1	null	6	null	6	0.0	1	984.84	1	40.951419	16.919863
1993	2024-03-24 00:00:00	8	casamassima	9.96	1	88.96	1	0.0	1	null	6	null	6	0.0	1	984.49	1	40.951419	16.919863
1994	2024-03-24 01:00:00	8	casamassima	9.89	1	85.8	1	0.0	1	null	6	null	6	0.0	1	983.95	1	40.951419	16.919863
1995	2024-03-24 02:00:00	8	casamassima	9.76	1	83.91	1	0.0	1	null	6	null	6	0.0	1	983.51	1	40.951419	16.919863
1996	2024-03-24 03:00:00	8	casamassima	9.42	1	80.71	1	0.0	1	null	6	null	6	0.0	1	983.15	1	40.951419	16.919863
1997	2024-03-24 04:00:00	8	casamassima	8.99	1	83.13	1	0.0	1	null	6	null	6	0.0	1	982.77	1	40.951419	16.919863
1998	2024-03-24 05:00:00	8	casamassima	8.99	1	78.4	1	0.0	1	null	6	null	6	0.0	1	982.38	1	40.951419	16.919863
1999	2024-03-24 06:00:00	8	casamassima	9.12	1	73.85	1	0.0	1	null	6	null	6	0.0	5	982.04	1	40.951419	16.919863
2000	2024-03-24 07:00:00	8	casamassima	10.18	1	70.32	1	0.0	1	null	6	null	6	97.17	1	982.09	1	40.951419	16.919863
2001	2024-03-24 08:00:00	8	casamassima	13.26	1	60.16	1	0.0	1	null	6	null	6	222.74	1	982.0	1	40.951419	16.919863
2002	2024-03-24 09:00:00	8	casamassima	17.22	1	46.11	1	0.0	1	null	6	null	6	430.21	1	981.54	1	40.951419	16.919863
2003	2024-03-24 10:00:00	8	casamassima	18.73	1	40.0	1	0.0	1	null	6	null	6	554.81	1	981.77	1	40.951419	16.919863
2004	2024-03-24 11:00:00	8	casamassima	18.66	1	39.31	1	0.0	1	null	6	null	6	457.0	1	982.06	1	40.951419	16.919863
2005	2024-03-24 12:00:00	8	casamassima	19.73	1	36.67	1	0.0	1	null	6	null	6	751.12	1	981.65	1	40.951419	16.919863
2006	2024-03-24 13:00:00	8	casamassima	19.86	1	35.28	1	0.0	1	null	6	null	6	549.94	1	980.65	1	40.951419	16.919863
2007	2024-03-24 14:00:00	8	casamassima	20.43	1	35.42	1	0.0	1	null	6	null	6	616.86	1	979.44	1	40.951419	16.919863
2008	2024-03-24 15:00:00	8	casamassima	19.95	1	33.75	1	0.0	1	null	6	null	6	368.05	1	978.58	1	40.951419	16.919863
2009	2024-03-24 16:00:00	8	casamassima	20.79	1	30.45	1	0.0	1	null	6	null	6	323.73	1	977.93	1	40.951419	16.919863
2010	2024-03-24 17:00:00	8	casamassima	18.62	1	36.89	1	0.0	1	null	6	null	6	63.21	1	977.49	1	40.951419	16.919863
2011	2024-03-24 18:00:00	8	casamassima	16.47	1	41.82	1	0.0	1	null	6	null	6	20.07	1	977.77	1	40.951419	16.919863
2012	2024-03-24 19:00:00	8	casamassima	14.7	1	49.65	1	0.0	1	null	6	null	6	0.0	1	977.92	1	40.951419	16.919863
2013	2024-03-24 20:00:00	8	casamassima	13.48	1	50.43	1	0.0	1	null	6	null	6	0.0	1	978.45	1	40.951419	16.919863
2014	2024-03-24 21:00:00	8	casamassima	12.76	1	43.62	1	0.0	1	null	6	null	6	0.0	1	979.03	1	40.951419	16.919863
2015	2024-03-24 22:00:00	8	casamassima	11.17	1	52.49	1	0.0	1	null	6	null	6	0.0	1	979.23	1	40.951419	16.919863
2016	2024-03-24 23:00:00	8	casamassima	9.94	1	57.82	1	0.0	1	null	6	null	6	0.0	1	979.45	1	40.951419	16.919863
2017	2024-03-25 00:00:00	8	casamassima	8.76	1	63.61	1	0.0	1	null	6	null	6	0.0	1	979.66	1	40.951419	16.919863
2018	2024-03-25 01:00:00	8	casamassima	8.38	1	72.91	1	0.0	1	null	6	null	6	0.0	1	979.7	1	40.951419	16.919863
2019	2024-03-25 02:00:00	8	casamassima	6.6	1	82.47	1	0.0	1	null	6	null	6	0.0	1	979.65	1	40.951419	16.919863
2020	2024-03-25 03:00:00	8	casamassima	6.19	1	85.84	1	0.0	1	null	6	null	6	0.0	1	979.42	1	40.951419	16.919863
2021	2024-03-25 04:00:00	8	casamassima	5.95	1	86.16	1	0.0	1	null	6	null	6	0.0	1	979.29	1	40.951419	16.919863
2022	2024-03-25 05:00:00	8	casamassima	5.96	1	84.73	1	0.0	1	null	6	null	6	0.0	1	979.63	1	40.951419	16.919863
2023	2024-03-25 06:00:00	8	casamassima	5.41	1	81.18	1	0.0	1	null	6	null	6	0.0	5	979.96	1	40.951419	16.919863
2024	2024-03-25 07:00:00	8	casamassima	6.91	1	74.33	1	0.0	1	null	6	null	6	78.69	1	980.65	1	40.951419	16.919863
2025	2024-03-25 08:00:00	8	casamassima	10.39	1	61.96	1	0.0	1	null	6	null	6	261.73	1	981.18	1	40.951419	16.919863
2026	2024-03-25 09:00:00	8	casamassima	12.31	1	55.78	1	0.0	1	null	6	null	6	433.33	1	981.85	1	40.951419	16.919863
2027	2024-03-25 10:00:00	8	casamassima	13.63	1	47.58	1	0.0	1	null	6	null	6	629.46	1	982.52	1	40.951419	16.919863
2028	2024-03-25 11:00:00	8	casamassima	14.29	1	35.45	1	0.0	1	null	6	null	6	792.87	1	982.84	1	40.951419	16.919863
2029	2024-03-25 12:00:00	8	casamassima	14.51	1	36.16	1	0.0	1	null	6	null	6	906.09	1	983.19	1	40.951419	16.919863
2030	2024-03-25 13:00:00	8	casamassima	14.75	1	31.74	1	0.0	1	null	6	null	6	863.6	1	982.9	1	40.951419	16.919863
2031	2024-03-25 14:00:00	8	casamassima	14.36	1	35.26	1	0.0	1	null	6	null	6	480.22	1	982.57	1	40.951419	16.919863
2032	2024-03-25 15:00:00	8	casamassima	14.63	1	33.53	1	0.0	1	null	6	null	6	634.1	1	982.35	1	40.951419	16.919863
2033	2024-03-25 16:00:00	8	casamassima	14.37	1	30.42	1	0.0	1	null	6	null	6	290.21	1	981.77	1	40.951419	16.919863
2034	2024-03-25 17:00:00	8	casamassima	12.83	1	45.83	1	0.0	1	null	6	null	6	121.1	1	982.12	1	40.951419	16.919863
2035	2024-03-25 18:00:00	8	casamassima	11.65	1	49.91	1	0.0	1	null	6	null	6	27.75	1	982.37	1	40.951419	16.919863
2036	2024-03-25 19:00:00	8	casamassima	10.9	1	49.55	1	0.0	1	null	6	null	6	0.0	1	982.17	1	40.951419	16.919863
2037	2024-03-25 20:00:00	8	casamassima	10.56	1	52.71	1	0.0	1	null	6	null	6	0.0	1	982.34	1	40.951419	16.919863
2038	2024-03-25 21:00:00	8	casamassima	10.27	1	55.34	1	0.0	1	null	6	null	6	0.0	1	982.54	1	40.951419	16.919863
2039	2024-03-25 22:00:00	8	casamassima	9.98	1	54.66	1	0.0	1	null	6	null	6	0.0	1	982.53	1	40.951419	16.919863
2040	2024-03-25 23:00:00	8	casamassima	10.04	1	44.64	1	0.0	1	null	6	null	6	0.0	1	982.57	1	40.951419	16.919863
2041	2024-03-26 00:00:00	8	casamassima	10.0	1	35.08	1	0.0	1	null	6	null	6	0.0	1	982.23	1	40.951419	16.919863
2042	2024-03-26 01:00:00	8	casamassima	9.77	1	44.56	1	0.0	1	null	6	null	6	0.0	1	981.75	1	40.951419	16.919863
2043	2024-03-26 02:00:00	8	casamassima	9.84	1	59.76	1	0.0	1	null	6	null	6	0.0	1	981.13	1	40.951419	16.919863
2044	2024-03-26 03:00:00	8	casamassima	10.23	1	74.96	1	0.0	1	null	6	null	6	0.0	1	980.0	1	40.951419	16.919863
2045	2024-03-26 04:00:00	8	casamassima	10.49	1	77.32	1	0.0	1	null	6	null	6	0.0	1	979.25	1	40.951419	16.919863
2046	2024-03-26 05:00:00	8	casamassima	10.92	1	74.68	1	0.0	1	null	6	null	6	0.0	1	978.62	1	40.951419	16.919863
2047	2024-03-26 06:00:00	8	casamassima	11.15	1	76.59	1	0.0	1	null	6	null	6	0.0	5	978.52	1	40.951419	16.919863
2048	2024-03-26 07:00:00	8	casamassima	11.04	1	78.57	1	0.0	1	null	6	null	6	6.45	1	978.59	1	40.951419	16.919863
2049	2024-03-26 08:00:00	8	casamassima	10.93	1	80.33	1	0.4	1	null	6	null	6	21.87	1	978.62	1	40.951419	16.919863
2050	2024-03-26 09:00:00	8	casamassima	11.06	1	83.6	1	0.6	1	null	6	null	6	39.51	1	978.51	1	40.951419	16.919863
2051	2024-03-26 10:00:00	8	casamassima	11.16	1	83.82	1	0.2	1	null	6	null	6	67.84	1	977.59	1	40.951419	16.919863
2052	2024-03-26 11:00:00	8	casamassima	11.27	1	83.34	1	0.2	1	null	6	null	6	60.23	1	976.78	1	40.951419	16.919863
2053	2024-03-26 12:00:00	8	casamassima	12.02	1	78.42	1	0.0	1	null	6	null	6	53.52	1	975.83	1	40.951419	16.919863
2054	2024-03-26 13:00:00	8	casamassima	12.81	1	80.34	1	0.0	1	null	6	null	6	115.62	1	974.91	1	40.951419	16.919863
2055	2024-03-26 14:00:00	8	casamassima	13.84	1	79.16	1	0.0	1	null	6	null	6	176.27	1	973.32	1	40.951419	16.919863
2056	2024-03-26 15:00:00	8	casamassima	14.17	1	81.22	1	0.0	1	null	6	null	6	132.62	1	972.44	1	40.951419	16.919863
2057	2024-03-26 16:00:00	8	casamassima	14.03	1	83.47	1	0.0	1	null	6	null	6	79.91	1	971.66	1	40.951419	16.919863
2058	2024-03-26 17:00:00	8	casamassima	13.64	1	86.45	1	0.6	1	null	6	null	6	36.41	1	971.66	1	40.951419	16.919863
2059	2024-03-26 18:00:00	8	casamassima	12.99	1	90.03	1	1.8	1	null	6	null	6	0.0	5	970.84	1	40.951419	16.919863
2060	2024-03-26 19:00:00	8	casamassima	12.8	1	90.86	1	0.4	1	null	6	null	6	0.0	5	971.43	1	40.951419	16.919863
2061	2024-03-26 20:00:00	8	casamassima	12.89	1	89.99	1	0.0	1	null	6	null	6	0.0	1	972.1	1	40.951419	16.919863
2062	2024-03-26 21:00:00	8	casamassima	12.57	1	89.7	1	0.0	1	null	6	null	6	0.0	1	972.66	1	40.951419	16.919863
2063	2024-03-26 22:00:00	8	casamassima	11.91	1	89.49	1	0.0	1	null	6	null	6	0.0	1	972.99	1	40.951419	16.919863
2064	2024-03-26 23:00:00	8	casamassima	11.54	1	88.64	1	0.0	1	null	6	null	6	0.0	1	973.37	1	40.951419	16.919863
2065	2024-03-27 00:00:00	8	casamassima	11.32	1	90.03	1	0.0	1	null	6	null	6	0.0	1	973.53	1	40.951419	16.919863
2066	2024-03-27 01:00:00	8	casamassima	11.15	1	89.73	1	0.0	1	null	6	null	6	0.0	1	973.28	1	40.951419	16.919863
2067	2024-03-27 02:00:00	8	casamassima	11.0	1	91.22	1	0.0	1	null	6	null	6	0.0	1	973.38	1	40.951419	16.919863
2068	2024-03-27 03:00:00	8	casamassima	10.78	1	92.21	1	0.0	1	null	6	null	6	0.0	1	973.16	1	40.951419	16.919863
2069	2024-03-27 04:00:00	8	casamassima	11.26	1	92.98	1	0.0	1	null	6	null	6	0.0	1	973.36	1	40.951419	16.919863
2070	2024-03-27 05:00:00	8	casamassima	11.55	1	92.67	1	0.0	1	null	6	null	6	0.0	1	973.26	1	40.951419	16.919863
2071	2024-03-27 06:00:00	8	casamassima	11.42	1	92.33	1	0.0	1	null	6	null	6	0.0	5	973.51	1	40.951419	16.919863
2072	2024-03-27 07:00:00	8	casamassima	11.92	1	90.82	1	0.0	1	null	6	null	6	58.46	1	973.23	1	40.951419	16.919863
2073	2024-03-27 08:00:00	8	casamassima	12.95	1	89.09	1	0.0	1	null	6	null	6	154.8	1	972.89	1	40.951419	16.919863
2074	2024-03-27 09:00:00	8	casamassima	15.13	1	81.37	1	0.0	1	null	6	null	6	384.14	1	972.53	1	40.951419	16.919863
2075	2024-03-27 10:00:00	8	casamassima	16.78	1	75.21	1	0.2	1	null	6	null	6	523.04	1	972.31	1	40.951419	16.919863
2076	2024-03-27 11:00:00	8	casamassima	16.77	1	75.25	1	0.0	1	null	6	null	6	620.17	1	972.31	1	40.951419	16.919863
2077	2024-03-27 12:00:00	8	casamassima	16.83	1	73.78	1	0.0	1	null	6	null	6	565.77	1	972.04	1	40.951419	16.919863
2078	2024-03-27 13:00:00	8	casamassima	17.04	1	73.23	1	0.0	1	null	6	null	6	624.44	1	971.27	1	40.951419	16.919863
2079	2024-03-27 14:00:00	8	casamassima	17.75	1	69.11	1	0.0	1	null	6	null	6	547.04	1	970.77	1	40.951419	16.919863
2080	2024-03-27 15:00:00	8	casamassima	17.81	1	69.58	1	0.0	1	null	6	null	6	365.2	1	970.06	1	40.951419	16.919863
2081	2024-03-27 16:00:00	8	casamassima	16.99	1	71.33	1	0.0	1	null	6	null	6	179.23	1	968.73	1	40.951419	16.919863
2082	2024-03-27 17:00:00	8	casamassima	16.73	1	71.42	1	0.0	1	null	6	null	6	171.34	1	967.99	1	40.951419	16.919863
2083	2024-03-27 18:00:00	8	casamassima	15.94	1	75.56	1	0.0	1	null	6	null	6	57.73	1	968.55	1	40.951419	16.919863
2084	2024-03-27 19:00:00	8	casamassima	13.41	1	80.73	1	0.0	1	null	6	null	6	0.0	5	971.17	1	40.951419	16.919863
2085	2024-03-27 20:00:00	8	casamassima	10.63	1	78.12	1	0.4	1	null	6	null	6	0.0	5	972.97	1	40.951419	16.919863
2086	2024-03-27 21:00:00	8	casamassima	10.53	1	72.14	1	0.2	1	null	6	null	6	0.0	5	973.3	1	40.951419	16.919863
2087	2024-03-27 22:00:00	8	casamassima	10.98	1	64.8	1	0.0	1	null	6	null	6	0.0	1	974.0	1	40.951419	16.919863
2088	2024-03-27 23:00:00	8	casamassima	11.11	1	61.61	1	0.0	1	null	6	null	6	0.0	1	975.32	1	40.951419	16.919863
2089	2024-03-28 00:00:00	8	casamassima	10.45	1	61.88	1	0.0	1	null	6	null	6	0.0	1	976.06	1	40.951419	16.919863
2090	2024-03-28 01:00:00	8	casamassima	10.16	1	60.5	1	0.0	1	null	6	null	6	0.0	1	977.76	1	40.951419	16.919863
2091	2024-03-28 02:00:00	8	casamassima	8.72	1	67.47	1	0.0	1	null	6	null	6	0.0	1	978.55	1	40.951419	16.919863
2092	2024-03-28 03:00:00	8	casamassima	7.66	1	70.43	1	0.0	1	null	6	null	6	0.0	1	978.81	1	40.951419	16.919863
2093	2024-03-28 04:00:00	8	casamassima	7.41	1	70.45	1	0.0	1	null	6	null	6	0.0	1	979.74	1	40.951419	16.919863
2094	2024-03-28 05:00:00	8	casamassima	6.77	1	72.58	1	0.0	1	null	6	null	6	0.0	1	980.54	1	40.951419	16.919863
2095	2024-03-28 06:00:00	8	casamassima	6.45	1	75.11	1	0.0	1	null	6	null	6	0.0	5	981.45	1	40.951419	16.919863
2096	2024-03-28 07:00:00	8	casamassima	8.51	1	71.41	1	0.0	1	null	6	null	6	101.35	1	982.22	1	40.951419	16.919863
2097	2024-03-28 08:00:00	8	casamassima	12.92	1	59.06	1	0.0	1	null	6	null	6	288.75	1	982.23	1	40.951419	16.919863
2098	2024-03-28 09:00:00	8	casamassima	15.82	1	50.57	1	0.0	1	null	6	null	6	405.54	1	982.78	1	40.951419	16.919863
2099	2024-03-28 10:00:00	8	casamassima	17.24	1	44.07	1	0.0	1	null	6	null	6	632.43	1	984.08	1	40.951419	16.919863
2100	2024-03-28 11:00:00	8	casamassima	18.23	1	42.45	1	0.0	1	null	6	null	6	769.81	1	984.46	1	40.951419	16.919863
2101	2024-03-28 12:00:00	8	casamassima	18.95	1	40.09	1	0.0	1	null	6	null	6	824.31	1	984.66	1	40.951419	16.919863
2102	2024-03-28 13:00:00	8	casamassima	19.69	1	39.92	1	0.0	1	null	6	null	6	812.38	1	984.57	1	40.951419	16.919863
2103	2024-03-28 14:00:00	8	casamassima	20.29	1	38.74	1	0.0	1	null	6	null	6	702.82	1	984.69	1	40.951419	16.919863
2104	2024-03-28 15:00:00	8	casamassima	20.39	1	39.05	1	0.0	1	null	6	null	6	579.58	1	984.79	1	40.951419	16.919863
2105	2024-03-28 16:00:00	8	casamassima	19.43	1	38.13	1	0.0	1	null	6	null	6	234.47	1	985.2	1	40.951419	16.919863
2106	2024-03-28 17:00:00	8	casamassima	18.19	1	41.55	1	0.0	1	null	6	null	6	97.08	1	985.59	1	40.951419	16.919863
2107	2024-03-28 18:00:00	8	casamassima	16.61	1	47.61	1	0.0	1	null	6	null	6	31.03	1	986.12	1	40.951419	16.919863
2108	2024-03-28 19:00:00	8	casamassima	15.09	1	54.31	1	0.0	1	null	6	null	6	0.0	5	986.51	1	40.951419	16.919863
2109	2024-03-28 20:00:00	8	casamassima	14.2	1	57.43	1	0.0	1	null	6	null	6	0.0	1	986.89	1	40.951419	16.919863
2110	2024-03-28 21:00:00	8	casamassima	13.04	1	60.95	1	0.0	1	null	6	null	6	0.0	1	987.79	1	40.951419	16.919863
2111	2024-03-28 22:00:00	8	casamassima	12.42	1	62.04	1	0.0	1	null	6	null	6	0.0	1	987.47	1	40.951419	16.919863
2112	2024-03-28 23:00:00	8	casamassima	11.46	1	65.69	1	0.0	1	null	6	null	6	0.0	1	987.72	1	40.951419	16.919863
2113	2024-03-29 00:00:00	8	casamassima	12.29	1	58.76	1	0.0	1	null	6	null	6	0.0	1	987.44	1	40.951419	16.919863
2114	2024-03-29 01:00:00	8	casamassima	12.55	1	57.65	1	0.0	1	null	6	null	6	0.0	1	987.93	1	40.951419	16.919863
2115	2024-03-29 02:00:00	8	casamassima	12.56	1	55.74	1	0.0	1	null	6	null	6	0.0	1	988.28	1	40.951419	16.919863
2116	2024-03-29 03:00:00	8	casamassima	11.51	1	63.0	1	0.0	1	null	6	null	6	0.0	1	988.31	1	40.951419	16.919863
2117	2024-03-29 04:00:00	8	casamassima	11.04	1	75.27	1	0.0	1	null	6	null	6	0.0	1	988.44	1	40.951419	16.919863
2118	2024-03-29 05:00:00	8	casamassima	11.18	1	77.86	1	0.0	1	null	6	null	6	0.0	1	988.93	1	40.951419	16.919863
2119	2024-03-29 06:00:00	8	casamassima	10.35	1	80.02	1	0.0	1	null	6	null	6	0.0	5	989.65	1	40.951419	16.919863
2120	2024-03-29 07:00:00	8	casamassima	11.89	1	74.86	1	0.0	1	null	6	null	6	107.68	1	990.06	1	40.951419	16.919863
2121	2024-03-29 08:00:00	8	casamassima	15.32	1	61.99	1	0.0	1	null	6	null	6	190.57	1	990.16	1	40.951419	16.919863
2122	2024-03-29 09:00:00	8	casamassima	18.42	1	49.35	1	0.0	1	null	6	null	6	411.48	1	990.44	1	40.951419	16.919863
2123	2024-03-29 10:00:00	8	casamassima	20.01	1	42.61	1	0.0	1	null	6	null	6	603.34	1	990.41	1	40.951419	16.919863
2124	2024-03-29 11:00:00	8	casamassima	19.96	1	43.34	1	0.0	1	null	6	null	6	434.34	1	990.07	1	40.951419	16.919863
2125	2024-03-29 12:00:00	8	casamassima	20.49	1	42.68	1	0.0	1	null	6	null	6	637.99	1	989.68	1	40.951419	16.919863
2126	2024-03-29 13:00:00	8	casamassima	22.06	1	39.87	1	0.0	1	null	6	null	6	856.66	1	989.14	1	40.951419	16.919863
2127	2024-03-29 14:00:00	8	casamassima	23.0	1	37.91	1	0.0	1	null	6	null	6	767.83	1	988.43	1	40.951419	16.919863
2128	2024-03-29 15:00:00	8	casamassima	21.81	1	40.45	1	0.0	1	null	6	null	6	661.61	1	988.15	1	40.951419	16.919863
2129	2024-03-29 16:00:00	8	casamassima	20.34	1	39.49	1	0.0	1	null	6	null	6	265.23	1	987.8	1	40.951419	16.919863
2130	2024-03-29 17:00:00	8	casamassima	18.87	1	40.22	1	0.0	1	null	6	null	6	62.05	1	987.66	1	40.951419	16.919863
2131	2024-03-29 18:00:00	8	casamassima	16.91	1	51.59	1	0.0	1	null	6	null	6	29.42	1	987.76	1	40.951419	16.919863
2132	2024-03-29 19:00:00	8	casamassima	14.62	1	60.1	1	0.0	1	null	6	null	6	0.0	5	987.9	1	40.951419	16.919863
2133	2024-03-29 20:00:00	8	casamassima	13.52	1	67.83	1	0.0	1	null	6	null	6	0.0	1	988.0	1	40.951419	16.919863
2134	2024-03-29 21:00:00	8	casamassima	12.9	1	69.61	1	0.0	1	null	6	null	6	0.0	1	987.89	1	40.951419	16.919863
2135	2024-03-29 22:00:00	8	casamassima	12.36	1	71.32	1	0.0	1	null	6	null	6	0.0	1	987.42	1	40.951419	16.919863
2136	2024-03-29 23:00:00	8	casamassima	12.09	1	72.7	1	0.0	1	null	6	null	6	0.0	1	987.28	1	40.951419	16.919863
2137	2024-03-30 00:00:00	8	casamassima	11.76	1	76.33	1	0.0	1	null	6	null	6	0.0	1	987.05	1	40.951419	16.919863
2138	2024-03-30 01:00:00	8	casamassima	11.35	1	79.01	1	0.0	1	null	6	null	6	0.0	1	986.78	1	40.951419	16.919863
2139	2024-03-30 02:00:00	8	casamassima	11.29	1	87.74	1	0.0	1	null	6	null	6	0.0	1	986.25	1	40.951419	16.919863
2140	2024-03-30 03:00:00	8	casamassima	11.14	1	89.15	1	0.0	1	null	6	null	6	0.0	1	985.79	1	40.951419	16.919863
2141	2024-03-30 04:00:00	8	casamassima	11.37	1	87.93	1	0.0	1	null	6	null	6	0.0	1	985.73	1	40.951419	16.919863
2142	2024-03-30 05:00:00	8	casamassima	12.1	1	86.7	1	0.0	1	null	6	null	6	0.0	1	985.46	1	40.951419	16.919863
2143	2024-03-30 06:00:00	8	casamassima	12.17	1	84.67	1	0.0	1	null	6	null	6	0.0	5	985.12	1	40.951419	16.919863
2144	2024-03-30 07:00:00	8	casamassima	13.08	1	79.63	1	0.0	1	null	6	null	6	99.34	1	984.96	1	40.951419	16.919863
2145	2024-03-30 08:00:00	8	casamassima	14.58	1	72.73	1	0.0	1	null	6	null	6	281.09	1	984.79	1	40.951419	16.919863
2146	2024-03-30 09:00:00	8	casamassima	15.83	1	65.37	1	0.0	1	null	6	null	6	457.93	1	985.01	1	40.951419	16.919863
2147	2024-03-30 10:00:00	8	casamassima	17.03	1	60.0	1	0.0	1	null	6	null	6	642.09	1	984.85	1	40.951419	16.919863
2148	2024-03-30 11:00:00	8	casamassima	17.45	1	53.1	1	0.0	1	null	6	null	6	741.26	1	984.51	1	40.951419	16.919863
2149	2024-03-30 12:00:00	8	casamassima	17.92	1	51.53	1	0.0	1	null	6	null	6	767.12	1	984.25	1	40.951419	16.919863
2150	2024-03-30 13:00:00	8	casamassima	18.33	1	45.78	1	0.0	1	null	6	null	6	677.25	1	983.82	1	40.951419	16.919863
2151	2024-03-30 14:00:00	8	casamassima	18.45	1	42.46	1	0.0	1	null	6	null	6	618.51	1	983.4	1	40.951419	16.919863
2152	2024-03-30 15:00:00	8	casamassima	17.97	1	39.98	1	0.0	1	null	6	null	6	474.52	1	983.35	1	40.951419	16.919863
2153	2024-03-30 16:00:00	8	casamassima	17.42	1	38.16	1	0.0	1	null	6	null	6	290.62	1	983.19	1	40.951419	16.919863
2154	2024-03-30 17:00:00	8	casamassima	16.59	1	40.39	1	0.0	1	null	6	null	6	147.14	1	983.35	1	40.951419	16.919863
2155	2024-03-30 18:00:00	8	casamassima	15.7	1	43.94	1	0.0	1	null	6	null	6	45.96	1	983.56	1	40.951419	16.919863
2156	2024-03-30 19:00:00	8	casamassima	14.98	1	46.85	1	0.0	1	null	6	null	6	0.0	5	983.63	1	40.951419	16.919863
2157	2024-03-30 20:00:00	8	casamassima	14.46	1	52.51	1	0.0	1	null	6	null	6	0.0	1	984.03	1	40.951419	16.919863
2158	2024-03-30 21:00:00	8	casamassima	14.11	1	55.94	1	0.0	1	null	6	null	6	0.0	1	984.27	1	40.951419	16.919863
2159	2024-03-30 22:00:00	8	casamassima	13.8	1	63.04	1	0.0	1	null	6	null	6	0.0	1	984.21	1	40.951419	16.919863
2160	2024-03-30 23:00:00	8	casamassima	13.96	1	63.44	1	0.0	1	null	6	null	6	0.0	1	984.4	1	40.951419	16.919863
2161	2024-03-31 00:00:00	8	casamassima	14.33	1	61.58	1	0.0	1	null	6	null	6	0.0	1	984.51	1	40.951419	16.919863
2162	2024-03-31 01:00:00	8	casamassima	14.37	1	63.58	1	0.0	1	null	6	null	6	0.0	1	984.44	1	40.951419	16.919863
2163	2024-03-31 03:00:00	8	casamassima	14.62	1	62.3	1	0.0	1	null	6	null	6	0.0	1	983.86	1	40.951419	16.919863
2164	2024-03-31 03:00:00	8	casamassima	14.25	1	68.53	1	0.0	1	null	6	null	6	0.0	1	983.8	1	40.951419	16.919863
2165	2024-03-31 04:00:00	8	casamassima	13.59	1	78.8	1	0.0	1	null	6	null	6	0.0	1	983.76	1	40.951419	16.919863
2166	2024-03-31 05:00:00	8	casamassima	13.6	1	79.59	1	0.0	1	null	6	null	6	0.0	1	983.75	1	40.951419	16.919863
2167	2024-03-31 06:00:00	8	casamassima	13.62	1	80.42	1	0.0	1	null	6	null	6	0.0	5	983.91	1	40.951419	16.919863
2168	2024-03-31 07:00:00	8	casamassima	13.82	1	80.07	1	0.0	1	null	6	null	6	35.54	1	984.07	1	40.951419	16.919863
2169	2024-03-31 08:00:00	8	casamassima	14.8	1	76.03	1	0.0	1	null	6	null	6	204.68	1	984.58	1	40.951419	16.919863
2170	2024-03-31 09:00:00	8	casamassima	16.15	1	70.53	1	0.0	1	null	6	null	6	384.42	1	984.93	1	40.951419	16.919863
2171	2024-03-31 10:00:00	8	casamassima	16.98	1	66.95	1	0.0	1	null	6	null	6	519.49	1	985.26	1	40.951419	16.919863
2172	2024-03-31 11:00:00	8	casamassima	17.22	1	66.24	1	0.0	1	null	6	null	6	555.19	1	985.34	1	40.951419	16.919863
2173	2024-03-31 12:00:00	8	casamassima	17.16	1	66.44	1	0.0	1	null	6	null	6	542.08	1	985.34	1	40.951419	16.919863
2174	2024-03-31 13:00:00	8	casamassima	16.99	1	68.1	1	0.0	1	null	6	null	6	382.84	1	985.25	1	40.951419	16.919863
2175	2024-03-31 14:00:00	8	casamassima	16.86	1	69.15	1	0.0	1	null	6	null	6	336.55	1	984.53	1	40.951419	16.919863
2176	2024-03-31 15:00:00	8	casamassima	17.2	1	69.62	1	0.0	1	null	6	null	6	465.95	1	984.33	1	40.951419	16.919863
2177	2024-03-31 16:00:00	8	casamassima	16.81	1	72.27	1	0.0	1	null	6	null	6	265.8	1	984.7	1	40.951419	16.919863
2178	2024-03-31 17:00:00	8	casamassima	16.0	1	75.93	1	0.0	1	null	6	null	6	116.93	1	984.76	1	40.951419	16.919863
2179	2024-03-31 18:00:00	8	casamassima	15.43	1	78.57	1	0.0	1	null	6	null	6	29.2	1	985.0	1	40.951419	16.919863
2180	2024-03-31 19:00:00	8	casamassima	14.92	1	81.46	1	0.0	1	null	6	null	6	0.0	5	985.4	1	40.951419	16.919863
2181	2024-03-31 20:00:00	8	casamassima	14.68	1	82.33	1	0.0	1	null	6	null	6	0.0	1	985.89	1	40.951419	16.919863
2182	2024-03-31 21:00:00	8	casamassima	14.26	1	83.62	1	0.0	1	null	6	null	6	0.0	1	986.57	1	40.951419	16.919863
2183	2024-03-31 22:00:00	8	casamassima	13.95	1	85.16	1	0.0	1	null	6	null	6	0.0	1	986.66	1	40.951419	16.919863
2184	2024-03-31 23:00:00	8	casamassima	13.84	1	85.97	1	0.0	1	null	6	null	6	0.0	1	986.67	1	40.951419	16.919863
2185	2024-04-01 00:00:00	8	casamassima	13.75	1	86.31	1	0.0	1	null	6	null	6	0.0	1	986.46	1	40.951419	16.919863
2186	2024-04-01 01:00:00	8	casamassima	13.49	1	86.91	1	0.0	1	null	6	null	6	0.0	1	986.2	1	40.951419	16.919863
2187	2024-04-01 02:00:00	8	casamassima	13.34	1	87.41	1	0.0	1	null	6	null	6	0.0	1	985.7	1	40.951419	16.919863
2188	2024-04-01 03:00:00	8	casamassima	13.37	1	86.87	1	0.0	1	null	6	null	6	0.0	1	985.02	1	40.951419	16.919863
2189	2024-04-01 04:00:00	8	casamassima	13.39	1	86.42	1	0.0	1	null	6	null	6	0.0	1	984.48	1	40.951419	16.919863
2190	2024-04-01 05:00:00	8	casamassima	13.35	1	86.19	1	0.0	1	null	6	null	6	0.0	1	984.46	1	40.951419	16.919863
2191	2024-04-01 06:00:00	8	casamassima	13.61	1	84.77	1	0.0	1	null	6	null	6	6.34	1	984.47	1	40.951419	16.919863
2192	2024-04-01 07:00:00	8	casamassima	14.17	1	83.41	1	0.0	1	null	6	null	6	88.29	1	984.77	1	40.951419	16.919863
2193	2024-04-01 08:00:00	8	casamassima	14.76	1	80.15	1	0.0	1	null	6	null	6	187.3	1	984.79	1	40.951419	16.919863
2194	2024-04-01 09:00:00	8	casamassima	15.55	1	77.76	1	0.0	1	null	6	null	6	370.62	1	984.52	1	40.951419	16.919863
2195	2024-04-01 10:00:00	8	casamassima	16.46	1	74.23	1	0.0	1	null	6	null	6	476.12	1	984.49	1	40.951419	16.919863
2196	2024-04-01 11:00:00	8	casamassima	16.88	1	72.94	1	0.0	1	null	6	null	6	532.7	1	984.25	1	40.951419	16.919863
2197	2024-04-01 12:00:00	8	casamassima	17.76	1	69.45	1	0.0	1	null	6	null	6	643.44	1	983.27	1	40.951419	16.919863
2198	2024-04-01 13:00:00	8	casamassima	18.08	1	67.53	1	0.0	1	null	6	null	6	511.4	1	982.58	1	40.951419	16.919863
2199	2024-04-01 14:00:00	8	casamassima	18.82	1	63.83	1	0.0	1	null	6	null	6	469.18	1	982.52	1	40.951419	16.919863
2200	2024-04-01 15:00:00	8	casamassima	19.21	1	63.58	1	0.0	1	null	6	null	6	453.09	1	982.3	1	40.951419	16.919863
2201	2024-04-01 16:00:00	8	casamassima	19.41	1	64.04	1	0.0	1	null	6	null	6	364.64	1	981.85	1	40.951419	16.919863
2202	2024-04-01 17:00:00	8	casamassima	18.05	1	67.51	1	0.0	1	null	6	null	6	144.46	1	981.35	1	40.951419	16.919863
2203	2024-04-01 18:00:00	8	casamassima	16.76	1	71.73	1	0.0	1	null	6	null	6	52.06	1	980.86	1	40.951419	16.919863
2204	2024-04-01 19:00:00	8	casamassima	15.62	1	75.7	1	0.0	1	null	6	null	6	0.0	5	980.21	1	40.951419	16.919863
2205	2024-04-01 20:00:00	8	casamassima	14.8	1	79.8	1	0.0	1	null	6	null	6	0.0	1	981.55	1	40.951419	16.919863
2206	2024-04-01 21:00:00	8	casamassima	14.21	1	84.13	1	0.0	1	null	6	null	6	0.0	1	983.25	1	40.951419	16.919863
2207	2024-04-01 22:00:00	8	casamassima	13.8	1	77.42	1	0.0	1	null	6	null	6	0.0	1	984.71	1	40.951419	16.919863
2208	2024-04-01 23:00:00	8	casamassima	13.62	1	59.66	1	0.0	1	null	6	null	6	0.0	1	985.89	1	40.951419	16.919863
2209	2024-04-02 00:00:00	8	casamassima	13.41	1	58.04	1	0.0	1	null	6	null	6	0.0	1	985.81	1	40.951419	16.919863
2210	2024-04-02 01:00:00	8	casamassima	13.91	1	56.66	1	0.0	1	null	6	null	6	0.0	1	985.48	1	40.951419	16.919863
2211	2024-04-02 02:00:00	8	casamassima	13.93	1	54.56	1	0.0	1	null	6	null	6	0.0	1	986.44	1	40.951419	16.919863
2212	2024-04-02 03:00:00	8	casamassima	12.53	1	59.08	1	0.0	1	null	6	null	6	0.0	1	987.7	1	40.951419	16.919863
2213	2024-04-02 04:00:00	8	casamassima	11.59	1	60.75	1	0.0	1	null	6	null	6	0.0	1	988.17	1	40.951419	16.919863
2214	2024-04-02 05:00:00	8	casamassima	10.7	1	65.72	1	0.0	1	null	6	null	6	0.0	1	988.72	1	40.951419	16.919863
2215	2024-04-02 06:00:00	8	casamassima	9.97	1	68.96	1	0.0	1	null	6	null	6	0.0	5	989.11	1	40.951419	16.919863
2216	2024-04-02 07:00:00	8	casamassima	10.5	1	66.82	1	0.0	1	null	6	null	6	76.4	1	989.06	1	40.951419	16.919863
2217	2024-04-02 08:00:00	8	casamassima	13.78	1	55.08	1	0.0	1	null	6	null	6	231.11	1	989.25	1	40.951419	16.919863
2218	2024-04-02 09:00:00	8	casamassima	15.99	1	48.93	1	0.0	1	null	6	null	6	382.73	1	989.47	1	40.951419	16.919863
2219	2024-04-02 10:00:00	8	casamassima	17.56	1	41.29	1	0.0	1	null	6	null	6	590.5	1	989.71	1	40.951419	16.919863
2220	2024-04-02 11:00:00	8	casamassima	19.25	1	33.99	1	0.0	1	null	6	null	6	799.8	1	989.52	1	40.951419	16.919863
2221	2024-04-02 12:00:00	8	casamassima	20.38	1	31.34	1	0.0	1	null	6	null	6	932.69	1	989.17	1	40.951419	16.919863
2222	2024-04-02 13:00:00	8	casamassima	21.08	1	27.55	1	0.0	1	null	6	null	6	880.86	1	988.72	1	40.951419	16.919863
2223	2024-04-02 14:00:00	8	casamassima	19.12	1	35.83	1	0.0	1	null	6	null	6	748.06	1	988.69	1	40.951419	16.919863
2224	2024-04-02 15:00:00	8	casamassima	18.51	1	37.62	1	0.0	1	null	6	null	6	557.86	1	988.7	1	40.951419	16.919863
2225	2024-04-02 16:00:00	8	casamassima	18.21	1	37.86	1	0.0	1	null	6	null	6	251.86	1	988.67	1	40.951419	16.919863
2226	2024-04-02 17:00:00	8	casamassima	17.11	1	39.95	1	0.0	1	null	6	null	6	98.24	1	989.01	1	40.951419	16.919863
2227	2024-04-02 18:00:00	8	casamassima	15.89	1	43.45	1	0.0	1	null	6	null	6	35.5	1	989.39	1	40.951419	16.919863
2228	2024-04-02 19:00:00	8	casamassima	13.93	1	52.08	1	0.0	1	null	6	null	6	0.0	5	989.83	1	40.951419	16.919863
2229	2024-04-02 20:00:00	8	casamassima	12.15	1	57.62	1	0.0	1	null	6	null	6	0.0	1	990.54	1	40.951419	16.919863
2230	2024-04-02 21:00:00	8	casamassima	11.08	1	59.83	1	0.0	1	null	6	null	6	0.0	1	991.0	1	40.951419	16.919863
2231	2024-04-02 22:00:00	8	casamassima	10.1	1	66.44	1	0.0	1	null	6	null	6	0.0	1	991.14	1	40.951419	16.919863
2232	2024-04-02 23:00:00	8	casamassima	9.56	1	69.06	1	0.0	1	null	6	null	6	0.0	1	991.54	1	40.951419	16.919863
2233	2024-04-03 00:00:00	8	casamassima	9.18	1	69.62	1	0.0	1	null	6	null	6	0.0	1	991.74	1	40.951419	16.919863
2234	2024-04-03 01:00:00	8	casamassima	8.46	1	72.51	1	0.0	1	null	6	null	6	0.0	1	991.67	1	40.951419	16.919863
2235	2024-04-03 02:00:00	8	casamassima	7.71	1	75.54	1	0.0	1	null	6	null	6	0.0	1	991.41	1	40.951419	16.919863
2236	2024-04-03 03:00:00	8	casamassima	6.94	1	78.16	1	0.0	1	null	6	null	6	0.0	1	991.12	1	40.951419	16.919863
2237	2024-04-03 04:00:00	8	casamassima	6.37	1	80.24	1	0.0	1	null	6	null	6	0.0	1	990.76	1	40.951419	16.919863
2238	2024-04-03 05:00:00	8	casamassima	6.4	1	79.21	1	0.0	1	null	6	null	6	0.0	1	990.56	1	40.951419	16.919863
2239	2024-04-03 06:00:00	8	casamassima	6.92	1	77.71	1	0.0	1	null	6	null	6	8.53	1	990.47	1	40.951419	16.919863
2240	2024-04-03 07:00:00	8	casamassima	9.52	1	70.62	1	0.0	1	null	6	null	6	115.26	1	990.7	1	40.951419	16.919863
2241	2024-04-03 08:00:00	8	casamassima	15.26	1	54.4	1	0.0	1	null	6	null	6	295.05	1	990.62	1	40.951419	16.919863
2242	2024-04-03 09:00:00	8	casamassima	17.68	1	41.39	1	0.0	1	null	6	null	6	481.72	1	990.82	1	40.951419	16.919863
2243	2024-04-03 10:00:00	8	casamassima	17.93	1	40.35	1	0.0	1	null	6	null	6	668.29	1	990.77	1	40.951419	16.919863
2244	2024-04-03 11:00:00	8	casamassima	19.15	1	36.93	1	0.0	1	null	6	null	6	718.96	1	990.64	1	40.951419	16.919863
2245	2024-04-03 12:00:00	8	casamassima	19.89	1	34.78	1	0.0	1	null	6	null	6	790.77	1	990.54	1	40.951419	16.919863
2246	2024-04-03 13:00:00	8	casamassima	19.8	1	36.4	1	0.0	1	null	6	null	6	714.35	1	990.26	1	40.951419	16.919863
2247	2024-04-03 14:00:00	8	casamassima	19.36	1	34.41	1	0.0	1	null	6	null	6	495.15	1	989.83	1	40.951419	16.919863
2248	2024-04-03 15:00:00	8	casamassima	18.57	1	35.35	1	0.0	1	null	6	null	6	177.92	1	989.49	1	40.951419	16.919863
2249	2024-04-03 16:00:00	8	casamassima	17.71	1	37.12	1	0.0	1	null	6	null	6	140.74	1	989.32	1	40.951419	16.919863
2250	2024-04-03 17:00:00	8	casamassima	17.07	1	39.53	1	0.0	1	null	6	null	6	96.44	1	989.23	1	40.951419	16.919863
2251	2024-04-03 18:00:00	8	casamassima	16.42	1	42.67	1	0.0	1	null	6	null	6	47.78	1	989.39	1	40.951419	16.919863
2252	2024-04-03 19:00:00	8	casamassima	14.36	1	50.63	1	0.0	1	null	6	null	6	0.0	5	989.78	1	40.951419	16.919863
2253	2024-04-03 20:00:00	8	casamassima	12.92	1	55.96	1	0.0	1	null	6	null	6	0.0	1	990.33	1	40.951419	16.919863
2254	2024-04-03 21:00:00	8	casamassima	11.35	1	62.51	1	0.0	1	null	6	null	6	0.0	1	990.66	1	40.951419	16.919863
2255	2024-04-03 22:00:00	8	casamassima	10.4	1	64.35	1	0.0	1	null	6	null	6	0.0	1	990.77	1	40.951419	16.919863
2256	2024-04-03 23:00:00	8	casamassima	9.9	1	67.98	1	0.0	1	null	6	null	6	0.0	1	991.01	1	40.951419	16.919863
2257	2024-04-04 00:00:00	8	casamassima	9.93	1	67.73	1	0.0	1	null	6	null	6	0.0	1	990.97	1	40.951419	16.919863
2258	2024-04-04 01:00:00	8	casamassima	9.71	1	63.4	1	0.0	1	null	6	null	6	0.0	1	990.87	1	40.951419	16.919863
2259	2024-04-04 02:00:00	8	casamassima	9.83	1	58.88	1	0.0	1	null	6	null	6	0.0	1	990.7	1	40.951419	16.919863
2260	2024-04-04 03:00:00	8	casamassima	9.06	1	60.9	1	0.0	1	null	6	null	6	0.0	1	990.81	1	40.951419	16.919863
2261	2024-04-04 04:00:00	8	casamassima	8.44	1	64.09	1	0.0	1	null	6	null	6	0.0	1	991.0	1	40.951419	16.919863
2262	2024-04-04 05:00:00	8	casamassima	8.61	1	65.6	1	0.0	1	null	6	null	6	0.0	1	991.16	1	40.951419	16.919863
2263	2024-04-04 06:00:00	8	casamassima	8.79	1	67.21	1	0.0	1	null	6	null	6	10.41	1	991.37	1	40.951419	16.919863
2264	2024-04-04 07:00:00	8	casamassima	13.06	1	55.4	1	0.0	1	null	6	null	6	127.66	1	991.87	1	40.951419	16.919863
2265	2024-04-04 08:00:00	8	casamassima	15.18	1	47.7	1	0.0	1	null	6	null	6	307.76	1	992.41	1	40.951419	16.919863
2266	2024-04-04 09:00:00	8	casamassima	15.97	1	45.85	1	0.0	1	null	6	null	6	482.45	1	992.97	1	40.951419	16.919863
2267	2024-04-04 10:00:00	8	casamassima	17.18	1	41.98	1	0.0	1	null	6	null	6	676.35	1	993.17	1	40.951419	16.919863
2268	2024-04-04 11:00:00	8	casamassima	17.85	1	38.94	1	0.0	1	null	6	null	6	799.0	1	993.26	1	40.951419	16.919863
2269	2024-04-04 12:00:00	8	casamassima	18.43	1	36.78	1	0.0	1	null	6	null	6	914.4	1	993.36	1	40.951419	16.919863
2270	2024-04-04 13:00:00	8	casamassima	18.94	1	36.08	1	0.0	1	null	6	null	6	897.07	1	993.12	1	40.951419	16.919863
2271	2024-04-04 14:00:00	8	casamassima	19.37	1	35.21	1	0.0	1	null	6	null	6	801.6	1	992.76	1	40.951419	16.919863
2272	2024-04-04 15:00:00	8	casamassima	19.07	1	35.91	1	0.0	1	null	6	null	6	692.52	1	992.5	1	40.951419	16.919863
2273	2024-04-04 16:00:00	8	casamassima	18.44	1	38.93	1	0.0	1	null	6	null	6	301.18	1	992.4	1	40.951419	16.919863
2274	2024-04-04 17:00:00	8	casamassima	17.16	1	42.44	1	0.0	1	null	6	null	6	61.62	1	992.74	1	40.951419	16.919863
2275	2024-04-04 18:00:00	8	casamassima	16.0	1	46.25	1	0.0	1	null	6	null	6	25.15	1	993.02	1	40.951419	16.919863
2276	2024-04-04 19:00:00	8	casamassima	14.88	1	50.82	1	0.0	1	null	6	null	6	0.0	5	993.05	1	40.951419	16.919863
2277	2024-04-04 20:00:00	8	casamassima	12.93	1	57.21	1	0.0	1	null	6	null	6	0.0	1	993.65	1	40.951419	16.919863
2278	2024-04-04 21:00:00	8	casamassima	11.45	1	62.55	1	0.0	1	null	6	null	6	0.0	1	994.11	1	40.951419	16.919863
2279	2024-04-04 22:00:00	8	casamassima	10.67	1	64.24	1	0.0	1	null	6	null	6	0.0	1	994.31	1	40.951419	16.919863
2280	2024-04-04 23:00:00	8	casamassima	10.33	1	64.21	1	0.0	1	null	6	null	6	0.0	1	994.52	1	40.951419	16.919863
2281	2024-04-05 00:00:00	8	casamassima	10.02	1	64.38	1	0.0	1	null	6	null	6	0.0	1	994.53	1	40.951419	16.919863
2282	2024-04-05 01:00:00	8	casamassima	9.39	1	65.46	1	0.0	1	null	6	null	6	0.0	1	994.25	1	40.951419	16.919863
2283	2024-04-05 02:00:00	8	casamassima	8.76	1	67.84	1	0.0	1	null	6	null	6	0.0	1	994.47	1	40.951419	16.919863
2284	2024-04-05 03:00:00	8	casamassima	8.41	1	71.54	1	0.0	1	null	6	null	6	0.0	1	994.4	1	40.951419	16.919863
2285	2024-04-05 04:00:00	8	casamassima	8.2	1	75.31	1	0.0	1	null	6	null	6	0.0	1	994.44	1	40.951419	16.919863
2286	2024-04-05 05:00:00	8	casamassima	8.33	1	73.67	1	0.0	1	null	6	null	6	0.0	1	994.53	1	40.951419	16.919863
2287	2024-04-05 06:00:00	8	casamassima	7.98	1	73.18	1	0.0	1	null	6	null	6	12.63	1	995.07	1	40.951419	16.919863
2288	2024-04-05 07:00:00	8	casamassima	12.67	1	59.0	1	0.0	1	null	6	null	6	130.17	1	995.74	1	40.951419	16.919863
2289	2024-04-05 08:00:00	8	casamassima	16.85	1	47.43	1	0.0	1	null	6	null	6	298.7	1	995.99	1	40.951419	16.919863
2290	2024-04-05 09:00:00	8	casamassima	17.07	1	45.24	1	0.0	1	null	6	null	6	483.34	1	996.42	1	40.951419	16.919863
2291	2024-04-05 10:00:00	8	casamassima	18.23	1	43.36	1	0.0	1	null	6	null	6	655.2	1	996.6	1	40.951419	16.919863
2292	2024-04-05 11:00:00	8	casamassima	19.39	1	38.73	1	0.0	1	null	6	null	6	778.9	1	996.61	1	40.951419	16.919863
2293	2024-04-05 12:00:00	8	casamassima	19.99	1	34.18	1	0.0	1	null	6	null	6	897.11	1	996.38	1	40.951419	16.919863
2294	2024-04-05 13:00:00	8	casamassima	20.0	1	34.52	1	0.0	1	null	6	null	6	880.31	1	996.28	1	40.951419	16.919863
2295	2024-04-05 14:00:00	8	casamassima	20.09	1	34.09	1	0.0	1	null	6	null	6	706.5	1	996.07	1	40.951419	16.919863
2296	2024-04-05 15:00:00	8	casamassima	19.41	1	36.82	1	0.0	1	null	6	null	6	523.23	1	995.86	1	40.951419	16.919863
2297	2024-04-05 16:00:00	8	casamassima	19.14	1	38.4	1	0.0	1	null	6	null	6	288.0	1	995.52	1	40.951419	16.919863
2298	2024-04-05 17:00:00	8	casamassima	18.27	1	40.53	1	0.0	1	null	6	null	6	72.18	1	995.63	1	40.951419	16.919863
2299	2024-04-05 18:00:00	8	casamassima	17.36	1	40.85	1	0.0	1	null	6	null	6	25.84	1	995.82	1	40.951419	16.919863
2300	2024-04-05 19:00:00	8	casamassima	15.94	1	44.57	1	0.0	1	null	6	null	6	0.0	5	995.87	1	40.951419	16.919863
2301	2024-04-05 20:00:00	8	casamassima	14.05	1	51.54	1	0.0	1	null	6	null	6	0.0	1	996.18	1	40.951419	16.919863
2302	2024-04-05 21:00:00	8	casamassima	11.9	1	59.6	1	0.0	1	null	6	null	6	0.0	1	996.44	1	40.951419	16.919863
2303	2024-04-05 22:00:00	8	casamassima	11.12	1	62.87	1	0.0	1	null	6	null	6	0.0	1	996.41	1	40.951419	16.919863
2304	2024-04-05 23:00:00	8	casamassima	11.23	1	63.57	1	0.0	1	null	6	null	6	0.0	1	996.17	1	40.951419	16.919863
2305	2024-04-06 00:00:00	8	casamassima	11.36	1	62.69	1	0.0	1	null	6	null	6	0.0	1	996.15	1	40.951419	16.919863
2306	2024-04-06 01:00:00	8	casamassima	11.45	1	62.49	1	0.0	1	null	6	null	6	0.0	1	996.04	1	40.951419	16.919863
2307	2024-04-06 02:00:00	8	casamassima	11.12	1	63.83	1	0.0	1	null	6	null	6	0.0	1	995.86	1	40.951419	16.919863
2308	2024-04-06 03:00:00	8	casamassima	10.7	1	65.05	1	0.0	1	null	6	null	6	0.0	1	995.64	1	40.951419	16.919863
2309	2024-04-06 04:00:00	8	casamassima	9.95	1	65.58	1	0.0	1	null	6	null	6	0.0	1	995.51	1	40.951419	16.919863
2310	2024-04-06 05:00:00	8	casamassima	9.87	1	65.32	1	0.0	1	null	6	null	6	0.0	1	995.82	1	40.951419	16.919863
2311	2024-04-06 06:00:00	8	casamassima	9.26	1	68.22	1	0.0	1	null	6	null	6	16.73	1	996.1	1	40.951419	16.919863
2312	2024-04-06 07:00:00	8	casamassima	12.71	1	60.51	1	0.0	1	null	6	null	6	142.31	1	996.53	1	40.951419	16.919863
2313	2024-04-06 08:00:00	8	casamassima	16.13	1	55.75	1	0.0	1	null	6	null	6	288.27	1	996.76	1	40.951419	16.919863
2314	2024-04-06 09:00:00	8	casamassima	17.63	1	49.89	1	0.0	1	null	6	null	6	455.45	1	996.82	1	40.951419	16.919863
2315	2024-04-06 10:00:00	8	casamassima	18.98	1	43.86	1	0.0	1	null	6	null	6	660.91	1	996.89	1	40.951419	16.919863
2316	2024-04-06 11:00:00	8	casamassima	19.81	1	43.66	1	0.0	1	null	6	null	6	772.73	1	996.76	1	40.951419	16.919863
2317	2024-04-06 12:00:00	8	casamassima	20.29	1	40.55	1	0.0	1	null	6	null	6	727.75	1	996.46	1	40.951419	16.919863
2318	2024-04-06 13:00:00	8	casamassima	20.76	1	37.61	1	0.0	1	null	6	null	6	732.0	1	996.0	1	40.951419	16.919863
2319	2024-04-06 14:00:00	8	casamassima	21.64	1	34.0	1	0.0	1	null	6	null	6	722.14	1	995.4	1	40.951419	16.919863
2320	2024-04-06 15:00:00	8	casamassima	21.51	1	33.9	1	0.0	1	null	6	null	6	652.92	1	994.97	1	40.951419	16.919863
2321	2024-04-06 16:00:00	8	casamassima	21.47	1	33.37	1	0.0	1	null	6	null	6	361.28	1	994.68	1	40.951419	16.919863
2322	2024-04-06 17:00:00	8	casamassima	20.0	1	34.99	1	0.0	1	null	6	null	6	56.32	1	994.48	1	40.951419	16.919863
2323	2024-04-06 18:00:00	8	casamassima	18.97	1	37.1	1	0.0	1	null	6	null	6	24.48	1	994.56	1	40.951419	16.919863
2324	2024-04-06 19:00:00	8	casamassima	17.33	1	40.94	1	0.0	1	null	6	null	6	0.0	5	994.76	1	40.951419	16.919863
2325	2024-04-06 20:00:00	8	casamassima	14.6	1	51.47	1	0.0	1	null	6	null	6	0.0	1	995.01	1	40.951419	16.919863
2326	2024-04-06 21:00:00	8	casamassima	12.31	1	59.37	1	0.0	1	null	6	null	6	0.0	1	995.33	1	40.951419	16.919863
2327	2024-04-06 22:00:00	8	casamassima	11.18	1	64.2	1	0.0	1	null	6	null	6	0.0	1	995.18	1	40.951419	16.919863
2328	2024-04-06 23:00:00	8	casamassima	10.72	1	65.67	1	0.0	1	null	6	null	6	0.0	1	994.94	1	40.951419	16.919863
2329	2024-04-07 00:00:00	8	casamassima	10.52	1	66.16	1	0.0	1	null	6	null	6	0.0	1	994.74	1	40.951419	16.919863
2330	2024-04-07 01:00:00	8	casamassima	10.33	1	67.35	1	0.0	1	null	6	null	6	0.0	1	994.71	1	40.951419	16.919863
2331	2024-04-07 02:00:00	8	casamassima	9.9	1	70.1	1	0.0	1	null	6	null	6	0.0	1	994.24	1	40.951419	16.919863
2332	2024-04-07 03:00:00	8	casamassima	9.89	1	71.06	1	0.0	1	null	6	null	6	0.0	1	993.91	1	40.951419	16.919863
2333	2024-04-07 04:00:00	8	casamassima	10.03	1	70.59	1	0.0	1	null	6	null	6	0.0	1	993.47	1	40.951419	16.919863
2334	2024-04-07 05:00:00	8	casamassima	10.25	1	75.57	1	0.0	1	null	6	null	6	0.0	1	993.36	1	40.951419	16.919863
2335	2024-04-07 06:00:00	8	casamassima	10.16	1	77.23	1	0.0	1	null	6	null	6	14.77	1	993.58	1	40.951419	16.919863
2336	2024-04-07 07:00:00	8	casamassima	14.21	1	64.09	1	0.0	1	null	6	null	6	140.22	1	993.72	1	40.951419	16.919863
2337	2024-04-07 08:00:00	8	casamassima	17.07	1	55.72	1	0.0	1	null	6	null	6	318.08	1	993.69	1	40.951419	16.919863
2338	2024-04-07 09:00:00	8	casamassima	19.16	1	44.5	1	0.0	1	null	6	null	6	499.77	1	993.62	1	40.951419	16.919863
2339	2024-04-07 10:00:00	8	casamassima	20.54	1	39.3	1	0.0	1	null	6	null	6	686.18	1	993.48	1	40.951419	16.919863
2340	2024-04-07 11:00:00	8	casamassima	21.51	1	35.77	1	0.0	1	null	6	null	6	813.84	1	993.35	1	40.951419	16.919863
2341	2024-04-07 12:00:00	8	casamassima	21.77	1	34.28	1	0.0	1	null	6	null	6	927.94	1	992.96	1	40.951419	16.919863
2342	2024-04-07 13:00:00	8	casamassima	22.0	1	33.67	1	0.0	1	null	6	null	6	915.93	1	992.53	1	40.951419	16.919863
2343	2024-04-07 14:00:00	8	casamassima	21.54	1	35.57	1	0.0	1	null	6	null	6	822.46	1	992.07	1	40.951419	16.919863
2344	2024-04-07 15:00:00	8	casamassima	21.11	1	37.11	1	0.0	1	null	6	null	6	706.16	1	991.69	1	40.951419	16.919863
2345	2024-04-07 16:00:00	8	casamassima	21.14	1	36.05	1	0.0	1	null	6	null	6	399.21	1	991.2	1	40.951419	16.919863
2346	2024-04-07 17:00:00	8	casamassima	19.82	1	37.69	1	0.0	1	null	6	null	6	51.42	1	991.1	1	40.951419	16.919863
2347	2024-04-07 18:00:00	8	casamassima	18.58	1	41.75	1	0.0	1	null	6	null	6	23.45	1	991.05	1	40.951419	16.919863
2348	2024-04-07 19:00:00	8	casamassima	16.71	1	49.07	1	0.0	1	null	6	null	6	0.0	5	991.03	1	40.951419	16.919863
2349	2024-04-07 20:00:00	8	casamassima	14.48	1	56.56	1	0.0	1	null	6	null	6	0.0	1	991.32	1	40.951419	16.919863
2350	2024-04-07 21:00:00	8	casamassima	12.94	1	62.05	1	0.0	1	null	6	null	6	0.0	1	991.65	1	40.951419	16.919863
2351	2024-04-07 22:00:00	8	casamassima	12.63	1	63.93	1	0.0	1	null	6	null	6	0.0	1	991.86	1	40.951419	16.919863
2352	2024-04-07 23:00:00	8	casamassima	12.19	1	65.75	1	0.0	1	null	6	null	6	0.0	1	991.92	1	40.951419	16.919863
2353	2024-04-08 00:00:00	8	casamassima	10.65	1	72.02	1	0.0	1	null	6	null	6	0.0	1	991.66	1	40.951419	16.919863
2354	2024-04-08 01:00:00	8	casamassima	10.27	1	73.97	1	0.0	1	null	6	null	6	0.0	1	991.37	1	40.951419	16.919863
2355	2024-04-08 02:00:00	8	casamassima	10.07	1	68.94	1	0.0	1	null	6	null	6	0.0	1	991.08	1	40.951419	16.919863
2356	2024-04-08 03:00:00	8	casamassima	9.58	1	65.78	1	0.0	1	null	6	null	6	0.0	1	991.19	1	40.951419	16.919863
2357	2024-04-08 04:00:00	8	casamassima	9.48	1	62.78	1	0.0	1	null	6	null	6	0.0	1	991.21	1	40.951419	16.919863
2358	2024-04-08 05:00:00	8	casamassima	9.11	1	64.18	1	0.0	1	null	6	null	6	0.0	1	991.26	1	40.951419	16.919863
2359	2024-04-08 06:00:00	8	casamassima	9.4	1	63.39	1	0.0	1	null	6	null	6	17.56	1	991.47	1	40.951419	16.919863
2360	2024-04-08 07:00:00	8	casamassima	13.27	1	57.18	1	0.0	1	null	6	null	6	145.95	1	991.8	1	40.951419	16.919863
2361	2024-04-08 08:00:00	8	casamassima	18.44	1	47.57	1	0.0	1	null	6	null	6	319.25	1	991.86	1	40.951419	16.919863
2362	2024-04-08 09:00:00	8	casamassima	20.69	1	39.9	1	0.0	1	null	6	null	6	496.6	1	991.75	1	40.951419	16.919863
2363	2024-04-08 10:00:00	8	casamassima	22.82	1	36.35	1	0.0	1	null	6	null	6	679.88	1	991.76	1	40.951419	16.919863
2364	2024-04-08 11:00:00	8	casamassima	24.01	1	35.53	1	0.0	1	null	6	null	6	797.45	1	991.64	1	40.951419	16.919863
2365	2024-04-08 12:00:00	8	casamassima	24.46	1	36.28	1	0.0	1	null	6	null	6	903.57	1	991.13	1	40.951419	16.919863
2366	2024-04-08 13:00:00	8	casamassima	25.43	1	35.31	1	0.0	1	null	6	null	6	896.84	1	990.55	1	40.951419	16.919863
2367	2024-04-08 14:00:00	8	casamassima	26.2	1	31.81	1	0.0	1	null	6	null	6	794.2	1	990.04	1	40.951419	16.919863
2368	2024-04-08 15:00:00	8	casamassima	25.64	1	38.81	1	0.0	1	null	6	null	6	645.99	1	989.61	1	40.951419	16.919863
2369	2024-04-08 16:00:00	8	casamassima	24.86	1	36.3	1	0.0	1	null	6	null	6	352.49	1	989.64	1	40.951419	16.919863
2370	2024-04-08 17:00:00	8	casamassima	22.16	1	37.66	1	0.0	1	null	6	null	6	110.96	1	989.81	1	40.951419	16.919863
2371	2024-04-08 18:00:00	8	casamassima	19.91	1	43.04	1	0.0	1	null	6	null	6	47.34	1	989.81	1	40.951419	16.919863
2372	2024-04-08 19:00:00	8	casamassima	17.75	1	50.42	1	0.0	1	null	6	null	6	0.0	5	989.91	1	40.951419	16.919863
2373	2024-04-08 20:00:00	8	casamassima	16.12	1	56.02	1	0.0	1	null	6	null	6	0.0	1	990.33	1	40.951419	16.919863
2374	2024-04-08 21:00:00	8	casamassima	15.16	1	56.33	1	0.0	1	null	6	null	6	0.0	1	990.55	1	40.951419	16.919863
2375	2024-04-08 22:00:00	8	casamassima	14.82	1	57.21	1	0.0	1	null	6	null	6	0.0	1	990.48	1	40.951419	16.919863
2376	2024-04-08 23:00:00	8	casamassima	14.05	1	60.79	1	0.0	1	null	6	null	6	0.0	1	990.37	1	40.951419	16.919863
2377	2024-04-09 00:00:00	8	casamassima	13.49	1	63.8	1	0.0	1	null	6	null	6	0.0	1	990.18	1	40.951419	16.919863
2378	2024-04-09 01:00:00	8	casamassima	13.01	1	66.57	1	0.0	1	null	6	null	6	0.0	1	989.95	1	40.951419	16.919863
2379	2024-04-09 02:00:00	8	casamassima	13.02	1	64.26	1	0.0	1	null	6	null	6	0.0	1	989.59	1	40.951419	16.919863
2380	2024-04-09 03:00:00	8	casamassima	13.96	1	54.99	1	0.0	1	null	6	null	6	0.0	1	989.34	1	40.951419	16.919863
2381	2024-04-09 04:00:00	8	casamassima	13.49	1	55.4	1	0.0	1	null	6	null	6	0.0	1	989.26	1	40.951419	16.919863
2382	2024-04-09 05:00:00	8	casamassima	12.46	1	58.37	1	0.0	1	null	6	null	6	0.0	1	989.3	1	40.951419	16.919863
2383	2024-04-09 06:00:00	8	casamassima	12.57	1	57.44	1	0.0	1	null	6	null	6	20.14	1	989.38	1	40.951419	16.919863
2384	2024-04-09 07:00:00	8	casamassima	15.71	1	52.83	1	0.0	1	null	6	null	6	150.86	1	989.46	1	40.951419	16.919863
2385	2024-04-09 08:00:00	8	casamassima	19.59	1	48.35	1	0.0	1	null	6	null	6	336.78	1	989.38	1	40.951419	16.919863
2386	2024-04-09 09:00:00	8	casamassima	21.59	1	46.55	1	0.0	1	null	6	null	6	485.01	1	989.39	1	40.951419	16.919863
2387	2024-04-09 10:00:00	8	casamassima	23.42	1	42.19	1	0.0	1	null	6	null	6	662.04	1	989.29	1	40.951419	16.919863
2388	2024-04-09 11:00:00	8	casamassima	25.0	1	38.24	1	0.0	1	null	6	null	6	809.16	1	989.18	1	40.951419	16.919863
2389	2024-04-09 12:00:00	8	casamassima	25.81	1	36.7	1	0.0	1	null	6	null	6	864.13	1	988.87	1	40.951419	16.919863
2390	2024-04-09 13:00:00	8	casamassima	26.03	1	33.85	1	0.0	1	null	6	null	6	847.89	1	988.44	1	40.951419	16.919863
2391	2024-04-09 14:00:00	8	casamassima	26.01	1	32.92	1	0.0	1	null	6	null	6	760.72	1	987.9	1	40.951419	16.919863
2392	2024-04-09 15:00:00	8	casamassima	25.24	1	32.2	1	0.0	1	null	6	null	6	665.31	1	987.64	1	40.951419	16.919863
2393	2024-04-09 16:00:00	8	casamassima	23.72	1	28.26	1	0.0	1	null	6	null	6	392.29	1	987.54	1	40.951419	16.919863
2394	2024-04-09 17:00:00	8	casamassima	22.14	1	23.69	1	0.0	1	null	6	null	6	79.4	1	987.6	1	40.951419	16.919863
2395	2024-04-09 18:00:00	8	casamassima	20.75	1	24.31	1	0.0	1	null	6	null	6	34.19	1	987.65	1	40.951419	16.919863
2396	2024-04-09 19:00:00	8	casamassima	18.54	1	34.23	1	0.0	1	null	6	null	6	0.0	5	987.84	1	40.951419	16.919863
2397	2024-04-09 20:00:00	8	casamassima	16.71	1	44.56	1	0.0	1	null	6	null	6	0.0	1	988.18	1	40.951419	16.919863
2398	2024-04-09 21:00:00	8	casamassima	15.69	1	47.95	1	0.0	1	null	6	null	6	0.0	1	988.29	1	40.951419	16.919863
2399	2024-04-09 22:00:00	8	casamassima	14.86	1	51.62	1	0.0	1	null	6	null	6	0.0	1	988.28	1	40.951419	16.919863
2400	2024-04-09 23:00:00	8	casamassima	14.37	1	54.99	1	0.0	1	null	6	null	6	0.0	1	988.15	1	40.951419	16.919863
2401	2024-04-10 00:00:00	8	casamassima	14.03	1	59.04	1	0.0	1	null	6	null	6	0.0	1	987.94	1	40.951419	16.919863
2402	2024-04-10 01:00:00	8	casamassima	14.07	1	61.58	1	0.0	1	null	6	null	6	0.0	1	987.66	1	40.951419	16.919863
2403	2024-04-10 02:00:00	8	casamassima	13.76	1	63.61	1	0.0	1	null	6	null	6	0.0	1	987.3	1	40.951419	16.919863
2404	2024-04-10 03:00:00	8	casamassima	13.32	1	67.01	1	0.0	1	null	6	null	6	0.0	1	987.01	1	40.951419	16.919863
2405	2024-04-10 04:00:00	8	casamassima	12.52	1	69.42	1	0.0	1	null	6	null	6	0.0	1	986.98	1	40.951419	16.919863
2406	2024-04-10 05:00:00	8	casamassima	11.75	1	70.4	1	0.0	1	null	6	null	6	0.0	1	986.99	1	40.951419	16.919863
2407	2024-04-10 06:00:00	8	casamassima	11.37	1	72.39	1	0.0	1	null	6	null	6	21.76	1	987.1	1	40.951419	16.919863
2408	2024-04-10 07:00:00	8	casamassima	13.59	1	65.64	1	0.0	1	null	6	null	6	120.04	1	987.32	1	40.951419	16.919863
2409	2024-04-10 08:00:00	8	casamassima	17.09	1	54.65	1	0.0	1	null	6	null	6	234.11	1	987.34	1	40.951419	16.919863
2410	2024-04-10 09:00:00	8	casamassima	21.9	1	35.39	1	0.0	1	null	6	null	6	444.71	1	987.53	1	40.951419	16.919863
2411	2024-04-10 10:00:00	8	casamassima	22.6	1	29.23	1	0.0	1	null	6	null	6	501.59	1	987.89	1	40.951419	16.919863
2412	2024-04-10 11:00:00	8	casamassima	20.51	1	39.3	1	0.0	1	null	6	null	6	506.29	1	988.3	1	40.951419	16.919863
2413	2024-04-10 12:00:00	8	casamassima	21.21	1	36.68	1	0.0	1	null	6	null	6	804.28	1	988.36	1	40.951419	16.919863
2414	2024-04-10 13:00:00	8	casamassima	22.08	1	37.43	1	0.0	1	null	6	null	6	703.81	1	988.24	1	40.951419	16.919863
2415	2024-04-10 14:00:00	8	casamassima	22.26	1	36.57	1	0.0	1	null	6	null	6	683.65	1	988.33	1	40.951419	16.919863
2416	2024-04-10 15:00:00	8	casamassima	21.09	1	47.44	1	0.0	1	null	6	null	6	575.2	1	988.72	1	40.951419	16.919863
2417	2024-04-10 16:00:00	8	casamassima	20.43	1	49.24	1	0.0	1	null	6	null	6	390.82	1	988.96	1	40.951419	16.919863
2418	2024-04-10 17:00:00	8	casamassima	19.54	1	49.77	1	0.0	1	null	6	null	6	116.77	1	989.41	1	40.951419	16.919863
2419	2024-04-10 18:00:00	8	casamassima	18.27	1	53.24	1	0.0	1	null	6	null	6	58.66	1	989.92	1	40.951419	16.919863
2420	2024-04-10 19:00:00	8	casamassima	17.08	1	53.84	1	0.0	1	null	6	null	6	0.0	5	990.55	1	40.951419	16.919863
2421	2024-04-10 20:00:00	8	casamassima	15.84	1	52.92	1	0.0	1	null	6	null	6	0.0	1	991.4	1	40.951419	16.919863
2422	2024-04-10 21:00:00	8	casamassima	15.15	1	54.57	1	0.0	1	null	6	null	6	0.0	1	992.02	1	40.951419	16.919863
2423	2024-04-10 22:00:00	8	casamassima	14.36	1	56.45	1	0.0	1	null	6	null	6	0.0	1	992.4	1	40.951419	16.919863
2424	2024-04-10 23:00:00	8	casamassima	12.71	1	62.52	1	0.0	1	null	6	null	6	0.0	1	992.73	1	40.951419	16.919863
2425	2024-04-11 00:00:00	8	casamassima	11.71	1	66.8	1	0.0	1	null	6	null	6	0.0	1	993.11	1	40.951419	16.919863
2426	2024-04-11 01:00:00	8	casamassima	11.4	1	66.53	1	0.0	1	null	6	null	6	0.0	1	993.03	1	40.951419	16.919863
2427	2024-04-11 02:00:00	8	casamassima	11.62	1	55.97	1	0.0	1	null	6	null	6	0.0	1	992.88	1	40.951419	16.919863
2428	2024-04-11 03:00:00	8	casamassima	11.9	1	49.43	1	0.0	1	null	6	null	6	0.0	1	993.0	1	40.951419	16.919863
2429	2024-04-11 04:00:00	8	casamassima	11.22	1	49.23	1	0.0	1	null	6	null	6	0.0	1	993.02	1	40.951419	16.919863
2430	2024-04-11 05:00:00	8	casamassima	10.5	1	49.06	1	0.0	1	null	6	null	6	0.0	1	993.26	1	40.951419	16.919863
2431	2024-04-11 06:00:00	8	casamassima	10.69	1	47.46	1	0.0	1	null	6	null	6	25.87	1	993.6	1	40.951419	16.919863
2432	2024-04-11 07:00:00	8	casamassima	13.46	1	45.2	1	0.0	1	null	6	null	6	127.4	1	994.01	1	40.951419	16.919863
2433	2024-04-11 08:00:00	8	casamassima	15.04	1	52.65	1	0.0	1	null	6	null	6	277.64	1	994.31	1	40.951419	16.919863
2434	2024-04-11 09:00:00	8	casamassima	16.8	1	52.8	1	0.0	1	null	6	null	6	393.24	1	994.66	1	40.951419	16.919863
2435	2024-04-11 10:00:00	8	casamassima	17.27	1	52.73	1	0.0	1	null	6	null	6	283.7	1	995.1	1	40.951419	16.919863
2436	2024-04-11 11:00:00	8	casamassima	17.61	1	55.27	1	0.0	1	null	6	null	6	375.06	1	995.43	1	40.951419	16.919863
2437	2024-04-11 12:00:00	8	casamassima	17.91	1	53.97	1	0.0	1	null	6	null	6	336.75	1	995.61	1	40.951419	16.919863
2438	2024-04-11 13:00:00	8	casamassima	18.51	1	52.34	1	0.0	1	null	6	null	6	535.76	1	995.63	1	40.951419	16.919863
2439	2024-04-11 14:00:00	8	casamassima	19.61	1	45.51	1	0.0	1	null	6	null	6	683.37	1	995.39	1	40.951419	16.919863
2440	2024-04-11 15:00:00	8	casamassima	19.94	1	45.29	1	0.0	1	null	6	null	6	561.23	1	995.23	1	40.951419	16.919863
2441	2024-04-11 16:00:00	8	casamassima	19.23	1	48.17	1	0.0	1	null	6	null	6	301.7	1	995.18	1	40.951419	16.919863
2442	2024-04-11 17:00:00	8	casamassima	18.7	1	50.79	1	0.0	1	null	6	null	6	154.82	1	995.24	1	40.951419	16.919863
2443	2024-04-11 18:00:00	8	casamassima	18.21	1	50.94	1	0.0	1	null	6	null	6	53.89	1	995.35	1	40.951419	16.919863
2444	2024-04-11 19:00:00	8	casamassima	16.59	1	63.6	1	0.0	1	null	6	null	6	0.0	5	995.75	1	40.951419	16.919863
2445	2024-04-11 20:00:00	8	casamassima	14.76	1	79.45	1	0.0	1	null	6	null	6	0.0	1	996.43	1	40.951419	16.919863
2446	2024-04-11 21:00:00	8	casamassima	13.64	1	82.68	1	0.0	1	null	6	null	6	0.0	1	996.93	1	40.951419	16.919863
2447	2024-04-11 22:00:00	8	casamassima	12.52	1	78.87	1	0.0	1	null	6	null	6	0.0	1	997.35	1	40.951419	16.919863
2448	2024-04-11 23:00:00	8	casamassima	11.79	1	76.33	1	0.0	1	null	6	null	6	0.0	1	997.64	1	40.951419	16.919863
2449	2024-04-12 00:00:00	8	casamassima	11.36	1	77.07	1	0.0	1	null	6	null	6	0.0	1	997.75	1	40.951419	16.919863
2450	2024-04-12 01:00:00	8	casamassima	11.41	1	76.87	1	0.0	1	null	6	null	6	0.0	1	997.63	1	40.951419	16.919863
2451	2024-04-12 02:00:00	8	casamassima	11.09	1	77.32	1	0.0	1	null	6	null	6	0.0	1	997.37	1	40.951419	16.919863
2452	2024-04-12 03:00:00	8	casamassima	10.59	1	76.8	1	0.0	1	null	6	null	6	0.0	1	997.4	1	40.951419	16.919863
2453	2024-04-12 04:00:00	8	casamassima	10.4	1	75.47	1	0.0	1	null	6	null	6	0.0	1	997.35	1	40.951419	16.919863
2454	2024-04-12 05:00:00	8	casamassima	10.35	1	74.59	1	0.0	1	null	6	null	6	0.0	1	997.44	1	40.951419	16.919863
2455	2024-04-12 06:00:00	8	casamassima	10.14	1	75.05	1	0.0	1	null	6	null	6	22.62	1	997.71	1	40.951419	16.919863
2456	2024-04-12 07:00:00	8	casamassima	13.85	1	63.02	1	0.0	1	null	6	null	6	154.86	1	998.0	1	40.951419	16.919863
2457	2024-04-12 08:00:00	8	casamassima	16.72	1	54.25	1	0.0	1	null	6	null	6	333.35	1	998.18	1	40.951419	16.919863
2458	2024-04-12 09:00:00	8	casamassima	18.19	1	50.78	1	0.0	1	null	6	null	6	515.48	1	998.41	1	40.951419	16.919863
2459	2024-04-12 10:00:00	8	casamassima	19.49	1	48.2	1	0.0	1	null	6	null	6	686.31	1	998.61	1	40.951419	16.919863
2460	2024-04-12 11:00:00	8	casamassima	20.12	1	46.52	1	0.0	1	null	6	null	6	820.8	1	998.65	1	40.951419	16.919863
2461	2024-04-12 12:00:00	8	casamassima	21.04	1	42.8	1	0.0	1	null	6	null	6	902.1	1	998.5	1	40.951419	16.919863
2462	2024-04-12 13:00:00	8	casamassima	21.53	1	40.63	1	0.0	1	null	6	null	6	913.46	1	998.18	1	40.951419	16.919863
2463	2024-04-12 14:00:00	8	casamassima	21.72	1	40.07	1	0.0	1	null	6	null	6	829.38	1	997.72	1	40.951419	16.919863
2464	2024-04-12 15:00:00	8	casamassima	21.42	1	44.57	1	0.0	1	null	6	null	6	702.59	1	997.4	1	40.951419	16.919863
2465	2024-04-12 16:00:00	8	casamassima	20.57	1	49.26	1	0.0	1	null	6	null	6	459.61	1	997.14	1	40.951419	16.919863
2466	2024-04-12 17:00:00	8	casamassima	19.44	1	51.32	1	0.0	1	null	6	null	6	73.5	1	996.96	1	40.951419	16.919863
2467	2024-04-12 18:00:00	8	casamassima	18.78	1	50.03	1	0.0	1	null	6	null	6	35.13	1	996.93	1	40.951419	16.919863
2468	2024-04-12 19:00:00	8	casamassima	17.29	1	56.12	1	0.0	1	null	6	null	6	0.0	5	996.97	1	40.951419	16.919863
2469	2024-04-12 20:00:00	8	casamassima	15.3	1	63.57	1	0.0	1	null	6	null	6	0.0	1	997.2	1	40.951419	16.919863
2470	2024-04-12 21:00:00	8	casamassima	15.25	1	67.04	1	0.0	1	null	6	null	6	0.0	1	997.64	1	40.951419	16.919863
2471	2024-04-12 22:00:00	8	casamassima	13.2	1	75.25	1	0.0	1	null	6	null	6	0.0	1	997.97	1	40.951419	16.919863
2472	2024-04-12 23:00:00	8	casamassima	11.74	1	79.68	1	0.0	1	null	6	null	6	0.0	1	998.11	1	40.951419	16.919863
2473	2024-04-13 00:00:00	8	casamassima	10.97	1	82.04	1	0.0	1	null	6	null	6	0.0	1	998.29	1	40.951419	16.919863
2474	2024-04-13 01:00:00	8	casamassima	10.7	1	77.91	1	0.0	1	null	6	null	6	0.0	1	998.15	1	40.951419	16.919863
2475	2024-04-13 02:00:00	8	casamassima	10.9	1	75.14	1	0.0	1	null	6	null	6	0.0	1	997.84	1	40.951419	16.919863
2476	2024-04-13 03:00:00	8	casamassima	11.82	1	68.09	1	0.0	1	null	6	null	6	0.0	1	997.47	1	40.951419	16.919863
2477	2024-04-13 04:00:00	8	casamassima	11.44	1	67.77	1	0.0	1	null	6	null	6	0.0	1	997.3	1	40.951419	16.919863
2478	2024-04-13 05:00:00	8	casamassima	11.16	1	66.76	1	0.0	1	null	6	null	6	0.0	1	997.35	1	40.951419	16.919863
2479	2024-04-13 06:00:00	8	casamassima	11.84	1	63.33	1	0.0	1	null	6	null	6	25.04	1	997.52	1	40.951419	16.919863
2480	2024-04-13 07:00:00	8	casamassima	16.56	1	52.06	1	0.0	1	null	6	null	6	157.85	1	997.86	1	40.951419	16.919863
2481	2024-04-13 08:00:00	8	casamassima	18.63	1	46.75	1	0.0	1	null	6	null	6	338.5	1	998.21	1	40.951419	16.919863
2482	2024-04-13 09:00:00	8	casamassima	20.07	1	43.2	1	0.0	1	null	6	null	6	522.2	1	998.3	1	40.951419	16.919863
2483	2024-04-13 10:00:00	8	casamassima	21.85	1	38.54	1	0.0	1	null	6	null	6	686.13	1	998.15	1	40.951419	16.919863
2484	2024-04-13 11:00:00	8	casamassima	22.89	1	36.62	1	0.0	1	null	6	null	6	811.29	1	998.07	1	40.951419	16.919863
2485	2024-04-13 12:00:00	8	casamassima	23.0	1	36.92	1	0.0	1	null	6	null	6	885.11	1	997.89	1	40.951419	16.919863
2486	2024-04-13 13:00:00	8	casamassima	23.2	1	34.98	1	0.0	1	null	6	null	6	896.42	1	997.79	1	40.951419	16.919863
2487	2024-04-13 14:00:00	8	casamassima	23.5	1	34.77	1	0.0	1	null	6	null	6	816.14	1	997.35	1	40.951419	16.919863
2488	2024-04-13 15:00:00	8	casamassima	23.13	1	37.9	1	0.0	1	null	6	null	6	694.68	1	996.92	1	40.951419	16.919863
2489	2024-04-13 16:00:00	8	casamassima	22.25	1	42.08	1	0.0	1	null	6	null	6	455.29	1	996.57	1	40.951419	16.919863
2490	2024-04-13 17:00:00	8	casamassima	20.92	1	46.21	1	0.0	1	null	6	null	6	69.38	1	996.4	1	40.951419	16.919863
2491	2024-04-13 18:00:00	8	casamassima	19.66	1	48.21	1	0.0	1	null	6	null	6	38.6	1	996.51	1	40.951419	16.919863
2492	2024-04-13 19:00:00	8	casamassima	18.23	1	53.65	1	0.0	1	null	6	null	6	0.0	5	996.65	1	40.951419	16.919863
2493	2024-04-13 20:00:00	8	casamassima	16.78	1	57.46	1	0.0	1	null	6	null	6	0.0	1	996.92	1	40.951419	16.919863
2494	2024-04-13 21:00:00	8	casamassima	14.92	1	63.42	1	0.0	1	null	6	null	6	0.0	1	997.17	1	40.951419	16.919863
2495	2024-04-13 22:00:00	8	casamassima	13.92	1	65.78	1	0.0	1	null	6	null	6	0.0	1	997.31	1	40.951419	16.919863
2496	2024-04-13 23:00:00	8	casamassima	12.81	1	68.67	1	0.0	1	null	6	null	6	0.0	1	997.35	1	40.951419	16.919863
2497	2024-04-14 00:00:00	8	casamassima	11.44	1	73.51	1	0.0	1	null	6	null	6	0.0	1	997.1	1	40.951419	16.919863
2498	2024-04-14 01:00:00	8	casamassima	11.17	1	73.67	1	0.0	1	null	6	null	6	0.0	1	997.03	1	40.951419	16.919863
2499	2024-04-14 02:00:00	8	casamassima	11.11	1	69.7	1	0.0	1	null	6	null	6	0.0	1	996.88	1	40.951419	16.919863
2500	2024-04-14 03:00:00	8	casamassima	11.26	1	67.64	1	0.0	1	null	6	null	6	0.0	1	996.51	1	40.951419	16.919863
2501	2024-04-14 04:00:00	8	casamassima	11.4	1	67.33	1	0.0	1	null	6	null	6	0.0	1	996.38	1	40.951419	16.919863
2502	2024-04-14 05:00:00	8	casamassima	11.55	1	65.93	1	0.0	1	null	6	null	6	0.0	1	996.38	1	40.951419	16.919863
2503	2024-04-14 06:00:00	8	casamassima	12.63	1	61.16	1	0.0	1	null	6	null	6	27.61	1	996.56	1	40.951419	16.919863
2504	2024-04-14 07:00:00	8	casamassima	17.67	1	49.3	1	0.0	1	null	6	null	6	163.07	1	996.55	1	40.951419	16.919863
2505	2024-04-14 08:00:00	8	casamassima	22.05	1	38.1	1	0.0	1	null	6	null	6	342.72	1	996.55	1	40.951419	16.919863
2506	2024-04-14 09:00:00	8	casamassima	23.14	1	30.07	1	0.0	1	null	6	null	6	528.93	1	996.74	1	40.951419	16.919863
2507	2024-04-14 10:00:00	8	casamassima	23.73	1	29.33	1	0.0	1	null	6	null	6	689.98	1	996.98	1	40.951419	16.919863
2508	2024-04-14 11:00:00	8	casamassima	23.94	1	30.5	1	0.0	1	null	6	null	6	824.51	1	996.92	1	40.951419	16.919863
2509	2024-04-14 12:00:00	8	casamassima	24.27	1	31.18	1	0.0	1	null	6	null	6	885.02	1	996.61	1	40.951419	16.919863
2510	2024-04-14 13:00:00	8	casamassima	24.53	1	30.33	1	0.0	1	null	6	null	6	908.91	1	996.3	1	40.951419	16.919863
2511	2024-04-14 14:00:00	8	casamassima	24.56	1	30.33	1	0.0	1	null	6	null	6	832.89	1	995.71	1	40.951419	16.919863
2512	2024-04-14 15:00:00	8	casamassima	24.35	1	31.13	1	0.0	1	null	6	null	6	711.52	1	995.08	1	40.951419	16.919863
2513	2024-04-14 16:00:00	8	casamassima	23.84	1	31.42	1	0.0	1	null	6	null	6	481.59	1	994.81	1	40.951419	16.919863
2514	2024-04-14 17:00:00	8	casamassima	22.79	1	32.72	1	0.0	1	null	6	null	6	66.43	1	994.56	1	40.951419	16.919863
2515	2024-04-14 18:00:00	8	casamassima	21.76	1	33.23	1	0.0	1	null	6	null	6	34.15	1	994.38	1	40.951419	16.919863
2516	2024-04-14 19:00:00	8	casamassima	20.02	1	38.3	1	0.0	1	null	6	null	6	0.0	5	994.15	1	40.951419	16.919863
2517	2024-04-14 20:00:00	8	casamassima	18.08	1	44.01	1	0.0	1	null	6	null	6	0.0	1	994.34	1	40.951419	16.919863
2518	2024-04-14 21:00:00	8	casamassima	16.67	1	48.41	1	0.0	1	null	6	null	6	0.0	1	994.53	1	40.951419	16.919863
2519	2024-04-14 22:00:00	8	casamassima	16.09	1	51.46	1	0.0	1	null	6	null	6	0.0	1	994.35	1	40.951419	16.919863
2520	2024-04-14 23:00:00	8	casamassima	16.11	1	51.6	1	0.0	1	null	6	null	6	0.0	1	993.96	1	40.951419	16.919863
2521	2024-04-15 00:00:00	8	casamassima	15.97	1	50.83	1	0.0	1	null	6	null	6	0.0	1	993.4	1	40.951419	16.919863
2522	2024-04-15 01:00:00	8	casamassima	15.47	1	51.26	1	0.0	1	null	6	null	6	0.0	1	992.98	1	40.951419	16.919863
2523	2024-04-15 02:00:00	8	casamassima	15.08	1	50.28	1	0.0	1	null	6	null	6	0.0	1	992.51	1	40.951419	16.919863
2524	2024-04-15 03:00:00	8	casamassima	14.51	1	52.88	1	0.0	1	null	6	null	6	0.0	1	992.26	1	40.951419	16.919863
2525	2024-04-15 04:00:00	8	casamassima	13.69	1	57.92	1	0.0	1	null	6	null	6	0.0	1	991.83	1	40.951419	16.919863
2526	2024-04-15 05:00:00	8	casamassima	14.19	1	56.57	1	0.0	1	null	6	null	6	0.0	5	991.39	1	40.951419	16.919863
2527	2024-04-15 06:00:00	8	casamassima	14.98	1	52.56	1	0.0	1	null	6	null	6	48.44	1	991.17	1	40.951419	16.919863
2528	2024-04-15 07:00:00	8	casamassima	18.48	1	45.49	1	0.0	1	null	6	null	6	186.37	1	991.06	1	40.951419	16.919863
2529	2024-04-15 08:00:00	8	casamassima	20.63	1	40.93	1	0.0	1	null	6	null	6	263.15	1	991.03	1	40.951419	16.919863
2530	2024-04-15 09:00:00	8	casamassima	23.88	1	34.35	1	0.0	1	null	6	null	6	479.56	1	990.91	1	40.951419	16.919863
2531	2024-04-15 10:00:00	8	casamassima	26.4	1	30.7	1	0.0	1	null	6	null	6	628.69	1	990.66	1	40.951419	16.919863
2532	2024-04-15 11:00:00	8	casamassima	26.13	1	32.09	1	0.0	1	null	6	null	6	663.01	1	990.51	1	40.951419	16.919863
2533	2024-04-15 12:00:00	8	casamassima	28.58	1	24.7	1	0.0	1	null	6	null	6	811.69	1	989.65	1	40.951419	16.919863
2534	2024-04-15 13:00:00	8	casamassima	29.35	1	18.65	1	0.0	1	null	6	null	6	541.22	1	988.86	1	40.951419	16.919863
2535	2024-04-15 14:00:00	8	casamassima	28.74	1	21.2	1	0.0	1	null	6	null	6	394.18	1	988.27	1	40.951419	16.919863
2536	2024-04-15 15:00:00	8	casamassima	26.32	1	31.23	1	0.0	1	null	6	null	6	476.31	1	987.55	1	40.951419	16.919863
2537	2024-04-15 16:00:00	8	casamassima	24.86	1	32.33	1	0.0	1	null	6	null	6	392.53	1	987.07	1	40.951419	16.919863
2538	2024-04-15 17:00:00	8	casamassima	23.64	1	32.37	1	0.0	1	null	6	null	6	162.28	1	986.66	1	40.951419	16.919863
2539	2024-04-15 18:00:00	8	casamassima	22.2	1	36.84	1	0.0	1	null	6	null	6	50.45	1	986.47	1	40.951419	16.919863
2540	2024-04-15 19:00:00	8	casamassima	19.94	1	44.31	1	0.0	1	null	6	null	6	0.0	5	986.36	1	40.951419	16.919863
2541	2024-04-15 20:00:00	8	casamassima	18.44	1	53.33	1	0.0	1	null	6	null	6	0.0	1	986.57	1	40.951419	16.919863
2542	2024-04-15 21:00:00	8	casamassima	18.26	1	55.84	1	0.0	1	null	6	null	6	0.0	1	986.6	1	40.951419	16.919863
2543	2024-04-15 22:00:00	8	casamassima	18.97	1	46.51	1	0.0	1	null	6	null	6	0.0	1	985.78	1	40.951419	16.919863
2544	2024-04-15 23:00:00	8	casamassima	19.96	1	40.44	1	0.0	1	null	6	null	6	0.0	1	985.33	1	40.951419	16.919863
2545	2024-04-16 00:00:00	8	casamassima	19.97	1	41.35	1	0.0	1	null	6	null	6	0.0	1	984.58	1	40.951419	16.919863
2546	2024-04-16 01:00:00	8	casamassima	21.02	1	36.31	1	0.0	1	null	6	null	6	0.0	1	983.77	1	40.951419	16.919863
2547	2024-04-16 02:00:00	8	casamassima	19.05	1	49.71	1	0.0	1	null	6	null	6	0.0	1	983.26	1	40.951419	16.919863
2548	2024-04-16 03:00:00	8	casamassima	18.83	1	48.18	1	0.0	1	null	6	null	6	0.0	1	982.52	1	40.951419	16.919863
2549	2024-04-16 04:00:00	8	casamassima	18.47	1	50.57	1	0.0	1	null	6	null	6	0.0	1	981.8	1	40.951419	16.919863
2550	2024-04-16 05:00:00	8	casamassima	18.51	1	48.52	1	0.0	1	null	6	null	6	0.0	1	981.16	1	40.951419	16.919863
2551	2024-04-16 06:00:00	8	casamassima	17.95	1	47.87	1	0.0	1	null	6	null	6	14.65	1	980.81	1	40.951419	16.919863
2552	2024-04-16 07:00:00	8	casamassima	18.6	1	44.89	1	0.0	1	null	6	null	6	71.17	1	980.33	1	40.951419	16.919863
2553	2024-04-16 08:00:00	8	casamassima	19.24	1	47.69	1	0.0	1	null	6	null	6	102.01	1	979.86	1	40.951419	16.919863
2554	2024-04-16 09:00:00	8	casamassima	19.52	1	52.84	1	0.0	1	null	6	null	6	84.48	1	979.85	1	40.951419	16.919863
2555	2024-04-16 10:00:00	8	casamassima	20.29	1	53.63	1	0.0	1	null	6	null	6	198.0	1	979.59	1	40.951419	16.919863
2556	2024-04-16 11:00:00	8	casamassima	21.83	1	48.17	1	0.0	1	null	6	null	6	213.38	1	979.21	1	40.951419	16.919863
2557	2024-04-16 12:00:00	8	casamassima	23.28	1	43.55	1	0.0	1	null	6	null	6	316.64	1	978.75	1	40.951419	16.919863
2558	2024-04-16 13:00:00	8	casamassima	23.29	1	40.66	1	0.0	1	null	6	null	6	327.8	1	978.35	1	40.951419	16.919863
2559	2024-04-16 14:00:00	8	casamassima	21.94	1	45.77	1	0.0	1	null	6	null	6	217.87	1	978.01	1	40.951419	16.919863
2560	2024-04-16 15:00:00	8	casamassima	19.95	1	53.14	1	0.0	1	null	6	null	6	167.98	1	977.98	1	40.951419	16.919863
2561	2024-04-16 16:00:00	8	casamassima	15.29	1	80.46	1	0.8	1	null	6	null	6	52.0	1	978.19	1	40.951419	16.919863
2562	2024-04-16 17:00:00	8	casamassima	14.95	1	75.81	1	0.0	1	null	6	null	6	40.76	1	977.15	1	40.951419	16.919863
2563	2024-04-16 18:00:00	8	casamassima	15.05	1	75.99	1	0.2	1	null	6	null	6	20.77	1	976.47	1	40.951419	16.919863
2564	2024-04-16 19:00:00	8	casamassima	14.15	1	85.06	1	0.0	1	null	6	null	6	0.0	5	976.09	1	40.951419	16.919863
2565	2024-04-16 20:00:00	8	casamassima	13.79	1	88.04	1	0.4	1	null	6	null	6	0.0	1	976.06	1	40.951419	16.919863
2566	2024-04-16 21:00:00	8	casamassima	13.76	1	86.37	1	0.2	1	null	6	null	6	0.0	5	975.81	1	40.951419	16.919863
2567	2024-04-16 22:00:00	8	casamassima	13.87	1	84.61	1	0.0	1	null	6	null	6	0.0	1	975.7	1	40.951419	16.919863
2568	2024-04-16 23:00:00	8	casamassima	14.1	1	82.92	1	0.0	1	null	6	null	6	0.0	1	975.52	1	40.951419	16.919863
2569	2024-04-17 00:00:00	8	casamassima	14.1	1	83.11	1	0.0	1	null	6	null	6	0.0	1	974.88	1	40.951419	16.919863
2570	2024-04-17 01:00:00	8	casamassima	13.98	1	85.36	1	0.0	1	null	6	null	6	0.0	1	974.2	1	40.951419	16.919863
2571	2024-04-17 02:00:00	8	casamassima	13.88	1	86.07	1	0.0	1	null	6	null	6	0.0	1	973.4	1	40.951419	16.919863
2572	2024-04-17 03:00:00	8	casamassima	13.56	1	86.91	1	0.0	1	null	6	null	6	0.0	1	973.1	1	40.951419	16.919863
2573	2024-04-17 04:00:00	8	casamassima	13.1	1	88.46	1	0.0	1	null	6	null	6	0.0	1	972.82	1	40.951419	16.919863
2574	2024-04-17 05:00:00	8	casamassima	13.09	1	87.02	1	0.0	1	null	6	null	6	0.0	1	973.04	1	40.951419	16.919863
2575	2024-04-17 06:00:00	8	casamassima	12.44	1	82.62	1	0.2	1	null	6	null	6	0.0	5	973.49	1	40.951419	16.919863
2576	2024-04-17 07:00:00	8	casamassima	12.47	1	74.96	1	0.0	1	null	6	null	6	26.42	1	973.88	1	40.951419	16.919863
2577	2024-04-17 08:00:00	8	casamassima	12.94	1	74.53	1	0.0	1	null	6	null	6	117.5	1	974.4	1	40.951419	16.919863
2578	2024-04-17 09:00:00	8	casamassima	15.04	1	59.07	1	0.0	1	null	6	null	6	451.95	1	974.2	1	40.951419	16.919863
2579	2024-04-17 10:00:00	8	casamassima	17.21	1	48.67	1	0.0	1	null	6	null	6	724.97	1	974.07	1	40.951419	16.919863
2580	2024-04-17 11:00:00	8	casamassima	16.42	1	49.6	1	0.0	1	null	6	null	6	441.8	1	974.23	1	40.951419	16.919863
2581	2024-04-17 12:00:00	8	casamassima	15.94	1	53.89	1	0.0	1	null	6	null	6	451.67	1	974.39	1	40.951419	16.919863
2582	2024-04-17 13:00:00	8	casamassima	16.37	1	52.55	1	0.0	1	null	6	null	6	810.19	1	974.37	1	40.951419	16.919863
2583	2024-04-17 14:00:00	8	casamassima	16.14	1	46.8	1	0.0	1	null	6	null	6	517.76	1	974.46	1	40.951419	16.919863
2584	2024-04-17 15:00:00	8	casamassima	15.12	1	49.19	1	0.0	1	null	6	null	6	281.1	1	974.69	1	40.951419	16.919863
2585	2024-04-17 16:00:00	8	casamassima	13.74	1	58.84	1	0.0	1	null	6	null	6	172.28	1	974.87	1	40.951419	16.919863
2586	2024-04-17 17:00:00	8	casamassima	13.09	1	60.72	1	0.0	1	null	6	null	6	54.1	1	975.58	1	40.951419	16.919863
2587	2024-04-17 18:00:00	8	casamassima	12.2	1	56.94	1	0.0	1	null	6	null	6	13.5	1	976.21	1	40.951419	16.919863
2588	2024-04-17 19:00:00	8	casamassima	10.23	1	63.34	1	0.0	1	null	6	null	6	0.0	5	976.97	1	40.951419	16.919863
2589	2024-04-17 20:00:00	8	casamassima	8.52	1	77.86	1	0.2	1	null	6	null	6	0.0	5	977.57	1	40.951419	16.919863
2590	2024-04-17 21:00:00	8	casamassima	8.73	1	72.48	1	0.0	1	null	6	null	6	0.0	5	977.71	1	40.951419	16.919863
2591	2024-04-17 22:00:00	8	casamassima	8.43	1	73.37	1	0.0	1	null	6	null	6	0.0	1	977.88	1	40.951419	16.919863
2592	2024-04-17 23:00:00	8	casamassima	7.84	1	72.44	1	0.0	1	null	6	null	6	0.0	1	977.86	1	40.951419	16.919863
2593	2024-04-18 00:00:00	8	casamassima	7.26	1	73.54	1	0.0	1	null	6	null	6	0.0	1	978.23	1	40.951419	16.919863
2594	2024-04-18 01:00:00	8	casamassima	7.12	1	75.51	1	0.0	1	null	6	null	6	0.0	1	978.26	1	40.951419	16.919863
2595	2024-04-18 02:00:00	8	casamassima	7.41	1	74.27	1	0.0	1	null	6	null	6	0.0	1	978.21	1	40.951419	16.919863
2596	2024-04-18 03:00:00	8	casamassima	6.88	1	75.89	1	0.0	1	null	6	null	6	0.0	1	978.29	1	40.951419	16.919863
2597	2024-04-18 04:00:00	8	casamassima	6.48	1	77.01	1	0.0	1	null	6	null	6	0.0	1	978.29	1	40.951419	16.919863
2598	2024-04-18 05:00:00	8	casamassima	6.1	1	78.63	1	0.0	1	null	6	null	6	0.0	1	978.33	1	40.951419	16.919863
2599	2024-04-18 06:00:00	8	casamassima	6.77	1	77.48	1	0.0	1	null	6	null	6	38.77	1	978.82	1	40.951419	16.919863
2600	2024-04-18 07:00:00	8	casamassima	11.42	1	62.37	1	0.0	1	null	6	null	6	196.56	1	979.14	1	40.951419	16.919863
2601	2024-04-18 08:00:00	8	casamassima	13.4	1	53.02	1	0.0	1	null	6	null	6	389.71	1	979.43	1	40.951419	16.919863
2602	2024-04-18 09:00:00	8	casamassima	14.62	1	45.4	1	0.0	1	null	6	null	6	447.31	1	979.73	1	40.951419	16.919863
2603	2024-04-18 10:00:00	8	casamassima	14.82	1	40.13	1	0.0	1	null	6	null	6	510.73	1	980.0	1	40.951419	16.919863
2604	2024-04-18 11:00:00	8	casamassima	14.97	1	42.79	1	0.0	1	null	6	null	6	676.76	1	980.07	1	40.951419	16.919863
2605	2024-04-18 12:00:00	8	casamassima	14.45	1	49.19	1	0.0	1	null	6	null	6	574.21	1	980.04	1	40.951419	16.919863
2606	2024-04-18 13:00:00	8	casamassima	14.22	1	45.5	1	0.0	1	null	6	null	6	351.4	1	980.15	1	40.951419	16.919863
2607	2024-04-18 14:00:00	8	casamassima	12.06	1	58.13	1	0.8	1	null	6	null	6	142.24	1	980.58	1	40.951419	16.919863
2608	2024-04-18 15:00:00	8	casamassima	11.33	1	63.54	1	0.0	1	null	6	null	6	157.4	1	980.86	1	40.951419	16.919863
2609	2024-04-18 16:00:00	8	casamassima	10.85	1	70.03	1	0.0	1	null	6	null	6	113.95	1	981.08	1	40.951419	16.919863
2610	2024-04-18 17:00:00	8	casamassima	10.7	1	72.93	1	0.2	1	null	6	null	6	88.97	1	981.25	1	40.951419	16.919863
2611	2024-04-18 18:00:00	8	casamassima	10.74	1	71.86	1	0.0	1	null	6	null	6	44.69	1	981.46	1	40.951419	16.919863
2612	2024-04-18 19:00:00	8	casamassima	10.37	1	72.77	1	0.0	1	null	6	null	6	6.18	1	981.76	1	40.951419	16.919863
2613	2024-04-18 20:00:00	8	casamassima	9.4	1	79.03	1	0.0	1	null	6	null	6	0.0	1	982.16	1	40.951419	16.919863
2614	2024-04-18 21:00:00	8	casamassima	9.07	1	79.41	1	0.0	1	null	6	null	6	0.0	1	982.69	1	40.951419	16.919863
2615	2024-04-18 22:00:00	8	casamassima	9.21	1	78.29	1	0.0	1	null	6	null	6	0.0	1	982.88	1	40.951419	16.919863
2616	2024-04-18 23:00:00	8	casamassima	9.11	1	78.73	1	0.0	1	null	6	null	6	0.0	1	983.01	1	40.951419	16.919863
2617	2024-04-19 00:00:00	8	casamassima	8.81	1	81.61	1	0.0	1	null	6	null	6	0.0	1	982.8	1	40.951419	16.919863
2618	2024-04-19 01:00:00	8	casamassima	7.71	1	85.42	1	0.0	1	null	6	null	6	0.0	1	982.45	1	40.951419	16.919863
2619	2024-04-19 02:00:00	8	casamassima	7.13	1	85.45	1	0.0	1	null	6	null	6	0.0	1	982.19	1	40.951419	16.919863
2620	2024-04-19 03:00:00	8	casamassima	7.06	1	83.38	1	0.0	1	null	6	null	6	0.0	1	981.87	1	40.951419	16.919863
2621	2024-04-19 04:00:00	8	casamassima	7.38	1	83.49	1	0.0	1	null	6	null	6	0.0	1	981.4	1	40.951419	16.919863
2622	2024-04-19 05:00:00	8	casamassima	7.71	1	84.47	1	0.0	1	null	6	null	6	0.0	1	981.19	1	40.951419	16.919863
2623	2024-04-19 06:00:00	8	casamassima	7.96	1	88.16	1	6.4	1	null	6	null	6	0.0	5	981.48	1	40.951419	16.919863
2624	2024-04-19 07:00:00	8	casamassima	8.09	1	87.26	1	0.4	1	null	6	null	6	25.53	1	981.65	1	40.951419	16.919863
2625	2024-04-19 08:00:00	8	casamassima	8.43	1	87.44	1	0.6	1	null	6	null	6	54.25	1	981.74	1	40.951419	16.919863
2626	2024-04-19 09:00:00	8	casamassima	8.51	1	89.0	1	0.6	1	null	6	null	6	96.43	1	981.91	1	40.951419	16.919863
2627	2024-04-19 10:00:00	8	casamassima	8.56	1	88.59	1	0.2	1	null	6	null	6	216.88	1	982.07	1	40.951419	16.919863
2628	2024-04-19 11:00:00	8	casamassima	8.27	1	86.46	1	0.0	1	null	6	null	6	176.27	1	982.44	1	40.951419	16.919863
2629	2024-04-19 12:00:00	8	casamassima	8.51	1	88.28	1	1.4	1	null	6	null	6	254.13	1	982.06	1	40.951419	16.919863
2630	2024-04-19 13:00:00	8	casamassima	8.59	1	86.33	1	0.2	1	null	6	null	6	286.69	1	981.78	1	40.951419	16.919863
2631	2024-04-19 14:00:00	8	casamassima	10.58	1	76.5	1	0.0	1	null	6	null	6	465.77	1	981.65	1	40.951419	16.919863
2632	2024-04-19 15:00:00	8	casamassima	10.73	1	74.02	1	0.0	1	null	6	null	6	224.58	1	981.6	1	40.951419	16.919863
2633	2024-04-19 16:00:00	8	casamassima	10.46	1	78.31	1	0.2	1	null	6	null	6	261.41	1	981.7	1	40.951419	16.919863
2634	2024-04-19 17:00:00	8	casamassima	10.79	1	69.96	1	0.0	1	null	6	null	6	57.71	1	982.18	1	40.951419	16.919863
2635	2024-04-19 18:00:00	8	casamassima	11.66	1	53.0	1	0.0	1	null	6	null	6	49.66	1	982.54	1	40.951419	16.919863
2636	2024-04-19 19:00:00	8	casamassima	10.93	1	56.0	1	0.0	1	null	6	null	6	8.25	1	983.09	1	40.951419	16.919863
2637	2024-04-19 20:00:00	8	casamassima	10.2	1	55.59	1	0.0	1	null	6	null	6	0.0	1	983.68	1	40.951419	16.919863
2638	2024-04-19 21:00:00	8	casamassima	8.65	1	61.69	1	0.0	1	null	6	null	6	0.0	1	983.92	1	40.951419	16.919863
2639	2024-04-19 22:00:00	8	casamassima	7.57	1	65.74	1	0.0	1	null	6	null	6	0.0	1	983.98	1	40.951419	16.919863
2640	2024-04-19 23:00:00	8	casamassima	7.21	1	64.9	1	0.0	1	null	6	null	6	0.0	1	984.09	1	40.951419	16.919863
2641	2024-04-20 00:00:00	8	casamassima	6.73	1	68.89	1	0.0	1	null	6	null	6	0.0	1	983.84	1	40.951419	16.919863
2642	2024-04-20 01:00:00	8	casamassima	5.58	1	75.99	1	0.0	1	null	6	null	6	0.0	1	983.46	1	40.951419	16.919863
2643	2024-04-20 02:00:00	8	casamassima	5.23	1	77.69	1	0.0	1	null	6	null	6	0.0	1	982.95	1	40.951419	16.919863
2644	2024-04-20 03:00:00	8	casamassima	4.9	1	77.49	1	0.0	1	null	6	null	6	0.0	1	982.67	1	40.951419	16.919863
2645	2024-04-20 04:00:00	8	casamassima	4.17	1	73.77	1	0.0	1	null	6	null	6	0.0	1	982.39	1	40.951419	16.919863
2646	2024-04-20 05:00:00	8	casamassima	4.1	1	65.45	1	0.0	1	null	6	null	6	0.0	5	982.24	1	40.951419	16.919863
2647	2024-04-20 06:00:00	8	casamassima	4.87	1	65.89	1	0.0	1	null	6	null	6	46.07	1	982.13	1	40.951419	16.919863
2648	2024-04-20 07:00:00	8	casamassima	10.52	1	55.07	1	0.0	1	null	6	null	6	211.11	1	981.9	1	40.951419	16.919863
2649	2024-04-20 08:00:00	8	casamassima	14.34	1	46.98	1	0.0	1	null	6	null	6	402.17	1	981.77	1	40.951419	16.919863
2650	2024-04-20 09:00:00	8	casamassima	15.48	1	35.89	1	0.0	1	null	6	null	6	588.15	1	981.69	1	40.951419	16.919863
2651	2024-04-20 10:00:00	8	casamassima	16.12	1	32.01	1	0.0	1	null	6	null	6	674.47	1	981.97	1	40.951419	16.919863
2652	2024-04-20 11:00:00	8	casamassima	15.98	1	37.75	1	0.0	1	null	6	null	6	728.25	1	982.09	1	40.951419	16.919863
2653	2024-04-20 12:00:00	8	casamassima	16.27	1	40.24	1	0.0	1	null	6	null	6	720.8	1	981.8	1	40.951419	16.919863
2654	2024-04-20 13:00:00	8	casamassima	15.12	1	45.41	1	0.0	1	null	6	null	6	295.98	1	981.8	1	40.951419	16.919863
2655	2024-04-20 14:00:00	8	casamassima	15.28	1	47.92	1	0.0	1	null	6	null	6	501.37	1	981.46	1	40.951419	16.919863
2656	2024-04-20 15:00:00	8	casamassima	12.06	1	66.73	1	5.6	1	null	6	null	6	68.63	1	981.61	1	40.951419	16.919863
2657	2024-04-20 16:00:00	8	casamassima	10.45	1	79.98	1	0.4	1	null	6	null	6	153.1	1	981.58	1	40.951419	16.919863
2658	2024-04-20 17:00:00	8	casamassima	10.51	1	79.7	1	0.4	1	null	6	null	6	43.53	1	981.56	1	40.951419	16.919863
2659	2024-04-20 18:00:00	8	casamassima	10.28	1	82.0	1	0.0	1	null	6	null	6	26.1	1	981.42	1	40.951419	16.919863
2660	2024-04-20 19:00:00	8	casamassima	9.97	1	82.55	1	0.6	1	null	6	null	6	0.0	5	981.63	1	40.951419	16.919863
2661	2024-04-20 20:00:00	8	casamassima	9.33	1	89.07	1	0.4	1	null	6	null	6	0.0	5	981.94	1	40.951419	16.919863
2662	2024-04-20 21:00:00	8	casamassima	9.01	1	89.6	1	0.0	1	null	6	null	6	0.0	1	981.87	1	40.951419	16.919863
2663	2024-04-20 22:00:00	8	casamassima	8.52	1	91.71	1	0.0	1	null	6	null	6	0.0	1	981.62	1	40.951419	16.919863
2664	2024-04-20 23:00:00	8	casamassima	8.36	1	92.26	1	0.2	1	null	6	null	6	0.0	1	981.56	1	40.951419	16.919863
2665	2024-04-21 00:00:00	8	casamassima	8.02	1	92.37	1	0.0	1	null	6	null	6	0.0	1	981.1	1	40.951419	16.919863
2666	2024-04-21 01:00:00	8	casamassima	7.55	1	92.6	1	0.0	1	null	6	null	6	0.0	1	980.61	1	40.951419	16.919863
2667	2024-04-21 02:00:00	8	casamassima	7.58	1	92.85	1	0.0	1	null	6	null	6	0.0	1	980.08	1	40.951419	16.919863
2668	2024-04-21 03:00:00	8	casamassima	7.59	1	92.57	1	0.0	1	null	6	null	6	0.0	1	980.08	1	40.951419	16.919863
2669	2024-04-21 04:00:00	8	casamassima	7.22	1	92.07	1	0.0	1	null	6	null	6	0.0	5	980.09	1	40.951419	16.919863
2670	2024-04-21 05:00:00	8	casamassima	6.51	1	91.03	1	0.0	1	null	6	null	6	0.0	5	980.14	1	40.951419	16.919863
2671	2024-04-21 06:00:00	8	casamassima	6.32	1	90.59	1	0.0	1	null	6	null	6	21.9	1	980.22	1	40.951419	16.919863
2672	2024-04-21 07:00:00	8	casamassima	7.57	1	83.65	1	0.0	1	null	6	null	6	186.87	1	980.33	1	40.951419	16.919863
2673	2024-04-21 08:00:00	8	casamassima	10.45	1	67.29	1	0.0	1	null	6	null	6	370.39	1	980.39	1	40.951419	16.919863
2674	2024-04-21 09:00:00	8	casamassima	12.17	1	59.96	1	0.2	1	null	6	null	6	600.62	1	980.33	1	40.951419	16.919863
2675	2024-04-21 10:00:00	8	casamassima	11.51	1	61.61	1	0.0	1	null	6	null	6	418.04	1	980.86	1	40.951419	16.919863
2676	2024-04-21 11:00:00	8	casamassima	10.91	1	69.29	1	0.0	1	null	6	null	6	319.8	1	981.5	1	40.951419	16.919863
2677	2024-04-21 12:00:00	8	casamassima	9.88	1	76.0	1	0.0	1	null	6	null	6	263.69	1	982.24	1	40.951419	16.919863
2678	2024-04-21 13:00:00	8	casamassima	10.49	1	72.62	1	0.0	1	null	6	null	6	414.2	1	983.03	1	40.951419	16.919863
2679	2024-04-21 14:00:00	8	casamassima	11.47	1	60.63	1	0.0	1	null	6	null	6	378.65	1	983.77	1	40.951419	16.919863
2680	2024-04-21 15:00:00	8	casamassima	11.29	1	63.41	1	0.2	1	null	6	null	6	230.1	1	983.97	1	40.951419	16.919863
2681	2024-04-21 16:00:00	8	casamassima	10.98	1	65.97	1	0.0	1	null	6	null	6	187.48	1	984.53	1	40.951419	16.919863
2682	2024-04-21 17:00:00	8	casamassima	11.22	1	63.81	1	0.0	1	null	6	null	6	156.11	1	984.61	1	40.951419	16.919863
2683	2024-04-21 18:00:00	8	casamassima	10.98	1	63.57	1	0.0	1	null	6	null	6	54.47	1	985.01	1	40.951419	16.919863
2684	2024-04-21 19:00:00	8	casamassima	10.08	1	68.87	1	0.0	1	null	6	null	6	6.28	1	985.62	1	40.951419	16.919863
2685	2024-04-21 20:00:00	8	casamassima	7.98	1	79.01	1	0.0	1	null	6	null	6	0.0	1	986.32	1	40.951419	16.919863
2686	2024-04-21 21:00:00	8	casamassima	6.72	1	82.82	1	0.0	1	null	6	null	6	0.0	1	986.9	1	40.951419	16.919863
2687	2024-04-21 22:00:00	8	casamassima	5.88	1	85.42	1	0.0	1	null	6	null	6	0.0	1	987.37	1	40.951419	16.919863
2688	2024-04-21 23:00:00	8	casamassima	5.18	1	86.99	1	0.0	1	null	6	null	6	0.0	1	987.57	1	40.951419	16.919863
2689	2024-04-22 00:00:00	8	casamassima	4.52	1	87.42	1	0.0	1	null	6	null	6	0.0	1	987.68	1	40.951419	16.919863
2690	2024-04-22 01:00:00	8	casamassima	4.14	1	87.8	1	0.0	1	null	6	null	6	0.0	1	987.52	1	40.951419	16.919863
2691	2024-04-22 02:00:00	8	casamassima	3.76	1	88.15	1	0.0	1	null	6	null	6	0.0	1	987.2	1	40.951419	16.919863
2692	2024-04-22 03:00:00	8	casamassima	3.46	1	88.42	1	0.0	1	null	6	null	6	0.0	1	986.93	1	40.951419	16.919863
2693	2024-04-22 04:00:00	8	casamassima	3.36	1	88.41	1	0.0	1	null	6	null	6	0.0	1	986.65	1	40.951419	16.919863
2694	2024-04-22 05:00:00	8	casamassima	3.66	1	87.57	1	0.0	1	null	6	null	6	0.0	5	986.44	1	40.951419	16.919863
2695	2024-04-22 06:00:00	8	casamassima	4.39	1	86.21	1	0.0	1	null	6	null	6	45.02	1	986.36	1	40.951419	16.919863
2696	2024-04-22 07:00:00	8	casamassima	8.28	1	78.29	1	0.0	1	null	6	null	6	195.08	1	986.22	1	40.951419	16.919863
2697	2024-04-22 08:00:00	8	casamassima	11.33	1	69.21	1	0.0	1	null	6	null	6	318.23	1	986.13	1	40.951419	16.919863
2698	2024-04-22 09:00:00	8	casamassima	12.52	1	63.37	1	0.0	1	null	6	null	6	431.52	1	986.08	1	40.951419	16.919863
2699	2024-04-22 10:00:00	8	casamassima	13.96	1	54.99	1	0.0	1	null	6	null	6	443.74	1	986.1	1	40.951419	16.919863
2700	2024-04-22 11:00:00	8	casamassima	14.88	1	51.27	1	0.0	1	null	6	null	6	581.32	1	985.91	1	40.951419	16.919863
2701	2024-04-22 12:00:00	8	casamassima	16.13	1	46.94	1	0.0	1	null	6	null	6	749.69	1	985.42	1	40.951419	16.919863
2702	2024-04-22 13:00:00	8	casamassima	16.93	1	44.94	1	0.0	1	null	6	null	6	765.25	1	985.09	1	40.951419	16.919863
2703	2024-04-22 14:00:00	8	casamassima	17.26	1	39.46	1	0.0	1	null	6	null	6	620.22	1	984.65	1	40.951419	16.919863
2704	2024-04-22 15:00:00	8	casamassima	16.64	1	38.19	1	0.0	1	null	6	null	6	335.22	1	984.09	1	40.951419	16.919863
2705	2024-04-22 16:00:00	8	casamassima	16.52	1	37.95	1	0.0	1	null	6	null	6	324.7	1	983.8	1	40.951419	16.919863
2706	2024-04-22 17:00:00	8	casamassima	16.11	1	39.49	1	0.0	1	null	6	null	6	179.74	1	983.54	1	40.951419	16.919863
2707	2024-04-22 18:00:00	8	casamassima	15.05	1	44.2	1	0.0	1	null	6	null	6	50.03	1	983.28	1	40.951419	16.919863
2708	2024-04-22 19:00:00	8	casamassima	13.35	1	60.76	1	0.0	1	null	6	null	6	5.92	1	983.38	1	40.951419	16.919863
2709	2024-04-22 20:00:00	8	casamassima	12.36	1	64.56	1	0.0	1	null	6	null	6	0.0	1	983.54	1	40.951419	16.919863
2710	2024-04-22 21:00:00	8	casamassima	11.48	1	66.52	1	0.0	1	null	6	null	6	0.0	1	983.53	1	40.951419	16.919863
2711	2024-04-22 22:00:00	8	casamassima	10.78	1	71.83	1	0.0	1	null	6	null	6	0.0	1	983.07	1	40.951419	16.919863
2712	2024-04-22 23:00:00	8	casamassima	10.17	1	74.66	1	0.0	1	null	6	null	6	0.0	1	982.84	1	40.951419	16.919863
2713	2024-04-23 00:00:00	8	casamassima	9.38	1	77.91	1	0.0	1	null	6	null	6	0.0	1	982.71	1	40.951419	16.919863
2714	2024-04-23 01:00:00	8	casamassima	8.07	1	82.78	1	0.0	1	null	6	null	6	0.0	1	982.3	1	40.951419	16.919863
2715	2024-04-23 02:00:00	8	casamassima	7.65	1	84.47	1	0.0	1	null	6	null	6	0.0	1	981.92	1	40.951419	16.919863
2716	2024-04-23 03:00:00	8	casamassima	7.28	1	85.23	1	0.0	1	null	6	null	6	0.0	1	981.28	1	40.951419	16.919863
2717	2024-04-23 04:00:00	8	casamassima	7.47	1	84.58	1	0.0	1	null	6	null	6	0.0	1	980.93	1	40.951419	16.919863
2718	2024-04-23 05:00:00	8	casamassima	7.57	1	82.98	1	0.0	1	null	6	null	6	0.0	5	980.15	1	40.951419	16.919863
2719	2024-04-23 06:00:00	8	casamassima	6.89	1	85.57	1	0.0	1	null	6	null	6	23.11	1	980.08	1	40.951419	16.919863
2720	2024-04-23 07:00:00	8	casamassima	8.96	1	78.03	1	0.0	1	null	6	null	6	102.51	1	979.77	1	40.951419	16.919863
2721	2024-04-23 08:00:00	8	casamassima	12.32	1	66.04	1	0.0	1	null	6	null	6	240.0	1	979.09	1	40.951419	16.919863
2722	2024-04-23 09:00:00	8	casamassima	13.42	1	58.32	1	0.0	1	null	6	null	6	175.89	1	979.16	1	40.951419	16.919863
2723	2024-04-23 10:00:00	8	casamassima	14.46	1	54.09	1	0.0	1	null	6	null	6	278.87	1	978.93	1	40.951419	16.919863
2724	2024-04-23 11:00:00	8	casamassima	14.72	1	54.23	1	0.0	1	null	6	null	6	265.87	1	978.49	1	40.951419	16.919863
2725	2024-04-23 12:00:00	8	casamassima	14.93	1	59.83	1	0.0	1	null	6	null	6	409.61	1	978.03	1	40.951419	16.919863
2726	2024-04-23 13:00:00	8	casamassima	16.06	1	55.62	1	0.0	1	null	6	null	6	683.79	1	977.69	1	40.951419	16.919863
2727	2024-04-23 14:00:00	8	casamassima	17.0	1	48.58	1	0.0	1	null	6	null	6	886.52	1	977.34	1	40.951419	16.919863
2728	2024-04-23 15:00:00	8	casamassima	16.82	1	47.04	1	0.0	1	null	6	null	6	755.38	1	977.04	1	40.951419	16.919863
2729	2024-04-23 16:00:00	8	casamassima	16.97	1	40.93	1	0.0	1	null	6	null	6	445.71	1	977.05	1	40.951419	16.919863
2730	2024-04-23 17:00:00	8	casamassima	15.51	1	51.03	1	0.0	1	null	6	null	6	90.22	1	977.65	1	40.951419	16.919863
2731	2024-04-23 18:00:00	8	casamassima	13.7	1	67.47	1	0.4	1	null	6	null	6	59.11	1	977.99	1	40.951419	16.919863
2732	2024-04-23 19:00:00	8	casamassima	12.7	1	74.77	1	0.0	1	null	6	null	6	6.54	1	978.65	1	40.951419	16.919863
2733	2024-04-23 20:00:00	8	casamassima	11.34	1	57.89	1	0.0	1	null	6	null	6	0.0	1	979.61	1	40.951419	16.919863
2734	2024-04-23 21:00:00	8	casamassima	9.58	1	55.85	1	0.0	1	null	6	null	6	0.0	1	980.44	1	40.951419	16.919863
2735	2024-04-23 22:00:00	8	casamassima	9.48	1	55.31	1	0.0	1	null	6	null	6	0.0	1	981.15	1	40.951419	16.919863
2736	2024-04-23 23:00:00	8	casamassima	8.89	1	59.98	1	0.0	1	null	6	null	6	0.0	1	981.49	1	40.951419	16.919863
2737	2024-04-24 00:00:00	8	casamassima	7.83	1	63.12	1	0.0	1	null	6	null	6	0.0	1	981.46	1	40.951419	16.919863
2738	2024-04-24 01:00:00	8	casamassima	8.29	1	61.22	1	0.0	1	null	6	null	6	0.0	1	981.41	1	40.951419	16.919863
2739	2024-04-24 02:00:00	8	casamassima	7.44	1	64.67	1	0.0	1	null	6	null	6	0.0	1	981.53	1	40.951419	16.919863
2740	2024-04-24 03:00:00	8	casamassima	6.48	1	67.82	1	0.0	1	null	6	null	6	0.0	1	981.28	1	40.951419	16.919863
2741	2024-04-24 04:00:00	8	casamassima	6.39	1	67.32	1	0.0	1	null	6	null	6	0.0	1	981.28	1	40.951419	16.919863
2742	2024-04-24 05:00:00	8	casamassima	5.69	1	69.32	1	0.0	1	null	6	null	6	0.0	5	981.14	1	40.951419	16.919863
2743	2024-04-24 06:00:00	8	casamassima	5.89	1	70.87	1	0.0	1	null	6	null	6	64.69	1	980.87	1	40.951419	16.919863
2744	2024-04-24 07:00:00	8	casamassima	9.4	1	60.66	1	0.0	1	null	6	null	6	165.94	1	980.72	1	40.951419	16.919863
2745	2024-04-24 08:00:00	8	casamassima	11.14	1	55.07	1	0.0	1	null	6	null	6	154.64	1	980.75	1	40.951419	16.919863
2746	2024-04-24 09:00:00	8	casamassima	14.11	1	46.47	1	0.0	1	null	6	null	6	508.07	1	980.64	1	40.951419	16.919863
2747	2024-04-24 10:00:00	8	casamassima	15.83	1	42.66	1	0.0	1	null	6	null	6	585.06	1	980.58	1	40.951419	16.919863
2748	2024-04-24 11:00:00	8	casamassima	14.09	1	49.53	1	0.0	1	null	6	null	6	296.4	1	980.75	1	40.951419	16.919863
2749	2024-04-24 12:00:00	8	casamassima	15.01	1	49.69	1	0.0	1	null	6	null	6	512.52	1	980.46	1	40.951419	16.919863
2750	2024-04-24 13:00:00	8	casamassima	12.12	1	65.68	1	0.0	1	null	6	null	6	585.27	1	980.6	1	40.951419	16.919863
2751	2024-04-24 14:00:00	8	casamassima	13.24	1	59.53	1	0.0	1	null	6	null	6	360.45	1	980.11	1	40.951419	16.919863
2752	2024-04-24 15:00:00	8	casamassima	13.67	1	58.17	1	0.0	1	null	6	null	6	257.76	1	979.41	1	40.951419	16.919863
2753	2024-04-24 16:00:00	8	casamassima	11.85	1	73.35	1	1.6	1	null	6	null	6	55.51	1	979.21	1	40.951419	16.919863
2754	2024-04-24 17:00:00	8	casamassima	10.94	1	82.16	1	0.4	1	null	6	null	6	126.54	1	979.27	1	40.951419	16.919863
2755	2024-04-24 18:00:00	8	casamassima	10.71	1	80.13	1	0.0	1	null	6	null	6	75.14	1	979.46	1	40.951419	16.919863
2756	2024-04-24 19:00:00	8	casamassima	10.51	1	81.59	1	0.0	1	null	6	null	6	7.78	1	979.45	1	40.951419	16.919863
2757	2024-04-24 20:00:00	8	casamassima	9.86	1	85.79	1	0.0	1	null	6	null	6	0.0	1	979.89	1	40.951419	16.919863
2758	2024-04-24 21:00:00	8	casamassima	9.47	1	80.96	1	1.0	1	null	6	null	6	0.0	5	980.56	1	40.951419	16.919863
2759	2024-04-24 22:00:00	8	casamassima	8.1	1	84.8	1	0.0	1	null	6	null	6	0.0	1	980.55	1	40.951419	16.919863
2760	2024-04-24 23:00:00	8	casamassima	6.76	1	88.9	1	0.0	1	null	6	null	6	0.0	1	980.57	1	40.951419	16.919863
2761	2024-04-25 00:00:00	8	casamassima	5.79	1	89.1	1	0.0	1	null	6	null	6	0.0	1	980.51	1	40.951419	16.919863
2762	2024-04-25 01:00:00	8	casamassima	4.97	1	88.13	1	0.0	1	null	6	null	6	0.0	1	980.35	1	40.951419	16.919863
2763	2024-04-25 02:00:00	8	casamassima	4.44	1	86.22	1	0.2	1	null	6	null	6	0.0	1	979.99	1	40.951419	16.919863
2764	2024-04-25 03:00:00	8	casamassima	3.81	1	85.59	1	0.0	1	null	6	null	6	0.0	1	979.57	1	40.951419	16.919863
2765	2024-04-25 04:00:00	8	casamassima	3.34	1	85.45	1	0.0	1	null	6	null	6	0.0	1	979.65	1	40.951419	16.919863
2766	2024-04-25 05:00:00	8	casamassima	3.01	1	86.74	1	0.0	1	null	6	null	6	0.0	5	979.82	1	40.951419	16.919863
2767	2024-04-25 06:00:00	8	casamassima	4.86	1	80.03	1	0.0	1	null	6	null	6	62.52	1	979.84	1	40.951419	16.919863
2768	2024-04-25 07:00:00	8	casamassima	10.05	1	63.5	1	0.0	1	null	6	null	6	232.68	1	979.88	1	40.951419	16.919863
2769	2024-04-25 08:00:00	8	casamassima	12.46	1	53.39	1	0.0	1	null	6	null	6	426.56	1	980.12	1	40.951419	16.919863
2770	2024-04-25 09:00:00	8	casamassima	13.13	1	47.24	1	0.0	1	null	6	null	6	625.84	1	980.2	1	40.951419	16.919863
2771	2024-04-25 10:00:00	8	casamassima	14.6	1	42.46	1	0.0	1	null	6	null	6	774.27	1	980.32	1	40.951419	16.919863
2772	2024-04-25 11:00:00	8	casamassima	15.54	1	39.33	1	0.0	1	null	6	null	6	833.51	1	980.38	1	40.951419	16.919863
2773	2024-04-25 12:00:00	8	casamassima	15.66	1	36.55	1	0.0	1	null	6	null	6	673.77	1	980.27	1	40.951419	16.919863
2774	2024-04-25 13:00:00	8	casamassima	15.34	1	44.92	1	0.0	1	null	6	null	6	665.54	1	980.27	1	40.951419	16.919863
2775	2024-04-25 14:00:00	8	casamassima	15.8	1	45.52	1	0.0	1	null	6	null	6	733.15	1	980.31	1	40.951419	16.919863
2776	2024-04-25 15:00:00	8	casamassima	14.99	1	47.83	1	0.0	1	null	6	null	6	484.22	1	980.46	1	40.951419	16.919863
2777	2024-04-25 16:00:00	8	casamassima	14.29	1	51.28	1	0.0	1	null	6	null	6	237.88	1	980.91	1	40.951419	16.919863
2778	2024-04-25 17:00:00	8	casamassima	13.75	1	53.46	1	0.0	1	null	6	null	6	84.3	1	981.23	1	40.951419	16.919863
2779	2024-04-25 18:00:00	8	casamassima	13.4	1	56.32	1	0.0	1	null	6	null	6	19.73	1	981.46	1	40.951419	16.919863
2780	2024-04-25 19:00:00	8	casamassima	9.88	1	76.03	1	9.0	1	null	6	null	6	0.0	5	982.35	1	40.951419	16.919863
2781	2024-04-25 20:00:00	8	casamassima	9.51	1	79.5	1	0.6	1	null	6	null	6	0.0	5	982.9	1	40.951419	16.919863
2782	2024-04-25 21:00:00	8	casamassima	9.32	1	81.53	1	0.0	1	null	6	null	6	0.0	5	983.5	1	40.951419	16.919863
2783	2024-04-25 22:00:00	8	casamassima	7.74	1	88.44	1	0.0	1	null	6	null	6	0.0	1	984.01	1	40.951419	16.919863
2784	2024-04-25 23:00:00	8	casamassima	7.65	1	90.05	1	0.0	1	null	6	null	6	0.0	1	984.23	1	40.951419	16.919863
2785	2024-04-26 00:00:00	8	casamassima	7.36	1	90.01	1	0.0	1	null	6	null	6	0.0	1	984.52	1	40.951419	16.919863
2786	2024-04-26 01:00:00	8	casamassima	6.6	1	90.57	1	0.0	1	null	6	null	6	0.0	1	984.58	1	40.951419	16.919863
2787	2024-04-26 02:00:00	8	casamassima	6.19	1	90.69	1	0.0	1	null	6	null	6	0.0	1	984.46	1	40.951419	16.919863
2788	2024-04-26 03:00:00	8	casamassima	5.41	1	90.87	1	0.0	1	null	6	null	6	0.0	1	984.58	1	40.951419	16.919863
2789	2024-04-26 04:00:00	8	casamassima	4.95	1	90.07	1	0.0	1	null	6	null	6	0.0	1	984.66	1	40.951419	16.919863
2790	2024-04-26 05:00:00	8	casamassima	4.8	1	89.23	1	0.0	1	null	6	null	6	0.0	5	984.83	1	40.951419	16.919863
2791	2024-04-26 06:00:00	8	casamassima	6.38	1	85.05	1	0.0	1	null	6	null	6	56.84	1	985.02	1	40.951419	16.919863
2792	2024-04-26 07:00:00	8	casamassima	9.68	1	72.95	1	0.0	1	null	6	null	6	168.56	1	985.07	1	40.951419	16.919863
2793	2024-04-26 08:00:00	8	casamassima	14.84	1	50.48	1	0.0	1	null	6	null	6	423.69	1	985.43	1	40.951419	16.919863
2794	2024-04-26 09:00:00	8	casamassima	15.8	1	40.32	1	0.0	1	null	6	null	6	427.67	1	985.59	1	40.951419	16.919863
2795	2024-04-26 10:00:00	8	casamassima	15.95	1	42.28	1	0.0	1	null	6	null	6	343.84	1	986.08	1	40.951419	16.919863
2796	2024-04-26 11:00:00	8	casamassima	17.07	1	40.69	1	0.0	1	null	6	null	6	864.08	1	986.17	1	40.951419	16.919863
2797	2024-04-26 12:00:00	8	casamassima	17.91	1	36.23	1	0.0	1	null	6	null	6	826.83	1	985.77	1	40.951419	16.919863
2798	2024-04-26 13:00:00	8	casamassima	18.52	1	35.59	1	0.0	1	null	6	null	6	721.28	1	985.51	1	40.951419	16.919863
2799	2024-04-26 14:00:00	8	casamassima	18.8	1	34.5	1	0.0	1	null	6	null	6	507.83	1	985.39	1	40.951419	16.919863
2800	2024-04-26 15:00:00	8	casamassima	18.6	1	36.82	1	0.0	1	null	6	null	6	328.54	1	985.2	1	40.951419	16.919863
2801	2024-04-26 16:00:00	8	casamassima	17.58	1	40.2	1	0.0	1	null	6	null	6	277.25	1	985.22	1	40.951419	16.919863
2802	2024-04-26 17:00:00	8	casamassima	16.77	1	44.19	1	0.0	1	null	6	null	6	173.37	1	985.42	1	40.951419	16.919863
2803	2024-04-26 18:00:00	8	casamassima	15.22	1	49.49	1	0.0	1	null	6	null	6	104.03	1	985.7	1	40.951419	16.919863
2804	2024-04-26 19:00:00	8	casamassima	13.59	1	59.49	1	0.0	1	null	6	null	6	13.99	1	986.16	1	40.951419	16.919863
2805	2024-04-26 20:00:00	8	casamassima	12.45	1	69.36	1	0.0	1	null	6	null	6	0.0	1	986.85	1	40.951419	16.919863
2806	2024-04-26 21:00:00	8	casamassima	11.73	1	75.47	1	0.0	1	null	6	null	6	0.0	1	987.33	1	40.951419	16.919863
2807	2024-04-26 22:00:00	8	casamassima	11.38	1	79.68	1	0.0	1	null	6	null	6	0.0	1	987.38	1	40.951419	16.919863
2808	2024-04-26 23:00:00	8	casamassima	11.22	1	82.05	1	0.0	1	null	6	null	6	0.0	1	987.39	1	40.951419	16.919863
2809	2024-04-27 00:00:00	8	casamassima	11.49	1	81.85	1	0.0	1	null	6	null	6	0.0	1	987.32	1	40.951419	16.919863
2810	2024-04-27 01:00:00	8	casamassima	11.19	1	83.08	1	0.0	1	null	6	null	6	0.0	1	987.09	1	40.951419	16.919863
2811	2024-04-27 02:00:00	8	casamassima	11.11	1	83.48	1	0.0	1	null	6	null	6	0.0	1	986.84	1	40.951419	16.919863
2812	2024-04-27 03:00:00	8	casamassima	9.86	1	86.6	1	0.0	1	null	6	null	6	0.0	1	987.02	1	40.951419	16.919863
2813	2024-04-27 04:00:00	8	casamassima	9.15	1	88.56	1	0.0	1	null	6	null	6	0.0	1	987.44	1	40.951419	16.919863
2814	2024-04-27 05:00:00	8	casamassima	8.77	1	90.25	1	0.0	1	null	6	null	6	0.0	5	987.81	1	40.951419	16.919863
2815	2024-04-27 06:00:00	8	casamassima	9.29	1	89.79	1	0.0	1	null	6	null	6	63.36	1	988.35	1	40.951419	16.919863
2816	2024-04-27 07:00:00	8	casamassima	13.21	1	79.83	1	0.0	1	null	6	null	6	229.29	1	988.79	1	40.951419	16.919863
2817	2024-04-27 08:00:00	8	casamassima	16.66	1	60.08	1	0.0	1	null	6	null	6	411.12	1	988.92	1	40.951419	16.919863
2818	2024-04-27 09:00:00	8	casamassima	18.85	1	44.52	1	0.0	1	null	6	null	6	605.99	1	989.02	1	40.951419	16.919863
2819	2024-04-27 10:00:00	8	casamassima	19.41	1	41.45	1	0.0	1	null	6	null	6	762.24	1	989.19	1	40.951419	16.919863
2820	2024-04-27 11:00:00	8	casamassima	19.39	1	45.23	1	0.0	1	null	6	null	6	619.13	1	989.24	1	40.951419	16.919863
2821	2024-04-27 12:00:00	8	casamassima	19.47	1	47.9	1	0.0	1	null	6	null	6	936.18	1	989.21	1	40.951419	16.919863
2822	2024-04-27 13:00:00	8	casamassima	19.84	1	48.07	1	0.0	1	null	6	null	6	939.9	1	989.05	1	40.951419	16.919863
2823	2024-04-27 14:00:00	8	casamassima	20.07	1	46.3	1	0.0	1	null	6	null	6	931.59	1	989.05	1	40.951419	16.919863
2824	2024-04-27 15:00:00	8	casamassima	20.38	1	42.81	1	0.0	1	null	6	null	6	771.67	1	989.03	1	40.951419	16.919863
2825	2024-04-27 16:00:00	8	casamassima	20.04	1	41.73	1	0.0	1	null	6	null	6	570.24	1	989.04	1	40.951419	16.919863
2826	2024-04-27 17:00:00	8	casamassima	19.0	1	41.11	1	0.0	1	null	6	null	6	200.51	1	989.25	1	40.951419	16.919863
2827	2024-04-27 18:00:00	8	casamassima	18.2	1	45.87	1	0.0	1	null	6	null	6	55.03	1	989.42	1	40.951419	16.919863
2828	2024-04-27 19:00:00	8	casamassima	16.8	1	50.83	1	0.0	1	null	6	null	6	7.84	1	989.67	1	40.951419	16.919863
2829	2024-04-27 20:00:00	8	casamassima	15.3	1	55.34	1	0.0	1	null	6	null	6	0.0	1	990.1	1	40.951419	16.919863
2830	2024-04-27 21:00:00	8	casamassima	13.56	1	63.41	1	0.0	1	null	6	null	6	0.0	1	990.85	1	40.951419	16.919863
2831	2024-04-27 22:00:00	8	casamassima	12.46	1	68.46	1	0.0	1	null	6	null	6	0.0	1	991.03	1	40.951419	16.919863
2832	2024-04-27 23:00:00	8	casamassima	11.22	1	70.48	1	0.0	1	null	6	null	6	0.0	1	991.04	1	40.951419	16.919863
2833	2024-04-28 00:00:00	8	casamassima	10.36	1	69.69	1	0.0	1	null	6	null	6	0.0	1	991.17	1	40.951419	16.919863
2834	2024-04-28 01:00:00	8	casamassima	10.2	1	70.24	1	0.0	1	null	6	null	6	0.0	1	991.16	1	40.951419	16.919863
2835	2024-04-28 02:00:00	8	casamassima	9.82	1	73.38	1	0.0	1	null	6	null	6	0.0	1	990.9	1	40.951419	16.919863
2836	2024-04-28 03:00:00	8	casamassima	9.6	1	74.48	1	0.0	1	null	6	null	6	0.0	1	990.92	1	40.951419	16.919863
2837	2024-04-28 04:00:00	8	casamassima	8.9	1	76.05	1	0.0	1	null	6	null	6	0.0	1	991.04	1	40.951419	16.919863
2838	2024-04-28 05:00:00	8	casamassima	8.27	1	74.33	1	0.0	1	null	6	null	6	0.0	5	991.31	1	40.951419	16.919863
2839	2024-04-28 06:00:00	8	casamassima	9.45	1	71.09	1	0.0	1	null	6	null	6	68.92	1	991.75	1	40.951419	16.919863
2840	2024-04-28 07:00:00	8	casamassima	14.12	1	57.87	1	0.0	1	null	6	null	6	236.46	1	991.96	1	40.951419	16.919863
2841	2024-04-28 08:00:00	8	casamassima	18.6	1	46.19	1	0.0	1	null	6	null	6	424.61	1	991.97	1	40.951419	16.919863
2842	2024-04-28 09:00:00	8	casamassima	19.46	1	40.96	1	0.0	1	null	6	null	6	626.24	1	991.98	1	40.951419	16.919863
2843	2024-04-28 10:00:00	8	casamassima	20.13	1	36.99	1	0.0	1	null	6	null	6	794.3	1	992.07	1	40.951419	16.919863
2844	2024-04-28 11:00:00	8	casamassima	20.77	1	33.82	1	0.0	1	null	6	null	6	900.16	1	991.93	1	40.951419	16.919863
2845	2024-04-28 12:00:00	8	casamassima	21.26	1	35.29	1	0.0	1	null	6	null	6	946.58	1	991.57	1	40.951419	16.919863
2846	2024-04-28 13:00:00	8	casamassima	21.92	1	34.79	1	0.0	1	null	6	null	6	955.15	1	991.04	1	40.951419	16.919863
2847	2024-04-28 14:00:00	8	casamassima	22.46	1	32.77	1	0.0	1	null	6	null	6	952.83	1	990.72	1	40.951419	16.919863
2848	2024-04-28 15:00:00	8	casamassima	22.57	1	32.9	1	0.0	1	null	6	null	6	800.47	1	990.47	1	40.951419	16.919863
2849	2024-04-28 16:00:00	8	casamassima	22.46	1	33.78	1	0.0	1	null	6	null	6	599.81	1	990.3	1	40.951419	16.919863
2850	2024-04-28 17:00:00	8	casamassima	20.72	1	37.86	1	0.0	1	null	6	null	6	218.17	1	990.42	1	40.951419	16.919863
2851	2024-04-28 18:00:00	8	casamassima	19.89	1	39.42	1	0.0	1	null	6	null	6	46.68	1	990.44	1	40.951419	16.919863
2852	2024-04-28 19:00:00	8	casamassima	18.37	1	48.46	1	0.0	1	null	6	null	6	6.83	1	990.52	1	40.951419	16.919863
2853	2024-04-28 20:00:00	8	casamassima	16.33	1	58.85	1	0.0	1	null	6	null	6	0.0	1	990.89	1	40.951419	16.919863
2854	2024-04-28 21:00:00	8	casamassima	13.79	1	68.63	1	0.0	1	null	6	null	6	0.0	1	991.46	1	40.951419	16.919863
2855	2024-04-28 22:00:00	8	casamassima	12.27	1	68.96	1	0.0	1	null	6	null	6	0.0	1	991.57	1	40.951419	16.919863
2856	2024-04-28 23:00:00	8	casamassima	11.33	1	65.83	1	0.0	1	null	6	null	6	0.0	1	991.64	1	40.951419	16.919863
2857	2024-04-29 00:00:00	8	casamassima	11.13	1	63.97	1	0.0	1	null	6	null	6	0.0	1	992.07	1	40.951419	16.919863
2858	2024-04-29 01:00:00	8	casamassima	10.6	1	66.65	1	0.0	1	null	6	null	6	0.0	1	991.92	1	40.951419	16.919863
2859	2024-04-29 02:00:00	8	casamassima	9.61	1	70.33	1	0.0	1	null	6	null	6	0.0	1	991.71	1	40.951419	16.919863
2860	2024-04-29 03:00:00	8	casamassima	9.73	1	68.13	1	0.0	1	null	6	null	6	0.0	1	991.62	1	40.951419	16.919863
2861	2024-04-29 04:00:00	8	casamassima	9.62	1	68.76	1	0.0	1	null	6	null	6	0.0	1	991.56	1	40.951419	16.919863
2862	2024-04-29 05:00:00	8	casamassima	9.1	1	70.45	1	0.0	1	null	6	null	6	0.0	5	991.75	1	40.951419	16.919863
2863	2024-04-29 06:00:00	8	casamassima	10.63	1	66.9	1	0.0	1	null	6	null	6	74.24	1	992.02	1	40.951419	16.919863
2864	2024-04-29 07:00:00	8	casamassima	14.95	1	62.76	1	0.0	1	null	6	null	6	240.54	1	992.2	1	40.951419	16.919863
2865	2024-04-29 08:00:00	8	casamassima	17.03	1	63.68	1	0.0	1	null	6	null	6	423.98	1	992.34	1	40.951419	16.919863
2866	2024-04-29 09:00:00	8	casamassima	18.63	1	56.73	1	0.0	1	null	6	null	6	620.35	1	992.61	1	40.951419	16.919863
2867	2024-04-29 10:00:00	8	casamassima	19.64	1	51.07	1	0.0	1	null	6	null	6	791.63	1	992.86	1	40.951419	16.919863
2868	2024-04-29 11:00:00	8	casamassima	20.63	1	43.54	1	0.0	1	null	6	null	6	895.62	1	992.87	1	40.951419	16.919863
2869	2024-04-29 12:00:00	8	casamassima	21.33	1	37.56	1	0.0	1	null	6	null	6	949.28	1	992.66	1	40.951419	16.919863
2870	2024-04-29 13:00:00	8	casamassima	21.74	1	34.87	1	0.0	1	null	6	null	6	954.8	1	992.41	1	40.951419	16.919863
2871	2024-04-29 14:00:00	8	casamassima	22.43	1	33.11	1	0.0	1	null	6	null	6	940.07	1	992.1	1	40.951419	16.919863
2872	2024-04-29 15:00:00	8	casamassima	21.92	1	38.11	1	0.0	1	null	6	null	6	793.32	1	991.84	1	40.951419	16.919863
2873	2024-04-29 16:00:00	8	casamassima	21.53	1	38.82	1	0.0	1	null	6	null	6	590.77	1	991.56	1	40.951419	16.919863
2874	2024-04-29 17:00:00	8	casamassima	20.42	1	41.06	1	0.0	1	null	6	null	6	216.73	1	991.45	1	40.951419	16.919863
2875	2024-04-29 18:00:00	8	casamassima	19.49	1	44.01	1	0.0	1	null	6	null	6	51.6	1	991.28	1	40.951419	16.919863
2876	2024-04-29 19:00:00	8	casamassima	17.7	1	55.85	1	0.0	1	null	6	null	6	8.38	1	991.53	1	40.951419	16.919863
2877	2024-04-29 20:00:00	8	casamassima	15.68	1	67.06	1	0.0	1	null	6	null	6	0.0	1	992.07	1	40.951419	16.919863
2878	2024-04-29 21:00:00	8	casamassima	14.22	1	68.69	1	0.0	1	null	6	null	6	0.0	1	992.55	1	40.951419	16.919863
2879	2024-04-29 22:00:00	8	casamassima	12.17	1	77.43	1	0.0	1	null	6	null	6	0.0	1	992.64	1	40.951419	16.919863
2880	2024-04-29 23:00:00	8	casamassima	11.28	1	79.83	1	0.0	1	null	6	null	6	0.0	1	992.84	1	40.951419	16.919863
2881	2024-04-30 00:00:00	8	casamassima	10.59	1	81.16	1	0.0	1	null	6	null	6	0.0	1	992.77	1	40.951419	16.919863
2882	2024-04-30 01:00:00	8	casamassima	9.61	1	80.7	1	0.0	1	null	6	null	6	0.0	1	992.63	1	40.951419	16.919863
2883	2024-04-30 02:00:00	8	casamassima	9.31	1	78.76	1	0.0	1	null	6	null	6	0.0	1	992.38	1	40.951419	16.919863
2884	2024-04-30 03:00:00	8	casamassima	8.99	1	75.82	1	0.0	1	null	6	null	6	0.0	1	992.19	1	40.951419	16.919863
2885	2024-04-30 04:00:00	8	casamassima	9.15	1	71.6	1	0.0	1	null	6	null	6	0.0	1	991.79	1	40.951419	16.919863
2886	2024-04-30 05:00:00	8	casamassima	8.76	1	73.81	1	0.0	1	null	6	null	6	0.0	5	991.62	1	40.951419	16.919863
2887	2024-04-30 06:00:00	8	casamassima	null	3	66.91	1	0.0	1	null	6	null	6	73.27	1	991.59	1	40.951419	16.919863
2888	2024-04-30 07:00:00	8	casamassima	null	3	54.47	1	0.0	1	null	6	null	6	239.01	1	991.49	1	40.951419	16.919863
2889	2024-04-30 08:00:00	8	casamassima	19.45	1	51.08	1	0.0	1	null	6	null	6	427.0	1	991.54	1	40.951419	16.919863
2890	2024-04-30 09:00:00	8	casamassima	20.15	1	46.81	1	0.0	1	null	6	null	6	626.08	1	991.67	1	40.951419	16.919863
2891	2024-04-30 10:00:00	8	casamassima	21.03	1	43.43	1	0.0	1	null	6	null	6	791.36	1	991.3	1	40.951419	16.919863
2892	2024-04-30 11:00:00	8	casamassima	22.78	1	38.61	1	0.0	1	null	6	null	6	839.77	1	991.1	1	40.951419	16.919863
2893	2024-04-30 12:00:00	8	casamassima	23.49	1	39.84	1	0.0	1	null	6	null	6	895.57	1	990.56	1	40.951419	16.919863
2894	2024-04-30 13:00:00	8	casamassima	22.8	1	49.03	1	0.0	1	null	6	null	6	910.87	1	989.83	1	40.951419	16.919863
2895	2024-04-30 14:00:00	8	casamassima	22.39	1	49.67	1	0.0	1	null	6	null	6	651.71	1	989.17	1	40.951419	16.919863
2896	2024-04-30 15:00:00	8	casamassima	22.66	1	44.68	1	0.0	1	null	6	null	6	643.94	1	988.74	1	40.951419	16.919863
2897	2024-04-30 16:00:00	8	casamassima	22.86	1	41.86	1	0.0	1	null	6	null	6	506.02	1	988.09	1	40.951419	16.919863
2898	2024-04-30 17:00:00	8	casamassima	23.11	1	39.02	1	0.0	1	null	6	null	6	190.13	1	987.75	1	40.951419	16.919863
2899	2024-04-30 18:00:00	8	casamassima	22.67	1	32.58	1	0.0	1	null	6	null	6	61.2	1	987.17	1	40.951419	16.919863
2900	2024-04-30 19:00:00	8	casamassima	21.18	1	33.19	1	0.0	1	null	6	null	6	7.14	1	987.15	1	40.951419	16.919863
2901	2024-04-30 20:00:00	8	casamassima	19.01	1	43.32	1	0.0	1	null	6	null	6	0.0	1	987.48	1	40.951419	16.919863
2902	2024-04-30 21:00:00	8	casamassima	17.06	1	53.53	1	0.0	1	null	6	null	6	0.0	1	987.73	1	40.951419	16.919863
2903	2024-04-30 22:00:00	8	casamassima	16.28	1	60.7	1	0.0	1	null	6	null	6	0.0	1	987.47	1	40.951419	16.919863
2904	2024-04-30 23:00:00	8	casamassima	15.75	1	61.6	1	0.0	1	null	6	null	6	0.0	1	987.27	1	40.951419	16.919863
2905	2024-05-01 00:00:00	8	casamassima	15.56	1	55.74	1	0.0	1	null	6	null	6	0.0	1	986.89	1	40.951419	16.919863
2906	2024-05-01 01:00:00	8	casamassima	14.82	1	58.97	1	0.0	1	null	6	null	6	0.0	1	986.36	1	40.951419	16.919863
2907	2024-05-01 02:00:00	8	casamassima	13.83	1	62.29	1	0.0	1	null	6	null	6	0.0	1	985.88	1	40.951419	16.919863
2908	2024-05-01 03:00:00	8	casamassima	14.3	1	56.71	1	0.0	1	null	6	null	6	0.0	1	985.57	1	40.951419	16.919863
2909	2024-05-01 04:00:00	8	casamassima	15.37	1	53.84	1	0.0	1	null	6	null	6	0.0	1	984.96	1	40.951419	16.919863
2910	2024-05-01 05:00:00	8	casamassima	16.0	1	52.17	1	0.0	1	null	6	null	6	0.0	5	984.71	1	40.951419	16.919863
2911	2024-05-01 06:00:00	8	casamassima	16.36	1	53.04	1	0.0	1	null	6	null	6	18.12	1	984.5	1	40.951419	16.919863
2912	2024-05-01 07:00:00	8	casamassima	17.06	1	51.21	1	0.0	1	null	6	null	6	85.08	1	984.41	1	40.951419	16.919863
2913	2024-05-01 08:00:00	8	casamassima	18.01	1	49.63	1	0.0	1	null	6	null	6	212.92	1	984.01	1	40.951419	16.919863
2914	2024-05-01 09:00:00	8	casamassima	20.43	1	38.66	1	0.0	1	null	6	null	6	595.24	1	983.73	1	40.951419	16.919863
2915	2024-05-01 10:00:00	8	casamassima	21.35	1	36.22	1	0.0	1	null	6	null	6	766.59	1	983.49	1	40.951419	16.919863
2916	2024-05-01 11:00:00	8	casamassima	21.51	1	37.78	1	0.0	1	null	6	null	6	850.3	1	983.62	1	40.951419	16.919863
2917	2024-05-01 12:00:00	8	casamassima	21.49	1	38.81	1	0.0	1	null	6	null	6	896.48	1	983.37	1	40.951419	16.919863
2918	2024-05-01 13:00:00	8	casamassima	21.75	1	39.34	1	0.0	1	null	6	null	6	892.27	1	983.0	1	40.951419	16.919863
2919	2024-05-01 14:00:00	8	casamassima	21.78	1	41.29	1	0.0	1	null	6	null	6	880.13	1	982.61	1	40.951419	16.919863
2920	2024-05-01 15:00:00	8	casamassima	21.44	1	50.76	1	0.0	1	null	6	null	6	727.2	1	982.2	1	40.951419	16.919863
2921	2024-05-01 16:00:00	8	casamassima	19.89	1	63.39	1	0.0	1	null	6	null	6	360.23	1	982.55	1	40.951419	16.919863
2922	2024-05-01 17:00:00	8	casamassima	18.37	1	70.44	1	0.0	1	null	6	null	6	136.72	1	983.0	1	40.951419	16.919863
2923	2024-05-01 18:00:00	8	casamassima	17.45	1	78.42	1	0.0	1	null	6	null	6	93.62	1	983.08	1	40.951419	16.919863
2924	2024-05-01 19:00:00	8	casamassima	16.66	1	79.09	1	0.2	1	null	6	null	6	43.25	1	983.45	1	40.951419	16.919863
2925	2024-05-01 20:00:00	8	casamassima	15.53	1	78.79	1	0.0	1	null	6	null	6	0.0	5	983.71	1	40.951419	16.919863
2926	2024-05-01 21:00:00	8	casamassima	14.79	1	81.55	1	0.0	1	null	6	null	6	0.0	1	984.08	1	40.951419	16.919863
2927	2024-05-01 22:00:00	8	casamassima	14.86	1	87.27	1	0.0	1	null	6	null	6	0.0	1	984.35	1	40.951419	16.919863
2928	2024-05-01 23:00:00	8	casamassima	14.71	1	88.36	1	0.0	1	null	6	null	6	0.0	1	984.54	1	40.951419	16.919863
2929	2024-05-02 00:00:00	8	casamassima	14.35	1	88.62	1	0.0	1	null	6	null	6	0.0	1	984.49	1	40.951419	16.919863
2930	2024-05-02 01:00:00	8	casamassima	13.76	1	88.85	1	0.0	1	null	6	null	6	0.0	1	984.54	1	40.951419	16.919863
2931	2024-05-02 02:00:00	8	casamassima	13.04	1	89.42	1	0.0	1	null	6	null	6	0.0	1	984.75	1	40.951419	16.919863
2932	2024-05-02 03:00:00	8	casamassima	12.17	1	88.95	1	0.0	1	null	6	null	6	0.0	1	984.87	1	40.951419	16.919863
2933	2024-05-02 04:00:00	8	casamassima	11.69	1	79.38	1	0.0	1	null	6	null	6	0.0	1	984.66	1	40.951419	16.919863
2934	2024-05-02 05:00:00	8	casamassima	10.78	1	78.57	1	0.0	1	null	6	null	6	0.0	5	984.61	1	40.951419	16.919863
2935	2024-05-02 06:00:00	8	casamassima	12.15	1	73.14	1	0.0	1	null	6	null	6	75.37	1	984.73	1	40.951419	16.919863
2936	2024-05-02 07:00:00	8	casamassima	15.97	1	61.06	1	0.0	1	null	6	null	6	238.02	1	984.98	1	40.951419	16.919863
2937	2024-05-02 08:00:00	8	casamassima	18.64	1	49.35	1	0.0	1	null	6	null	6	423.4	1	984.61	1	40.951419	16.919863
2938	2024-05-02 09:00:00	8	casamassima	21.26	1	39.99	1	0.2	1	null	6	null	6	620.16	1	984.4	1	40.951419	16.919863
2939	2024-05-02 10:00:00	8	casamassima	21.84	1	37.22	1	0.0	1	null	6	null	6	637.4	1	984.68	1	40.951419	16.919863
2940	2024-05-02 11:00:00	8	casamassima	23.15	1	34.2	1	0.0	1	null	6	null	6	841.03	1	984.49	1	40.951419	16.919863
2941	2024-05-02 12:00:00	8	casamassima	23.3	1	31.06	1	0.0	1	null	6	null	6	719.35	1	983.86	1	40.951419	16.919863
2942	2024-05-02 13:00:00	8	casamassima	24.27	1	28.5	1	0.0	1	null	6	null	6	835.56	1	983.42	1	40.951419	16.919863
2943	2024-05-02 14:00:00	8	casamassima	22.66	1	37.99	1	0.0	1	null	6	null	6	400.21	1	983.11	1	40.951419	16.919863
2944	2024-05-02 15:00:00	8	casamassima	21.03	1	45.28	1	0.0	1	null	6	null	6	130.22	1	983.27	1	40.951419	16.919863
2945	2024-05-02 16:00:00	8	casamassima	19.21	1	57.07	1	0.2	1	null	6	null	6	102.34	1	983.01	1	40.951419	16.919863
2946	2024-05-02 17:00:00	8	casamassima	16.92	1	67.99	1	0.2	1	null	6	null	6	68.26	1	984.13	1	40.951419	16.919863
2947	2024-05-02 18:00:00	8	casamassima	14.24	1	82.56	1	0.8	1	null	6	null	6	11.13	1	985.01	1	40.951419	16.919863
2948	2024-05-02 19:00:00	8	casamassima	13.47	1	79.35	1	0.0	1	null	6	null	6	6.46	1	985.13	1	40.951419	16.919863
2949	2024-05-02 20:00:00	8	casamassima	13.01	1	65.51	1	0.0	1	null	6	null	6	0.0	1	984.7	1	40.951419	16.919863
2950	2024-05-02 21:00:00	8	casamassima	12.53	1	57.7	1	0.0	1	null	6	null	6	0.0	1	984.87	1	40.951419	16.919863
2951	2024-05-02 22:00:00	8	casamassima	12.5	1	55.35	1	0.0	1	null	6	null	6	0.0	1	985.34	1	40.951419	16.919863
2952	2024-05-02 23:00:00	8	casamassima	12.06	1	58.11	1	0.0	1	null	6	null	6	0.0	1	985.55	1	40.951419	16.919863
2953	2024-05-03 00:00:00	8	casamassima	10.61	1	64.7	1	0.0	1	null	6	null	6	0.0	1	985.39	1	40.951419	16.919863
2954	2024-05-03 01:00:00	8	casamassima	10.07	1	67.05	1	0.0	1	null	6	null	6	0.0	1	984.89	1	40.951419	16.919863
2955	2024-05-03 02:00:00	8	casamassima	10.23	1	65.78	1	0.0	1	null	6	null	6	0.0	1	984.36	1	40.951419	16.919863
2956	2024-05-03 03:00:00	8	casamassima	9.67	1	67.77	1	0.0	1	null	6	null	6	0.0	1	984.29	1	40.951419	16.919863
2957	2024-05-03 04:00:00	8	casamassima	8.97	1	70.57	1	0.0	1	null	6	null	6	0.0	1	983.98	1	40.951419	16.919863
2958	2024-05-03 05:00:00	8	casamassima	8.38	1	72.25	1	0.0	1	null	6	null	6	0.0	5	984.12	1	40.951419	16.919863
2959	2024-05-03 06:00:00	8	casamassima	10.32	1	66.67	1	0.0	1	null	6	null	6	85.05	1	984.28	1	40.951419	16.919863
2960	2024-05-03 07:00:00	8	casamassima	14.01	1	57.04	1	0.0	1	null	6	null	6	258.12	1	984.61	1	40.951419	16.919863
2961	2024-05-03 08:00:00	8	casamassima	15.53	1	47.38	1	0.0	1	null	6	null	6	449.57	1	984.97	1	40.951419	16.919863
2962	2024-05-03 09:00:00	8	casamassima	17.4	1	38.88	1	0.2	1	null	6	null	6	620.94	1	984.99	1	40.951419	16.919863
2963	2024-05-03 10:00:00	8	casamassima	17.75	1	35.71	1	0.0	1	null	6	null	6	614.66	1	985.14	1	40.951419	16.919863
2964	2024-05-03 11:00:00	8	casamassima	18.06	1	35.82	1	0.0	1	null	6	null	6	463.38	1	985.08	1	40.951419	16.919863
2965	2024-05-03 12:00:00	8	casamassima	19.25	1	34.0	1	0.0	1	null	6	null	6	656.03	1	984.84	1	40.951419	16.919863
2966	2024-05-03 13:00:00	8	casamassima	18.39	1	40.06	1	0.0	1	null	6	null	6	325.58	1	984.62	1	40.951419	16.919863
2967	2024-05-03 14:00:00	8	casamassima	17.62	1	43.49	1	0.2	1	null	6	null	6	163.91	1	984.24	1	40.951419	16.919863
2968	2024-05-03 15:00:00	8	casamassima	16.16	1	52.57	1	3.6	1	null	6	null	6	69.17	1	984.09	1	40.951419	16.919863
2969	2024-05-03 16:00:00	8	casamassima	13.44	1	72.9	1	0.8	1	null	6	null	6	175.53	1	984.42	1	40.951419	16.919863
2970	2024-05-03 17:00:00	8	casamassima	15.18	1	54.92	1	0.0	1	null	6	null	6	143.79	1	984.6	1	40.951419	16.919863
2971	2024-05-03 18:00:00	8	casamassima	14.82	1	56.09	1	0.0	1	null	6	null	6	57.66	1	984.54	1	40.951419	16.919863
2972	2024-05-03 19:00:00	8	casamassima	14.44	1	54.57	1	0.0	1	null	6	null	6	17.53	1	984.7	1	40.951419	16.919863
2973	2024-05-03 20:00:00	8	casamassima	13.25	1	60.08	1	0.0	1	null	6	null	6	0.0	1	985.0	1	40.951419	16.919863
2974	2024-05-03 21:00:00	8	casamassima	11.5	1	67.2	1	0.0	1	null	6	null	6	0.0	1	985.46	1	40.951419	16.919863
2975	2024-05-03 22:00:00	8	casamassima	11.79	1	66.92	1	0.0	1	null	6	null	6	0.0	1	985.58	1	40.951419	16.919863
2976	2024-05-03 23:00:00	8	casamassima	12.29	1	66.43	1	0.0	1	null	6	null	6	0.0	1	985.64	1	40.951419	16.919863
2977	2024-05-04 00:00:00	8	casamassima	10.81	1	73.9	1	0.0	1	null	6	null	6	0.0	1	985.54	1	40.951419	16.919863
2978	2024-05-04 01:00:00	8	casamassima	9.83	1	77.11	1	0.0	1	null	6	null	6	0.0	1	985.37	1	40.951419	16.919863
2979	2024-05-04 02:00:00	8	casamassima	8.77	1	80.1	1	0.0	1	null	6	null	6	0.0	1	985.03	1	40.951419	16.919863
2980	2024-05-04 03:00:00	8	casamassima	8.06	1	81.42	1	0.0	1	null	6	null	6	0.0	1	984.88	1	40.951419	16.919863
2981	2024-05-04 04:00:00	8	casamassima	7.85	1	81.4	1	0.0	1	null	6	null	6	0.0	1	985.02	1	40.951419	16.919863
2982	2024-05-04 05:00:00	8	casamassima	7.85	1	80.47	1	0.0	1	null	6	null	6	0.0	5	985.18	1	40.951419	16.919863
2983	2024-05-04 06:00:00	8	casamassima	10.57	1	72.06	1	0.0	1	null	6	null	6	86.96	1	985.52	1	40.951419	16.919863
2984	2024-05-04 07:00:00	8	casamassima	14.07	1	59.09	1	0.0	1	null	6	null	6	260.99	1	985.7	1	40.951419	16.919863
2985	2024-05-04 08:00:00	8	casamassima	15.23	1	52.09	1	0.0	1	null	6	null	6	446.47	1	985.91	1	40.951419	16.919863
2986	2024-05-04 09:00:00	8	casamassima	16.21	1	48.25	1	0.0	1	null	6	null	6	654.2	1	986.2	1	40.951419	16.919863
2987	2024-05-04 10:00:00	8	casamassima	16.99	1	46.87	1	0.0	1	null	6	null	6	776.39	1	986.38	1	40.951419	16.919863
2988	2024-05-04 11:00:00	8	casamassima	17.21	1	48.59	1	0.0	1	null	6	null	6	896.66	1	986.63	1	40.951419	16.919863
2989	2024-05-04 12:00:00	8	casamassima	17.37	1	49.67	1	0.0	1	null	6	null	6	852.38	1	986.63	1	40.951419	16.919863
2990	2024-05-04 13:00:00	8	casamassima	17.81	1	49.26	1	0.0	1	null	6	null	6	846.07	1	986.66	1	40.951419	16.919863
2991	2024-05-04 14:00:00	8	casamassima	17.73	1	53.96	1	0.0	1	null	6	null	6	877.19	1	986.85	1	40.951419	16.919863
2992	2024-05-04 15:00:00	8	casamassima	17.55	1	55.81	1	0.0	1	null	6	null	6	764.37	1	987.02	1	40.951419	16.919863
2993	2024-05-04 16:00:00	8	casamassima	17.49	1	57.34	1	0.0	1	null	6	null	6	601.42	1	987.15	1	40.951419	16.919863
2994	2024-05-04 17:00:00	8	casamassima	16.57	1	62.37	1	0.0	1	null	6	null	6	200.38	1	987.33	1	40.951419	16.919863
2995	2024-05-04 18:00:00	8	casamassima	15.68	1	66.66	1	0.0	1	null	6	null	6	42.98	1	987.46	1	40.951419	16.919863
2996	2024-05-04 19:00:00	8	casamassima	14.83	1	71.15	1	0.0	1	null	6	null	6	9.83	1	987.83	1	40.951419	16.919863
2997	2024-05-04 20:00:00	8	casamassima	13.8	1	78.5	1	0.0	1	null	6	null	6	0.0	1	988.26	1	40.951419	16.919863
2998	2024-05-04 21:00:00	8	casamassima	12.22	1	83.71	1	0.0	1	null	6	null	6	0.0	1	988.82	1	40.951419	16.919863
2999	2024-05-04 22:00:00	8	casamassima	11.12	1	87.11	1	0.0	1	null	6	null	6	0.0	1	989.25	1	40.951419	16.919863
3000	2024-05-04 23:00:00	8	casamassima	10.36	1	88.15	1	0.0	1	null	6	null	6	0.0	1	989.56	1	40.951419	16.919863
3001	2024-05-05 00:00:00	8	casamassima	9.7	1	84.72	1	0.0	1	null	6	null	6	0.0	1	989.56	1	40.951419	16.919863
3002	2024-05-05 01:00:00	8	casamassima	9.6	1	80.92	1	0.0	1	null	6	null	6	0.0	1	989.37	1	40.951419	16.919863
3003	2024-05-05 02:00:00	8	casamassima	9.24	1	80.72	1	0.0	1	null	6	null	6	0.0	1	989.19	1	40.951419	16.919863
3004	2024-05-05 03:00:00	8	casamassima	9.04	1	79.38	1	0.0	1	null	6	null	6	0.0	1	989.07	1	40.951419	16.919863
3005	2024-05-05 04:00:00	8	casamassima	9.14	1	77.31	1	0.0	1	null	6	null	6	0.0	1	989.01	1	40.951419	16.919863
3006	2024-05-05 05:00:00	8	casamassima	8.77	1	78.05	1	0.0	1	null	6	null	6	0.0	5	989.25	1	40.951419	16.919863
3007	2024-05-05 06:00:00	8	casamassima	11.54	1	69.29	1	0.0	1	null	6	null	6	83.87	1	989.51	1	40.951419	16.919863
3008	2024-05-05 07:00:00	8	casamassima	15.82	1	60.53	1	0.0	1	null	6	null	6	254.21	1	989.56	1	40.951419	16.919863
3009	2024-05-05 08:00:00	8	casamassima	17.02	1	54.69	1	0.0	1	null	6	null	6	443.9	1	989.87	1	40.951419	16.919863
3010	2024-05-05 09:00:00	8	casamassima	18.7	1	48.37	1	0.0	1	null	6	null	6	636.56	1	990.02	1	40.951419	16.919863
3011	2024-05-05 10:00:00	8	casamassima	20.06	1	46.14	1	0.0	1	null	6	null	6	804.21	1	989.94	1	40.951419	16.919863
3012	2024-05-05 11:00:00	8	casamassima	20.71	1	42.04	1	0.0	1	null	6	null	6	886.12	1	989.63	1	40.951419	16.919863
3013	2024-05-05 12:00:00	8	casamassima	20.79	1	42.59	1	0.0	1	null	6	null	6	950.77	1	989.27	1	40.951419	16.919863
3014	2024-05-05 13:00:00	8	casamassima	20.81	1	42.43	1	0.0	1	null	6	null	6	955.11	1	988.99	1	40.951419	16.919863
3015	2024-05-05 14:00:00	8	casamassima	21.21	1	41.15	1	0.0	1	null	6	null	6	930.47	1	988.74	1	40.951419	16.919863
3016	2024-05-05 15:00:00	8	casamassima	20.86	1	42.84	1	0.0	1	null	6	null	6	799.02	1	988.36	1	40.951419	16.919863
3017	2024-05-05 16:00:00	8	casamassima	20.92	1	41.32	1	0.0	1	null	6	null	6	597.5	1	988.08	1	40.951419	16.919863
3018	2024-05-05 17:00:00	8	casamassima	20.11	1	41.5	1	0.0	1	null	6	null	6	176.93	1	987.78	1	40.951419	16.919863
3019	2024-05-05 18:00:00	8	casamassima	19.55	1	42.46	1	0.0	1	null	6	null	6	50.9	1	987.79	1	40.951419	16.919863
3020	2024-05-05 19:00:00	8	casamassima	18.33	1	47.85	1	0.0	1	null	6	null	6	8.99	1	988.18	1	40.951419	16.919863
3021	2024-05-05 20:00:00	8	casamassima	16.6	1	52.12	1	0.0	1	null	6	null	6	0.0	1	988.52	1	40.951419	16.919863
3022	2024-05-05 21:00:00	8	casamassima	15.64	1	50.97	1	0.0	1	null	6	null	6	0.0	1	988.85	1	40.951419	16.919863
3023	2024-05-05 22:00:00	8	casamassima	13.92	1	57.88	1	0.0	1	null	6	null	6	0.0	1	988.95	1	40.951419	16.919863
3024	2024-05-05 23:00:00	8	casamassima	12.71	1	62.96	1	0.0	1	null	6	null	6	0.0	1	988.77	1	40.951419	16.919863
3025	2024-05-06 00:00:00	8	casamassima	12.28	1	64.21	1	0.0	1	null	6	null	6	0.0	1	988.63	1	40.951419	16.919863
3026	2024-05-06 01:00:00	8	casamassima	12.06	1	64.53	1	0.0	1	null	6	null	6	0.0	1	988.38	1	40.951419	16.919863
3027	2024-05-06 02:00:00	8	casamassima	12.34	1	64.72	1	0.0	1	null	6	null	6	0.0	1	988.36	1	40.951419	16.919863
3028	2024-05-06 03:00:00	8	casamassima	11.32	1	68.4	1	0.0	1	null	6	null	6	0.0	1	988.28	1	40.951419	16.919863
3029	2024-05-06 04:00:00	8	casamassima	10.96	1	68.53	1	0.0	1	null	6	null	6	0.0	1	988.23	1	40.951419	16.919863
3030	2024-05-06 05:00:00	8	casamassima	11.02	1	74.85	1	0.0	1	null	6	null	6	0.0	5	988.23	1	40.951419	16.919863
3031	2024-05-06 06:00:00	8	casamassima	12.78	1	69.86	1	0.0	1	null	6	null	6	87.3	1	988.32	1	40.951419	16.919863
3032	2024-05-06 07:00:00	8	casamassima	17.44	1	56.07	1	0.0	1	null	6	null	6	253.13	1	988.35	1	40.951419	16.919863
3033	2024-05-06 08:00:00	8	casamassima	20.86	1	46.01	1	0.0	1	null	6	null	6	436.56	1	988.49	1	40.951419	16.919863
3034	2024-05-06 09:00:00	8	casamassima	22.26	1	40.6	1	0.0	1	null	6	null	6	632.73	1	988.49	1	40.951419	16.919863
3035	2024-05-06 10:00:00	8	casamassima	23.33	1	33.68	1	0.0	1	null	6	null	6	807.41	1	988.35	1	40.951419	16.919863
3036	2024-05-06 11:00:00	8	casamassima	23.63	1	33.05	1	0.0	1	null	6	null	6	863.05	1	987.97	1	40.951419	16.919863
3037	2024-05-06 12:00:00	8	casamassima	24.2	1	28.93	1	0.0	1	null	6	null	6	910.92	1	987.74	1	40.951419	16.919863
3038	2024-05-06 13:00:00	8	casamassima	24.11	1	29.14	1	0.0	1	null	6	null	6	873.58	1	987.41	1	40.951419	16.919863
3039	2024-05-06 14:00:00	8	casamassima	24.6	1	26.58	1	0.0	1	null	6	null	6	841.84	1	987.19	1	40.951419	16.919863
3040	2024-05-06 15:00:00	8	casamassima	24.61	1	26.32	1	0.0	1	null	6	null	6	761.04	1	986.83	1	40.951419	16.919863
3041	2024-05-06 16:00:00	8	casamassima	24.05	1	27.1	1	0.0	1	null	6	null	6	572.92	1	986.79	1	40.951419	16.919863
3042	2024-05-06 17:00:00	8	casamassima	22.38	1	34.04	1	0.0	1	null	6	null	6	202.98	1	986.76	1	40.951419	16.919863
3043	2024-05-06 18:00:00	8	casamassima	20.39	1	42.79	1	0.0	1	null	6	null	6	41.59	1	986.87	1	40.951419	16.919863
3044	2024-05-06 19:00:00	8	casamassima	18.21	1	50.72	1	0.0	1	null	6	null	6	10.05	1	987.25	1	40.951419	16.919863
3045	2024-05-06 20:00:00	8	casamassima	16.38	1	53.63	1	0.0	1	null	6	null	6	0.0	1	987.52	1	40.951419	16.919863
3046	2024-05-06 21:00:00	8	casamassima	15.18	1	66.89	1	0.0	1	null	6	null	6	0.0	1	987.94	1	40.951419	16.919863
3047	2024-05-06 22:00:00	8	casamassima	14.44	1	80.1	1	0.0	1	null	6	null	6	0.0	1	987.89	1	40.951419	16.919863
3048	2024-05-06 23:00:00	8	casamassima	13.98	1	84.87	1	0.0	1	null	6	null	6	0.0	1	987.79	1	40.951419	16.919863
3049	2024-05-07 00:00:00	8	casamassima	13.77	1	85.38	1	0.0	1	null	6	null	6	0.0	1	987.74	1	40.951419	16.919863
3050	2024-05-07 01:00:00	8	casamassima	13.5	1	86.32	1	0.0	1	null	6	null	6	0.0	1	987.28	1	40.951419	16.919863
3051	2024-05-07 02:00:00	8	casamassima	13.16	1	87.43	1	0.0	1	null	6	null	6	0.0	1	986.93	1	40.951419	16.919863
3052	2024-05-07 03:00:00	8	casamassima	12.84	1	88.06	1	0.0	1	null	6	null	6	0.0	1	986.82	1	40.951419	16.919863
3053	2024-05-07 04:00:00	8	casamassima	12.53	1	88.42	1	0.0	1	null	6	null	6	0.0	1	986.67	1	40.951419	16.919863
3054	2024-05-07 05:00:00	8	casamassima	12.5	1	88.3	1	0.0	1	null	6	null	6	5.55	1	986.23	1	40.951419	16.919863
3055	2024-05-07 06:00:00	8	casamassima	13.28	1	85.55	1	0.0	1	null	6	null	6	60.97	1	986.44	1	40.951419	16.919863
3056	2024-05-07 07:00:00	8	casamassima	15.11	1	77.95	1	0.0	1	null	6	null	6	163.22	1	986.48	1	40.951419	16.919863
3057	2024-05-07 08:00:00	8	casamassima	18.04	1	68.12	1	0.0	1	null	6	null	6	354.7	1	986.6	1	40.951419	16.919863
3058	2024-05-07 09:00:00	8	casamassima	20.37	1	57.48	1	0.0	1	null	6	null	6	468.82	1	986.63	1	40.951419	16.919863
3059	2024-05-07 10:00:00	8	casamassima	21.11	1	55.78	1	0.0	1	null	6	null	6	518.72	1	986.82	1	40.951419	16.919863
3060	2024-05-07 11:00:00	8	casamassima	22.95	1	49.32	1	0.0	1	null	6	null	6	768.14	1	986.41	1	40.951419	16.919863
3061	2024-05-07 12:00:00	8	casamassima	24.39	1	40.1	1	0.0	1	null	6	null	6	706.68	1	986.08	1	40.951419	16.919863
3062	2024-05-07 13:00:00	8	casamassima	23.69	1	39.06	1	0.0	1	null	6	null	6	670.96	1	985.72	1	40.951419	16.919863
3063	2024-05-07 14:00:00	8	casamassima	24.24	1	39.81	1	0.0	1	null	6	null	6	659.63	1	985.73	1	40.951419	16.919863
3064	2024-05-07 15:00:00	8	casamassima	23.25	1	43.59	1	0.0	1	null	6	null	6	551.85	1	985.59	1	40.951419	16.919863
3065	2024-05-07 16:00:00	8	casamassima	22.52	1	47.1	1	0.0	1	null	6	null	6	287.26	1	985.5	1	40.951419	16.919863
3066	2024-05-07 17:00:00	8	casamassima	20.08	1	54.37	1	0.0	1	null	6	null	6	87.06	1	985.84	1	40.951419	16.919863
3067	2024-05-07 18:00:00	8	casamassima	18.38	1	65.49	1	0.0	1	null	6	null	6	81.18	1	985.91	1	40.951419	16.919863
3068	2024-05-07 19:00:00	8	casamassima	16.82	1	74.8	1	0.0	1	null	6	null	6	10.88	1	986.14	1	40.951419	16.919863
3069	2024-05-07 20:00:00	8	casamassima	16.09	1	78.34	1	0.0	1	null	6	null	6	0.0	1	986.19	1	40.951419	16.919863
3070	2024-05-07 21:00:00	8	casamassima	15.81	1	79.6	1	0.0	1	null	6	null	6	0.0	1	986.37	1	40.951419	16.919863
3071	2024-05-07 22:00:00	8	casamassima	15.92	1	78.68	1	0.0	1	null	6	null	6	0.0	1	986.78	1	40.951419	16.919863
3072	2024-05-07 23:00:00	8	casamassima	16.34	1	74.92	1	0.0	1	null	6	null	6	0.0	1	987.18	1	40.951419	16.919863
3073	2024-05-08 00:00:00	8	casamassima	16.27	1	75.24	1	0.0	1	null	6	null	6	0.0	1	987.11	1	40.951419	16.919863
3074	2024-05-08 01:00:00	8	casamassima	15.22	1	79.32	1	0.0	1	null	6	null	6	0.0	1	986.88	1	40.951419	16.919863
3075	2024-05-08 02:00:00	8	casamassima	13.81	1	83.79	1	0.0	1	null	6	null	6	0.0	1	986.76	1	40.951419	16.919863
3076	2024-05-08 03:00:00	8	casamassima	12.78	1	86.46	1	0.0	1	null	6	null	6	0.0	1	986.73	1	40.951419	16.919863
3077	2024-05-08 04:00:00	8	casamassima	11.99	1	88.08	1	0.0	1	null	6	null	6	0.0	1	986.82	1	40.951419	16.919863
3078	2024-05-08 05:00:00	8	casamassima	11.61	1	89.05	1	0.0	1	null	6	null	6	0.0	5	986.94	1	40.951419	16.919863
3079	2024-05-08 06:00:00	8	casamassima	12.64	1	85.35	1	0.0	1	null	6	null	6	84.37	1	987.13	1	40.951419	16.919863
3080	2024-05-08 07:00:00	8	casamassima	18.4	1	64.3	1	0.0	1	null	6	null	6	246.27	1	987.08	1	40.951419	16.919863
3081	2024-05-08 08:00:00	8	casamassima	19.66	1	50.04	1	0.0	1	null	6	null	6	423.9	1	987.21	1	40.951419	16.919863
3082	2024-05-08 09:00:00	8	casamassima	19.7	1	51.59	1	0.0	1	null	6	null	6	621.8	1	987.39	1	40.951419	16.919863
3083	2024-05-08 10:00:00	8	casamassima	19.94	1	56.11	1	0.0	1	null	6	null	6	767.04	1	987.57	1	40.951419	16.919863
3084	2024-05-08 11:00:00	8	casamassima	20.56	1	57.1	1	0.0	1	null	6	null	6	842.2	1	987.36	1	40.951419	16.919863
3085	2024-05-08 12:00:00	8	casamassima	20.37	1	59.32	1	0.0	1	null	6	null	6	805.62	1	987.03	1	40.951419	16.919863
3086	2024-05-08 13:00:00	8	casamassima	20.2	1	59.95	1	0.0	1	null	6	null	6	791.42	1	986.79	1	40.951419	16.919863
3087	2024-05-08 14:00:00	8	casamassima	19.88	1	60.18	1	0.0	1	null	6	null	6	712.97	1	986.21	1	40.951419	16.919863
3088	2024-05-08 15:00:00	8	casamassima	19.84	1	59.89	1	0.0	1	null	6	null	6	661.1	1	985.81	1	40.951419	16.919863
3089	2024-05-08 16:00:00	8	casamassima	19.18	1	63.42	1	0.0	1	null	6	null	6	476.21	1	985.66	1	40.951419	16.919863
3090	2024-05-08 17:00:00	8	casamassima	18.35	1	66.24	1	0.0	1	null	6	null	6	202.57	1	985.7	1	40.951419	16.919863
3091	2024-05-08 18:00:00	8	casamassima	17.41	1	72.87	1	0.0	1	null	6	null	6	82.33	1	985.85	1	40.951419	16.919863
3092	2024-05-08 19:00:00	8	casamassima	16.64	1	76.34	1	0.0	1	null	6	null	6	18.71	1	986.03	1	40.951419	16.919863
3093	2024-05-08 20:00:00	8	casamassima	16.01	1	81.25	1	0.0	1	null	6	null	6	0.0	1	986.45	1	40.951419	16.919863
3094	2024-05-08 21:00:00	8	casamassima	15.81	1	82.46	1	0.0	1	null	6	null	6	0.0	1	987.02	1	40.951419	16.919863
3095	2024-05-08 22:00:00	8	casamassima	15.86	1	82.33	1	0.0	1	null	6	null	6	0.0	1	987.12	1	40.951419	16.919863
3096	2024-05-08 23:00:00	8	casamassima	15.75	1	84.08	1	0.0	1	null	6	null	6	0.0	1	986.99	1	40.951419	16.919863
3097	2024-05-09 00:00:00	8	casamassima	15.64	1	82.9	1	0.0	1	null	6	null	6	0.0	1	987.04	1	40.951419	16.919863
3098	2024-05-09 01:00:00	8	casamassima	15.69	1	79.45	1	0.0	1	null	6	null	6	0.0	1	986.66	1	40.951419	16.919863
3099	2024-05-09 02:00:00	8	casamassima	15.27	1	84.17	1	0.0	1	null	6	null	6	0.0	1	985.84	1	40.951419	16.919863
3100	2024-05-09 03:00:00	8	casamassima	14.69	1	87.58	1	0.0	1	null	6	null	6	0.0	1	985.61	1	40.951419	16.919863
3101	2024-05-09 04:00:00	8	casamassima	13.99	1	87.99	1	0.0	1	null	6	null	6	0.0	1	985.31	1	40.951419	16.919863
3102	2024-05-09 05:00:00	8	casamassima	13.72	1	86.79	1	0.0	1	null	6	null	6	0.0	5	985.38	1	40.951419	16.919863
3103	2024-05-09 06:00:00	8	casamassima	13.88	1	84.87	1	0.0	1	null	6	null	6	27.35	1	985.89	1	40.951419	16.919863
3104	2024-05-09 07:00:00	8	casamassima	14.93	1	78.47	1	0.0	1	null	6	null	6	75.57	1	986.22	1	40.951419	16.919863
3105	2024-05-09 08:00:00	8	casamassima	16.53	1	69.67	1	0.0	1	null	6	null	6	246.69	1	986.39	1	40.951419	16.919863
3106	2024-05-09 09:00:00	8	casamassima	18.81	1	61.28	1	0.0	1	null	6	null	6	546.72	1	986.23	1	40.951419	16.919863
3107	2024-05-09 10:00:00	8	casamassima	20.03	1	56.92	1	0.0	1	null	6	null	6	629.21	1	986.02	1	40.951419	16.919863
3108	2024-05-09 11:00:00	8	casamassima	20.83	1	54.28	1	0.0	1	null	6	null	6	788.36	1	986.02	1	40.951419	16.919863
3109	2024-05-09 12:00:00	8	casamassima	20.95	1	54.78	1	0.0	1	null	6	null	6	843.92	1	986.05	1	40.951419	16.919863
3110	2024-05-09 13:00:00	8	casamassima	20.39	1	57.85	1	0.0	1	null	6	null	6	794.18	1	985.84	1	40.951419	16.919863
3111	2024-05-09 14:00:00	8	casamassima	21.39	1	51.71	1	0.0	1	null	6	null	6	839.49	1	985.32	1	40.951419	16.919863
3112	2024-05-09 15:00:00	8	casamassima	22.14	1	45.13	1	0.0	1	null	6	null	6	722.94	1	984.75	1	40.951419	16.919863
3113	2024-05-09 16:00:00	8	casamassima	21.62	1	45.46	1	0.0	1	null	6	null	6	512.04	1	984.68	1	40.951419	16.919863
3114	2024-05-09 17:00:00	8	casamassima	20.38	1	50.84	1	0.0	1	null	6	null	6	246.32	1	984.82	1	40.951419	16.919863
3115	2024-05-09 18:00:00	8	casamassima	19.64	1	55.16	1	0.0	1	null	6	null	6	73.3	1	984.87	1	40.951419	16.919863
3116	2024-05-09 19:00:00	8	casamassima	18.21	1	66.09	1	0.0	1	null	6	null	6	20.29	1	985.4	1	40.951419	16.919863
3117	2024-05-09 20:00:00	8	casamassima	17.36	1	71.02	1	0.0	1	null	6	null	6	0.0	1	986.13	1	40.951419	16.919863
3118	2024-05-09 21:00:00	8	casamassima	16.98	1	72.42	1	0.0	1	null	6	null	6	0.0	1	986.59	1	40.951419	16.919863
3119	2024-05-09 22:00:00	8	casamassima	17.57	1	66.26	1	0.0	1	null	6	null	6	0.0	1	986.86	1	40.951419	16.919863
3120	2024-05-09 23:00:00	8	casamassima	16.7	1	75.14	1	0.6	1	null	6	null	6	0.0	1	987.06	1	40.951419	16.919863
3121	2024-05-10 00:00:00	8	casamassima	15.27	1	85.83	1	0.0	1	null	6	null	6	0.0	1	987.03	1	40.951419	16.919863
3122	2024-05-10 01:00:00	8	casamassima	14.67	1	86.11	1	0.0	1	null	6	null	6	0.0	1	987.03	1	40.951419	16.919863
3123	2024-05-10 02:00:00	8	casamassima	14.54	1	85.47	1	0.0	1	null	6	null	6	0.0	1	986.74	1	40.951419	16.919863
3124	2024-05-10 03:00:00	8	casamassima	14.0	1	85.97	1	0.0	1	null	6	null	6	0.0	1	986.8	1	40.951419	16.919863
3125	2024-05-10 04:00:00	8	casamassima	13.72	1	85.04	1	0.0	1	null	6	null	6	0.0	1	986.54	1	40.951419	16.919863
3126	2024-05-10 05:00:00	8	casamassima	13.47	1	86.15	1	0.0	1	null	6	null	6	0.0	5	986.69	1	40.951419	16.919863
3127	2024-05-10 06:00:00	8	casamassima	13.99	1	84.57	1	0.0	1	null	6	null	6	105.71	1	987.05	1	40.951419	16.919863
3128	2024-05-10 07:00:00	8	casamassima	16.51	1	75.24	1	0.0	1	null	6	null	6	289.33	1	987.24	1	40.951419	16.919863
3129	2024-05-10 08:00:00	8	casamassima	17.85	1	69.11	1	0.0	1	null	6	null	6	433.17	1	987.43	1	40.951419	16.919863
3130	2024-05-10 09:00:00	8	casamassima	18.89	1	61.93	1	0.0	1	null	6	null	6	599.55	1	987.51	1	40.951419	16.919863
3131	2024-05-10 10:00:00	8	casamassima	19.84	1	55.57	1	0.0	1	null	6	null	6	765.42	1	987.44	1	40.951419	16.919863
3132	2024-05-10 11:00:00	8	casamassima	20.42	1	52.55	1	0.0	1	null	6	null	6	834.45	1	987.31	1	40.951419	16.919863
3133	2024-05-10 12:00:00	8	casamassima	20.48	1	48.14	1	0.0	1	null	6	null	6	838.07	1	987.22	1	40.951419	16.919863
3134	2024-05-10 13:00:00	8	casamassima	20.57	1	44.1	1	0.0	1	null	6	null	6	900.81	1	987.34	1	40.951419	16.919863
3135	2024-05-10 14:00:00	8	casamassima	20.74	1	39.92	1	0.0	1	null	6	null	6	862.33	1	987.06	1	40.951419	16.919863
3136	2024-05-10 15:00:00	8	casamassima	21.03	1	38.46	1	0.0	1	null	6	null	6	797.62	1	986.71	1	40.951419	16.919863
3137	2024-05-10 16:00:00	8	casamassima	20.9	1	40.91	1	0.0	1	null	6	null	6	610.03	1	986.56	1	40.951419	16.919863
3138	2024-05-10 17:00:00	8	casamassima	19.97	1	47.86	1	0.0	1	null	6	null	6	333.7	1	986.3	1	40.951419	16.919863
3139	2024-05-10 18:00:00	8	casamassima	19.25	1	49.52	1	0.0	1	null	6	null	6	44.36	1	986.38	1	40.951419	16.919863
3140	2024-05-10 19:00:00	8	casamassima	18.33	1	50.91	1	0.0	1	null	6	null	6	13.96	1	986.64	1	40.951419	16.919863
3141	2024-05-10 20:00:00	8	casamassima	17.64	1	48.91	1	0.0	1	null	6	null	6	0.0	1	986.89	1	40.951419	16.919863
3142	2024-05-10 21:00:00	8	casamassima	17.25	1	54.92	1	0.0	1	null	6	null	6	0.0	1	987.4	1	40.951419	16.919863
3143	2024-05-10 22:00:00	8	casamassima	16.9	1	55.49	1	0.0	1	null	6	null	6	0.0	1	987.58	1	40.951419	16.919863
3144	2024-05-10 23:00:00	8	casamassima	15.82	1	61.24	1	0.0	1	null	6	null	6	0.0	1	987.63	1	40.951419	16.919863
3145	2024-05-11 00:00:00	8	casamassima	14.78	1	59.56	1	0.0	1	null	6	null	6	0.0	1	987.44	1	40.951419	16.919863
3146	2024-05-11 01:00:00	8	casamassima	14.4	1	60.43	1	0.0	1	null	6	null	6	0.0	1	987.17	1	40.951419	16.919863
3147	2024-05-11 02:00:00	8	casamassima	14.43	1	61.11	1	0.0	1	null	6	null	6	0.0	1	987.09	1	40.951419	16.919863
3148	2024-05-11 03:00:00	8	casamassima	13.23	1	67.46	1	0.0	1	null	6	null	6	0.0	1	987.21	1	40.951419	16.919863
3149	2024-05-11 04:00:00	8	casamassima	11.92	1	71.24	1	0.0	1	null	6	null	6	0.0	1	987.15	1	40.951419	16.919863
3150	2024-05-11 05:00:00	8	casamassima	11.44	1	71.92	1	0.0	1	null	6	null	6	0.0	5	987.28	1	40.951419	16.919863
3151	2024-05-11 06:00:00	8	casamassima	13.75	1	67.32	1	0.0	1	null	6	null	6	89.49	1	987.6	1	40.951419	16.919863
3152	2024-05-11 07:00:00	8	casamassima	17.1	1	59.95	1	0.0	1	null	6	null	6	257.9	1	987.97	1	40.951419	16.919863
3153	2024-05-11 08:00:00	8	casamassima	18.11	1	61.21	1	0.0	1	null	6	null	6	435.48	1	988.26	1	40.951419	16.919863
3154	2024-05-11 09:00:00	8	casamassima	19.57	1	55.7	1	0.0	1	null	6	null	6	639.03	1	988.36	1	40.951419	16.919863
3155	2024-05-11 10:00:00	8	casamassima	19.93	1	53.36	1	0.0	1	null	6	null	6	550.55	1	988.53	1	40.951419	16.919863
3156	2024-05-11 11:00:00	8	casamassima	20.25	1	52.24	1	0.0	1	null	6	null	6	723.26	1	988.76	1	40.951419	16.919863
3157	2024-05-11 12:00:00	8	casamassima	20.9	1	44.88	1	0.0	1	null	6	null	6	882.61	1	988.77	1	40.951419	16.919863
3158	2024-05-11 13:00:00	8	casamassima	21.05	1	43.17	1	0.0	1	null	6	null	6	825.51	1	988.72	1	40.951419	16.919863
3159	2024-05-11 14:00:00	8	casamassima	21.05	1	39.27	1	0.0	1	null	6	null	6	926.89	1	988.86	1	40.951419	16.919863
3160	2024-05-11 15:00:00	8	casamassima	20.91	1	40.74	1	0.0	1	null	6	null	6	827.39	1	988.87	1	40.951419	16.919863
3161	2024-05-11 16:00:00	8	casamassima	20.31	1	35.77	1	0.0	1	null	6	null	6	623.75	1	988.99	1	40.951419	16.919863
3162	2024-05-11 17:00:00	8	casamassima	19.4	1	39.61	1	0.0	1	null	6	null	6	350.32	1	988.99	1	40.951419	16.919863
3163	2024-05-11 18:00:00	8	casamassima	17.85	1	51.34	1	0.0	1	null	6	null	6	54.56	1	989.19	1	40.951419	16.919863
3164	2024-05-11 19:00:00	8	casamassima	17.47	1	45.59	1	0.0	1	null	6	null	6	15.5	1	989.46	1	40.951419	16.919863
3165	2024-05-11 20:00:00	8	casamassima	16.81	1	49.1	1	0.0	1	null	6	null	6	0.0	1	989.71	1	40.951419	16.919863
3166	2024-05-11 21:00:00	8	casamassima	14.85	1	57.15	1	0.0	1	null	6	null	6	0.0	1	990.27	1	40.951419	16.919863
3167	2024-05-11 22:00:00	8	casamassima	12.53	1	63.33	1	0.0	1	null	6	null	6	0.0	1	990.72	1	40.951419	16.919863
3168	2024-05-11 23:00:00	8	casamassima	11.67	1	65.47	1	0.0	1	null	6	null	6	0.0	1	990.82	1	40.951419	16.919863
3169	2024-05-12 00:00:00	8	casamassima	10.73	1	67.84	1	0.0	1	null	6	null	6	0.0	1	990.78	1	40.951419	16.919863
3170	2024-05-12 01:00:00	8	casamassima	10.25	1	71.17	1	0.0	1	null	6	null	6	0.0	1	990.58	1	40.951419	16.919863
3171	2024-05-12 02:00:00	8	casamassima	10.27	1	72.55	1	0.0	1	null	6	null	6	0.0	1	990.43	1	40.951419	16.919863
3172	2024-05-12 03:00:00	8	casamassima	10.3	1	67.28	1	0.0	1	null	6	null	6	0.0	1	990.43	1	40.951419	16.919863
3173	2024-05-12 04:00:00	8	casamassima	10.25	1	62.56	1	0.0	1	null	6	null	6	0.0	1	990.28	1	40.951419	16.919863
3174	2024-05-12 05:00:00	8	casamassima	10.14	1	60.92	1	0.0	1	null	6	null	6	0.0	5	990.26	1	40.951419	16.919863
3175	2024-05-12 06:00:00	8	casamassima	12.23	1	55.32	1	0.0	1	null	6	null	6	82.65	1	990.32	1	40.951419	16.919863
3176	2024-05-12 07:00:00	8	casamassima	18.6	1	40.63	1	0.0	1	null	6	null	6	278.85	1	990.15	1	40.951419	16.919863
3177	2024-05-12 08:00:00	8	casamassima	21.18	1	31.68	1	0.0	1	null	6	null	6	427.99	1	990.33	1	40.951419	16.919863
3178	2024-05-12 09:00:00	8	casamassima	22.27	1	29.65	1	0.0	1	null	6	null	6	662.08	1	990.43	1	40.951419	16.919863
3179	2024-05-12 10:00:00	8	casamassima	22.06	1	29.5	1	0.0	1	null	6	null	6	780.03	1	990.57	1	40.951419	16.919863
3180	2024-05-12 11:00:00	8	casamassima	22.63	1	29.86	1	0.0	1	null	6	null	6	886.41	1	990.4	1	40.951419	16.919863
3181	2024-05-12 12:00:00	8	casamassima	22.31	1	31.9	1	0.0	1	null	6	null	6	953.22	1	990.22	1	40.951419	16.919863
3182	2024-05-12 13:00:00	8	casamassima	22.17	1	31.13	1	0.0	1	null	6	null	6	965.41	1	989.95	1	40.951419	16.919863
3183	2024-05-12 14:00:00	8	casamassima	22.92	1	30.28	1	0.0	1	null	6	null	6	928.46	1	989.67	1	40.951419	16.919863
3184	2024-05-12 15:00:00	8	casamassima	22.77	1	30.14	1	0.0	1	null	6	null	6	813.07	1	989.51	1	40.951419	16.919863
3185	2024-05-12 16:00:00	8	casamassima	22.37	1	30.65	1	0.0	1	null	6	null	6	609.18	1	989.29	1	40.951419	16.919863
3186	2024-05-12 17:00:00	8	casamassima	21.51	1	30.92	1	0.0	1	null	6	null	6	357.55	1	988.98	1	40.951419	16.919863
3187	2024-05-12 18:00:00	8	casamassima	20.75	1	31.78	1	0.0	1	null	6	null	6	46.63	1	988.93	1	40.951419	16.919863
3188	2024-05-12 19:00:00	8	casamassima	19.85	1	34.75	1	0.0	1	null	6	null	6	14.63	1	989.32	1	40.951419	16.919863
3189	2024-05-12 20:00:00	8	casamassima	18.47	1	38.63	1	0.0	1	null	6	null	6	0.0	1	989.61	1	40.951419	16.919863
3190	2024-05-12 21:00:00	8	casamassima	16.48	1	45.79	1	0.0	1	null	6	null	6	0.0	1	989.97	1	40.951419	16.919863
3191	2024-05-12 22:00:00	8	casamassima	14.96	1	50.34	1	0.0	1	null	6	null	6	0.0	1	990.15	1	40.951419	16.919863
3192	2024-05-12 23:00:00	8	casamassima	15.12	1	49.92	1	0.0	1	null	6	null	6	0.0	1	990.3	1	40.951419	16.919863
3193	2024-05-13 00:00:00	8	casamassima	13.73	1	55.35	1	0.0	1	null	6	null	6	0.0	1	990.02	1	40.951419	16.919863
3194	2024-05-13 01:00:00	8	casamassima	12.63	1	57.95	1	0.0	1	null	6	null	6	0.0	1	989.63	1	40.951419	16.919863
3195	2024-05-13 02:00:00	8	casamassima	12.02	1	59.3	1	0.0	1	null	6	null	6	0.0	1	989.43	1	40.951419	16.919863
3196	2024-05-13 03:00:00	8	casamassima	11.8	1	58.02	1	0.0	1	null	6	null	6	0.0	1	989.26	1	40.951419	16.919863
3197	2024-05-13 04:00:00	8	casamassima	11.18	1	59.53	1	0.0	1	null	6	null	6	0.0	1	989.03	1	40.951419	16.919863
3198	2024-05-13 05:00:00	8	casamassima	10.7	1	60.45	1	0.0	1	null	6	null	6	0.0	5	989.1	1	40.951419	16.919863
3199	2024-05-13 06:00:00	8	casamassima	12.87	1	53.79	1	0.0	1	null	6	null	6	103.41	1	989.2	1	40.951419	16.919863
3200	2024-05-13 07:00:00	8	casamassima	17.86	1	43.78	1	0.0	1	null	6	null	6	275.86	1	989.32	1	40.951419	16.919863
3201	2024-05-13 08:00:00	8	casamassima	21.07	1	36.73	1	0.0	1	null	6	null	6	443.14	1	989.42	1	40.951419	16.919863
3202	2024-05-13 09:00:00	8	casamassima	22.46	1	34.53	1	0.0	1	null	6	null	6	654.97	1	989.17	1	40.951419	16.919863
3203	2024-05-13 10:00:00	8	casamassima	23.44	1	36.09	1	0.0	1	null	6	null	6	775.49	1	988.82	1	40.951419	16.919863
3204	2024-05-13 11:00:00	8	casamassima	23.87	1	39.78	1	0.0	1	null	6	null	6	794.13	1	988.28	1	40.951419	16.919863
3205	2024-05-13 12:00:00	8	casamassima	23.85	1	37.39	1	0.0	1	null	6	null	6	730.12	1	987.94	1	40.951419	16.919863
3206	2024-05-13 13:00:00	8	casamassima	23.39	1	34.39	1	0.0	1	null	6	null	6	531.42	1	987.67	1	40.951419	16.919863
3207	2024-05-13 14:00:00	8	casamassima	23.54	1	34.62	1	0.0	1	null	6	null	6	756.52	1	987.07	1	40.951419	16.919863
3208	2024-05-13 15:00:00	8	casamassima	23.76	1	34.07	1	0.0	1	null	6	null	6	433.52	1	986.42	1	40.951419	16.919863
3209	2024-05-13 16:00:00	8	casamassima	23.06	1	35.1	1	0.0	1	null	6	null	6	323.17	1	986.07	1	40.951419	16.919863
3210	2024-05-13 17:00:00	8	casamassima	22.66	1	34.48	1	0.0	1	null	6	null	6	133.78	1	985.86	1	40.951419	16.919863
3211	2024-05-13 18:00:00	8	casamassima	21.22	1	39.5	1	0.0	1	null	6	null	6	34.63	1	985.82	1	40.951419	16.919863
3212	2024-05-13 19:00:00	8	casamassima	19.69	1	50.21	1	0.0	1	null	6	null	6	7.74	1	986.08	1	40.951419	16.919863
3213	2024-05-13 20:00:00	8	casamassima	18.54	1	56.75	1	0.0	1	null	6	null	6	0.0	1	986.27	1	40.951419	16.919863
3214	2024-05-13 21:00:00	8	casamassima	17.96	1	58.18	1	0.0	1	null	6	null	6	0.0	1	986.31	1	40.951419	16.919863
3215	2024-05-13 22:00:00	8	casamassima	17.43	1	61.97	1	0.0	1	null	6	null	6	0.0	1	986.1	1	40.951419	16.919863
3216	2024-05-13 23:00:00	8	casamassima	16.84	1	65.84	1	0.0	1	null	6	null	6	0.0	1	985.64	1	40.951419	16.919863
3217	2024-05-14 00:00:00	8	casamassima	16.8	1	67.19	1	0.0	1	null	6	null	6	0.0	1	985.47	1	40.951419	16.919863
3218	2024-05-14 01:00:00	8	casamassima	16.68	1	65.67	1	0.0	1	null	6	null	6	0.0	1	985.26	1	40.951419	16.919863
3219	2024-05-14 02:00:00	8	casamassima	16.28	1	68.84	1	0.0	1	null	6	null	6	0.0	1	984.75	1	40.951419	16.919863
3220	2024-05-14 03:00:00	8	casamassima	15.87	1	76.62	1	0.0	1	null	6	null	6	0.0	1	984.38	1	40.951419	16.919863
3221	2024-05-14 04:00:00	8	casamassima	15.31	1	79.36	1	0.0	1	null	6	null	6	0.0	1	984.13	1	40.951419	16.919863
3222	2024-05-14 05:00:00	8	casamassima	14.42	1	81.52	1	0.0	1	null	6	null	6	0.0	5	984.07	1	40.951419	16.919863
3223	2024-05-14 06:00:00	8	casamassima	14.81	1	78.88	1	0.0	1	null	6	null	6	65.7	1	983.88	1	40.951419	16.919863
3224	2024-05-14 07:00:00	8	casamassima	17.66	1	70.55	1	0.0	1	null	6	null	6	240.94	1	983.74	1	40.951419	16.919863
3225	2024-05-14 08:00:00	8	casamassima	19.22	1	64.49	1	0.0	1	null	6	null	6	384.46	1	983.73	1	40.951419	16.919863
3226	2024-05-14 09:00:00	8	casamassima	19.81	1	61.31	1	0.2	1	null	6	null	6	487.27	1	983.67	1	40.951419	16.919863
3227	2024-05-14 10:00:00	8	casamassima	21.41	1	54.54	1	0.0	1	null	6	null	6	739.65	1	983.68	1	40.951419	16.919863
3228	2024-05-14 11:00:00	8	casamassima	22.24	1	51.46	1	0.0	1	null	6	null	6	878.49	1	983.54	1	40.951419	16.919863
3229	2024-05-14 12:00:00	8	casamassima	22.76	1	46.55	1	0.0	1	null	6	null	6	924.49	1	983.34	1	40.951419	16.919863
3230	2024-05-14 13:00:00	8	casamassima	22.89	1	45.28	1	0.0	1	null	6	null	6	922.79	1	982.98	1	40.951419	16.919863
3231	2024-05-14 14:00:00	8	casamassima	21.89	1	45.89	1	0.0	1	null	6	null	6	222.91	1	982.71	1	40.951419	16.919863
3232	2024-05-14 15:00:00	8	casamassima	20.78	1	49.92	1	0.0	1	null	6	null	6	237.54	1	982.55	1	40.951419	16.919863
3233	2024-05-14 16:00:00	8	casamassima	21.08	1	55.03	1	0.0	1	null	6	null	6	522.51	1	982.46	1	40.951419	16.919863
3234	2024-05-14 17:00:00	8	casamassima	19.85	1	61.27	1	0.0	1	null	6	null	6	350.08	1	982.38	1	40.951419	16.919863
3235	2024-05-14 18:00:00	8	casamassima	18.82	1	67.25	1	0.0	1	null	6	null	6	52.84	1	982.56	1	40.951419	16.919863
3236	2024-05-14 19:00:00	8	casamassima	17.79	1	72.85	1	0.0	1	null	6	null	6	16.99	1	982.95	1	40.951419	16.919863
3237	2024-05-14 20:00:00	8	casamassima	16.88	1	78.18	1	0.0	1	null	6	null	6	0.0	1	983.5	1	40.951419	16.919863
3238	2024-05-14 21:00:00	8	casamassima	16.6	1	79.21	1	0.0	1	null	6	null	6	0.0	1	983.98	1	40.951419	16.919863
3239	2024-05-14 22:00:00	8	casamassima	16.35	1	81.15	1	0.0	1	null	6	null	6	0.0	1	984.21	1	40.951419	16.919863
3240	2024-05-14 23:00:00	8	casamassima	16.22	1	82.46	1	0.0	1	null	6	null	6	0.0	1	984.2	1	40.951419	16.919863
3241	2024-05-15 00:00:00	8	casamassima	16.4	1	81.97	1	0.0	1	null	6	null	6	0.0	1	984.03	1	40.951419	16.919863
3242	2024-05-15 01:00:00	8	casamassima	16.3	1	82.36	1	0.0	1	null	6	null	6	0.0	1	983.75	1	40.951419	16.919863
3243	2024-05-15 02:00:00	8	casamassima	16.24	1	82.73	1	0.0	1	null	6	null	6	0.0	1	983.4	1	40.951419	16.919863
3244	2024-05-15 03:00:00	8	casamassima	16.15	1	82.65	1	0.0	1	null	6	null	6	0.0	1	983.14	1	40.951419	16.919863
3245	2024-05-15 04:00:00	8	casamassima	16.16	1	82.73	1	0.0	1	null	6	null	6	0.0	1	982.85	1	40.951419	16.919863
3246	2024-05-15 05:00:00	8	casamassima	15.91	1	83.13	1	0.0	1	null	6	null	6	0.0	5	982.86	1	40.951419	16.919863
3247	2024-05-15 06:00:00	8	casamassima	16.81	1	80.06	1	0.0	1	null	6	null	6	93.75	1	983.04	1	40.951419	16.919863
3248	2024-05-15 07:00:00	8	casamassima	18.47	1	72.83	1	0.0	1	null	6	null	6	227.53	1	983.28	1	40.951419	16.919863
3249	2024-05-15 08:00:00	8	casamassima	19.42	1	67.72	1	0.0	1	null	6	null	6	431.6	1	983.62	1	40.951419	16.919863
3250	2024-05-15 09:00:00	8	casamassima	20.95	1	60.89	1	0.0	1	null	6	null	6	614.81	1	983.56	1	40.951419	16.919863
3251	2024-05-15 10:00:00	8	casamassima	21.45	1	57.68	1	0.0	1	null	6	null	6	571.02	1	983.71	1	40.951419	16.919863
3252	2024-05-15 11:00:00	8	casamassima	21.64	1	55.68	1	0.0	1	null	6	null	6	714.98	1	983.78	1	40.951419	16.919863
3253	2024-05-15 12:00:00	8	casamassima	21.48	1	56.06	1	0.0	1	null	6	null	6	524.63	1	983.82	1	40.951419	16.919863
3254	2024-05-15 13:00:00	8	casamassima	21.63	1	56.02	1	0.0	1	null	6	null	6	720.9	1	983.7	1	40.951419	16.919863
3255	2024-05-15 14:00:00	8	casamassima	21.43	1	56.87	1	0.0	1	null	6	null	6	594.71	1	983.52	1	40.951419	16.919863
3256	2024-05-15 15:00:00	8	casamassima	21.05	1	57.51	1	0.0	1	null	6	null	6	538.07	1	983.37	1	40.951419	16.919863
3257	2024-05-15 16:00:00	8	casamassima	20.19	1	61.56	1	0.0	1	null	6	null	6	376.5	1	983.05	1	40.951419	16.919863
3258	2024-05-15 17:00:00	8	casamassima	19.02	1	66.39	1	0.0	1	null	6	null	6	225.83	1	983.25	1	40.951419	16.919863
3259	2024-05-15 18:00:00	8	casamassima	18.18	1	70.49	1	0.0	1	null	6	null	6	65.86	1	983.21	1	40.951419	16.919863
3260	2024-05-15 19:00:00	8	casamassima	17.66	1	73.66	1	0.0	1	null	6	null	6	11.95	1	983.04	1	40.951419	16.919863
3261	2024-05-15 20:00:00	8	casamassima	17.23	1	75.6	1	0.0	1	null	6	null	6	0.0	5	983.13	1	40.951419	16.919863
3262	2024-05-15 21:00:00	8	casamassima	17.0	1	77.0	1	0.0	1	null	6	null	6	0.0	5	983.67	1	40.951419	16.919863
3263	2024-05-15 22:00:00	8	casamassima	16.94	1	78.44	1	0.0	1	null	6	null	6	0.0	1	983.79	1	40.951419	16.919863
3264	2024-05-15 23:00:00	8	casamassima	16.88	1	78.77	1	0.0	1	null	6	null	6	0.0	1	983.56	1	40.951419	16.919863
3265	2024-05-16 00:00:00	8	casamassima	16.59	1	81.34	1	0.0	1	null	6	null	6	0.0	1	983.14	1	40.951419	16.919863
3266	2024-05-16 01:00:00	8	casamassima	16.28	1	83.1	1	0.0	1	null	6	null	6	0.0	1	982.85	1	40.951419	16.919863
3267	2024-05-16 02:00:00	8	casamassima	16.49	1	81.57	1	0.0	1	null	6	null	6	0.0	1	982.64	1	40.951419	16.919863
3268	2024-05-16 03:00:00	8	casamassima	16.6	1	81.16	1	0.0	1	null	6	null	6	0.0	1	982.33	1	40.951419	16.919863
3269	2024-05-16 04:00:00	8	casamassima	16.77	1	80.52	1	0.0	1	null	6	null	6	0.0	1	982.03	1	40.951419	16.919863
3270	2024-05-16 05:00:00	8	casamassima	16.88	1	80.58	1	0.0	1	null	6	null	6	0.0	5	981.95	1	40.951419	16.919863
3271	2024-05-16 06:00:00	8	casamassima	17.1	1	79.44	1	0.0	1	null	6	null	6	12.7	1	982.35	1	40.951419	16.919863
3272	2024-05-16 07:00:00	8	casamassima	17.33	1	79.03	1	0.0	1	null	6	null	6	57.73	1	981.88	1	40.951419	16.919863
3273	2024-05-16 08:00:00	8	casamassima	17.91	1	76.87	1	0.0	1	null	6	null	6	104.55	1	981.87	1	40.951419	16.919863
3274	2024-05-16 09:00:00	8	casamassima	18.61	1	75.02	1	0.0	1	null	6	null	6	222.6	1	981.18	1	40.951419	16.919863
3275	2024-05-16 10:00:00	8	casamassima	18.69	1	75.85	1	0.0	1	null	6	null	6	207.2	1	981.32	1	40.951419	16.919863
3276	2024-05-16 11:00:00	8	casamassima	18.85	1	74.41	1	0.0	1	null	6	null	6	232.36	1	981.15	1	40.951419	16.919863
3277	2024-05-16 12:00:00	8	casamassima	21.11	1	63.09	1	0.0	1	null	6	null	6	760.59	1	980.67	1	40.951419	16.919863
3278	2024-05-16 13:00:00	8	casamassima	22.4	1	58.27	1	0.0	1	null	6	null	6	842.94	1	979.58	1	40.951419	16.919863
3279	2024-05-16 14:00:00	8	casamassima	23.06	1	56.62	1	0.0	1	null	6	null	6	853.12	1	978.7	1	40.951419	16.919863
3280	2024-05-16 15:00:00	8	casamassima	22.26	1	60.59	1	0.0	1	null	6	null	6	761.98	1	978.26	1	40.951419	16.919863
3281	2024-05-16 16:00:00	8	casamassima	20.97	1	65.39	1	0.0	1	null	6	null	6	368.4	1	978.13	1	40.951419	16.919863
3282	2024-05-16 17:00:00	8	casamassima	19.78	1	70.13	1	0.0	1	null	6	null	6	188.45	1	978.13	1	40.951419	16.919863
3283	2024-05-16 18:00:00	8	casamassima	19.27	1	72.76	1	0.0	1	null	6	null	6	140.39	1	978.52	1	40.951419	16.919863
3284	2024-05-16 19:00:00	8	casamassima	18.67	1	76.33	1	0.0	1	null	6	null	6	56.17	1	979.06	1	40.951419	16.919863
3285	2024-05-16 20:00:00	8	casamassima	17.73	1	81.12	1	0.0	1	null	6	null	6	0.0	5	979.5	1	40.951419	16.919863
3286	2024-05-16 21:00:00	8	casamassima	17.38	1	83.24	1	0.0	1	null	6	null	6	0.0	1	980.25	1	40.951419	16.919863
3287	2024-05-16 22:00:00	8	casamassima	17.29	1	84.05	1	0.0	1	null	6	null	6	0.0	1	980.77	1	40.951419	16.919863
3288	2024-05-16 23:00:00	8	casamassima	17.3	1	84.23	1	0.0	1	null	6	null	6	0.0	1	981.25	1	40.951419	16.919863
3289	2024-05-17 00:00:00	8	casamassima	17.34	1	85.07	1	0.0	1	null	6	null	6	0.0	1	981.47	1	40.951419	16.919863
3290	2024-05-17 01:00:00	8	casamassima	17.23	1	86.1	1	0.0	1	null	6	null	6	0.0	5	981.88	1	40.951419	16.919863
3291	2024-05-17 02:00:00	8	casamassima	17.12	1	86.27	1	0.0	1	null	6	null	6	0.0	1	982.3	1	40.951419	16.919863
3292	2024-05-17 03:00:00	8	casamassima	16.97	1	85.99	1	0.0	1	null	6	null	6	0.0	1	982.22	1	40.951419	16.919863
3293	2024-05-17 04:00:00	8	casamassima	16.74	1	85.59	1	0.0	1	null	6	null	6	0.0	1	982.48	1	40.951419	16.919863
3294	2024-05-17 05:00:00	8	casamassima	16.14	1	86.03	1	0.0	1	null	6	null	6	0.0	5	983.48	1	40.951419	16.919863
3295	2024-05-17 06:00:00	8	casamassima	16.75	1	82.97	1	0.0	1	null	6	null	6	104.46	1	983.75	1	40.951419	16.919863
3296	2024-05-17 07:00:00	8	casamassima	20.79	1	59.33	1	0.0	1	null	6	null	6	284.03	1	983.7	1	40.951419	16.919863
3297	2024-05-17 08:00:00	8	casamassima	23.96	1	38.19	1	0.0	1	null	6	null	6	465.57	1	983.85	1	40.951419	16.919863
3298	2024-05-17 09:00:00	8	casamassima	24.36	1	38.03	1	0.0	1	null	6	null	6	657.71	1	984.18	1	40.951419	16.919863
3299	2024-05-17 10:00:00	8	casamassima	24.49	1	40.24	1	0.0	1	null	6	null	6	806.44	1	984.62	1	40.951419	16.919863
3300	2024-05-17 11:00:00	8	casamassima	25.0	1	35.75	1	0.0	1	null	6	null	6	881.0	1	984.94	1	40.951419	16.919863
3301	2024-05-17 12:00:00	8	casamassima	24.71	1	34.89	1	0.0	1	null	6	null	6	950.88	1	985.02	1	40.951419	16.919863
3302	2024-05-17 13:00:00	8	casamassima	25.11	1	35.75	1	0.0	1	null	6	null	6	952.85	1	985.06	1	40.951419	16.919863
3303	2024-05-17 14:00:00	8	casamassima	25.06	1	37.76	1	0.0	1	null	6	null	6	912.2	1	985.01	1	40.951419	16.919863
3304	2024-05-17 15:00:00	8	casamassima	24.93	1	38.67	1	0.0	1	null	6	null	6	816.25	1	985.1	1	40.951419	16.919863
3305	2024-05-17 16:00:00	8	casamassima	24.79	1	36.77	1	0.0	1	null	6	null	6	610.82	1	985.08	1	40.951419	16.919863
3306	2024-05-17 17:00:00	8	casamassima	24.04	1	35.76	1	0.0	1	null	6	null	6	383.31	1	985.06	1	40.951419	16.919863
3307	2024-05-17 18:00:00	8	casamassima	23.65	1	36.22	1	0.0	1	null	6	null	6	56.05	1	985.11	1	40.951419	16.919863
3308	2024-05-17 19:00:00	8	casamassima	22.53	1	41.33	1	0.0	1	null	6	null	6	21.56	1	985.8	1	40.951419	16.919863
3309	2024-05-17 20:00:00	8	casamassima	21.14	1	43.77	1	0.0	1	null	6	null	6	0.0	5	986.23	1	40.951419	16.919863
3310	2024-05-17 21:00:00	8	casamassima	19.42	1	50.68	1	0.0	1	null	6	null	6	0.0	1	986.83	1	40.951419	16.919863
3311	2024-05-17 22:00:00	8	casamassima	17.87	1	63.84	1	0.0	1	null	6	null	6	0.0	1	986.93	1	40.951419	16.919863
3312	2024-05-17 23:00:00	8	casamassima	16.92	1	69.04	1	0.0	1	null	6	null	6	0.0	1	986.91	1	40.951419	16.919863
3313	2024-05-18 00:00:00	8	casamassima	16.31	1	70.98	1	0.0	1	null	6	null	6	0.0	1	986.69	1	40.951419	16.919863
3314	2024-05-18 01:00:00	8	casamassima	15.96	1	73.17	1	0.0	1	null	6	null	6	0.0	1	986.23	1	40.951419	16.919863
3315	2024-05-18 02:00:00	8	casamassima	15.33	1	81.47	1	0.0	1	null	6	null	6	0.0	1	985.95	1	40.951419	16.919863
3316	2024-05-18 03:00:00	8	casamassima	14.72	1	87.42	1	0.0	1	null	6	null	6	0.0	1	986.02	1	40.951419	16.919863
3317	2024-05-18 04:00:00	8	casamassima	15.43	1	89.73	1	0.0	1	null	6	null	6	0.0	1	985.91	1	40.951419	16.919863
3318	2024-05-18 05:00:00	8	casamassima	15.52	1	89.61	1	0.0	1	null	6	null	6	9.65	1	986.18	1	40.951419	16.919863
3319	2024-05-18 06:00:00	8	casamassima	15.88	1	88.24	1	0.0	1	null	6	null	6	75.08	1	986.37	1	40.951419	16.919863
3320	2024-05-18 07:00:00	8	casamassima	17.5	1	81.93	1	0.0	1	null	6	null	6	224.14	1	986.66	1	40.951419	16.919863
3321	2024-05-18 08:00:00	8	casamassima	20.14	1	71.4	1	0.0	1	null	6	null	6	416.55	1	986.59	1	40.951419	16.919863
3322	2024-05-18 09:00:00	8	casamassima	22.35	1	63.16	1	0.0	1	null	6	null	6	552.69	1	986.48	1	40.951419	16.919863
3323	2024-05-18 10:00:00	8	casamassima	24.16	1	55.84	1	0.0	1	null	6	null	6	666.75	1	986.43	1	40.951419	16.919863
3324	2024-05-18 11:00:00	8	casamassima	25.19	1	52.94	1	0.0	1	null	6	null	6	669.08	1	986.64	1	40.951419	16.919863
3325	2024-05-18 12:00:00	8	casamassima	22.89	1	62.53	1	0.0	1	null	6	null	6	679.75	1	986.59	1	40.951419	16.919863
3326	2024-05-18 13:00:00	8	casamassima	22.51	1	62.89	1	0.0	1	null	6	null	6	582.51	1	985.94	1	40.951419	16.919863
3327	2024-05-18 14:00:00	8	casamassima	23.6	1	59.02	1	0.0	1	null	6	null	6	698.7	1	985.3	1	40.951419	16.919863
3328	2024-05-18 15:00:00	8	casamassima	23.56	1	56.96	1	0.0	1	null	6	null	6	259.38	1	984.89	1	40.951419	16.919863
3329	2024-05-18 16:00:00	8	casamassima	18.87	1	74.77	1	6.4	1	null	6	null	6	12.97	1	986.87	1	40.951419	16.919863
3330	2024-05-18 17:00:00	8	casamassima	15.96	1	89.16	1	0.4	1	null	6	null	6	109.04	1	987.28	1	40.951419	16.919863
3331	2024-05-18 18:00:00	8	casamassima	16.32	1	89.33	1	2.4	1	null	6	null	6	19.46	1	987.53	1	40.951419	16.919863
3332	2024-05-18 19:00:00	8	casamassima	16.19	1	91.02	1	0.8	1	null	6	null	6	7.02	1	987.07	1	40.951419	16.919863
3333	2024-05-18 20:00:00	8	casamassima	16.07	1	90.66	1	0.4	1	null	6	null	6	0.0	5	986.69	1	40.951419	16.919863
3334	2024-05-18 21:00:00	8	casamassima	16.17	1	90.27	1	0.0	1	null	6	null	6	0.0	1	986.37	1	40.951419	16.919863
3335	2024-05-18 22:00:00	8	casamassima	16.13	1	90.11	1	0.2	1	null	6	null	6	0.0	1	986.27	1	40.951419	16.919863
3336	2024-05-18 23:00:00	8	casamassima	16.11	1	90.18	1	0.0	1	null	6	null	6	0.0	5	985.91	1	40.951419	16.919863
3337	2024-05-19 00:00:00	8	casamassima	15.65	1	90.58	1	0.0	1	null	6	null	6	0.0	1	985.94	1	40.951419	16.919863
3338	2024-05-19 01:00:00	8	casamassima	15.07	1	91.91	1	0.0	1	null	6	null	6	0.0	1	985.26	1	40.951419	16.919863
3339	2024-05-19 02:00:00	8	casamassima	15.16	1	92.48	1	0.0	1	null	6	null	6	0.0	1	984.86	1	40.951419	16.919863
3340	2024-05-19 03:00:00	8	casamassima	15.26	1	92.43	1	0.0	1	null	6	null	6	0.0	1	984.38	1	40.951419	16.919863
3341	2024-05-19 04:00:00	8	casamassima	14.73	1	92.42	1	0.0	1	null	6	null	6	0.0	1	984.07	1	40.951419	16.919863
3342	2024-05-19 05:00:00	8	casamassima	14.05	1	92.54	1	0.0	1	null	6	null	6	12.35	1	984.86	1	40.951419	16.919863
3343	2024-05-19 06:00:00	8	casamassima	14.77	1	92.37	1	0.0	1	null	6	null	6	74.61	1	985.15	1	40.951419	16.919863
3344	2024-05-19 07:00:00	8	casamassima	16.86	1	89.8	1	0.0	1	null	6	null	6	243.55	1	985.54	1	40.951419	16.919863
3345	2024-05-19 08:00:00	8	casamassima	18.79	1	79.39	1	0.0	1	null	6	null	6	423.83	1	985.86	1	40.951419	16.919863
3346	2024-05-19 09:00:00	8	casamassima	20.81	1	70.12	1	0.2	1	null	6	null	6	613.26	1	985.9	1	40.951419	16.919863
3347	2024-05-19 10:00:00	8	casamassima	21.08	1	69.33	1	0.0	1	null	6	null	6	584.4	1	985.78	1	40.951419	16.919863
3348	2024-05-19 11:00:00	8	casamassima	21.97	1	66.4	1	0.0	1	null	6	null	6	773.76	1	985.9	1	40.951419	16.919863
3349	2024-05-19 12:00:00	8	casamassima	22.35	1	64.09	1	0.0	1	null	6	null	6	839.45	1	985.1	1	40.951419	16.919863
3350	2024-05-19 13:00:00	8	casamassima	23.83	1	58.36	1	0.0	1	null	6	null	6	807.32	1	984.61	1	40.951419	16.919863
3351	2024-05-19 14:00:00	8	casamassima	24.61	1	56.63	1	0.0	1	null	6	null	6	656.2	1	984.15	1	40.951419	16.919863
3352	2024-05-19 15:00:00	8	casamassima	22.96	1	61.52	1	0.0	1	null	6	null	6	87.39	1	983.77	1	40.951419	16.919863
3353	2024-05-19 16:00:00	8	casamassima	21.43	1	69.8	1	0.2	1	null	6	null	6	40.26	1	983.97	1	40.951419	16.919863
3354	2024-05-19 17:00:00	8	casamassima	19.83	1	80.64	1	0.0	1	null	6	null	6	33.95	1	983.6	1	40.951419	16.919863
3355	2024-05-19 18:00:00	8	casamassima	19.31	1	82.95	1	0.8	1	null	6	null	6	19.32	1	983.72	1	40.951419	16.919863
3356	2024-05-19 19:00:00	8	casamassima	17.96	1	90.66	1	0.0	1	null	6	null	6	18.48	1	983.79	1	40.951419	16.919863
3357	2024-05-19 20:00:00	8	casamassima	17.2	1	91.6	1	0.0	1	null	6	null	6	0.0	5	983.88	1	40.951419	16.919863
3358	2024-05-19 21:00:00	8	casamassima	16.93	1	91.13	1	0.0	1	null	6	null	6	0.0	5	984.14	1	40.951419	16.919863
3359	2024-05-19 22:00:00	8	casamassima	16.88	1	90.97	1	0.0	1	null	6	null	6	0.0	5	984.38	1	40.951419	16.919863
3360	2024-05-19 23:00:00	8	casamassima	16.81	1	90.6	1	0.0	1	null	6	null	6	0.0	5	984.72	1	40.951419	16.919863
3361	2024-05-20 00:00:00	8	casamassima	16.61	1	90.75	1	0.0	1	null	6	null	6	0.0	5	984.53	1	40.951419	16.919863
3362	2024-05-20 01:00:00	8	casamassima	16.44	1	91.66	1	0.0	1	null	6	null	6	0.0	5	984.2	1	40.951419	16.919863
3363	2024-05-20 02:00:00	8	casamassima	16.12	1	92.54	1	0.0	1	null	6	null	6	0.0	5	983.88	1	40.951419	16.919863
3364	2024-05-20 03:00:00	8	casamassima	15.38	1	93.19	1	0.0	1	null	6	null	6	0.0	1	984.01	1	40.951419	16.919863
3365	2024-05-20 04:00:00	8	casamassima	15.18	1	93.69	1	0.0	1	null	6	null	6	0.0	1	984.21	1	40.951419	16.919863
3366	2024-05-20 05:00:00	8	casamassima	14.58	1	93.81	1	0.0	1	null	6	null	6	6.34	1	984.33	1	40.951419	16.919863
3367	2024-05-20 06:00:00	8	casamassima	14.88	1	94.24	1	0.0	1	null	6	null	6	53.42	1	984.52	1	40.951419	16.919863
3368	2024-05-20 07:00:00	8	casamassima	15.71	1	93.8	1	0.0	1	null	6	null	6	171.97	1	984.65	1	40.951419	16.919863
3369	2024-05-20 08:00:00	8	casamassima	18.06	1	89.16	1	0.0	1	null	6	null	6	389.53	1	984.8	1	40.951419	16.919863
3370	2024-05-20 09:00:00	8	casamassima	20.87	1	75.02	1	0.0	1	null	6	null	6	622.8	1	984.54	1	40.951419	16.919863
3371	2024-05-20 10:00:00	8	casamassima	21.53	1	72.26	1	0.2	1	null	6	null	6	740.21	1	984.33	1	40.951419	16.919863
3372	2024-05-20 11:00:00	8	casamassima	22.34	1	68.49	1	0.0	1	null	6	null	6	624.72	1	984.01	1	40.951419	16.919863
3373	2024-05-20 12:00:00	8	casamassima	23.07	1	65.05	1	0.0	1	null	6	null	6	811.64	1	983.6	1	40.951419	16.919863
3374	2024-05-20 13:00:00	8	casamassima	24.54	1	61.61	1	0.0	1	null	6	null	6	881.33	1	983.33	1	40.951419	16.919863
3375	2024-05-20 14:00:00	8	casamassima	24.88	1	60.41	1	0.0	1	null	6	null	6	453.6	1	983.16	1	40.951419	16.919863
3376	2024-05-20 15:00:00	8	casamassima	26.09	1	53.43	1	0.0	1	null	6	null	6	590.04	1	982.6	1	40.951419	16.919863
3377	2024-05-20 16:00:00	8	casamassima	27.28	1	43.58	1	0.0	1	null	6	null	6	565.19	1	982.08	1	40.951419	16.919863
3378	2024-05-20 17:00:00	8	casamassima	26.54	1	48.75	1	0.0	1	null	6	null	6	309.82	1	981.62	1	40.951419	16.919863
3379	2024-05-20 18:00:00	8	casamassima	25.4	1	53.44	1	0.0	1	null	6	null	6	94.7	1	981.53	1	40.951419	16.919863
3380	2024-05-20 19:00:00	8	casamassima	23.51	1	61.02	1	0.0	1	null	6	null	6	28.27	1	981.54	1	40.951419	16.919863
3381	2024-05-20 20:00:00	8	casamassima	20.89	1	70.68	1	0.0	1	null	6	null	6	0.0	5	981.7	1	40.951419	16.919863
3382	2024-05-20 21:00:00	8	casamassima	19.41	1	75.75	1	0.0	1	null	6	null	6	0.0	1	981.9	1	40.951419	16.919863
3383	2024-05-20 22:00:00	8	casamassima	19.02	1	73.57	1	0.0	1	null	6	null	6	0.0	1	981.62	1	40.951419	16.919863
3384	2024-05-20 23:00:00	8	casamassima	19.89	1	60.57	1	0.0	1	null	6	null	6	0.0	1	981.31	1	40.951419	16.919863
3385	2024-05-21 00:00:00	8	casamassima	18.91	1	63.71	1	0.0	1	null	6	null	6	0.0	1	980.8	1	40.951419	16.919863
3386	2024-05-21 01:00:00	8	casamassima	18.94	1	60.7	1	0.0	1	null	6	null	6	0.0	1	980.15	1	40.951419	16.919863
3387	2024-05-21 02:00:00	8	casamassima	19.2	1	60.52	1	0.0	1	null	6	null	6	0.0	1	979.84	1	40.951419	16.919863
3388	2024-05-21 03:00:00	8	casamassima	18.19	1	71.82	1	0.0	1	null	6	null	6	0.0	1	979.97	1	40.951419	16.919863
3389	2024-05-21 04:00:00	8	casamassima	17.53	1	81.09	1	0.0	1	null	6	null	6	0.0	1	979.5	1	40.951419	16.919863
3390	2024-05-21 05:00:00	8	casamassima	17.51	1	80.88	1	0.0	1	null	6	null	6	7.05	1	979.22	1	40.951419	16.919863
3391	2024-05-21 06:00:00	8	casamassima	18.33	1	77.46	1	0.0	1	null	6	null	6	89.03	1	979.51	1	40.951419	16.919863
3392	2024-05-21 07:00:00	8	casamassima	19.78	1	74.26	1	0.0	1	null	6	null	6	206.88	1	979.94	1	40.951419	16.919863
3393	2024-05-21 08:00:00	8	casamassima	21.99	1	65.75	1	0.0	1	null	6	null	6	401.09	1	980.31	1	40.951419	16.919863
3394	2024-05-21 09:00:00	8	casamassima	25.48	1	50.41	1	0.0	1	null	6	null	6	566.86	1	980.44	1	40.951419	16.919863
3395	2024-05-21 10:00:00	8	casamassima	27.61	1	42.76	1	0.0	1	null	6	null	6	713.29	1	980.5	1	40.951419	16.919863
3396	2024-05-21 11:00:00	8	casamassima	28.66	1	38.51	1	0.0	1	null	6	null	6	543.56	1	980.8	1	40.951419	16.919863
3397	2024-05-21 12:00:00	8	casamassima	28.85	1	35.39	1	0.0	1	null	6	null	6	817.42	1	981.12	1	40.951419	16.919863
3398	2024-05-21 13:00:00	8	casamassima	28.56	1	38.19	1	0.0	1	null	6	null	6	724.56	1	981.28	1	40.951419	16.919863
3399	2024-05-21 14:00:00	8	casamassima	27.08	1	42.15	1	0.0	1	null	6	null	6	342.53	1	981.62	1	40.951419	16.919863
3400	2024-05-21 15:00:00	8	casamassima	25.45	1	45.13	1	0.0	1	null	6	null	6	207.7	1	981.86	1	40.951419	16.919863
3401	2024-05-21 16:00:00	8	casamassima	25.42	1	41.54	1	0.0	1	null	6	null	6	148.61	1	982.06	1	40.951419	16.919863
3402	2024-05-21 17:00:00	8	casamassima	26.17	1	34.03	1	0.0	1	null	6	null	6	275.29	1	982.1	1	40.951419	16.919863
3403	2024-05-21 18:00:00	8	casamassima	25.42	1	35.98	1	0.0	1	null	6	null	6	105.75	1	982.31	1	40.951419	16.919863
3404	2024-05-21 19:00:00	8	casamassima	23.25	1	40.96	1	0.0	1	null	6	null	6	20.42	1	982.84	1	40.951419	16.919863
3405	2024-05-21 20:00:00	8	casamassima	20.95	1	48.01	1	0.0	1	null	6	null	6	0.0	5	983.49	1	40.951419	16.919863
3406	2024-05-21 21:00:00	8	casamassima	19.13	1	54.09	1	0.0	1	null	6	null	6	0.0	1	984.41	1	40.951419	16.919863
3407	2024-05-21 22:00:00	8	casamassima	17.91	1	56.64	1	0.0	1	null	6	null	6	0.0	1	985.06	1	40.951419	16.919863
3408	2024-05-21 23:00:00	8	casamassima	17.37	1	56.3	1	0.0	1	null	6	null	6	0.0	1	985.36	1	40.951419	16.919863
3409	2024-05-22 00:00:00	8	casamassima	16.72	1	59.33	1	0.0	1	null	6	null	6	0.0	1	985.35	1	40.951419	16.919863
3410	2024-05-22 01:00:00	8	casamassima	16.23	1	59.88	1	0.0	1	null	6	null	6	0.0	1	985.24	1	40.951419	16.919863
3411	2024-05-22 02:00:00	8	casamassima	15.55	1	60.17	1	0.0	1	null	6	null	6	0.0	1	985.09	1	40.951419	16.919863
3412	2024-05-22 03:00:00	8	casamassima	15.2	1	58.77	1	0.0	1	null	6	null	6	0.0	1	985.19	1	40.951419	16.919863
3413	2024-05-22 04:00:00	8	casamassima	14.76	1	57.63	1	0.0	1	null	6	null	6	0.0	1	985.23	1	40.951419	16.919863
3414	2024-05-22 05:00:00	8	casamassima	15.05	1	57.44	1	0.0	1	null	6	null	6	5.48	1	985.22	1	40.951419	16.919863
3415	2024-05-22 06:00:00	8	casamassima	18.0	1	50.39	1	0.0	1	null	6	null	6	135.35	1	985.44	1	40.951419	16.919863
3416	2024-05-22 07:00:00	8	casamassima	20.81	1	43.34	1	0.0	1	null	6	null	6	311.81	1	985.56	1	40.951419	16.919863
3417	2024-05-22 08:00:00	8	casamassima	21.98	1	39.17	1	0.0	1	null	6	null	6	500.97	1	985.81	1	40.951419	16.919863
3418	2024-05-22 09:00:00	8	casamassima	22.88	1	35.9	1	0.0	1	null	6	null	6	702.78	1	986.02	1	40.951419	16.919863
3419	2024-05-22 10:00:00	8	casamassima	23.83	1	31.89	1	0.0	1	null	6	null	6	836.54	1	986.15	1	40.951419	16.919863
3420	2024-05-22 11:00:00	8	casamassima	24.55	1	30.06	1	0.0	1	null	6	null	6	818.55	1	986.22	1	40.951419	16.919863
3421	2024-05-22 12:00:00	8	casamassima	23.93	1	31.12	1	0.0	1	null	6	null	6	666.85	1	986.11	1	40.951419	16.919863
3422	2024-05-22 13:00:00	8	casamassima	23.53	1	39.18	1	0.0	1	null	6	null	6	931.58	1	986.01	1	40.951419	16.919863
3423	2024-05-22 14:00:00	8	casamassima	23.44	1	41.18	1	0.0	1	null	6	null	6	950.9	1	985.95	1	40.951419	16.919863
3424	2024-05-22 15:00:00	8	casamassima	22.77	1	46.34	1	0.0	1	null	6	null	6	386.53	1	985.95	1	40.951419	16.919863
3425	2024-05-22 16:00:00	8	casamassima	22.47	1	43.72	1	0.0	1	null	6	null	6	342.13	1	985.85	1	40.951419	16.919863
3426	2024-05-22 17:00:00	8	casamassima	22.09	1	43.55	1	0.0	1	null	6	null	6	212.57	1	985.72	1	40.951419	16.919863
3427	2024-05-22 18:00:00	8	casamassima	21.38	1	46.95	1	0.0	1	null	6	null	6	77.31	1	986.0	1	40.951419	16.919863
3428	2024-05-22 19:00:00	8	casamassima	20.3	1	50.21	1	0.0	1	null	6	null	6	20.97	1	986.76	1	40.951419	16.919863
3429	2024-05-22 20:00:00	8	casamassima	18.34	1	67.46	1	0.0	1	null	6	null	6	0.0	5	987.27	1	40.951419	16.919863
3430	2024-05-22 21:00:00	8	casamassima	16.6	1	77.15	1	0.0	1	null	6	null	6	0.0	1	987.86	1	40.951419	16.919863
3431	2024-05-22 22:00:00	8	casamassima	15.83	1	79.06	1	0.0	1	null	6	null	6	0.0	1	988.45	1	40.951419	16.919863
3432	2024-05-22 23:00:00	8	casamassima	15.4	1	76.37	1	0.0	1	null	6	null	6	0.0	1	988.52	1	40.951419	16.919863
3433	2024-05-23 00:00:00	8	casamassima	15.49	1	66.02	1	0.0	1	null	6	null	6	0.0	1	988.67	1	40.951419	16.919863
3434	2024-05-23 01:00:00	8	casamassima	14.44	1	68.55	1	0.0	1	null	6	null	6	0.0	1	988.4	1	40.951419	16.919863
3435	2024-05-23 02:00:00	8	casamassima	14.21	1	66.26	1	0.0	1	null	6	null	6	0.0	1	988.16	1	40.951419	16.919863
3436	2024-05-23 03:00:00	8	casamassima	14.04	1	66.89	1	0.0	1	null	6	null	6	0.0	1	988.32	1	40.951419	16.919863
3437	2024-05-23 04:00:00	8	casamassima	13.4	1	69.24	1	0.0	1	null	6	null	6	0.0	1	988.65	1	40.951419	16.919863
3438	2024-05-23 05:00:00	8	casamassima	12.9	1	71.27	1	0.0	1	null	6	null	6	6.32	1	988.91	1	40.951419	16.919863
3439	2024-05-23 06:00:00	8	casamassima	15.83	1	62.44	1	0.0	1	null	6	null	6	130.41	1	989.14	1	40.951419	16.919863
3440	2024-05-23 07:00:00	8	casamassima	18.53	1	53.63	1	0.0	1	null	6	null	6	305.79	1	989.34	1	40.951419	16.919863
3441	2024-05-23 08:00:00	8	casamassima	20.15	1	49.18	1	0.0	1	null	6	null	6	494.08	1	989.61	1	40.951419	16.919863
3442	2024-05-23 09:00:00	8	casamassima	21.25	1	44.95	1	0.0	1	null	6	null	6	699.07	1	989.49	1	40.951419	16.919863
3443	2024-05-23 10:00:00	8	casamassima	22.27	1	40.32	1	0.0	1	null	6	null	6	869.38	1	989.51	1	40.951419	16.919863
3444	2024-05-23 11:00:00	8	casamassima	22.9	1	38.7	1	0.0	1	null	6	null	6	930.75	1	989.8	1	40.951419	16.919863
3445	2024-05-23 12:00:00	8	casamassima	23.16	1	39.0	1	0.0	1	null	6	null	6	965.67	1	989.8	1	40.951419	16.919863
3446	2024-05-23 13:00:00	8	casamassima	23.27	1	39.56	1	0.0	1	null	6	null	6	974.21	1	989.7	1	40.951419	16.919863
3447	2024-05-23 14:00:00	8	casamassima	23.35	1	38.62	1	0.0	1	null	6	null	6	961.3	1	989.55	1	40.951419	16.919863
3448	2024-05-23 15:00:00	8	casamassima	23.45	1	38.44	1	0.0	1	null	6	null	6	873.31	1	989.45	1	40.951419	16.919863
3449	2024-05-23 16:00:00	8	casamassima	23.32	1	38.42	1	0.0	1	null	6	null	6	654.8	1	989.13	1	40.951419	16.919863
3450	2024-05-23 17:00:00	8	casamassima	22.7	1	39.29	1	0.0	1	null	6	null	6	404.17	1	988.83	1	40.951419	16.919863
3451	2024-05-23 18:00:00	8	casamassima	22.35	1	39.17	1	0.0	1	null	6	null	6	56.49	1	988.64	1	40.951419	16.919863
3452	2024-05-23 19:00:00	8	casamassima	21.46	1	43.67	1	0.0	1	null	6	null	6	22.52	1	988.99	1	40.951419	16.919863
3453	2024-05-23 20:00:00	8	casamassima	20.49	1	47.36	1	0.0	1	null	6	null	6	0.0	5	989.45	1	40.951419	16.919863
3454	2024-05-23 21:00:00	8	casamassima	19.13	1	53.29	1	0.0	1	null	6	null	6	0.0	1	990.06	1	40.951419	16.919863
3455	2024-05-23 22:00:00	8	casamassima	18.27	1	55.76	1	0.0	1	null	6	null	6	0.0	1	990.49	1	40.951419	16.919863
3456	2024-05-23 23:00:00	8	casamassima	17.03	1	62.03	1	0.0	1	null	6	null	6	0.0	1	990.7	1	40.951419	16.919863
3457	2024-05-24 00:00:00	8	casamassima	15.62	1	69.32	1	0.0	1	null	6	null	6	0.0	1	990.54	1	40.951419	16.919863
3458	2024-05-24 01:00:00	8	casamassima	14.54	1	73.74	1	0.0	1	null	6	null	6	0.0	1	990.46	1	40.951419	16.919863
3459	2024-05-24 02:00:00	8	casamassima	13.74	1	76.15	1	0.0	1	null	6	null	6	0.0	1	990.29	1	40.951419	16.919863
3460	2024-05-24 03:00:00	8	casamassima	13.51	1	74.66	1	0.0	1	null	6	null	6	0.0	1	990.41	1	40.951419	16.919863
3461	2024-05-24 04:00:00	8	casamassima	12.93	1	75.81	1	0.0	1	null	6	null	6	0.0	1	990.32	1	40.951419	16.919863
3462	2024-05-24 05:00:00	8	casamassima	12.55	1	77.57	1	0.0	1	null	6	null	6	8.05	1	990.55	1	40.951419	16.919863
3463	2024-05-24 06:00:00	8	casamassima	16.29	1	64.55	1	0.0	1	null	6	null	6	126.06	1	990.94	1	40.951419	16.919863
3464	2024-05-24 07:00:00	8	casamassima	20.52	1	45.65	1	0.0	1	null	6	null	6	301.69	1	990.92	1	40.951419	16.919863
3465	2024-05-24 08:00:00	8	casamassima	20.9	1	43.75	1	0.0	1	null	6	null	6	489.36	1	991.2	1	40.951419	16.919863
3466	2024-05-24 09:00:00	8	casamassima	22.02	1	41.67	1	0.0	1	null	6	null	6	691.24	1	991.29	1	40.951419	16.919863
3467	2024-05-24 10:00:00	8	casamassima	23.12	1	42.34	1	0.0	1	null	6	null	6	853.69	1	991.35	1	40.951419	16.919863
3468	2024-05-24 11:00:00	8	casamassima	22.76	1	48.6	1	0.0	1	null	6	null	6	909.39	1	991.29	1	40.951419	16.919863
3469	2024-05-24 12:00:00	8	casamassima	22.85	1	48.1	1	0.0	1	null	6	null	6	904.16	1	991.16	1	40.951419	16.919863
3470	2024-05-24 13:00:00	8	casamassima	22.57	1	48.23	1	0.0	1	null	6	null	6	724.94	1	990.99	1	40.951419	16.919863
3471	2024-05-24 14:00:00	8	casamassima	23.06	1	43.2	1	0.0	1	null	6	null	6	748.09	1	990.82	1	40.951419	16.919863
3472	2024-05-24 15:00:00	8	casamassima	23.98	1	38.51	1	0.0	1	null	6	null	6	779.19	1	990.51	1	40.951419	16.919863
3473	2024-05-24 16:00:00	8	casamassima	23.59	1	37.98	1	0.0	1	null	6	null	6	498.59	1	990.37	1	40.951419	16.919863
3474	2024-05-24 17:00:00	8	casamassima	23.11	1	40.08	1	0.0	1	null	6	null	6	177.72	1	990.17	1	40.951419	16.919863
3475	2024-05-24 18:00:00	8	casamassima	22.4	1	42.47	1	0.0	1	null	6	null	6	95.93	1	990.14	1	40.951419	16.919863
3476	2024-05-24 19:00:00	8	casamassima	21.43	1	49.45	1	0.0	1	null	6	null	6	28.23	1	990.36	1	40.951419	16.919863
3477	2024-05-24 20:00:00	8	casamassima	19.69	1	64.17	1	0.0	1	null	6	null	6	0.0	5	990.51	1	40.951419	16.919863
3478	2024-05-24 21:00:00	8	casamassima	18.43	1	64.93	1	0.0	1	null	6	null	6	0.0	1	990.98	1	40.951419	16.919863
3479	2024-05-24 22:00:00	8	casamassima	17.31	1	68.87	1	0.0	1	null	6	null	6	0.0	1	990.93	1	40.951419	16.919863
3480	2024-05-24 23:00:00	8	casamassima	16.04	1	74.58	1	0.0	1	null	6	null	6	0.0	1	990.47	1	40.951419	16.919863
3481	2024-05-25 00:00:00	8	casamassima	16.17	1	68.8	1	0.0	1	null	6	null	6	0.0	1	990.53	1	40.951419	16.919863
3482	2024-05-25 01:00:00	8	casamassima	15.41	1	73.69	1	0.0	1	null	6	null	6	0.0	1	990.33	1	40.951419	16.919863
3483	2024-05-25 02:00:00	8	casamassima	13.86	1	72.28	1	0.0	1	null	6	null	6	0.0	1	990.23	1	40.951419	16.919863
3484	2024-05-25 03:00:00	8	casamassima	13.04	1	70.62	1	0.0	1	null	6	null	6	0.0	1	990.04	1	40.951419	16.919863
3485	2024-05-25 04:00:00	8	casamassima	12.54	1	72.78	1	0.0	1	null	6	null	6	0.0	1	989.67	1	40.951419	16.919863
3486	2024-05-25 05:00:00	8	casamassima	12.36	1	76.3	1	0.0	1	null	6	null	6	10.96	1	989.36	1	40.951419	16.919863
3487	2024-05-25 06:00:00	8	casamassima	15.71	1	69.74	1	0.0	1	null	6	null	6	124.43	1	989.13	1	40.951419	16.919863
3488	2024-05-25 07:00:00	8	casamassima	19.89	1	53.93	1	0.0	1	null	6	null	6	282.03	1	988.8	1	40.951419	16.919863
3489	2024-05-25 08:00:00	8	casamassima	22.98	1	38.41	1	0.0	1	null	6	null	6	482.65	1	988.6	1	40.951419	16.919863
3490	2024-05-25 09:00:00	8	casamassima	22.45	1	39.87	1	0.0	1	null	6	null	6	395.52	1	988.29	1	40.951419	16.919863
3491	2024-05-25 10:00:00	8	casamassima	21.81	1	43.76	1	0.0	1	null	6	null	6	319.77	1	988.25	1	40.951419	16.919863
3492	2024-05-25 11:00:00	8	casamassima	20.9	1	56.89	1	0.0	1	null	6	null	6	281.3	1	988.25	1	40.951419	16.919863
3493	2024-05-25 12:00:00	8	casamassima	21.27	1	52.13	1	0.0	1	null	6	null	6	409.24	1	988.0	1	40.951419	16.919863
3494	2024-05-25 13:00:00	8	casamassima	21.77	1	48.0	1	0.0	1	null	6	null	6	309.28	1	987.77	1	40.951419	16.919863
3495	2024-05-25 14:00:00	8	casamassima	20.42	1	49.47	1	0.0	1	null	6	null	6	197.04	1	987.83	1	40.951419	16.919863
3496	2024-05-25 15:00:00	8	casamassima	19.34	1	56.24	1	0.0	1	null	6	null	6	116.18	1	988.06	1	40.951419	16.919863
3497	2024-05-25 16:00:00	8	casamassima	17.78	1	70.2	1	0.2	1	null	6	null	6	94.95	1	988.11	1	40.951419	16.919863
3498	2024-05-25 17:00:00	8	casamassima	17.28	1	75.77	1	0.0	1	null	6	null	6	90.59	1	987.65	1	40.951419	16.919863
3499	2024-05-25 18:00:00	8	casamassima	17.12	1	72.64	1	0.0	1	null	6	null	6	49.83	1	987.14	1	40.951419	16.919863
3500	2024-05-25 19:00:00	8	casamassima	16.42	1	79.49	1	1.4	1	null	6	null	6	5.8	1	987.7	1	40.951419	16.919863
3501	2024-05-25 20:00:00	8	casamassima	14.97	1	86.68	1	1.2	1	null	6	null	6	0.0	1	987.82	1	40.951419	16.919863
3502	2024-05-25 21:00:00	8	casamassima	13.88	1	85.63	1	0.2	1	null	6	null	6	0.0	1	988.04	1	40.951419	16.919863
3503	2024-05-25 22:00:00	8	casamassima	14.09	1	77.01	1	0.0	1	null	6	null	6	0.0	5	988.58	1	40.951419	16.919863
3504	2024-05-25 23:00:00	8	casamassima	13.65	1	80.7	1	0.0	1	null	6	null	6	0.0	1	988.54	1	40.951419	16.919863
3505	2024-05-26 00:00:00	8	casamassima	13.58	1	80.27	1	0.0	1	null	6	null	6	0.0	1	988.51	1	40.951419	16.919863
3506	2024-05-26 01:00:00	8	casamassima	13.42	1	78.73	1	0.0	1	null	6	null	6	0.0	1	988.18	1	40.951419	16.919863
3507	2024-05-26 02:00:00	8	casamassima	13.58	1	78.59	1	0.0	1	null	6	null	6	0.0	1	987.92	1	40.951419	16.919863
3508	2024-05-26 03:00:00	8	casamassima	13.61	1	77.92	1	0.0	1	null	6	null	6	0.0	1	987.91	1	40.951419	16.919863
3509	2024-05-26 04:00:00	8	casamassima	13.67	1	77.32	1	0.0	1	null	6	null	6	0.0	1	987.71	1	40.951419	16.919863
3510	2024-05-26 05:00:00	8	casamassima	13.82	1	76.37	1	0.0	1	null	6	null	6	0.0	5	987.7	1	40.951419	16.919863
3511	2024-05-26 06:00:00	8	casamassima	14.63	1	75.85	1	0.0	1	null	6	null	6	55.2	1	987.81	1	40.951419	16.919863
3512	2024-05-26 07:00:00	8	casamassima	17.31	1	73.53	1	0.0	1	null	6	null	6	300.75	1	988.12	1	40.951419	16.919863
3513	2024-05-26 08:00:00	8	casamassima	17.76	1	71.89	1	0.0	1	null	6	null	6	244.49	1	988.43	1	40.951419	16.919863
3514	2024-05-26 09:00:00	8	casamassima	15.26	1	76.55	1	0.0	1	null	6	null	6	80.83	1	989.13	1	40.951419	16.919863
3515	2024-05-26 10:00:00	8	casamassima	17.16	1	67.86	1	0.0	1	null	6	null	6	466.87	1	989.07	1	40.951419	16.919863
3516	2024-05-26 11:00:00	8	casamassima	17.69	1	63.9	1	0.0	1	null	6	null	6	364.45	1	989.39	1	40.951419	16.919863
3517	2024-05-26 12:00:00	8	casamassima	19.6	1	54.69	1	0.0	1	null	6	null	6	751.21	1	989.36	1	40.951419	16.919863
3518	2024-05-26 13:00:00	8	casamassima	21.06	1	45.06	1	0.0	1	null	6	null	6	732.8	1	989.2	1	40.951419	16.919863
3519	2024-05-26 14:00:00	8	casamassima	21.02	1	47.16	1	0.0	1	null	6	null	6	922.32	1	989.12	1	40.951419	16.919863
3520	2024-05-26 15:00:00	8	casamassima	20.9	1	51.47	1	0.0	1	null	6	null	6	873.47	1	989.07	1	40.951419	16.919863
3521	2024-05-26 16:00:00	8	casamassima	20.61	1	54.29	1	0.0	1	null	6	null	6	677.73	1	989.21	1	40.951419	16.919863
3522	2024-05-26 17:00:00	8	casamassima	19.51	1	57.48	1	0.0	1	null	6	null	6	442.09	1	989.07	1	40.951419	16.919863
3523	2024-05-26 18:00:00	8	casamassima	18.73	1	60.92	1	0.0	1	null	6	null	6	45.45	1	989.1	1	40.951419	16.919863
3524	2024-05-26 19:00:00	8	casamassima	17.94	1	68.74	1	0.0	1	null	6	null	6	23.24	1	989.59	1	40.951419	16.919863
3525	2024-05-26 20:00:00	8	casamassima	16.97	1	75.53	1	0.0	1	null	6	null	6	0.0	5	990.06	1	40.951419	16.919863
3526	2024-05-26 21:00:00	8	casamassima	16.45	1	77.62	1	0.0	1	null	6	null	6	0.0	1	990.75	1	40.951419	16.919863
3527	2024-05-26 22:00:00	8	casamassima	15.29	1	81.62	1	0.0	1	null	6	null	6	0.0	1	990.96	1	40.951419	16.919863
3528	2024-05-26 23:00:00	8	casamassima	14.11	1	85.14	1	0.0	1	null	6	null	6	0.0	1	990.73	1	40.951419	16.919863
3529	2024-05-27 00:00:00	8	casamassima	13.46	1	88.07	1	0.0	1	null	6	null	6	0.0	1	990.91	1	40.951419	16.919863
3530	2024-05-27 01:00:00	8	casamassima	13.04	1	89.83	1	0.0	1	null	6	null	6	0.0	1	990.68	1	40.951419	16.919863
3531	2024-05-27 02:00:00	8	casamassima	12.77	1	90.47	1	0.0	1	null	6	null	6	0.0	1	990.48	1	40.951419	16.919863
3532	2024-05-27 03:00:00	8	casamassima	12.2	1	90.82	1	0.0	1	null	6	null	6	0.0	1	990.4	1	40.951419	16.919863
3533	2024-05-27 04:00:00	8	casamassima	11.84	1	91.09	1	0.0	1	null	6	null	6	0.0	1	990.09	1	40.951419	16.919863
3534	2024-05-27 05:00:00	8	casamassima	12.05	1	91.55	1	0.0	1	null	6	null	6	7.78	1	990.3	1	40.951419	16.919863
3535	2024-05-27 06:00:00	8	casamassima	14.29	1	88.17	1	0.0	1	null	6	null	6	124.72	1	990.53	1	40.951419	16.919863
3536	2024-05-27 07:00:00	8	casamassima	17.38	1	77.04	1	0.0	1	null	6	null	6	298.35	1	990.69	1	40.951419	16.919863
3537	2024-05-27 08:00:00	8	casamassima	18.91	1	67.9	1	0.0	1	null	6	null	6	406.18	1	990.93	1	40.951419	16.919863
3538	2024-05-27 09:00:00	8	casamassima	18.99	1	62.64	1	0.0	1	null	6	null	6	335.23	1	990.89	1	40.951419	16.919863
3539	2024-05-27 10:00:00	8	casamassima	20.59	1	56.78	1	0.0	1	null	6	null	6	793.59	1	990.82	1	40.951419	16.919863
3540	2024-05-27 11:00:00	8	casamassima	20.35	1	54.51	1	0.0	1	null	6	null	6	322.49	1	990.91	1	40.951419	16.919863
3541	2024-05-27 12:00:00	8	casamassima	21.41	1	51.56	1	0.0	1	null	6	null	6	909.43	1	990.69	1	40.951419	16.919863
3542	2024-05-27 13:00:00	8	casamassima	21.41	1	51.57	1	0.0	1	null	6	null	6	903.69	1	990.41	1	40.951419	16.919863
3543	2024-05-27 14:00:00	8	casamassima	21.39	1	50.38	1	0.0	1	null	6	null	6	666.67	1	990.19	1	40.951419	16.919863
3544	2024-05-27 15:00:00	8	casamassima	21.3	1	50.71	1	0.0	1	null	6	null	6	672.12	1	989.82	1	40.951419	16.919863
3545	2024-05-27 16:00:00	8	casamassima	21.54	1	49.56	1	0.0	1	null	6	null	6	509.9	1	989.39	1	40.951419	16.919863
3546	2024-05-27 17:00:00	8	casamassima	21.38	1	49.22	1	0.0	1	null	6	null	6	431.7	1	989.15	1	40.951419	16.919863
3547	2024-05-27 18:00:00	8	casamassima	20.92	1	50.42	1	0.0	1	null	6	null	6	54.2	1	989.0	1	40.951419	16.919863
3548	2024-05-27 19:00:00	8	casamassima	19.67	1	57.08	1	0.0	1	null	6	null	6	24.64	1	989.23	1	40.951419	16.919863
3549	2024-05-27 20:00:00	8	casamassima	18.09	1	69.36	1	0.0	1	null	6	null	6	0.0	5	989.55	1	40.951419	16.919863
3550	2024-05-27 21:00:00	8	casamassima	17.55	1	72.54	1	0.0	1	null	6	null	6	0.0	1	989.82	1	40.951419	16.919863
3551	2024-05-27 22:00:00	8	casamassima	16.94	1	75.54	1	0.0	1	null	6	null	6	0.0	1	989.91	1	40.951419	16.919863
3552	2024-05-27 23:00:00	8	casamassima	15.88	1	79.11	1	0.0	1	null	6	null	6	0.0	1	989.54	1	40.951419	16.919863
3553	2024-05-28 00:00:00	8	casamassima	14.68	1	82.09	1	0.0	1	null	6	null	6	0.0	1	989.35	1	40.951419	16.919863
3554	2024-05-28 01:00:00	8	casamassima	13.87	1	84.69	1	0.0	1	null	6	null	6	0.0	1	988.98	1	40.951419	16.919863
3555	2024-05-28 02:00:00	8	casamassima	13.58	1	85.76	1	0.0	1	null	6	null	6	0.0	1	988.55	1	40.951419	16.919863
3556	2024-05-28 03:00:00	8	casamassima	12.99	1	85.69	1	0.0	1	null	6	null	6	0.0	1	988.1	1	40.951419	16.919863
3557	2024-05-28 04:00:00	8	casamassima	12.82	1	82.64	1	0.0	1	null	6	null	6	0.0	1	987.83	1	40.951419	16.919863
3558	2024-05-28 05:00:00	8	casamassima	12.88	1	81.85	1	0.0	1	null	6	null	6	9.88	1	987.78	1	40.951419	16.919863
3559	2024-05-28 06:00:00	8	casamassima	15.45	1	74.41	1	0.0	1	null	6	null	6	144.71	1	987.91	1	40.951419	16.919863
3560	2024-05-28 07:00:00	8	casamassima	19.14	1	63.37	1	0.0	1	null	6	null	6	229.32	1	987.92	1	40.951419	16.919863
3561	2024-05-28 08:00:00	8	casamassima	20.32	1	59.43	1	0.0	1	null	6	null	6	417.28	1	988.04	1	40.951419	16.919863
3562	2024-05-28 09:00:00	8	casamassima	22.3	1	52.53	1	0.0	1	null	6	null	6	568.16	1	987.85	1	40.951419	16.919863
3563	2024-05-28 10:00:00	8	casamassima	22.63	1	49.69	1	0.0	1	null	6	null	6	648.2	1	987.58	1	40.951419	16.919863
3564	2024-05-28 11:00:00	8	casamassima	23.23	1	48.93	1	0.0	1	null	6	null	6	667.24	1	987.37	1	40.951419	16.919863
3565	2024-05-28 12:00:00	8	casamassima	23.33	1	50.94	1	0.0	1	null	6	null	6	727.9	1	986.82	1	40.951419	16.919863
3566	2024-05-28 13:00:00	8	casamassima	23.2	1	51.96	1	0.0	1	null	6	null	6	711.07	1	986.43	1	40.951419	16.919863
3567	2024-05-28 14:00:00	8	casamassima	23.23	1	50.86	1	0.0	1	null	6	null	6	518.13	1	986.1	1	40.951419	16.919863
3568	2024-05-28 15:00:00	8	casamassima	21.97	1	55.01	1	0.0	1	null	6	null	6	502.86	1	986.05	1	40.951419	16.919863
3569	2024-05-28 16:00:00	8	casamassima	22.25	1	52.8	1	0.0	1	null	6	null	6	386.84	1	986.15	1	40.951419	16.919863
3570	2024-05-28 17:00:00	8	casamassima	21.18	1	52.14	1	0.0	1	null	6	null	6	360.34	1	986.44	1	40.951419	16.919863
3571	2024-05-28 18:00:00	8	casamassima	20.07	1	54.87	1	0.0	1	null	6	null	6	55.55	1	986.04	1	40.951419	16.919863
3572	2024-05-28 19:00:00	8	casamassima	19.85	1	58.32	1	0.0	1	null	6	null	6	31.02	1	986.3	1	40.951419	16.919863
3573	2024-05-28 20:00:00	8	casamassima	18.43	1	63.85	1	0.0	1	null	6	null	6	0.0	5	986.34	1	40.951419	16.919863
3574	2024-05-28 21:00:00	8	casamassima	16.88	1	70.8	1	0.0	1	null	6	null	6	0.0	1	986.66	1	40.951419	16.919863
3575	2024-05-28 22:00:00	8	casamassima	15.56	1	77.61	1	0.0	1	null	6	null	6	0.0	1	987.12	1	40.951419	16.919863
3576	2024-05-28 23:00:00	8	casamassima	15.39	1	85.91	1	0.0	1	null	6	null	6	0.0	1	987.32	1	40.951419	16.919863
3577	2024-05-29 00:00:00	8	casamassima	14.83	1	88.29	1	0.0	1	null	6	null	6	0.0	1	987.57	1	40.951419	16.919863
3578	2024-05-29 01:00:00	8	casamassima	14.92	1	89.6	1	0.0	1	null	6	null	6	0.0	1	987.43	1	40.951419	16.919863
3579	2024-05-29 02:00:00	8	casamassima	14.64	1	90.45	1	0.0	1	null	6	null	6	0.0	1	987.14	1	40.951419	16.919863
3580	2024-05-29 03:00:00	8	casamassima	14.77	1	90.97	1	0.0	1	null	6	null	6	0.0	1	986.95	1	40.951419	16.919863
3581	2024-05-29 04:00:00	8	casamassima	14.86	1	91.33	1	0.0	1	null	6	null	6	0.0	1	986.79	1	40.951419	16.919863
3582	2024-05-29 05:00:00	8	casamassima	15.11	1	91.36	1	0.0	1	null	6	null	6	7.66	1	986.71	1	40.951419	16.919863
3583	2024-05-29 06:00:00	8	casamassima	15.81	1	90.7	1	0.0	1	null	6	null	6	65.81	1	986.8	1	40.951419	16.919863
3584	2024-05-29 07:00:00	8	casamassima	17.77	1	84.59	1	0.0	1	null	6	null	6	228.97	1	986.83	1	40.951419	16.919863
3585	2024-05-29 08:00:00	8	casamassima	19.05	1	71.95	1	0.0	1	null	6	null	6	332.82	1	987.18	1	40.951419	16.919863
3586	2024-05-29 09:00:00	8	casamassima	19.95	1	64.42	1	0.0	1	null	6	null	6	323.37	1	987.18	1	40.951419	16.919863
3587	2024-05-29 10:00:00	8	casamassima	20.96	1	61.27	1	0.0	1	null	6	null	6	628.23	1	987.0	1	40.951419	16.919863
3588	2024-05-29 11:00:00	8	casamassima	21.33	1	58.63	1	0.0	1	null	6	null	6	700.24	1	986.94	1	40.951419	16.919863
3589	2024-05-29 12:00:00	8	casamassima	22.6	1	53.1	1	0.0	1	null	6	null	6	966.82	1	986.42	1	40.951419	16.919863
3590	2024-05-29 13:00:00	8	casamassima	23.01	1	52.41	1	0.0	1	null	6	null	6	908.8	1	985.73	1	40.951419	16.919863
3591	2024-05-29 14:00:00	8	casamassima	22.84	1	53.43	1	0.0	1	null	6	null	6	924.35	1	985.3	1	40.951419	16.919863
3592	2024-05-29 15:00:00	8	casamassima	22.84	1	54.51	1	0.0	1	null	6	null	6	859.04	1	984.9	1	40.951419	16.919863
3593	2024-05-29 16:00:00	8	casamassima	22.5	1	53.08	1	0.0	1	null	6	null	6	628.91	1	984.67	1	40.951419	16.919863
3594	2024-05-29 17:00:00	8	casamassima	22.29	1	53.3	1	0.0	1	null	6	null	6	423.36	1	984.44	1	40.951419	16.919863
3595	2024-05-29 18:00:00	8	casamassima	21.68	1	55.07	1	0.0	1	null	6	null	6	54.35	1	984.7	1	40.951419	16.919863
3596	2024-05-29 19:00:00	8	casamassima	20.86	1	57.39	1	0.0	1	null	6	null	6	23.76	1	984.82	1	40.951419	16.919863
3597	2024-05-29 20:00:00	8	casamassima	19.33	1	62.02	1	0.0	1	null	6	null	6	0.0	5	984.82	1	40.951419	16.919863
3598	2024-05-29 21:00:00	8	casamassima	18.34	1	68.31	1	0.0	1	null	6	null	6	0.0	1	985.3	1	40.951419	16.919863
3599	2024-05-29 22:00:00	8	casamassima	17.36	1	73.58	1	0.0	1	null	6	null	6	0.0	1	985.46	1	40.951419	16.919863
3600	2024-05-29 23:00:00	8	casamassima	15.92	1	74.04	1	0.0	1	null	6	null	6	0.0	1	985.34	1	40.951419	16.919863
3601	2024-05-30 00:00:00	8	casamassima	15.0	1	72.35	1	0.0	1	null	6	null	6	0.0	1	985.03	1	40.951419	16.919863
3602	2024-05-30 01:00:00	8	casamassima	14.42	1	73.7	1	0.0	1	null	6	null	6	0.0	1	984.5	1	40.951419	16.919863
3603	2024-05-30 02:00:00	8	casamassima	14.06	1	75.37	1	0.0	1	null	6	null	6	0.0	1	983.97	1	40.951419	16.919863
3604	2024-05-30 03:00:00	8	casamassima	13.8	1	75.6	1	0.0	1	null	6	null	6	0.0	1	983.78	1	40.951419	16.919863
3605	2024-05-30 04:00:00	8	casamassima	13.32	1	76.35	1	0.0	1	null	6	null	6	0.0	1	983.68	1	40.951419	16.919863
3606	2024-05-30 05:00:00	8	casamassima	13.18	1	76.38	1	0.0	1	null	6	null	6	9.37	1	983.63	1	40.951419	16.919863
3607	2024-05-30 06:00:00	8	casamassima	16.53	1	66.73	1	0.0	1	null	6	null	6	140.81	1	983.41	1	40.951419	16.919863
3608	2024-05-30 07:00:00	8	casamassima	20.0	1	56.45	1	0.0	1	null	6	null	6	260.68	1	983.32	1	40.951419	16.919863
3609	2024-05-30 08:00:00	8	casamassima	21.93	1	50.11	1	0.0	1	null	6	null	6	492.94	1	983.37	1	40.951419	16.919863
3610	2024-05-30 09:00:00	8	casamassima	23.36	1	44.49	1	0.0	1	null	6	null	6	696.09	1	983.23	1	40.951419	16.919863
3611	2024-05-30 10:00:00	8	casamassima	25.11	1	40.81	1	0.0	1	null	6	null	6	852.52	1	982.91	1	40.951419	16.919863
3612	2024-05-30 11:00:00	8	casamassima	25.79	1	37.82	1	0.0	1	null	6	null	6	790.38	1	982.76	1	40.951419	16.919863
3613	2024-05-30 12:00:00	8	casamassima	26.25	1	36.75	1	0.0	1	null	6	null	6	814.63	1	982.38	1	40.951419	16.919863
3614	2024-05-30 13:00:00	8	casamassima	26.17	1	36.88	1	0.0	1	null	6	null	6	822.32	1	981.98	1	40.951419	16.919863
3615	2024-05-30 14:00:00	8	casamassima	26.27	1	37.4	1	0.0	1	null	6	null	6	843.06	1	981.54	1	40.951419	16.919863
3616	2024-05-30 15:00:00	8	casamassima	25.37	1	40.34	1	0.0	1	null	6	null	6	533.17	1	981.22	1	40.951419	16.919863
3617	2024-05-30 16:00:00	8	casamassima	23.09	1	47.36	1	0.0	1	null	6	null	6	101.07	1	981.28	1	40.951419	16.919863
3618	2024-05-30 17:00:00	8	casamassima	21.95	1	51.42	1	0.0	1	null	6	null	6	114.08	1	981.33	1	40.951419	16.919863
3619	2024-05-30 18:00:00	8	casamassima	21.48	1	53.48	1	0.0	1	null	6	null	6	86.89	1	981.27	1	40.951419	16.919863
3620	2024-05-30 19:00:00	8	casamassima	20.87	1	57.89	1	0.0	1	null	6	null	6	35.5	1	981.36	1	40.951419	16.919863
3621	2024-05-30 20:00:00	8	casamassima	19.63	1	68.58	1	0.0	1	null	6	null	6	0.0	5	981.48	1	40.951419	16.919863
3622	2024-05-30 21:00:00	8	casamassima	18.95	1	73.08	1	0.0	1	null	6	null	6	0.0	1	982.03	1	40.951419	16.919863
3623	2024-05-30 22:00:00	8	casamassima	18.86	1	74.48	1	0.0	1	null	6	null	6	0.0	1	982.0	1	40.951419	16.919863
3624	2024-05-30 23:00:00	8	casamassima	18.64	1	77.79	1	0.0	1	null	6	null	6	0.0	1	981.87	1	40.951419	16.919863
3625	2024-05-31 00:00:00	8	casamassima	18.43	1	80.17	1	0.0	1	null	6	null	6	0.0	1	981.89	1	40.951419	16.919863
3626	2024-05-31 01:00:00	8	casamassima	18.15	1	82.04	1	0.0	1	null	6	null	6	0.0	1	981.54	1	40.951419	16.919863
3627	2024-05-31 02:00:00	8	casamassima	17.7	1	83.85	1	0.0	1	null	6	null	6	0.0	1	981.06	1	40.951419	16.919863
3628	2024-05-31 03:00:00	8	casamassima	17.89	1	78.42	1	0.0	1	null	6	null	6	0.0	1	980.94	1	40.951419	16.919863
3629	2024-05-31 04:00:00	8	casamassima	18.02	1	74.16	1	0.0	1	null	6	null	6	0.0	1	981.07	1	40.951419	16.919863
3630	2024-05-31 05:00:00	8	casamassima	17.98	1	67.77	1	0.0	1	null	6	null	6	6.63	1	981.27	1	40.951419	16.919863
3631	2024-05-31 06:00:00	8	casamassima	18.74	1	62.85	1	0.0	1	null	6	null	6	91.19	1	981.45	1	40.951419	16.919863
3632	2024-05-31 07:00:00	8	casamassima	20.84	1	59.08	1	0.0	1	null	6	null	6	234.14	1	981.33	1	40.951419	16.919863
3633	2024-05-31 08:00:00	8	casamassima	21.87	1	53.37	1	0.0	1	null	6	null	6	213.8	1	981.62	1	40.951419	16.919863
3634	2024-05-31 09:00:00	8	casamassima	23.54	1	48.75	1	0.0	1	null	6	null	6	611.72	1	981.73	1	40.951419	16.919863
3635	2024-05-31 10:00:00	8	casamassima	25.68	1	42.38	1	0.0	1	null	6	null	6	571.14	1	981.92	1	40.951419	16.919863
3636	2024-05-31 11:00:00	8	casamassima	24.04	1	43.86	1	0.0	1	null	6	null	6	268.29	1	982.38	1	40.951419	16.919863
3637	2024-05-31 12:00:00	8	casamassima	23.43	1	47.81	1	0.0	1	null	6	null	6	273.06	1	982.45	1	40.951419	16.919863
3638	2024-05-31 13:00:00	8	casamassima	24.24	1	44.36	1	0.0	1	null	6	null	6	474.88	1	982.48	1	40.951419	16.919863
3639	2024-05-31 14:00:00	8	casamassima	25.09	1	40.83	1	0.0	1	null	6	null	6	526.98	1	982.48	1	40.951419	16.919863
3640	2024-05-31 15:00:00	8	casamassima	23.96	1	47.2	1	0.0	1	null	6	null	6	245.79	1	982.56	1	40.951419	16.919863
3641	2024-05-31 16:00:00	8	casamassima	23.01	1	50.76	1	0.0	1	null	6	null	6	117.23	1	982.7	1	40.951419	16.919863
3642	2024-05-31 17:00:00	8	casamassima	22.15	1	59.59	1	0.0	1	null	6	null	6	72.9	1	982.74	1	40.951419	16.919863
3643	2024-05-31 18:00:00	8	casamassima	21.21	1	67.57	1	0.0	1	null	6	null	6	64.54	1	982.93	1	40.951419	16.919863
3644	2024-05-31 19:00:00	8	casamassima	20.32	1	73.11	1	0.0	1	null	6	null	6	36.58	1	983.31	1	40.951419	16.919863
3645	2024-05-31 20:00:00	8	casamassima	19.65	1	77.36	1	0.0	1	null	6	null	6	0.0	5	983.6	1	40.951419	16.919863
3646	2024-05-31 21:00:00	8	casamassima	19.33	1	79.05	1	0.0	1	null	6	null	6	0.0	1	984.07	1	40.951419	16.919863
3647	2024-05-31 22:00:00	8	casamassima	19.11	1	80.14	1	0.0	1	null	6	null	6	0.0	1	984.35	1	40.951419	16.919863
3648	2024-05-31 23:00:00	8	casamassima	18.91	1	80.69	1	0.0	1	null	6	null	6	0.0	1	984.27	1	40.951419	"16.919863	"
